<?xml version="1.0" encoding="UTF-8" standalone="no" ?>
<gpx xmlns="http://www.topografix.com/GPX/1/1" xmlns:xsi="http://www.w3.org/2001/XMLSchema-instance" xsi:schemaLocation="http://www.topografix.com/GPX/1/1 http://www.topografix.com/GPX/1/1/gpx.xsd" version="1.1" creator="VisuGPX - https://www.visugpx.com">
  <metadata>
    <name>Choisey - Damparis - Tavaux - Choisey</name>
  </metadata>
  <trk>
    <name><![CDATA[Choisey - Damparis - Tavaux - Choisey_1]]></name>
    <trkseg>
      <trkpt lat="47.06192" lon="5.45679">
        <ele>207</ele>
        <time>2020-02-15T13:54:19Z</time>
      </trkpt>
      <trkpt lat="47.06192" lon="5.45679">
        <ele>230.106</ele>
        <time>2020-02-15T13:54:20Z</time>
      </trkpt>
      <trkpt lat="47.06183" lon="5.45684">
        <ele>236.876</ele>
        <time>2020-02-15T13:54:29Z</time>
      </trkpt>
      <trkpt lat="47.06179" lon="5.45689">
        <ele>242.632</ele>
        <time>2020-02-15T13:54:33Z</time>
      </trkpt>
      <trkpt lat="47.06167" lon="5.45685">
        <ele>237.327</ele>
        <time>2020-02-15T13:54:43Z</time>
      </trkpt>
      <trkpt lat="47.06163" lon="5.45679">
        <ele>237.774</ele>
        <time>2020-02-15T13:54:45Z</time>
      </trkpt>
      <trkpt lat="47.0616" lon="5.45675">
        <ele>238.865</ele>
        <time>2020-02-15T13:54:47Z</time>
      </trkpt>
      <trkpt lat="47.06156" lon="5.45671">
        <ele>239.483</ele>
        <time>2020-02-15T13:54:50Z</time>
      </trkpt>
      <trkpt lat="47.06154" lon="5.45668">
        <ele>240.365</ele>
        <time>2020-02-15T13:54:52Z</time>
      </trkpt>
      <trkpt lat="47.06156" lon="5.4566">
        <ele>244.36</ele>
        <time>2020-02-15T13:54:56Z</time>
      </trkpt>
      <trkpt lat="47.0616" lon="5.45652">
        <ele>247.59</ele>
        <time>2020-02-15T13:54:59Z</time>
      </trkpt>
      <trkpt lat="47.06162" lon="5.45646">
        <ele>249.655</ele>
        <time>2020-02-15T13:55:01Z</time>
      </trkpt>
      <trkpt lat="47.06166" lon="5.45637">
        <ele>253.547</ele>
        <time>2020-02-15T13:55:04Z</time>
      </trkpt>
      <trkpt lat="47.06168" lon="5.45632">
        <ele>255.829</ele>
        <time>2020-02-15T13:55:06Z</time>
      </trkpt>
      <trkpt lat="47.06171" lon="5.45626">
        <ele>257.179</ele>
        <time>2020-02-15T13:55:09Z</time>
      </trkpt>
      <trkpt lat="47.06174" lon="5.45618">
        <ele>258.278</ele>
        <time>2020-02-15T13:55:12Z</time>
      </trkpt>
      <trkpt lat="47.06179" lon="5.45613">
        <ele>259.594</ele>
        <time>2020-02-15T13:55:15Z</time>
      </trkpt>
      <trkpt lat="47.06183" lon="5.45607">
        <ele>262.89</ele>
        <time>2020-02-15T13:55:19Z</time>
      </trkpt>
      <trkpt lat="47.06186" lon="5.45604">
        <ele>264.187</ele>
        <time>2020-02-15T13:55:22Z</time>
      </trkpt>
      <trkpt lat="47.06189" lon="5.45597">
        <ele>266.014</ele>
        <time>2020-02-15T13:55:25Z</time>
      </trkpt>
      <trkpt lat="47.06192" lon="5.45589">
        <ele>266.155</ele>
        <time>2020-02-15T13:55:30Z</time>
      </trkpt>
      <trkpt lat="47.06195" lon="5.45581">
        <ele>265.867</ele>
        <time>2020-02-15T13:55:34Z</time>
      </trkpt>
      <trkpt lat="47.06196" lon="5.45578">
        <ele>265.519</ele>
        <time>2020-02-15T13:55:36Z</time>
      </trkpt>
      <trkpt lat="47.06198" lon="5.45572">
        <ele>265.051</ele>
        <time>2020-02-15T13:55:39Z</time>
      </trkpt>
      <trkpt lat="47.06196" lon="5.45566">
        <ele>265.283</ele>
        <time>2020-02-15T13:55:41Z</time>
      </trkpt>
      <trkpt lat="47.06202" lon="5.45559">
        <ele>261.621</ele>
        <time>2020-02-15T13:55:48Z</time>
      </trkpt>
      <trkpt lat="47.06207" lon="5.45557">
        <ele>259.323</ele>
        <time>2020-02-15T13:55:51Z</time>
      </trkpt>
      <trkpt lat="47.06211" lon="5.45553">
        <ele>258.033</ele>
        <time>2020-02-15T13:55:53Z</time>
      </trkpt>
      <trkpt lat="47.06215" lon="5.4555">
        <ele>257.72</ele>
        <time>2020-02-15T13:55:55Z</time>
      </trkpt>
      <trkpt lat="47.06219" lon="5.45543">
        <ele>258.102</ele>
        <time>2020-02-15T13:55:59Z</time>
      </trkpt>
      <trkpt lat="47.0622" lon="5.45532">
        <ele>258.723</ele>
        <time>2020-02-15T13:56:03Z</time>
      </trkpt>
      <trkpt lat="47.0622" lon="5.45529">
        <ele>259.271</ele>
        <time>2020-02-15T13:56:05Z</time>
      </trkpt>
      <trkpt lat="47.06222" lon="5.4552">
        <ele>259.884</ele>
        <time>2020-02-15T13:56:11Z</time>
      </trkpt>
      <trkpt lat="47.06227" lon="5.45516">
        <ele>260.655</ele>
        <time>2020-02-15T13:56:17Z</time>
      </trkpt>
      <trkpt lat="47.06226" lon="5.45508">
        <ele>261.032</ele>
        <time>2020-02-15T13:56:21Z</time>
      </trkpt>
      <trkpt lat="47.06228" lon="5.45501">
        <ele>261.488</ele>
        <time>2020-02-15T13:56:26Z</time>
      </trkpt>
      <trkpt lat="47.06281" lon="5.45424">
        <ele>266.431</ele>
        <time>2020-02-15T13:57:10Z</time>
      </trkpt>
      <trkpt lat="47.06274" lon="5.45408">
        <ele>266.218</ele>
        <time>2020-02-15T13:57:22Z</time>
      </trkpt>
      <trkpt lat="47.0628" lon="5.45399">
        <ele>273.74</ele>
        <time>2020-02-15T13:57:27Z</time>
      </trkpt>
      <trkpt lat="47.06282" lon="5.45396">
        <ele>273.957</ele>
        <time>2020-02-15T13:57:28Z</time>
      </trkpt>
      <trkpt lat="47.06285" lon="5.45392">
        <ele>273.583</ele>
        <time>2020-02-15T13:57:29Z</time>
      </trkpt>
      <trkpt lat="47.06287" lon="5.4539">
        <ele>273.46</ele>
        <time>2020-02-15T13:57:30Z</time>
      </trkpt>
      <trkpt lat="47.06294" lon="5.45382">
        <ele>275.568</ele>
        <time>2020-02-15T13:57:34Z</time>
      </trkpt>
      <trkpt lat="47.06298" lon="5.45376">
        <ele>277.6</ele>
        <time>2020-02-15T13:57:37Z</time>
      </trkpt>
      <trkpt lat="47.063" lon="5.45366">
        <ele>278.937</ele>
        <time>2020-02-15T13:57:43Z</time>
      </trkpt>
      <trkpt lat="47.06299" lon="5.45358">
        <ele>283.198</ele>
        <time>2020-02-15T13:57:47Z</time>
      </trkpt>
      <trkpt lat="47.06302" lon="5.4535">
        <ele>284.816</ele>
        <time>2020-02-15T13:57:52Z</time>
      </trkpt>
      <trkpt lat="47.06308" lon="5.45344">
        <ele>285.265</ele>
        <time>2020-02-15T13:57:55Z</time>
      </trkpt>
      <trkpt lat="47.06312" lon="5.45338">
        <ele>285.897</ele>
        <time>2020-02-15T13:57:59Z</time>
      </trkpt>
      <trkpt lat="47.06312" lon="5.45332">
        <ele>285.169</ele>
        <time>2020-02-15T13:58:03Z</time>
      </trkpt>
      <trkpt lat="47.06308" lon="5.45327">
        <ele>283.738</ele>
        <time>2020-02-15T13:58:08Z</time>
      </trkpt>
      <trkpt lat="47.06305" lon="5.45323">
        <ele>283.956</ele>
        <time>2020-02-15T13:58:10Z</time>
      </trkpt>
      <trkpt lat="47.06299" lon="5.45313">
        <ele>284.128</ele>
        <time>2020-02-15T13:58:14Z</time>
      </trkpt>
      <trkpt lat="47.06293" lon="5.45306">
        <ele>283.063</ele>
        <time>2020-02-15T13:58:18Z</time>
      </trkpt>
      <trkpt lat="47.06289" lon="5.45303">
        <ele>282.229</ele>
        <time>2020-02-15T13:58:20Z</time>
      </trkpt>
      <trkpt lat="47.06286" lon="5.45298">
        <ele>281.869</ele>
        <time>2020-02-15T13:58:23Z</time>
      </trkpt>
      <trkpt lat="47.06282" lon="5.45294">
        <ele>282.171</ele>
        <time>2020-02-15T13:58:26Z</time>
      </trkpt>
      <trkpt lat="47.06277" lon="5.45289">
        <ele>283.343</ele>
        <time>2020-02-15T13:58:30Z</time>
      </trkpt>
      <trkpt lat="47.06275" lon="5.45287">
        <ele>283.455</ele>
        <time>2020-02-15T13:58:31Z</time>
      </trkpt>
      <trkpt lat="47.06268" lon="5.45281">
        <ele>283.666</ele>
        <time>2020-02-15T13:58:35Z</time>
      </trkpt>
      <trkpt lat="47.06262" lon="5.45278">
        <ele>284.224</ele>
        <time>2020-02-15T13:58:38Z</time>
      </trkpt>
      <trkpt lat="47.0626" lon="5.45276">
        <ele>284.368</ele>
        <time>2020-02-15T13:58:40Z</time>
      </trkpt>
      <trkpt lat="47.06255" lon="5.4527">
        <ele>284.48</ele>
        <time>2020-02-15T13:58:45Z</time>
      </trkpt>
      <trkpt lat="47.06251" lon="5.45264">
        <ele>283.576</ele>
        <time>2020-02-15T13:58:48Z</time>
      </trkpt>
      <trkpt lat="47.06247" lon="5.45257">
        <ele>280.984</ele>
        <time>2020-02-15T13:58:52Z</time>
      </trkpt>
      <trkpt lat="47.06244" lon="5.45252">
        <ele>280.064</ele>
        <time>2020-02-15T13:58:54Z</time>
      </trkpt>
      <trkpt lat="47.0624" lon="5.45244">
        <ele>277.825</ele>
        <time>2020-02-15T13:58:58Z</time>
      </trkpt>
      <trkpt lat="47.06237" lon="5.45237">
        <ele>274.466</ele>
        <time>2020-02-15T13:59:02Z</time>
      </trkpt>
      <trkpt lat="47.06234" lon="5.45228">
        <ele>273.007</ele>
        <time>2020-02-15T13:59:07Z</time>
      </trkpt>
      <trkpt lat="47.06231" lon="5.4522">
        <ele>271.903</ele>
        <time>2020-02-15T13:59:10Z</time>
      </trkpt>
      <trkpt lat="47.0623" lon="5.45211">
        <ele>269.563</ele>
        <time>2020-02-15T13:59:14Z</time>
      </trkpt>
      <trkpt lat="47.0623" lon="5.45201">
        <ele>267.681</ele>
        <time>2020-02-15T13:59:18Z</time>
      </trkpt>
      <trkpt lat="47.06229" lon="5.45195">
        <ele>266.677</ele>
        <time>2020-02-15T13:59:21Z</time>
      </trkpt>
      <trkpt lat="47.06225" lon="5.45185">
        <ele>266.31</ele>
        <time>2020-02-15T13:59:25Z</time>
      </trkpt>
      <trkpt lat="47.06222" lon="5.45178">
        <ele>266.459</ele>
        <time>2020-02-15T13:59:27Z</time>
      </trkpt>
      <trkpt lat="47.06221" lon="5.45171">
        <ele>266.356</ele>
        <time>2020-02-15T13:59:30Z</time>
      </trkpt>
      <trkpt lat="47.0622" lon="5.45167">
        <ele>266.367</ele>
        <time>2020-02-15T13:59:32Z</time>
      </trkpt>
      <trkpt lat="47.06218" lon="5.45161">
        <ele>267.224</ele>
        <time>2020-02-15T13:59:35Z</time>
      </trkpt>
      <trkpt lat="47.06219" lon="5.45153">
        <ele>267.337</ele>
        <time>2020-02-15T13:59:39Z</time>
      </trkpt>
      <trkpt lat="47.0622" lon="5.45145">
        <ele>267.754</ele>
        <time>2020-02-15T13:59:42Z</time>
      </trkpt>
      <trkpt lat="47.0622" lon="5.45137">
        <ele>267.95</ele>
        <time>2020-02-15T13:59:45Z</time>
      </trkpt>
      <trkpt lat="47.06221" lon="5.45127">
        <ele>268.442</ele>
        <time>2020-02-15T13:59:49Z</time>
      </trkpt>
      <trkpt lat="47.06224" lon="5.45118">
        <ele>267.932</ele>
        <time>2020-02-15T13:59:53Z</time>
      </trkpt>
      <trkpt lat="47.06224" lon="5.45115">
        <ele>267.254</ele>
        <time>2020-02-15T13:59:55Z</time>
      </trkpt>
      <trkpt lat="47.06223" lon="5.45109">
        <ele>266.055</ele>
        <time>2020-02-15T13:59:58Z</time>
      </trkpt>
      <trkpt lat="47.06222" lon="5.45105">
        <ele>265.464</ele>
        <time>2020-02-15T14:00:00Z</time>
      </trkpt>
      <trkpt lat="47.0622" lon="5.45099">
        <ele>265.101</ele>
        <time>2020-02-15T14:00:02Z</time>
      </trkpt>
      <trkpt lat="47.06219" lon="5.45092">
        <ele>264.798</ele>
        <time>2020-02-15T14:00:04Z</time>
      </trkpt>
      <trkpt lat="47.06221" lon="5.45084">
        <ele>265.883</ele>
        <time>2020-02-15T14:00:09Z</time>
      </trkpt>
      <trkpt lat="47.06222" lon="5.45076">
        <ele>267.26</ele>
        <time>2020-02-15T14:00:15Z</time>
      </trkpt>
      <trkpt lat="47.06219" lon="5.45069">
        <ele>267.085</ele>
        <time>2020-02-15T14:00:20Z</time>
      </trkpt>
      <trkpt lat="47.06219" lon="5.45061">
        <ele>266.906</ele>
        <time>2020-02-15T14:00:25Z</time>
      </trkpt>
      <trkpt lat="47.06217" lon="5.45052">
        <ele>266.552</ele>
        <time>2020-02-15T14:00:28Z</time>
      </trkpt>
      <trkpt lat="47.06215" lon="5.45039">
        <ele>266.227</ele>
        <time>2020-02-15T14:00:32Z</time>
      </trkpt>
      <trkpt lat="47.06214" lon="5.45033">
        <ele>266.031</ele>
        <time>2020-02-15T14:00:34Z</time>
      </trkpt>
      <trkpt lat="47.06214" lon="5.45025">
        <ele>266.284</ele>
        <time>2020-02-15T14:00:37Z</time>
      </trkpt>
      <trkpt lat="47.06217" lon="5.4502">
        <ele>266.512</ele>
        <time>2020-02-15T14:00:40Z</time>
      </trkpt>
      <trkpt lat="47.06219" lon="5.45017">
        <ele>266.709</ele>
        <time>2020-02-15T14:00:41Z</time>
      </trkpt>
      <trkpt lat="47.06221" lon="5.45011">
        <ele>267.079</ele>
        <time>2020-02-15T14:00:43Z</time>
      </trkpt>
      <trkpt lat="47.06224" lon="5.45006">
        <ele>267.435</ele>
        <time>2020-02-15T14:00:45Z</time>
      </trkpt>
      <trkpt lat="47.06232" lon="5.45002">
        <ele>268.01</ele>
        <time>2020-02-15T14:00:49Z</time>
      </trkpt>
      <trkpt lat="47.06239" lon="5.45">
        <ele>268.59</ele>
        <time>2020-02-15T14:00:53Z</time>
      </trkpt>
      <trkpt lat="47.06241" lon="5.44999">
        <ele>268.703</ele>
        <time>2020-02-15T14:00:55Z</time>
      </trkpt>
      <trkpt lat="47.06246" lon="5.44995">
        <ele>268.262</ele>
        <time>2020-02-15T14:01:00Z</time>
      </trkpt>
      <trkpt lat="47.06252" lon="5.44988">
        <ele>266.674</ele>
        <time>2020-02-15T14:01:07Z</time>
      </trkpt>
      <trkpt lat="47.06255" lon="5.44983">
        <ele>266.418</ele>
        <time>2020-02-15T14:01:10Z</time>
      </trkpt>
      <trkpt lat="47.06256" lon="5.44974">
        <ele>266.352</ele>
        <time>2020-02-15T14:01:14Z</time>
      </trkpt>
      <trkpt lat="47.06259" lon="5.44965">
        <ele>266.174</ele>
        <time>2020-02-15T14:01:21Z</time>
      </trkpt>
      <trkpt lat="47.06264" lon="5.44958">
        <ele>265.536</ele>
        <time>2020-02-15T14:01:24Z</time>
      </trkpt>
      <trkpt lat="47.06268" lon="5.44954">
        <ele>265.082</ele>
        <time>2020-02-15T14:01:26Z</time>
      </trkpt>
      <trkpt lat="47.06274" lon="5.44945">
        <ele>264.919</ele>
        <time>2020-02-15T14:01:30Z</time>
      </trkpt>
      <trkpt lat="47.06283" lon="5.44911">
        <ele>266.501</ele>
        <time>2020-02-15T14:01:48Z</time>
      </trkpt>
      <trkpt lat="47.06282" lon="5.44904">
        <ele>266.5</ele>
        <time>2020-02-15T14:01:51Z</time>
      </trkpt>
      <trkpt lat="47.06286" lon="5.44898">
        <ele>266.27</ele>
        <time>2020-02-15T14:01:53Z</time>
      </trkpt>
      <trkpt lat="47.06292" lon="5.44892">
        <ele>267.484</ele>
        <time>2020-02-15T14:01:55Z</time>
      </trkpt>
      <trkpt lat="47.06286" lon="5.44881">
        <ele>266.004</ele>
        <time>2020-02-15T14:02:04Z</time>
      </trkpt>
      <trkpt lat="47.06283" lon="5.44875">
        <ele>264.97</ele>
        <time>2020-02-15T14:02:07Z</time>
      </trkpt>
      <trkpt lat="47.06281" lon="5.44865">
        <ele>264.961</ele>
        <time>2020-02-15T14:02:12Z</time>
      </trkpt>
      <trkpt lat="47.06285" lon="5.44859">
        <ele>262.969</ele>
        <time>2020-02-15T14:02:15Z</time>
      </trkpt>
      <trkpt lat="47.06287" lon="5.44851">
        <ele>261.985</ele>
        <time>2020-02-15T14:02:19Z</time>
      </trkpt>
      <trkpt lat="47.06287" lon="5.44842">
        <ele>262.432</ele>
        <time>2020-02-15T14:02:22Z</time>
      </trkpt>
      <trkpt lat="47.06287" lon="5.44836">
        <ele>262.276</ele>
        <time>2020-02-15T14:02:24Z</time>
      </trkpt>
      <trkpt lat="47.06287" lon="5.44832">
        <ele>262.241</ele>
        <time>2020-02-15T14:02:26Z</time>
      </trkpt>
      <trkpt lat="47.06287" lon="5.44825">
        <ele>262.784</ele>
        <time>2020-02-15T14:02:29Z</time>
      </trkpt>
      <trkpt lat="47.06288" lon="5.44818">
        <ele>263.597</ele>
        <time>2020-02-15T14:02:33Z</time>
      </trkpt>
      <trkpt lat="47.06287" lon="5.4481">
        <ele>263.389</ele>
        <time>2020-02-15T14:02:37Z</time>
      </trkpt>
      <trkpt lat="47.06289" lon="5.44802">
        <ele>263.004</ele>
        <time>2020-02-15T14:02:42Z</time>
      </trkpt>
      <trkpt lat="47.06293" lon="5.44793">
        <ele>262.661</ele>
        <time>2020-02-15T14:02:46Z</time>
      </trkpt>
      <trkpt lat="47.06296" lon="5.44787">
        <ele>262.042</ele>
        <time>2020-02-15T14:02:49Z</time>
      </trkpt>
      <trkpt lat="47.06298" lon="5.44783">
        <ele>261.984</ele>
        <time>2020-02-15T14:02:51Z</time>
      </trkpt>
      <trkpt lat="47.06302" lon="5.4478">
        <ele>262.043</ele>
        <time>2020-02-15T14:02:53Z</time>
      </trkpt>
      <trkpt lat="47.06305" lon="5.44777">
        <ele>262.608</ele>
        <time>2020-02-15T14:02:55Z</time>
      </trkpt>
      <trkpt lat="47.06308" lon="5.4477">
        <ele>263.243</ele>
        <time>2020-02-15T14:02:59Z</time>
      </trkpt>
      <trkpt lat="47.06309" lon="5.44767">
        <ele>263.482</ele>
        <time>2020-02-15T14:03:01Z</time>
      </trkpt>
      <trkpt lat="47.06313" lon="5.44759">
        <ele>263.353</ele>
        <time>2020-02-15T14:03:05Z</time>
      </trkpt>
      <trkpt lat="47.06314" lon="5.44752">
        <ele>262.798</ele>
        <time>2020-02-15T14:03:08Z</time>
      </trkpt>
      <trkpt lat="47.06317" lon="5.44745">
        <ele>263.262</ele>
        <time>2020-02-15T14:03:11Z</time>
      </trkpt>
      <trkpt lat="47.06322" lon="5.44738">
        <ele>263.949</ele>
        <time>2020-02-15T14:03:14Z</time>
      </trkpt>
      <trkpt lat="47.06326" lon="5.44733">
        <ele>265.16</ele>
        <time>2020-02-15T14:03:19Z</time>
      </trkpt>
      <trkpt lat="47.06333" lon="5.44732">
        <ele>265.939</ele>
        <time>2020-02-15T14:03:23Z</time>
      </trkpt>
      <trkpt lat="47.06337" lon="5.44726">
        <ele>266.874</ele>
        <time>2020-02-15T14:03:27Z</time>
      </trkpt>
      <trkpt lat="47.06341" lon="5.44722">
        <ele>266.939</ele>
        <time>2020-02-15T14:03:30Z</time>
      </trkpt>
      <trkpt lat="47.06347" lon="5.44715">
        <ele>266.564</ele>
        <time>2020-02-15T14:03:35Z</time>
      </trkpt>
      <trkpt lat="47.06352" lon="5.44711">
        <ele>267.068</ele>
        <time>2020-02-15T14:03:38Z</time>
      </trkpt>
      <trkpt lat="47.06356" lon="5.44709">
        <ele>267.335</ele>
        <time>2020-02-15T14:03:40Z</time>
      </trkpt>
      <trkpt lat="47.06358" lon="5.44707">
        <ele>267.601</ele>
        <time>2020-02-15T14:03:42Z</time>
      </trkpt>
      <trkpt lat="47.06361" lon="5.44706">
        <ele>267.931</ele>
        <time>2020-02-15T14:03:44Z</time>
      </trkpt>
      <trkpt lat="47.06366" lon="5.44703">
        <ele>268.336</ele>
        <time>2020-02-15T14:03:51Z</time>
      </trkpt>
      <trkpt lat="47.06371" lon="5.44697">
        <ele>268.186</ele>
        <time>2020-02-15T14:03:54Z</time>
      </trkpt>
      <trkpt lat="47.06376" lon="5.44693">
        <ele>267.291</ele>
        <time>2020-02-15T14:03:57Z</time>
      </trkpt>
      <trkpt lat="47.06379" lon="5.44685">
        <ele>266.494</ele>
        <time>2020-02-15T14:04:01Z</time>
      </trkpt>
      <trkpt lat="47.0638" lon="5.44678">
        <ele>265.376</ele>
        <time>2020-02-15T14:04:04Z</time>
      </trkpt>
      <trkpt lat="47.06384" lon="5.44675">
        <ele>263.315</ele>
        <time>2020-02-15T14:04:07Z</time>
      </trkpt>
      <trkpt lat="47.06388" lon="5.44673">
        <ele>262.614</ele>
        <time>2020-02-15T14:04:09Z</time>
      </trkpt>
      <trkpt lat="47.06393" lon="5.44666">
        <ele>262.725</ele>
        <time>2020-02-15T14:04:13Z</time>
      </trkpt>
      <trkpt lat="47.06396" lon="5.4466">
        <ele>262.82</ele>
        <time>2020-02-15T14:04:16Z</time>
      </trkpt>
      <trkpt lat="47.06401" lon="5.44656">
        <ele>262.983</ele>
        <time>2020-02-15T14:04:18Z</time>
      </trkpt>
      <trkpt lat="47.06405" lon="5.44653">
        <ele>263.46</ele>
        <time>2020-02-15T14:04:20Z</time>
      </trkpt>
      <trkpt lat="47.0641" lon="5.44646">
        <ele>264.615</ele>
        <time>2020-02-15T14:04:23Z</time>
      </trkpt>
      <trkpt lat="47.06415" lon="5.44637">
        <ele>266.265</ele>
        <time>2020-02-15T14:04:27Z</time>
      </trkpt>
      <trkpt lat="47.06419" lon="5.44632">
        <ele>267.756</ele>
        <time>2020-02-15T14:04:32Z</time>
      </trkpt>
      <trkpt lat="47.0642" lon="5.44625">
        <ele>268.503</ele>
        <time>2020-02-15T14:04:40Z</time>
      </trkpt>
      <trkpt lat="47.06421" lon="5.44618">
        <ele>266.798</ele>
        <time>2020-02-15T14:04:44Z</time>
      </trkpt>
      <trkpt lat="47.06425" lon="5.44609">
        <ele>265.191</ele>
        <time>2020-02-15T14:04:48Z</time>
      </trkpt>
      <trkpt lat="47.06426" lon="5.44601">
        <ele>264.229</ele>
        <time>2020-02-15T14:04:51Z</time>
      </trkpt>
      <trkpt lat="47.06427" lon="5.44593">
        <ele>263.242</ele>
        <time>2020-02-15T14:04:55Z</time>
      </trkpt>
      <trkpt lat="47.06427" lon="5.44588">
        <ele>263.244</ele>
        <time>2020-02-15T14:05:01Z</time>
      </trkpt>
      <trkpt lat="47.0642" lon="5.44586">
        <ele>263.771</ele>
        <time>2020-02-15T14:05:08Z</time>
      </trkpt>
      <trkpt lat="47.06416" lon="5.4458">
        <ele>263.518</ele>
        <time>2020-02-15T14:05:10Z</time>
      </trkpt>
      <trkpt lat="47.06413" lon="5.44575">
        <ele>263.123</ele>
        <time>2020-02-15T14:05:11Z</time>
      </trkpt>
      <trkpt lat="47.06409" lon="5.44569">
        <ele>263.046</ele>
        <time>2020-02-15T14:05:12Z</time>
      </trkpt>
      <trkpt lat="47.06406" lon="5.44565">
        <ele>263.192</ele>
        <time>2020-02-15T14:05:13Z</time>
      </trkpt>
      <trkpt lat="47.06404" lon="5.44562">
        <ele>263.225</ele>
        <time>2020-02-15T14:05:14Z</time>
      </trkpt>
      <trkpt lat="47.06402" lon="5.44559">
        <ele>263.188</ele>
        <time>2020-02-15T14:05:15Z</time>
      </trkpt>
      <trkpt lat="47.064" lon="5.44557">
        <ele>263.303</ele>
        <time>2020-02-15T14:05:16Z</time>
      </trkpt>
      <trkpt lat="47.06398" lon="5.44554">
        <ele>263.205</ele>
        <time>2020-02-15T14:05:17Z</time>
      </trkpt>
      <trkpt lat="47.06395" lon="5.44547">
        <ele>262.293</ele>
        <time>2020-02-15T14:05:21Z</time>
      </trkpt>
      <trkpt lat="47.06393" lon="5.44543">
        <ele>262.3</ele>
        <time>2020-02-15T14:05:23Z</time>
      </trkpt>
      <trkpt lat="47.06392" lon="5.44539">
        <ele>262.796</ele>
        <time>2020-02-15T14:05:25Z</time>
      </trkpt>
      <trkpt lat="47.0639" lon="5.44535">
        <ele>263.453</ele>
        <time>2020-02-15T14:05:27Z</time>
      </trkpt>
      <trkpt lat="47.06386" lon="5.44528">
        <ele>264.516</ele>
        <time>2020-02-15T14:05:30Z</time>
      </trkpt>
      <trkpt lat="47.06384" lon="5.44522">
        <ele>265.693</ele>
        <time>2020-02-15T14:05:33Z</time>
      </trkpt>
      <trkpt lat="47.06381" lon="5.44517">
        <ele>266.28</ele>
        <time>2020-02-15T14:05:35Z</time>
      </trkpt>
      <trkpt lat="47.06379" lon="5.44511">
        <ele>266.966</ele>
        <time>2020-02-15T14:05:38Z</time>
      </trkpt>
      <trkpt lat="47.06376" lon="5.44505">
        <ele>267.558</ele>
        <time>2020-02-15T14:05:41Z</time>
      </trkpt>
      <trkpt lat="47.06372" lon="5.445">
        <ele>267.761</ele>
        <time>2020-02-15T14:05:43Z</time>
      </trkpt>
      <trkpt lat="47.06368" lon="5.44496">
        <ele>267.157</ele>
        <time>2020-02-15T14:05:45Z</time>
      </trkpt>
      <trkpt lat="47.06365" lon="5.4449">
        <ele>265.934</ele>
        <time>2020-02-15T14:05:49Z</time>
      </trkpt>
      <trkpt lat="47.06364" lon="5.44486">
        <ele>264.765</ele>
        <time>2020-02-15T14:05:54Z</time>
      </trkpt>
      <trkpt lat="47.06362" lon="5.44481">
        <ele>264.148</ele>
        <time>2020-02-15T14:05:58Z</time>
      </trkpt>
      <trkpt lat="47.0636" lon="5.44476">
        <ele>264.138</ele>
        <time>2020-02-15T14:06:01Z</time>
      </trkpt>
      <trkpt lat="47.06357" lon="5.44469">
        <ele>263.39</ele>
        <time>2020-02-15T14:06:05Z</time>
      </trkpt>
      <trkpt lat="47.06354" lon="5.44464">
        <ele>262.13</ele>
        <time>2020-02-15T14:06:08Z</time>
      </trkpt>
      <trkpt lat="47.06348" lon="5.4446">
        <ele>260.753</ele>
        <time>2020-02-15T14:06:12Z</time>
      </trkpt>
      <trkpt lat="47.06344" lon="5.44458">
        <ele>258.871</ele>
        <time>2020-02-15T14:06:15Z</time>
      </trkpt>
      <trkpt lat="47.06341" lon="5.44457">
        <ele>258.145</ele>
        <time>2020-02-15T14:06:17Z</time>
      </trkpt>
      <trkpt lat="47.06335" lon="5.44454">
        <ele>257.305</ele>
        <time>2020-02-15T14:06:21Z</time>
      </trkpt>
      <trkpt lat="47.06332" lon="5.44453">
        <ele>257.158</ele>
        <time>2020-02-15T14:06:23Z</time>
      </trkpt>
      <trkpt lat="47.06327" lon="5.4445">
        <ele>257.345</ele>
        <time>2020-02-15T14:06:26Z</time>
      </trkpt>
      <trkpt lat="47.06323" lon="5.44448">
        <ele>256.589</ele>
        <time>2020-02-15T14:06:29Z</time>
      </trkpt>
      <trkpt lat="47.0632" lon="5.44447">
        <ele>255.837</ele>
        <time>2020-02-15T14:06:31Z</time>
      </trkpt>
      <trkpt lat="47.06316" lon="5.44444">
        <ele>255.42</ele>
        <time>2020-02-15T14:06:33Z</time>
      </trkpt>
      <trkpt lat="47.0631" lon="5.44438">
        <ele>253.668</ele>
        <time>2020-02-15T14:06:37Z</time>
      </trkpt>
      <trkpt lat="47.06306" lon="5.4443">
        <ele>253.807</ele>
        <time>2020-02-15T14:06:41Z</time>
      </trkpt>
      <trkpt lat="47.063" lon="5.44427">
        <ele>254.187</ele>
        <time>2020-02-15T14:06:44Z</time>
      </trkpt>
      <trkpt lat="47.06297" lon="5.44421">
        <ele>254.972</ele>
        <time>2020-02-15T14:06:47Z</time>
      </trkpt>
      <trkpt lat="47.06294" lon="5.44417">
        <ele>255.442</ele>
        <time>2020-02-15T14:06:50Z</time>
      </trkpt>
      <trkpt lat="47.06288" lon="5.44417">
        <ele>255.106</ele>
        <time>2020-02-15T14:06:53Z</time>
      </trkpt>
      <trkpt lat="47.06279" lon="5.44423">
        <ele>255.161</ele>
        <time>2020-02-15T14:06:56Z</time>
      </trkpt>
      <trkpt lat="47.06274" lon="5.44427">
        <ele>254.908</ele>
        <time>2020-02-15T14:06:58Z</time>
      </trkpt>
      <trkpt lat="47.06269" lon="5.44427">
        <ele>254.928</ele>
        <time>2020-02-15T14:07:01Z</time>
      </trkpt>
      <trkpt lat="47.06264" lon="5.44425">
        <ele>254.861</ele>
        <time>2020-02-15T14:07:04Z</time>
      </trkpt>
      <trkpt lat="47.06259" lon="5.44425">
        <ele>255.735</ele>
        <time>2020-02-15T14:07:07Z</time>
      </trkpt>
      <trkpt lat="47.06254" lon="5.44422">
        <ele>254.979</ele>
        <time>2020-02-15T14:07:12Z</time>
      </trkpt>
      <trkpt lat="47.06248" lon="5.44421">
        <ele>255.074</ele>
        <time>2020-02-15T14:07:15Z</time>
      </trkpt>
      <trkpt lat="47.06244" lon="5.44414">
        <ele>254.3</ele>
        <time>2020-02-15T14:07:19Z</time>
      </trkpt>
      <trkpt lat="47.0624" lon="5.44406">
        <ele>251.644</ele>
        <time>2020-02-15T14:07:24Z</time>
      </trkpt>
      <trkpt lat="47.06233" lon="5.44403">
        <ele>251.724</ele>
        <time>2020-02-15T14:07:29Z</time>
      </trkpt>
      <trkpt lat="47.06228" lon="5.44404">
        <ele>251.285</ele>
        <time>2020-02-15T14:07:31Z</time>
      </trkpt>
      <trkpt lat="47.06221" lon="5.44402">
        <ele>251.501</ele>
        <time>2020-02-15T14:07:35Z</time>
      </trkpt>
      <trkpt lat="47.06217" lon="5.44397">
        <ele>252.081</ele>
        <time>2020-02-15T14:07:38Z</time>
      </trkpt>
      <trkpt lat="47.06211" lon="5.44395">
        <ele>253.489</ele>
        <time>2020-02-15T14:07:41Z</time>
      </trkpt>
      <trkpt lat="47.06208" lon="5.44394">
        <ele>253.609</ele>
        <time>2020-02-15T14:07:43Z</time>
      </trkpt>
      <trkpt lat="47.06201" lon="5.44395">
        <ele>254.685</ele>
        <time>2020-02-15T14:07:47Z</time>
      </trkpt>
      <trkpt lat="47.06197" lon="5.44392">
        <ele>254.834</ele>
        <time>2020-02-15T14:07:51Z</time>
      </trkpt>
      <trkpt lat="47.06195" lon="5.44386">
        <ele>254.041</ele>
        <time>2020-02-15T14:07:55Z</time>
      </trkpt>
      <trkpt lat="47.0619" lon="5.44382">
        <ele>253.346</ele>
        <time>2020-02-15T14:07:59Z</time>
      </trkpt>
      <trkpt lat="47.06184" lon="5.44381">
        <ele>252.76</ele>
        <time>2020-02-15T14:08:03Z</time>
      </trkpt>
      <trkpt lat="47.06179" lon="5.44378">
        <ele>252.255</ele>
        <time>2020-02-15T14:08:06Z</time>
      </trkpt>
      <trkpt lat="47.06175" lon="5.44376">
        <ele>252.932</ele>
        <time>2020-02-15T14:08:09Z</time>
      </trkpt>
      <trkpt lat="47.0617" lon="5.44372">
        <ele>253.61</ele>
        <time>2020-02-15T14:08:12Z</time>
      </trkpt>
      <trkpt lat="47.06166" lon="5.44372">
        <ele>254.298</ele>
        <time>2020-02-15T14:08:15Z</time>
      </trkpt>
      <trkpt lat="47.0616" lon="5.44369">
        <ele>255.524</ele>
        <time>2020-02-15T14:08:19Z</time>
      </trkpt>
      <trkpt lat="47.06156" lon="5.44367">
        <ele>256.494</ele>
        <time>2020-02-15T14:08:21Z</time>
      </trkpt>
      <trkpt lat="47.06149" lon="5.44361">
        <ele>257.196</ele>
        <time>2020-02-15T14:08:25Z</time>
      </trkpt>
      <trkpt lat="47.06146" lon="5.4436">
        <ele>257.264</ele>
        <time>2020-02-15T14:08:27Z</time>
      </trkpt>
      <trkpt lat="47.06141" lon="5.44359">
        <ele>258.226</ele>
        <time>2020-02-15T14:08:31Z</time>
      </trkpt>
      <trkpt lat="47.06135" lon="5.44361">
        <ele>259.101</ele>
        <time>2020-02-15T14:08:34Z</time>
      </trkpt>
      <trkpt lat="47.06124" lon="5.44362">
        <ele>260.168</ele>
        <time>2020-02-15T14:08:38Z</time>
      </trkpt>
      <trkpt lat="47.06122" lon="5.44362">
        <ele>260.374</ele>
        <time>2020-02-15T14:08:39Z</time>
      </trkpt>
      <trkpt lat="47.06115" lon="5.44358">
        <ele>259.17</ele>
        <time>2020-02-15T14:08:44Z</time>
      </trkpt>
      <trkpt lat="47.06111" lon="5.44354">
        <ele>259.666</ele>
        <time>2020-02-15T14:08:48Z</time>
      </trkpt>
      <trkpt lat="47.06106" lon="5.44348">
        <ele>260.308</ele>
        <time>2020-02-15T14:08:52Z</time>
      </trkpt>
      <trkpt lat="47.06101" lon="5.44342">
        <ele>261.063</ele>
        <time>2020-02-15T14:08:56Z</time>
      </trkpt>
      <trkpt lat="47.06098" lon="5.44337">
        <ele>261.665</ele>
        <time>2020-02-15T14:08:59Z</time>
      </trkpt>
      <trkpt lat="47.06096" lon="5.44333">
        <ele>261.949</ele>
        <time>2020-02-15T14:09:01Z</time>
      </trkpt>
      <trkpt lat="47.06094" lon="5.4433">
        <ele>262.529</ele>
        <time>2020-02-15T14:09:03Z</time>
      </trkpt>
      <trkpt lat="47.0609" lon="5.44325">
        <ele>262.371</ele>
        <time>2020-02-15T14:09:07Z</time>
      </trkpt>
      <trkpt lat="47.06087" lon="5.44315">
        <ele>261.539</ele>
        <time>2020-02-15T14:09:12Z</time>
      </trkpt>
      <trkpt lat="47.06083" lon="5.4431">
        <ele>260.107</ele>
        <time>2020-02-15T14:09:17Z</time>
      </trkpt>
      <trkpt lat="47.06076" lon="5.44308">
        <ele>260.306</ele>
        <time>2020-02-15T14:09:21Z</time>
      </trkpt>
      <trkpt lat="47.06072" lon="5.44306">
        <ele>260.143</ele>
        <time>2020-02-15T14:09:23Z</time>
      </trkpt>
      <trkpt lat="47.06066" lon="5.44304">
        <ele>260.376</ele>
        <time>2020-02-15T14:09:26Z</time>
      </trkpt>
      <trkpt lat="47.06062" lon="5.44303">
        <ele>260.257</ele>
        <time>2020-02-15T14:09:29Z</time>
      </trkpt>
      <trkpt lat="47.06057" lon="5.44298">
        <ele>259.759</ele>
        <time>2020-02-15T14:09:32Z</time>
      </trkpt>
      <trkpt lat="47.06053" lon="5.44291">
        <ele>259.149</ele>
        <time>2020-02-15T14:09:35Z</time>
      </trkpt>
      <trkpt lat="47.0605" lon="5.44288">
        <ele>258.334</ele>
        <time>2020-02-15T14:09:37Z</time>
      </trkpt>
      <trkpt lat="47.06046" lon="5.44282">
        <ele>257.19</ele>
        <time>2020-02-15T14:09:40Z</time>
      </trkpt>
      <trkpt lat="47.06043" lon="5.44278">
        <ele>256.488</ele>
        <time>2020-02-15T14:09:42Z</time>
      </trkpt>
      <trkpt lat="47.06039" lon="5.44273">
        <ele>256.01</ele>
        <time>2020-02-15T14:09:45Z</time>
      </trkpt>
      <trkpt lat="47.06035" lon="5.44269">
        <ele>255.821</ele>
        <time>2020-02-15T14:09:48Z</time>
      </trkpt>
      <trkpt lat="47.06031" lon="5.44263">
        <ele>255.486</ele>
        <time>2020-02-15T14:09:52Z</time>
      </trkpt>
      <trkpt lat="47.0603" lon="5.44256">
        <ele>255.175</ele>
        <time>2020-02-15T14:09:58Z</time>
      </trkpt>
      <trkpt lat="47.06026" lon="5.4425">
        <ele>254.103</ele>
        <time>2020-02-15T14:10:03Z</time>
      </trkpt>
      <trkpt lat="47.06024" lon="5.44245">
        <ele>253.901</ele>
        <time>2020-02-15T14:10:05Z</time>
      </trkpt>
      <trkpt lat="47.06021" lon="5.44239">
        <ele>253.792</ele>
        <time>2020-02-15T14:10:08Z</time>
      </trkpt>
      <trkpt lat="47.06018" lon="5.44234">
        <ele>253.432</ele>
        <time>2020-02-15T14:10:11Z</time>
      </trkpt>
      <trkpt lat="47.06012" lon="5.4423">
        <ele>253.582</ele>
        <time>2020-02-15T14:10:15Z</time>
      </trkpt>
      <trkpt lat="47.06007" lon="5.44231">
        <ele>252.792</ele>
        <time>2020-02-15T14:10:18Z</time>
      </trkpt>
      <trkpt lat="47.06002" lon="5.44227">
        <ele>251.293</ele>
        <time>2020-02-15T14:10:21Z</time>
      </trkpt>
      <trkpt lat="47.05999" lon="5.4422">
        <ele>250.377</ele>
        <time>2020-02-15T14:10:23Z</time>
      </trkpt>
      <trkpt lat="47.05992" lon="5.44214">
        <ele>249.772</ele>
        <time>2020-02-15T14:10:27Z</time>
      </trkpt>
      <trkpt lat="47.05989" lon="5.4421">
        <ele>249.935</ele>
        <time>2020-02-15T14:10:30Z</time>
      </trkpt>
      <trkpt lat="47.05985" lon="5.44205">
        <ele>249.464</ele>
        <time>2020-02-15T14:10:33Z</time>
      </trkpt>
      <trkpt lat="47.05983" lon="5.44199">
        <ele>248.747</ele>
        <time>2020-02-15T14:10:37Z</time>
      </trkpt>
      <trkpt lat="47.05979" lon="5.44193">
        <ele>246.785</ele>
        <time>2020-02-15T14:10:41Z</time>
      </trkpt>
      <trkpt lat="47.05974" lon="5.44187">
        <ele>245.463</ele>
        <time>2020-02-15T14:10:44Z</time>
      </trkpt>
      <trkpt lat="47.05972" lon="5.44181">
        <ele>244.433</ele>
        <time>2020-02-15T14:10:47Z</time>
      </trkpt>
      <trkpt lat="47.05971" lon="5.44177">
        <ele>244.142</ele>
        <time>2020-02-15T14:10:49Z</time>
      </trkpt>
      <trkpt lat="47.05968" lon="5.44171">
        <ele>242.203</ele>
        <time>2020-02-15T14:10:52Z</time>
      </trkpt>
      <trkpt lat="47.05963" lon="5.44165">
        <ele>240.331</ele>
        <time>2020-02-15T14:10:56Z</time>
      </trkpt>
      <trkpt lat="47.05956" lon="5.44162">
        <ele>239.74</ele>
        <time>2020-02-15T14:10:59Z</time>
      </trkpt>
      <trkpt lat="47.05953" lon="5.4416">
        <ele>239.87</ele>
        <time>2020-02-15T14:11:01Z</time>
      </trkpt>
      <trkpt lat="47.05949" lon="5.44158">
        <ele>241.479</ele>
        <time>2020-02-15T14:11:04Z</time>
      </trkpt>
      <trkpt lat="47.05945" lon="5.44156">
        <ele>242.547</ele>
        <time>2020-02-15T14:11:06Z</time>
      </trkpt>
      <trkpt lat="47.05942" lon="5.44154">
        <ele>243.158</ele>
        <time>2020-02-15T14:11:08Z</time>
      </trkpt>
      <trkpt lat="47.05941" lon="5.44144">
        <ele>242.771</ele>
        <time>2020-02-15T14:11:13Z</time>
      </trkpt>
      <trkpt lat="47.05938" lon="5.44139">
        <ele>241.811</ele>
        <time>2020-02-15T14:11:17Z</time>
      </trkpt>
      <trkpt lat="47.05937" lon="5.44135">
        <ele>241.137</ele>
        <time>2020-02-15T14:11:19Z</time>
      </trkpt>
      <trkpt lat="47.05934" lon="5.44131">
        <ele>240.723</ele>
        <time>2020-02-15T14:11:21Z</time>
      </trkpt>
      <trkpt lat="47.05931" lon="5.44125">
        <ele>239.292</ele>
        <time>2020-02-15T14:11:25Z</time>
      </trkpt>
      <trkpt lat="47.05928" lon="5.44119">
        <ele>238.026</ele>
        <time>2020-02-15T14:11:30Z</time>
      </trkpt>
      <trkpt lat="47.05926" lon="5.44115">
        <ele>237.068</ele>
        <time>2020-02-15T14:11:32Z</time>
      </trkpt>
      <trkpt lat="47.05923" lon="5.44109">
        <ele>237.002</ele>
        <time>2020-02-15T14:11:35Z</time>
      </trkpt>
      <trkpt lat="47.05918" lon="5.44102">
        <ele>236.964</ele>
        <time>2020-02-15T14:11:38Z</time>
      </trkpt>
      <trkpt lat="47.05915" lon="5.44098">
        <ele>237.173</ele>
        <time>2020-02-15T14:11:40Z</time>
      </trkpt>
      <trkpt lat="47.05912" lon="5.4409">
        <ele>237.1</ele>
        <time>2020-02-15T14:11:45Z</time>
      </trkpt>
      <trkpt lat="47.05908" lon="5.44084">
        <ele>237.547</ele>
        <time>2020-02-15T14:11:49Z</time>
      </trkpt>
      <trkpt lat="47.05906" lon="5.44082">
        <ele>237.166</ele>
        <time>2020-02-15T14:11:51Z</time>
      </trkpt>
      <trkpt lat="47.05905" lon="5.44076">
        <ele>236.634</ele>
        <time>2020-02-15T14:11:54Z</time>
      </trkpt>
      <trkpt lat="47.05899" lon="5.4407">
        <ele>236.138</ele>
        <time>2020-02-15T14:11:58Z</time>
      </trkpt>
      <trkpt lat="47.05897" lon="5.44067">
        <ele>236.077</ele>
        <time>2020-02-15T14:12:00Z</time>
      </trkpt>
      <trkpt lat="47.05895" lon="5.44061">
        <ele>235.449</ele>
        <time>2020-02-15T14:12:04Z</time>
      </trkpt>
      <trkpt lat="47.05897" lon="5.44055">
        <ele>235.736</ele>
        <time>2020-02-15T14:12:07Z</time>
      </trkpt>
      <trkpt lat="47.05899" lon="5.44048">
        <ele>236.32</ele>
        <time>2020-02-15T14:12:10Z</time>
      </trkpt>
      <trkpt lat="47.05903" lon="5.44041">
        <ele>237.564</ele>
        <time>2020-02-15T14:12:13Z</time>
      </trkpt>
      <trkpt lat="47.05907" lon="5.44032">
        <ele>240.204</ele>
        <time>2020-02-15T14:12:17Z</time>
      </trkpt>
      <trkpt lat="47.05909" lon="5.44024">
        <ele>241.71</ele>
        <time>2020-02-15T14:12:20Z</time>
      </trkpt>
      <trkpt lat="47.05911" lon="5.44018">
        <ele>243.236</ele>
        <time>2020-02-15T14:12:23Z</time>
      </trkpt>
      <trkpt lat="47.05912" lon="5.44014">
        <ele>243.954</ele>
        <time>2020-02-15T14:12:25Z</time>
      </trkpt>
      <trkpt lat="47.05916" lon="5.44006">
        <ele>246.435</ele>
        <time>2020-02-15T14:12:32Z</time>
      </trkpt>
      <trkpt lat="47.0592" lon="5.44">
        <ele>246.671</ele>
        <time>2020-02-15T14:12:37Z</time>
      </trkpt>
      <trkpt lat="47.05924" lon="5.43992">
        <ele>246</ele>
        <time>2020-02-15T14:12:42Z</time>
      </trkpt>
      <trkpt lat="47.05925" lon="5.43984">
        <ele>245.346</ele>
        <time>2020-02-15T14:12:45Z</time>
      </trkpt>
      <trkpt lat="47.05926" lon="5.43978">
        <ele>245.186</ele>
        <time>2020-02-15T14:12:47Z</time>
      </trkpt>
      <trkpt lat="47.05927" lon="5.43972">
        <ele>245.085</ele>
        <time>2020-02-15T14:12:50Z</time>
      </trkpt>
      <trkpt lat="47.0593" lon="5.43962">
        <ele>244.972</ele>
        <time>2020-02-15T14:12:55Z</time>
      </trkpt>
      <trkpt lat="47.05934" lon="5.43957">
        <ele>244.314</ele>
        <time>2020-02-15T14:12:58Z</time>
      </trkpt>
      <trkpt lat="47.05936" lon="5.43951">
        <ele>244.168</ele>
        <time>2020-02-15T14:13:01Z</time>
      </trkpt>
      <trkpt lat="47.05938" lon="5.43943">
        <ele>243.786</ele>
        <time>2020-02-15T14:13:05Z</time>
      </trkpt>
      <trkpt lat="47.0594" lon="5.43939">
        <ele>243.644</ele>
        <time>2020-02-15T14:13:08Z</time>
      </trkpt>
      <trkpt lat="47.0594" lon="5.4393">
        <ele>243.786</ele>
        <time>2020-02-15T14:13:12Z</time>
      </trkpt>
      <trkpt lat="47.05941" lon="5.43923">
        <ele>244.14</ele>
        <time>2020-02-15T14:13:15Z</time>
      </trkpt>
      <trkpt lat="47.05942" lon="5.43915">
        <ele>244.291</ele>
        <time>2020-02-15T14:13:18Z</time>
      </trkpt>
      <trkpt lat="47.05943" lon="5.43907">
        <ele>244.347</ele>
        <time>2020-02-15T14:13:21Z</time>
      </trkpt>
      <trkpt lat="47.05946" lon="5.439">
        <ele>244.663</ele>
        <time>2020-02-15T14:13:24Z</time>
      </trkpt>
      <trkpt lat="47.05949" lon="5.43891">
        <ele>245.208</ele>
        <time>2020-02-15T14:13:27Z</time>
      </trkpt>
      <trkpt lat="47.05954" lon="5.43884">
        <ele>244.93</ele>
        <time>2020-02-15T14:13:31Z</time>
      </trkpt>
      <trkpt lat="47.05957" lon="5.43879">
        <ele>244.586</ele>
        <time>2020-02-15T14:13:34Z</time>
      </trkpt>
      <trkpt lat="47.05961" lon="5.43874">
        <ele>244.208</ele>
        <time>2020-02-15T14:13:37Z</time>
      </trkpt>
      <trkpt lat="47.05963" lon="5.43868">
        <ele>243.73</ele>
        <time>2020-02-15T14:13:40Z</time>
      </trkpt>
      <trkpt lat="47.05965" lon="5.4386">
        <ele>242.469</ele>
        <time>2020-02-15T14:13:44Z</time>
      </trkpt>
      <trkpt lat="47.05967" lon="5.43855">
        <ele>241.579</ele>
        <time>2020-02-15T14:13:47Z</time>
      </trkpt>
      <trkpt lat="47.05968" lon="5.43851">
        <ele>241.021</ele>
        <time>2020-02-15T14:13:49Z</time>
      </trkpt>
      <trkpt lat="47.05971" lon="5.43846">
        <ele>240.552</ele>
        <time>2020-02-15T14:13:53Z</time>
      </trkpt>
      <trkpt lat="47.05973" lon="5.4384">
        <ele>240.738</ele>
        <time>2020-02-15T14:13:56Z</time>
      </trkpt>
      <trkpt lat="47.05972" lon="5.43832">
        <ele>241.472</ele>
        <time>2020-02-15T14:13:59Z</time>
      </trkpt>
      <trkpt lat="47.0598" lon="5.43822">
        <ele>241.719</ele>
        <time>2020-02-15T14:14:05Z</time>
      </trkpt>
      <trkpt lat="47.05988" lon="5.4382">
        <ele>241.692</ele>
        <time>2020-02-15T14:14:09Z</time>
      </trkpt>
      <trkpt lat="47.05993" lon="5.43818">
        <ele>241.674</ele>
        <time>2020-02-15T14:14:11Z</time>
      </trkpt>
      <trkpt lat="47.05997" lon="5.43812">
        <ele>241.619</ele>
        <time>2020-02-15T14:14:13Z</time>
      </trkpt>
      <trkpt lat="47.06001" lon="5.43806">
        <ele>241.576</ele>
        <time>2020-02-15T14:14:15Z</time>
      </trkpt>
      <trkpt lat="47.05999" lon="5.43798">
        <ele>241.449</ele>
        <time>2020-02-15T14:14:19Z</time>
      </trkpt>
      <trkpt lat="47.05993" lon="5.43791">
        <ele>241.114</ele>
        <time>2020-02-15T14:14:22Z</time>
      </trkpt>
      <trkpt lat="47.05986" lon="5.43786">
        <ele>241.11</ele>
        <time>2020-02-15T14:14:27Z</time>
      </trkpt>
      <trkpt lat="47.05982" lon="5.43784">
        <ele>241.099</ele>
        <time>2020-02-15T14:14:29Z</time>
      </trkpt>
      <trkpt lat="47.05976" lon="5.43777">
        <ele>241.051</ele>
        <time>2020-02-15T14:14:33Z</time>
      </trkpt>
      <trkpt lat="47.05969" lon="5.43765">
        <ele>241.229</ele>
        <time>2020-02-15T14:14:35Z</time>
      </trkpt>
      <trkpt lat="47.05966" lon="5.43758">
        <ele>241.113</ele>
        <time>2020-02-15T14:14:37Z</time>
      </trkpt>
      <trkpt lat="47.05967" lon="5.43749">
        <ele>240.863</ele>
        <time>2020-02-15T14:14:41Z</time>
      </trkpt>
      <trkpt lat="47.05968" lon="5.43745">
        <ele>240.57</ele>
        <time>2020-02-15T14:14:43Z</time>
      </trkpt>
      <trkpt lat="47.05972" lon="5.43742">
        <ele>240.392</ele>
        <time>2020-02-15T14:14:45Z</time>
      </trkpt>
      <trkpt lat="47.05976" lon="5.43733">
        <ele>240.285</ele>
        <time>2020-02-15T14:14:49Z</time>
      </trkpt>
      <trkpt lat="47.05969" lon="5.43726">
        <ele>240.065</ele>
        <time>2020-02-15T14:14:51Z</time>
      </trkpt>
      <trkpt lat="47.05965" lon="5.43721">
        <ele>239.999</ele>
        <time>2020-02-15T14:14:53Z</time>
      </trkpt>
      <trkpt lat="47.05962" lon="5.43717">
        <ele>239.954</ele>
        <time>2020-02-15T14:14:55Z</time>
      </trkpt>
      <trkpt lat="47.05953" lon="5.43707">
        <ele>239.271</ele>
        <time>2020-02-15T14:14:58Z</time>
      </trkpt>
      <trkpt lat="47.05961" lon="5.43692">
        <ele>237.084</ele>
        <time>2020-02-15T14:15:03Z</time>
      </trkpt>
      <trkpt lat="47.05973" lon="5.43684">
        <ele>240.453</ele>
        <time>2020-02-15T14:15:06Z</time>
      </trkpt>
      <trkpt lat="47.05973" lon="5.43676">
        <ele>241.925</ele>
        <time>2020-02-15T14:15:10Z</time>
      </trkpt>
      <trkpt lat="47.05973" lon="5.43669">
        <ele>243.093</ele>
        <time>2020-02-15T14:15:13Z</time>
      </trkpt>
      <trkpt lat="47.05972" lon="5.4366">
        <ele>244.009</ele>
        <time>2020-02-15T14:15:17Z</time>
      </trkpt>
      <trkpt lat="47.05974" lon="5.43652">
        <ele>242.106</ele>
        <time>2020-02-15T14:15:22Z</time>
      </trkpt>
      <trkpt lat="47.05974" lon="5.43644">
        <ele>242.772</ele>
        <time>2020-02-15T14:15:26Z</time>
      </trkpt>
      <trkpt lat="47.05978" lon="5.43639">
        <ele>241.495</ele>
        <time>2020-02-15T14:15:30Z</time>
      </trkpt>
      <trkpt lat="47.05984" lon="5.43636">
        <ele>239.36</ele>
        <time>2020-02-15T14:15:34Z</time>
      </trkpt>
      <trkpt lat="47.05989" lon="5.43633">
        <ele>237.71</ele>
        <time>2020-02-15T14:15:37Z</time>
      </trkpt>
      <trkpt lat="47.05992" lon="5.43632">
        <ele>237.486</ele>
        <time>2020-02-15T14:15:39Z</time>
      </trkpt>
      <trkpt lat="47.05995" lon="5.4363">
        <ele>238.107</ele>
        <time>2020-02-15T14:15:41Z</time>
      </trkpt>
      <trkpt lat="47.05999" lon="5.43628">
        <ele>239.03</ele>
        <time>2020-02-15T14:15:43Z</time>
      </trkpt>
      <trkpt lat="47.06002" lon="5.43625">
        <ele>239.746</ele>
        <time>2020-02-15T14:15:45Z</time>
      </trkpt>
      <trkpt lat="47.06009" lon="5.43624">
        <ele>240.117</ele>
        <time>2020-02-15T14:15:49Z</time>
      </trkpt>
      <trkpt lat="47.06012" lon="5.43624">
        <ele>240.148</ele>
        <time>2020-02-15T14:15:51Z</time>
      </trkpt>
      <trkpt lat="47.06017" lon="5.43626">
        <ele>239.486</ele>
        <time>2020-02-15T14:15:55Z</time>
      </trkpt>
      <trkpt lat="47.06022" lon="5.43629">
        <ele>238.781</ele>
        <time>2020-02-15T14:15:58Z</time>
      </trkpt>
      <trkpt lat="47.06027" lon="5.43628">
        <ele>238.376</ele>
        <time>2020-02-15T14:16:01Z</time>
      </trkpt>
      <trkpt lat="47.06033" lon="5.43628">
        <ele>239.47</ele>
        <time>2020-02-15T14:16:05Z</time>
      </trkpt>
      <trkpt lat="47.06037" lon="5.43626">
        <ele>240.551</ele>
        <time>2020-02-15T14:16:08Z</time>
      </trkpt>
      <trkpt lat="47.06039" lon="5.43624">
        <ele>241.176</ele>
        <time>2020-02-15T14:16:10Z</time>
      </trkpt>
      <trkpt lat="47.06045" lon="5.43627">
        <ele>243.218</ele>
        <time>2020-02-15T14:16:14Z</time>
      </trkpt>
      <trkpt lat="47.06053" lon="5.43629">
        <ele>244.536</ele>
        <time>2020-02-15T14:16:19Z</time>
      </trkpt>
      <trkpt lat="47.0606" lon="5.43628">
        <ele>245.025</ele>
        <time>2020-02-15T14:16:23Z</time>
      </trkpt>
      <trkpt lat="47.06062" lon="5.43627">
        <ele>244.83</ele>
        <time>2020-02-15T14:16:25Z</time>
      </trkpt>
      <trkpt lat="47.06066" lon="5.43626">
        <ele>244.923</ele>
        <time>2020-02-15T14:16:27Z</time>
      </trkpt>
      <trkpt lat="47.06071" lon="5.43627">
        <ele>244.612</ele>
        <time>2020-02-15T14:16:30Z</time>
      </trkpt>
      <trkpt lat="47.06077" lon="5.43629">
        <ele>244.793</ele>
        <time>2020-02-15T14:16:34Z</time>
      </trkpt>
      <trkpt lat="47.06082" lon="5.43629">
        <ele>244.497</ele>
        <time>2020-02-15T14:16:38Z</time>
      </trkpt>
      <trkpt lat="47.06087" lon="5.43627">
        <ele>244.246</ele>
        <time>2020-02-15T14:16:40Z</time>
      </trkpt>
      <trkpt lat="47.06091" lon="5.43626">
        <ele>243.548</ele>
        <time>2020-02-15T14:16:43Z</time>
      </trkpt>
      <trkpt lat="47.06096" lon="5.43626">
        <ele>243.455</ele>
        <time>2020-02-15T14:16:47Z</time>
      </trkpt>
      <trkpt lat="47.06101" lon="5.43626">
        <ele>244.412</ele>
        <time>2020-02-15T14:16:50Z</time>
      </trkpt>
      <trkpt lat="47.06106" lon="5.43631">
        <ele>244.12</ele>
        <time>2020-02-15T14:16:55Z</time>
      </trkpt>
      <trkpt lat="47.0611" lon="5.43634">
        <ele>243.678</ele>
        <time>2020-02-15T14:16:58Z</time>
      </trkpt>
      <trkpt lat="47.06115" lon="5.43637">
        <ele>243.853</ele>
        <time>2020-02-15T14:17:04Z</time>
      </trkpt>
      <trkpt lat="47.0612" lon="5.43637">
        <ele>243.754</ele>
        <time>2020-02-15T14:17:06Z</time>
      </trkpt>
      <trkpt lat="47.06124" lon="5.43634">
        <ele>243.562</ele>
        <time>2020-02-15T14:17:09Z</time>
      </trkpt>
      <trkpt lat="47.06128" lon="5.4363">
        <ele>243.129</ele>
        <time>2020-02-15T14:17:11Z</time>
      </trkpt>
      <trkpt lat="47.06131" lon="5.43629">
        <ele>242.978</ele>
        <time>2020-02-15T14:17:12Z</time>
      </trkpt>
      <trkpt lat="47.06135" lon="5.43626">
        <ele>242.586</ele>
        <time>2020-02-15T14:17:14Z</time>
      </trkpt>
      <trkpt lat="47.06143" lon="5.43621">
        <ele>242.404</ele>
        <time>2020-02-15T14:17:17Z</time>
      </trkpt>
      <trkpt lat="47.06146" lon="5.43619">
        <ele>242.487</ele>
        <time>2020-02-15T14:17:18Z</time>
      </trkpt>
      <trkpt lat="47.06148" lon="5.43617">
        <ele>242.663</ele>
        <time>2020-02-15T14:17:19Z</time>
      </trkpt>
      <trkpt lat="47.06152" lon="5.43611">
        <ele>242.938</ele>
        <time>2020-02-15T14:17:22Z</time>
      </trkpt>
      <trkpt lat="47.06153" lon="5.43603">
        <ele>242.27</ele>
        <time>2020-02-15T14:17:29Z</time>
      </trkpt>
      <trkpt lat="47.06155" lon="5.43595">
        <ele>242.529</ele>
        <time>2020-02-15T14:17:34Z</time>
      </trkpt>
      <trkpt lat="47.06156" lon="5.43586">
        <ele>243.147</ele>
        <time>2020-02-15T14:17:38Z</time>
      </trkpt>
      <trkpt lat="47.06156" lon="5.43577">
        <ele>242.241</ele>
        <time>2020-02-15T14:17:42Z</time>
      </trkpt>
      <trkpt lat="47.06155" lon="5.43567">
        <ele>242.541</ele>
        <time>2020-02-15T14:17:45Z</time>
      </trkpt>
      <trkpt lat="47.06158" lon="5.4356">
        <ele>242.588</ele>
        <time>2020-02-15T14:17:50Z</time>
      </trkpt>
      <trkpt lat="47.06161" lon="5.43552">
        <ele>243.731</ele>
        <time>2020-02-15T14:17:53Z</time>
      </trkpt>
      <trkpt lat="47.06166" lon="5.43549">
        <ele>244.814</ele>
        <time>2020-02-15T14:17:57Z</time>
      </trkpt>
      <trkpt lat="47.06171" lon="5.43548">
        <ele>244.992</ele>
        <time>2020-02-15T14:18:00Z</time>
      </trkpt>
      <trkpt lat="47.06179" lon="5.4355">
        <ele>243.605</ele>
        <time>2020-02-15T14:18:05Z</time>
      </trkpt>
      <trkpt lat="47.06186" lon="5.43553">
        <ele>241.936</ele>
        <time>2020-02-15T14:18:09Z</time>
      </trkpt>
      <trkpt lat="47.0619" lon="5.43556">
        <ele>241.418</ele>
        <time>2020-02-15T14:18:11Z</time>
      </trkpt>
      <trkpt lat="47.06196" lon="5.43558">
        <ele>241.007</ele>
        <time>2020-02-15T14:18:14Z</time>
      </trkpt>
      <trkpt lat="47.06202" lon="5.43559">
        <ele>240.583</ele>
        <time>2020-02-15T14:18:17Z</time>
      </trkpt>
      <trkpt lat="47.06208" lon="5.43561">
        <ele>240.415</ele>
        <time>2020-02-15T14:18:20Z</time>
      </trkpt>
      <trkpt lat="47.06213" lon="5.43562">
        <ele>239.996</ele>
        <time>2020-02-15T14:18:22Z</time>
      </trkpt>
      <trkpt lat="47.06218" lon="5.43563">
        <ele>239.799</ele>
        <time>2020-02-15T14:18:24Z</time>
      </trkpt>
      <trkpt lat="47.06225" lon="5.43566">
        <ele>239.984</ele>
        <time>2020-02-15T14:18:30Z</time>
      </trkpt>
      <trkpt lat="47.06232" lon="5.43566">
        <ele>241.113</ele>
        <time>2020-02-15T14:18:33Z</time>
      </trkpt>
      <trkpt lat="47.06241" lon="5.43567">
        <ele>242.174</ele>
        <time>2020-02-15T14:18:37Z</time>
      </trkpt>
      <trkpt lat="47.06246" lon="5.43567">
        <ele>242.758</ele>
        <time>2020-02-15T14:18:39Z</time>
      </trkpt>
      <trkpt lat="47.06249" lon="5.43566">
        <ele>244.035</ele>
        <time>2020-02-15T14:18:45Z</time>
      </trkpt>
      <trkpt lat="47.06252" lon="5.4356">
        <ele>245.197</ele>
        <time>2020-02-15T14:18:50Z</time>
      </trkpt>
      <trkpt lat="47.06253" lon="5.43555">
        <ele>245.252</ele>
        <time>2020-02-15T14:18:53Z</time>
      </trkpt>
      <trkpt lat="47.06252" lon="5.43546">
        <ele>244.144</ele>
        <time>2020-02-15T14:18:58Z</time>
      </trkpt>
      <trkpt lat="47.06251" lon="5.43539">
        <ele>244.277</ele>
        <time>2020-02-15T14:19:02Z</time>
      </trkpt>
      <trkpt lat="47.06254" lon="5.4353">
        <ele>244.614</ele>
        <time>2020-02-15T14:19:07Z</time>
      </trkpt>
      <trkpt lat="47.06258" lon="5.4352">
        <ele>245.081</ele>
        <time>2020-02-15T14:19:11Z</time>
      </trkpt>
      <trkpt lat="47.0626" lon="5.43513">
        <ele>246.033</ele>
        <time>2020-02-15T14:19:15Z</time>
      </trkpt>
      <trkpt lat="47.06259" lon="5.43506">
        <ele>246.507</ele>
        <time>2020-02-15T14:19:19Z</time>
      </trkpt>
      <trkpt lat="47.06259" lon="5.435">
        <ele>246.944</ele>
        <time>2020-02-15T14:19:23Z</time>
      </trkpt>
      <trkpt lat="47.06261" lon="5.4349">
        <ele>248.026</ele>
        <time>2020-02-15T14:19:27Z</time>
      </trkpt>
      <trkpt lat="47.06264" lon="5.43484">
        <ele>248.341</ele>
        <time>2020-02-15T14:19:30Z</time>
      </trkpt>
      <trkpt lat="47.06267" lon="5.43478">
        <ele>248.593</ele>
        <time>2020-02-15T14:19:34Z</time>
      </trkpt>
      <trkpt lat="47.06271" lon="5.43472">
        <ele>248.869</ele>
        <time>2020-02-15T14:19:38Z</time>
      </trkpt>
      <trkpt lat="47.06276" lon="5.43467">
        <ele>249.367</ele>
        <time>2020-02-15T14:19:42Z</time>
      </trkpt>
      <trkpt lat="47.06277" lon="5.43461">
        <ele>249.349</ele>
        <time>2020-02-15T14:19:47Z</time>
      </trkpt>
      <trkpt lat="47.06276" lon="5.43451">
        <ele>249.253</ele>
        <time>2020-02-15T14:19:51Z</time>
      </trkpt>
      <trkpt lat="47.06277" lon="5.43443">
        <ele>250.76</ele>
        <time>2020-02-15T14:19:57Z</time>
      </trkpt>
      <trkpt lat="47.06274" lon="5.43436">
        <ele>251.687</ele>
        <time>2020-02-15T14:20:02Z</time>
      </trkpt>
      <trkpt lat="47.06271" lon="5.43431">
        <ele>252.378</ele>
        <time>2020-02-15T14:20:05Z</time>
      </trkpt>
      <trkpt lat="47.06275" lon="5.43422">
        <ele>252.57</ele>
        <time>2020-02-15T14:20:11Z</time>
      </trkpt>
      <trkpt lat="47.06274" lon="5.43413">
        <ele>252.091</ele>
        <time>2020-02-15T14:20:14Z</time>
      </trkpt>
      <trkpt lat="47.06273" lon="5.43405">
        <ele>251.488</ele>
        <time>2020-02-15T14:20:18Z</time>
      </trkpt>
      <trkpt lat="47.06286" lon="5.43389">
        <ele>250.367</ele>
        <time>2020-02-15T14:20:29Z</time>
      </trkpt>
      <trkpt lat="47.06289" lon="5.43382">
        <ele>250.948</ele>
        <time>2020-02-15T14:20:33Z</time>
      </trkpt>
      <trkpt lat="47.06291" lon="5.43377">
        <ele>251.338</ele>
        <time>2020-02-15T14:20:35Z</time>
      </trkpt>
      <trkpt lat="47.06294" lon="5.43368">
        <ele>251.801</ele>
        <time>2020-02-15T14:20:39Z</time>
      </trkpt>
      <trkpt lat="47.06306" lon="5.43342">
        <ele>251.604</ele>
        <time>2020-02-15T14:20:50Z</time>
      </trkpt>
      <trkpt lat="47.06313" lon="5.43334">
        <ele>252.528</ele>
        <time>2020-02-15T14:20:53Z</time>
      </trkpt>
      <trkpt lat="47.0632" lon="5.4333">
        <ele>252.874</ele>
        <time>2020-02-15T14:20:55Z</time>
      </trkpt>
      <trkpt lat="47.06325" lon="5.43327">
        <ele>253.795</ele>
        <time>2020-02-15T14:20:57Z</time>
      </trkpt>
      <trkpt lat="47.0633" lon="5.43324">
        <ele>254.342</ele>
        <time>2020-02-15T14:20:59Z</time>
      </trkpt>
      <trkpt lat="47.06335" lon="5.43313">
        <ele>256.897</ele>
        <time>2020-02-15T14:21:05Z</time>
      </trkpt>
      <trkpt lat="47.06351" lon="5.4331">
        <ele>260.084</ele>
        <time>2020-02-15T14:21:13Z</time>
      </trkpt>
      <trkpt lat="47.06355" lon="5.43305">
        <ele>260.538</ele>
        <time>2020-02-15T14:21:15Z</time>
      </trkpt>
      <trkpt lat="47.06363" lon="5.43289">
        <ele>262.448</ele>
        <time>2020-02-15T14:21:23Z</time>
      </trkpt>
      <trkpt lat="47.06368" lon="5.43277">
        <ele>261.793</ele>
        <time>2020-02-15T14:21:27Z</time>
      </trkpt>
      <trkpt lat="47.0637" lon="5.43273">
        <ele>261.394</ele>
        <time>2020-02-15T14:21:30Z</time>
      </trkpt>
      <trkpt lat="47.06375" lon="5.4327">
        <ele>260.263</ele>
        <time>2020-02-15T14:21:36Z</time>
      </trkpt>
      <trkpt lat="47.06381" lon="5.43262">
        <ele>259.004</ele>
        <time>2020-02-15T14:21:39Z</time>
      </trkpt>
      <trkpt lat="47.06385" lon="5.43258">
        <ele>258.7</ele>
        <time>2020-02-15T14:21:41Z</time>
      </trkpt>
      <trkpt lat="47.06383" lon="5.43248">
        <ele>259.132</ele>
        <time>2020-02-15T14:21:45Z</time>
      </trkpt>
      <trkpt lat="47.06386" lon="5.43242">
        <ele>258.464</ele>
        <time>2020-02-15T14:21:48Z</time>
      </trkpt>
      <trkpt lat="47.06393" lon="5.43243">
        <ele>257.426</ele>
        <time>2020-02-15T14:21:53Z</time>
      </trkpt>
      <trkpt lat="47.06396" lon="5.43244">
        <ele>256.652</ele>
        <time>2020-02-15T14:21:55Z</time>
      </trkpt>
      <trkpt lat="47.064" lon="5.43238">
        <ele>252.245</ele>
        <time>2020-02-15T14:22:00Z</time>
      </trkpt>
      <trkpt lat="47.06403" lon="5.43235">
        <ele>248.696</ele>
        <time>2020-02-15T14:22:04Z</time>
      </trkpt>
      <trkpt lat="47.06407" lon="5.43234">
        <ele>247.887</ele>
        <time>2020-02-15T14:22:07Z</time>
      </trkpt>
      <trkpt lat="47.06412" lon="5.43232">
        <ele>249.013</ele>
        <time>2020-02-15T14:22:11Z</time>
      </trkpt>
      <trkpt lat="47.06414" lon="5.43225">
        <ele>250.886</ele>
        <time>2020-02-15T14:22:15Z</time>
      </trkpt>
      <trkpt lat="47.06413" lon="5.43213">
        <ele>251.921</ele>
        <time>2020-02-15T14:22:19Z</time>
      </trkpt>
      <trkpt lat="47.06415" lon="5.43204">
        <ele>252.924</ele>
        <time>2020-02-15T14:22:22Z</time>
      </trkpt>
      <trkpt lat="47.06418" lon="5.43192">
        <ele>254.381</ele>
        <time>2020-02-15T14:22:25Z</time>
      </trkpt>
      <trkpt lat="47.06419" lon="5.43189">
        <ele>254.827</ele>
        <time>2020-02-15T14:22:26Z</time>
      </trkpt>
      <trkpt lat="47.06423" lon="5.43182">
        <ele>255.793</ele>
        <time>2020-02-15T14:22:30Z</time>
      </trkpt>
      <trkpt lat="47.06428" lon="5.43173">
        <ele>256.842</ele>
        <time>2020-02-15T14:22:34Z</time>
      </trkpt>
      <trkpt lat="47.06429" lon="5.43166">
        <ele>257.835</ele>
        <time>2020-02-15T14:22:37Z</time>
      </trkpt>
      <trkpt lat="47.0643" lon="5.43161">
        <ele>257.855</ele>
        <time>2020-02-15T14:22:41Z</time>
      </trkpt>
      <trkpt lat="47.06431" lon="5.43157">
        <ele>257.918</ele>
        <time>2020-02-15T14:22:44Z</time>
      </trkpt>
      <trkpt lat="47.06429" lon="5.43151">
        <ele>258.527</ele>
        <time>2020-02-15T14:22:49Z</time>
      </trkpt>
      <trkpt lat="47.06432" lon="5.43145">
        <ele>257.285</ele>
        <time>2020-02-15T14:22:53Z</time>
      </trkpt>
      <trkpt lat="47.06435" lon="5.4314">
        <ele>256.842</ele>
        <time>2020-02-15T14:22:57Z</time>
      </trkpt>
      <trkpt lat="47.06437" lon="5.43133">
        <ele>257.672</ele>
        <time>2020-02-15T14:23:02Z</time>
      </trkpt>
      <trkpt lat="47.06439" lon="5.43127">
        <ele>255.315</ele>
        <time>2020-02-15T14:23:06Z</time>
      </trkpt>
      <trkpt lat="47.06441" lon="5.43123">
        <ele>253.695</ele>
        <time>2020-02-15T14:23:08Z</time>
      </trkpt>
      <trkpt lat="47.06442" lon="5.43114">
        <ele>252.274</ele>
        <time>2020-02-15T14:23:12Z</time>
      </trkpt>
      <trkpt lat="47.06441" lon="5.43104">
        <ele>252.328</ele>
        <time>2020-02-15T14:23:17Z</time>
      </trkpt>
      <trkpt lat="47.06441" lon="5.43095">
        <ele>251.884</ele>
        <time>2020-02-15T14:23:22Z</time>
      </trkpt>
      <trkpt lat="47.0644" lon="5.43089">
        <ele>251.754</ele>
        <time>2020-02-15T14:23:25Z</time>
      </trkpt>
      <trkpt lat="47.06439" lon="5.43081">
        <ele>251.737</ele>
        <time>2020-02-15T14:23:28Z</time>
      </trkpt>
      <trkpt lat="47.06438" lon="5.43075">
        <ele>251.845</ele>
        <time>2020-02-15T14:23:30Z</time>
      </trkpt>
      <trkpt lat="47.06438" lon="5.43065">
        <ele>251.856</ele>
        <time>2020-02-15T14:23:36Z</time>
      </trkpt>
      <trkpt lat="47.06439" lon="5.43056">
        <ele>251.843</ele>
        <time>2020-02-15T14:23:40Z</time>
      </trkpt>
      <trkpt lat="47.06439" lon="5.43047">
        <ele>251.218</ele>
        <time>2020-02-15T14:23:43Z</time>
      </trkpt>
      <trkpt lat="47.06439" lon="5.4304">
        <ele>250.484</ele>
        <time>2020-02-15T14:23:46Z</time>
      </trkpt>
      <trkpt lat="47.06439" lon="5.43029">
        <ele>249.558</ele>
        <time>2020-02-15T14:23:50Z</time>
      </trkpt>
      <trkpt lat="47.06437" lon="5.43023">
        <ele>249.574</ele>
        <time>2020-02-15T14:23:53Z</time>
      </trkpt>
      <trkpt lat="47.06436" lon="5.43018">
        <ele>249.492</ele>
        <time>2020-02-15T14:23:55Z</time>
      </trkpt>
      <trkpt lat="47.06436" lon="5.43011">
        <ele>249.306</ele>
        <time>2020-02-15T14:23:58Z</time>
      </trkpt>
      <trkpt lat="47.06439" lon="5.43004">
        <ele>249.415</ele>
        <time>2020-02-15T14:24:03Z</time>
      </trkpt>
      <trkpt lat="47.06439" lon="5.42997">
        <ele>248.773</ele>
        <time>2020-02-15T14:24:06Z</time>
      </trkpt>
      <trkpt lat="47.06439" lon="5.42992">
        <ele>248.191</ele>
        <time>2020-02-15T14:24:08Z</time>
      </trkpt>
      <trkpt lat="47.06439" lon="5.42986">
        <ele>248.037</ele>
        <time>2020-02-15T14:24:10Z</time>
      </trkpt>
      <trkpt lat="47.06438" lon="5.42975">
        <ele>248.081</ele>
        <time>2020-02-15T14:24:14Z</time>
      </trkpt>
      <trkpt lat="47.06438" lon="5.42964">
        <ele>248.55</ele>
        <time>2020-02-15T14:24:19Z</time>
      </trkpt>
      <trkpt lat="47.06436" lon="5.42955">
        <ele>249.586</ele>
        <time>2020-02-15T14:24:22Z</time>
      </trkpt>
      <trkpt lat="47.06435" lon="5.42949">
        <ele>250.206</ele>
        <time>2020-02-15T14:24:24Z</time>
      </trkpt>
      <trkpt lat="47.06434" lon="5.42943">
        <ele>250.538</ele>
        <time>2020-02-15T14:24:26Z</time>
      </trkpt>
      <trkpt lat="47.06432" lon="5.42937">
        <ele>250.654</ele>
        <time>2020-02-15T14:24:29Z</time>
      </trkpt>
      <trkpt lat="47.06432" lon="5.42926">
        <ele>250.303</ele>
        <time>2020-02-15T14:24:33Z</time>
      </trkpt>
      <trkpt lat="47.06434" lon="5.42919">
        <ele>249.156</ele>
        <time>2020-02-15T14:24:37Z</time>
      </trkpt>
      <trkpt lat="47.06438" lon="5.42914">
        <ele>248.52</ele>
        <time>2020-02-15T14:24:42Z</time>
      </trkpt>
      <trkpt lat="47.06441" lon="5.42907">
        <ele>248.176</ele>
        <time>2020-02-15T14:24:47Z</time>
      </trkpt>
      <trkpt lat="47.06442" lon="5.42896">
        <ele>246.14</ele>
        <time>2020-02-15T14:24:52Z</time>
      </trkpt>
      <trkpt lat="47.06442" lon="5.4289">
        <ele>245.88</ele>
        <time>2020-02-15T14:24:54Z</time>
      </trkpt>
      <trkpt lat="47.06442" lon="5.42884">
        <ele>245.916</ele>
        <time>2020-02-15T14:24:57Z</time>
      </trkpt>
      <trkpt lat="47.0644" lon="5.42873">
        <ele>246.693</ele>
        <time>2020-02-15T14:25:03Z</time>
      </trkpt>
      <trkpt lat="47.06439" lon="5.42867">
        <ele>246.931</ele>
        <time>2020-02-15T14:25:05Z</time>
      </trkpt>
      <trkpt lat="47.06437" lon="5.42854">
        <ele>247.303</ele>
        <time>2020-02-15T14:25:09Z</time>
      </trkpt>
      <trkpt lat="47.06437" lon="5.4285">
        <ele>248.134</ele>
        <time>2020-02-15T14:25:11Z</time>
      </trkpt>
      <trkpt lat="47.06438" lon="5.42843">
        <ele>248.121</ele>
        <time>2020-02-15T14:25:15Z</time>
      </trkpt>
      <trkpt lat="47.06442" lon="5.42835">
        <ele>246.788</ele>
        <time>2020-02-15T14:25:19Z</time>
      </trkpt>
      <trkpt lat="47.06445" lon="5.4283">
        <ele>245.865</ele>
        <time>2020-02-15T14:25:22Z</time>
      </trkpt>
      <trkpt lat="47.06447" lon="5.42822">
        <ele>245.403</ele>
        <time>2020-02-15T14:25:25Z</time>
      </trkpt>
      <trkpt lat="47.06448" lon="5.42813">
        <ele>246.036</ele>
        <time>2020-02-15T14:25:28Z</time>
      </trkpt>
      <trkpt lat="47.06448" lon="5.42809">
        <ele>246.25</ele>
        <time>2020-02-15T14:25:30Z</time>
      </trkpt>
      <trkpt lat="47.06448" lon="5.42799">
        <ele>246.12</ele>
        <time>2020-02-15T14:25:34Z</time>
      </trkpt>
      <trkpt lat="47.06447" lon="5.42792">
        <ele>246.257</ele>
        <time>2020-02-15T14:25:36Z</time>
      </trkpt>
      <trkpt lat="47.06447" lon="5.42782">
        <ele>246.457</ele>
        <time>2020-02-15T14:25:40Z</time>
      </trkpt>
      <trkpt lat="47.06448" lon="5.42773">
        <ele>247.045</ele>
        <time>2020-02-15T14:25:43Z</time>
      </trkpt>
      <trkpt lat="47.06447" lon="5.42763">
        <ele>247.606</ele>
        <time>2020-02-15T14:25:46Z</time>
      </trkpt>
      <trkpt lat="47.06449" lon="5.42756">
        <ele>247.856</ele>
        <time>2020-02-15T14:25:49Z</time>
      </trkpt>
      <trkpt lat="47.06452" lon="5.4275">
        <ele>247.246</ele>
        <time>2020-02-15T14:25:55Z</time>
      </trkpt>
      <trkpt lat="47.06454" lon="5.42742">
        <ele>246.986</ele>
        <time>2020-02-15T14:25:59Z</time>
      </trkpt>
      <trkpt lat="47.06455" lon="5.42739">
        <ele>246.901</ele>
        <time>2020-02-15T14:26:01Z</time>
      </trkpt>
      <trkpt lat="47.06456" lon="5.42732">
        <ele>247.177</ele>
        <time>2020-02-15T14:26:04Z</time>
      </trkpt>
      <trkpt lat="47.06456" lon="5.42728">
        <ele>248.216</ele>
        <time>2020-02-15T14:26:06Z</time>
      </trkpt>
      <trkpt lat="47.06457" lon="5.42722">
        <ele>249.796</ele>
        <time>2020-02-15T14:26:09Z</time>
      </trkpt>
      <trkpt lat="47.06458" lon="5.42713">
        <ele>250.662</ele>
        <time>2020-02-15T14:26:13Z</time>
      </trkpt>
      <trkpt lat="47.06458" lon="5.42709">
        <ele>250.981</ele>
        <time>2020-02-15T14:26:15Z</time>
      </trkpt>
      <trkpt lat="47.06455" lon="5.427">
        <ele>251.359</ele>
        <time>2020-02-15T14:26:19Z</time>
      </trkpt>
      <trkpt lat="47.06454" lon="5.42693">
        <ele>251.564</ele>
        <time>2020-02-15T14:26:23Z</time>
      </trkpt>
      <trkpt lat="47.06453" lon="5.42684">
        <ele>251.237</ele>
        <time>2020-02-15T14:26:28Z</time>
      </trkpt>
      <trkpt lat="47.06448" lon="5.42678">
        <ele>250.875</ele>
        <time>2020-02-15T14:26:32Z</time>
      </trkpt>
      <trkpt lat="47.0644" lon="5.42674">
        <ele>251.345</ele>
        <time>2020-02-15T14:26:36Z</time>
      </trkpt>
      <trkpt lat="47.06433" lon="5.42669">
        <ele>251.906</ele>
        <time>2020-02-15T14:26:41Z</time>
      </trkpt>
      <trkpt lat="47.06427" lon="5.4267">
        <ele>251.764</ele>
        <time>2020-02-15T14:26:45Z</time>
      </trkpt>
      <trkpt lat="47.06421" lon="5.4267">
        <ele>251.175</ele>
        <time>2020-02-15T14:26:50Z</time>
      </trkpt>
      <trkpt lat="47.06417" lon="5.42677">
        <ele>250.171</ele>
        <time>2020-02-15T14:26:53Z</time>
      </trkpt>
      <trkpt lat="47.06413" lon="5.4268">
        <ele>249.257</ele>
        <time>2020-02-15T14:26:56Z</time>
      </trkpt>
      <trkpt lat="47.06407" lon="5.42678">
        <ele>250.003</ele>
        <time>2020-02-15T14:27:01Z</time>
      </trkpt>
      <trkpt lat="47.06401" lon="5.42678">
        <ele>249.679</ele>
        <time>2020-02-15T14:27:04Z</time>
      </trkpt>
      <trkpt lat="47.06394" lon="5.42681">
        <ele>248.827</ele>
        <time>2020-02-15T14:27:07Z</time>
      </trkpt>
      <trkpt lat="47.06386" lon="5.42679">
        <ele>248.534</ele>
        <time>2020-02-15T14:27:11Z</time>
      </trkpt>
      <trkpt lat="47.06381" lon="5.4268">
        <ele>248.622</ele>
        <time>2020-02-15T14:27:13Z</time>
      </trkpt>
      <trkpt lat="47.06373" lon="5.42681">
        <ele>248.938</ele>
        <time>2020-02-15T14:27:17Z</time>
      </trkpt>
      <trkpt lat="47.06369" lon="5.42682">
        <ele>249.289</ele>
        <time>2020-02-15T14:27:19Z</time>
      </trkpt>
      <trkpt lat="47.06365" lon="5.42678">
        <ele>248.839</ele>
        <time>2020-02-15T14:27:23Z</time>
      </trkpt>
      <trkpt lat="47.0636" lon="5.42677">
        <ele>247.481</ele>
        <time>2020-02-15T14:27:27Z</time>
      </trkpt>
      <trkpt lat="47.06356" lon="5.42671">
        <ele>246.314</ele>
        <time>2020-02-15T14:27:31Z</time>
      </trkpt>
      <trkpt lat="47.06352" lon="5.42672">
        <ele>245.405</ele>
        <time>2020-02-15T14:27:34Z</time>
      </trkpt>
      <trkpt lat="47.06346" lon="5.42672">
        <ele>243.27</ele>
        <time>2020-02-15T14:27:38Z</time>
      </trkpt>
      <trkpt lat="47.06338" lon="5.42671">
        <ele>243.146</ele>
        <time>2020-02-15T14:27:43Z</time>
      </trkpt>
      <trkpt lat="47.06333" lon="5.42674">
        <ele>243.341</ele>
        <time>2020-02-15T14:27:46Z</time>
      </trkpt>
      <trkpt lat="47.06329" lon="5.42669">
        <ele>242.51</ele>
        <time>2020-02-15T14:27:50Z</time>
      </trkpt>
      <trkpt lat="47.06324" lon="5.42667">
        <ele>242.139</ele>
        <time>2020-02-15T14:27:54Z</time>
      </trkpt>
      <trkpt lat="47.06318" lon="5.42668">
        <ele>241.755</ele>
        <time>2020-02-15T14:27:57Z</time>
      </trkpt>
      <trkpt lat="47.06312" lon="5.42669">
        <ele>241.181</ele>
        <time>2020-02-15T14:28:00Z</time>
      </trkpt>
      <trkpt lat="47.06308" lon="5.42669">
        <ele>240.388</ele>
        <time>2020-02-15T14:28:02Z</time>
      </trkpt>
      <trkpt lat="47.06305" lon="5.4267">
        <ele>239.874</ele>
        <time>2020-02-15T14:28:04Z</time>
      </trkpt>
      <trkpt lat="47.06299" lon="5.4267">
        <ele>239.59</ele>
        <time>2020-02-15T14:28:08Z</time>
      </trkpt>
      <trkpt lat="47.06294" lon="5.42666">
        <ele>239.056</ele>
        <time>2020-02-15T14:28:12Z</time>
      </trkpt>
      <trkpt lat="47.06291" lon="5.4266">
        <ele>237.88</ele>
        <time>2020-02-15T14:28:15Z</time>
      </trkpt>
      <trkpt lat="47.06289" lon="5.42657">
        <ele>237.365</ele>
        <time>2020-02-15T14:28:17Z</time>
      </trkpt>
      <trkpt lat="47.06287" lon="5.42648">
        <ele>237.475</ele>
        <time>2020-02-15T14:28:22Z</time>
      </trkpt>
      <trkpt lat="47.06285" lon="5.42642">
        <ele>237.843</ele>
        <time>2020-02-15T14:28:24Z</time>
      </trkpt>
      <trkpt lat="47.06285" lon="5.42633">
        <ele>237.481</ele>
        <time>2020-02-15T14:28:28Z</time>
      </trkpt>
      <trkpt lat="47.06286" lon="5.42622">
        <ele>236.156</ele>
        <time>2020-02-15T14:28:32Z</time>
      </trkpt>
      <trkpt lat="47.06288" lon="5.42615">
        <ele>234.037</ele>
        <time>2020-02-15T14:28:36Z</time>
      </trkpt>
      <trkpt lat="47.06289" lon="5.42605">
        <ele>230.666</ele>
        <time>2020-02-15T14:28:40Z</time>
      </trkpt>
      <trkpt lat="47.06289" lon="5.426">
        <ele>229.387</ele>
        <time>2020-02-15T14:28:42Z</time>
      </trkpt>
      <trkpt lat="47.06289" lon="5.42592">
        <ele>227.72</ele>
        <time>2020-02-15T14:28:45Z</time>
      </trkpt>
      <trkpt lat="47.06286" lon="5.42585">
        <ele>227.245</ele>
        <time>2020-02-15T14:28:48Z</time>
      </trkpt>
      <trkpt lat="47.06283" lon="5.42578">
        <ele>228.158</ele>
        <time>2020-02-15T14:28:51Z</time>
      </trkpt>
      <trkpt lat="47.06279" lon="5.42572">
        <ele>229.842</ele>
        <time>2020-02-15T14:28:55Z</time>
      </trkpt>
      <trkpt lat="47.06273" lon="5.42569">
        <ele>230.819</ele>
        <time>2020-02-15T14:28:58Z</time>
      </trkpt>
      <trkpt lat="47.06269" lon="5.42563">
        <ele>232.02</ele>
        <time>2020-02-15T14:29:02Z</time>
      </trkpt>
      <trkpt lat="47.06264" lon="5.42556">
        <ele>234.55</ele>
        <time>2020-02-15T14:29:06Z</time>
      </trkpt>
      <trkpt lat="47.06259" lon="5.4255">
        <ele>235.55</ele>
        <time>2020-02-15T14:29:09Z</time>
      </trkpt>
      <trkpt lat="47.06258" lon="5.42547">
        <ele>235.412</ele>
        <time>2020-02-15T14:29:10Z</time>
      </trkpt>
      <trkpt lat="47.06256" lon="5.42544">
        <ele>234.996</ele>
        <time>2020-02-15T14:29:12Z</time>
      </trkpt>
      <trkpt lat="47.06255" lon="5.42537">
        <ele>238.029</ele>
        <time>2020-02-15T14:29:19Z</time>
      </trkpt>
      <trkpt lat="47.06254" lon="5.42529">
        <ele>240.54</ele>
        <time>2020-02-15T14:29:23Z</time>
      </trkpt>
      <trkpt lat="47.06253" lon="5.42524">
        <ele>241.067</ele>
        <time>2020-02-15T14:29:25Z</time>
      </trkpt>
      <trkpt lat="47.06252" lon="5.42519">
        <ele>241.305</ele>
        <time>2020-02-15T14:29:27Z</time>
      </trkpt>
      <trkpt lat="47.06249" lon="5.42511">
        <ele>241.753</ele>
        <time>2020-02-15T14:29:30Z</time>
      </trkpt>
      <trkpt lat="47.06249" lon="5.425">
        <ele>242.319</ele>
        <time>2020-02-15T14:29:34Z</time>
      </trkpt>
      <trkpt lat="47.06247" lon="5.42493">
        <ele>242.38</ele>
        <time>2020-02-15T14:29:36Z</time>
      </trkpt>
      <trkpt lat="47.06245" lon="5.42487">
        <ele>242.358</ele>
        <time>2020-02-15T14:29:38Z</time>
      </trkpt>
      <trkpt lat="47.06244" lon="5.42481">
        <ele>241.948</ele>
        <time>2020-02-15T14:29:41Z</time>
      </trkpt>
      <trkpt lat="47.06245" lon="5.42472">
        <ele>241.721</ele>
        <time>2020-02-15T14:29:45Z</time>
      </trkpt>
      <trkpt lat="47.06246" lon="5.42461">
        <ele>240.75</ele>
        <time>2020-02-15T14:29:49Z</time>
      </trkpt>
      <trkpt lat="47.06249" lon="5.42454">
        <ele>239.901</ele>
        <time>2020-02-15T14:29:53Z</time>
      </trkpt>
      <trkpt lat="47.06244" lon="5.42443">
        <ele>241.641</ele>
        <time>2020-02-15T14:29:58Z</time>
      </trkpt>
      <trkpt lat="47.06244" lon="5.42435">
        <ele>243.735</ele>
        <time>2020-02-15T14:30:03Z</time>
      </trkpt>
      <trkpt lat="47.06244" lon="5.42428">
        <ele>244.311</ele>
        <time>2020-02-15T14:30:07Z</time>
      </trkpt>
      <trkpt lat="47.06237" lon="5.42421">
        <ele>243.866</ele>
        <time>2020-02-15T14:30:11Z</time>
      </trkpt>
      <trkpt lat="47.06235" lon="5.42418">
        <ele>243.597</ele>
        <time>2020-02-15T14:30:13Z</time>
      </trkpt>
      <trkpt lat="47.0623" lon="5.4241">
        <ele>242.512</ele>
        <time>2020-02-15T14:30:17Z</time>
      </trkpt>
      <trkpt lat="47.0623" lon="5.42402">
        <ele>239.918</ele>
        <time>2020-02-15T14:30:22Z</time>
      </trkpt>
      <trkpt lat="47.0623" lon="5.42393">
        <ele>237.722</ele>
        <time>2020-02-15T14:30:26Z</time>
      </trkpt>
      <trkpt lat="47.06227" lon="5.42387">
        <ele>236.988</ele>
        <time>2020-02-15T14:30:28Z</time>
      </trkpt>
      <trkpt lat="47.06225" lon="5.4238">
        <ele>235.481</ele>
        <time>2020-02-15T14:30:31Z</time>
      </trkpt>
      <trkpt lat="47.06222" lon="5.4237">
        <ele>234.655</ele>
        <time>2020-02-15T14:30:35Z</time>
      </trkpt>
      <trkpt lat="47.06212" lon="5.42359">
        <ele>234.629</ele>
        <time>2020-02-15T14:30:39Z</time>
      </trkpt>
      <trkpt lat="47.0621" lon="5.42352">
        <ele>236.251</ele>
        <time>2020-02-15T14:30:44Z</time>
      </trkpt>
      <trkpt lat="47.06207" lon="5.42343">
        <ele>236.463</ele>
        <time>2020-02-15T14:30:47Z</time>
      </trkpt>
      <trkpt lat="47.06202" lon="5.42334">
        <ele>235.622</ele>
        <time>2020-02-15T14:30:51Z</time>
      </trkpt>
      <trkpt lat="47.06199" lon="5.42328">
        <ele>235.118</ele>
        <time>2020-02-15T14:30:54Z</time>
      </trkpt>
      <trkpt lat="47.06201" lon="5.4232">
        <ele>234.846</ele>
        <time>2020-02-15T14:30:59Z</time>
      </trkpt>
      <trkpt lat="47.062" lon="5.42312">
        <ele>234.187</ele>
        <time>2020-02-15T14:31:03Z</time>
      </trkpt>
      <trkpt lat="47.06202" lon="5.42305">
        <ele>232.999</ele>
        <time>2020-02-15T14:31:08Z</time>
      </trkpt>
      <trkpt lat="47.062" lon="5.42298">
        <ele>231.036</ele>
        <time>2020-02-15T14:31:14Z</time>
      </trkpt>
      <trkpt lat="47.062" lon="5.42294">
        <ele>229.63</ele>
        <time>2020-02-15T14:31:16Z</time>
      </trkpt>
      <trkpt lat="47.06199" lon="5.42285">
        <ele>228.725</ele>
        <time>2020-02-15T14:31:20Z</time>
      </trkpt>
      <trkpt lat="47.06197" lon="5.42278">
        <ele>229.43</ele>
        <time>2020-02-15T14:31:23Z</time>
      </trkpt>
      <trkpt lat="47.06195" lon="5.42273">
        <ele>229.965</ele>
        <time>2020-02-15T14:31:25Z</time>
      </trkpt>
      <trkpt lat="47.06194" lon="5.42269">
        <ele>229.933</ele>
        <time>2020-02-15T14:31:27Z</time>
      </trkpt>
      <trkpt lat="47.06192" lon="5.42262">
        <ele>229.961</ele>
        <time>2020-02-15T14:31:30Z</time>
      </trkpt>
      <trkpt lat="47.06191" lon="5.42254">
        <ele>229.986</ele>
        <time>2020-02-15T14:31:33Z</time>
      </trkpt>
      <trkpt lat="47.0619" lon="5.42249">
        <ele>229.632</ele>
        <time>2020-02-15T14:31:35Z</time>
      </trkpt>
      <trkpt lat="47.06189" lon="5.42244">
        <ele>228.728</ele>
        <time>2020-02-15T14:31:37Z</time>
      </trkpt>
      <trkpt lat="47.06188" lon="5.42239">
        <ele>227.748</ele>
        <time>2020-02-15T14:31:39Z</time>
      </trkpt>
      <trkpt lat="47.06188" lon="5.42232">
        <ele>227.164</ele>
        <time>2020-02-15T14:31:43Z</time>
      </trkpt>
      <trkpt lat="47.06189" lon="5.42225">
        <ele>226.446</ele>
        <time>2020-02-15T14:31:46Z</time>
      </trkpt>
      <trkpt lat="47.06191" lon="5.42216">
        <ele>226.1</ele>
        <time>2020-02-15T14:31:50Z</time>
      </trkpt>
      <trkpt lat="47.06191" lon="5.4221">
        <ele>227.22</ele>
        <time>2020-02-15T14:31:53Z</time>
      </trkpt>
      <trkpt lat="47.06188" lon="5.42203">
        <ele>229.485</ele>
        <time>2020-02-15T14:31:56Z</time>
      </trkpt>
      <trkpt lat="47.06184" lon="5.42198">
        <ele>231.426</ele>
        <time>2020-02-15T14:31:59Z</time>
      </trkpt>
      <trkpt lat="47.06185" lon="5.42189">
        <ele>232.466</ele>
        <time>2020-02-15T14:32:04Z</time>
      </trkpt>
      <trkpt lat="47.06184" lon="5.4218">
        <ele>233.475</ele>
        <time>2020-02-15T14:32:08Z</time>
      </trkpt>
      <trkpt lat="47.06184" lon="5.42176">
        <ele>233.721</ele>
        <time>2020-02-15T14:32:09Z</time>
      </trkpt>
      <trkpt lat="47.06181" lon="5.42169">
        <ele>234.925</ele>
        <time>2020-02-15T14:32:12Z</time>
      </trkpt>
      <trkpt lat="47.06178" lon="5.42164">
        <ele>236.71</ele>
        <time>2020-02-15T14:32:15Z</time>
      </trkpt>
      <trkpt lat="47.06179" lon="5.42156">
        <ele>239.424</ele>
        <time>2020-02-15T14:32:20Z</time>
      </trkpt>
      <trkpt lat="47.0618" lon="5.42153">
        <ele>240.578</ele>
        <time>2020-02-15T14:32:22Z</time>
      </trkpt>
      <trkpt lat="47.0618" lon="5.42143">
        <ele>241.713</ele>
        <time>2020-02-15T14:32:27Z</time>
      </trkpt>
      <trkpt lat="47.0618" lon="5.42133">
        <ele>242.457</ele>
        <time>2020-02-15T14:32:30Z</time>
      </trkpt>
      <trkpt lat="47.0618" lon="5.42129">
        <ele>243.164</ele>
        <time>2020-02-15T14:32:32Z</time>
      </trkpt>
      <trkpt lat="47.06179" lon="5.42121">
        <ele>245.372</ele>
        <time>2020-02-15T14:32:36Z</time>
      </trkpt>
      <trkpt lat="47.06179" lon="5.42117">
        <ele>245.322</ele>
        <time>2020-02-15T14:32:38Z</time>
      </trkpt>
      <trkpt lat="47.06183" lon="5.42108">
        <ele>245.12</ele>
        <time>2020-02-15T14:32:43Z</time>
      </trkpt>
      <trkpt lat="47.06185" lon="5.42099">
        <ele>244.139</ele>
        <time>2020-02-15T14:32:47Z</time>
      </trkpt>
      <trkpt lat="47.06184" lon="5.42092">
        <ele>243.816</ele>
        <time>2020-02-15T14:32:50Z</time>
      </trkpt>
      <trkpt lat="47.06182" lon="5.42085">
        <ele>244.356</ele>
        <time>2020-02-15T14:32:54Z</time>
      </trkpt>
      <trkpt lat="47.06179" lon="5.42078">
        <ele>245.092</ele>
        <time>2020-02-15T14:32:57Z</time>
      </trkpt>
      <trkpt lat="47.06177" lon="5.42066">
        <ele>244.989</ele>
        <time>2020-02-15T14:33:02Z</time>
      </trkpt>
      <trkpt lat="47.06182" lon="5.42057">
        <ele>245.799</ele>
        <time>2020-02-15T14:33:07Z</time>
      </trkpt>
      <trkpt lat="47.06185" lon="5.42052">
        <ele>246.077</ele>
        <time>2020-02-15T14:33:10Z</time>
      </trkpt>
      <trkpt lat="47.06189" lon="5.42048">
        <ele>247.729</ele>
        <time>2020-02-15T14:33:15Z</time>
      </trkpt>
      <trkpt lat="47.06192" lon="5.4204">
        <ele>248.415</ele>
        <time>2020-02-15T14:33:20Z</time>
      </trkpt>
      <trkpt lat="47.06193" lon="5.42036">
        <ele>248.886</ele>
        <time>2020-02-15T14:33:23Z</time>
      </trkpt>
      <trkpt lat="47.06192" lon="5.42017">
        <ele>247.47</ele>
        <time>2020-02-15T14:33:27Z</time>
      </trkpt>
      <trkpt lat="47.06191" lon="5.42011">
        <ele>246.999</ele>
        <time>2020-02-15T14:33:29Z</time>
      </trkpt>
      <trkpt lat="47.06187" lon="5.42005">
        <ele>247.059</ele>
        <time>2020-02-15T14:33:32Z</time>
      </trkpt>
      <trkpt lat="47.06186" lon="5.41992">
        <ele>247.492</ele>
        <time>2020-02-15T14:33:37Z</time>
      </trkpt>
      <trkpt lat="47.06186" lon="5.41982">
        <ele>247.7</ele>
        <time>2020-02-15T14:33:39Z</time>
      </trkpt>
      <trkpt lat="47.06186" lon="5.41975">
        <ele>248.14</ele>
        <time>2020-02-15T14:33:41Z</time>
      </trkpt>
      <trkpt lat="47.06186" lon="5.41964">
        <ele>249.439</ele>
        <time>2020-02-15T14:33:45Z</time>
      </trkpt>
      <trkpt lat="47.06186" lon="5.41957">
        <ele>250.308</ele>
        <time>2020-02-15T14:33:48Z</time>
      </trkpt>
      <trkpt lat="47.06186" lon="5.41952">
        <ele>250.619</ele>
        <time>2020-02-15T14:33:50Z</time>
      </trkpt>
      <trkpt lat="47.06187" lon="5.41944">
        <ele>250.918</ele>
        <time>2020-02-15T14:33:53Z</time>
      </trkpt>
      <trkpt lat="47.06186" lon="5.41936">
        <ele>252.437</ele>
        <time>2020-02-15T14:33:57Z</time>
      </trkpt>
      <trkpt lat="47.06184" lon="5.4193">
        <ele>254.483</ele>
        <time>2020-02-15T14:34:00Z</time>
      </trkpt>
      <trkpt lat="47.06183" lon="5.41922">
        <ele>257.615</ele>
        <time>2020-02-15T14:34:06Z</time>
      </trkpt>
      <trkpt lat="47.06188" lon="5.41919">
        <ele>258.949</ele>
        <time>2020-02-15T14:34:12Z</time>
      </trkpt>
      <trkpt lat="47.06192" lon="5.41914">
        <ele>260.172</ele>
        <time>2020-02-15T14:34:16Z</time>
      </trkpt>
      <trkpt lat="47.06198" lon="5.41913">
        <ele>257.1</ele>
        <time>2020-02-15T14:34:18Z</time>
      </trkpt>
      <trkpt lat="47.06203" lon="5.41908">
        <ele>253.93</ele>
        <time>2020-02-15T14:34:21Z</time>
      </trkpt>
      <trkpt lat="47.06204" lon="5.419">
        <ele>251.459</ele>
        <time>2020-02-15T14:34:24Z</time>
      </trkpt>
      <trkpt lat="47.06205" lon="5.41896">
        <ele>251.613</ele>
        <time>2020-02-15T14:34:26Z</time>
      </trkpt>
      <trkpt lat="47.06206" lon="5.41891">
        <ele>252.147</ele>
        <time>2020-02-15T14:34:28Z</time>
      </trkpt>
      <trkpt lat="47.06205" lon="5.41882">
        <ele>251.677</ele>
        <time>2020-02-15T14:34:31Z</time>
      </trkpt>
      <trkpt lat="47.06204" lon="5.41878">
        <ele>252.347</ele>
        <time>2020-02-15T14:34:35Z</time>
      </trkpt>
      <trkpt lat="47.06204" lon="5.41873">
        <ele>252.682</ele>
        <time>2020-02-15T14:34:38Z</time>
      </trkpt>
      <trkpt lat="47.06207" lon="5.41863">
        <ele>254.134</ele>
        <time>2020-02-15T14:34:43Z</time>
      </trkpt>
      <trkpt lat="47.06211" lon="5.41855">
        <ele>253.845</ele>
        <time>2020-02-15T14:34:47Z</time>
      </trkpt>
      <trkpt lat="47.06212" lon="5.41846">
        <ele>251.499</ele>
        <time>2020-02-15T14:34:51Z</time>
      </trkpt>
      <trkpt lat="47.06219" lon="5.41841">
        <ele>250.877</ele>
        <time>2020-02-15T14:34:54Z</time>
      </trkpt>
      <trkpt lat="47.06223" lon="5.41838">
        <ele>250.452</ele>
        <time>2020-02-15T14:34:56Z</time>
      </trkpt>
      <trkpt lat="47.06228" lon="5.41831">
        <ele>249.744</ele>
        <time>2020-02-15T14:34:59Z</time>
      </trkpt>
      <trkpt lat="47.06227" lon="5.41821">
        <ele>248.379</ele>
        <time>2020-02-15T14:35:03Z</time>
      </trkpt>
      <trkpt lat="47.06227" lon="5.41811">
        <ele>246.22</ele>
        <time>2020-02-15T14:35:07Z</time>
      </trkpt>
      <trkpt lat="47.06224" lon="5.41799">
        <ele>245.074</ele>
        <time>2020-02-15T14:35:12Z</time>
      </trkpt>
      <trkpt lat="47.06225" lon="5.41791">
        <ele>243.869</ele>
        <time>2020-02-15T14:35:16Z</time>
      </trkpt>
      <trkpt lat="47.06224" lon="5.41784">
        <ele>242.862</ele>
        <time>2020-02-15T14:35:19Z</time>
      </trkpt>
      <trkpt lat="47.06224" lon="5.41779">
        <ele>243.018</ele>
        <time>2020-02-15T14:35:21Z</time>
      </trkpt>
      <trkpt lat="47.06224" lon="5.41773">
        <ele>242.611</ele>
        <time>2020-02-15T14:35:24Z</time>
      </trkpt>
      <trkpt lat="47.06225" lon="5.41766">
        <ele>243.335</ele>
        <time>2020-02-15T14:35:28Z</time>
      </trkpt>
      <trkpt lat="47.06228" lon="5.41756">
        <ele>244.639</ele>
        <time>2020-02-15T14:35:32Z</time>
      </trkpt>
      <trkpt lat="47.06228" lon="5.4175">
        <ele>245.998</ele>
        <time>2020-02-15T14:35:37Z</time>
      </trkpt>
      <trkpt lat="47.06224" lon="5.41741">
        <ele>245.865</ele>
        <time>2020-02-15T14:35:42Z</time>
      </trkpt>
      <trkpt lat="47.0622" lon="5.41734">
        <ele>245.66</ele>
        <time>2020-02-15T14:35:47Z</time>
      </trkpt>
      <trkpt lat="47.06217" lon="5.41727">
        <ele>244.615</ele>
        <time>2020-02-15T14:35:49Z</time>
      </trkpt>
      <trkpt lat="47.06219" lon="5.4172">
        <ele>244.093</ele>
        <time>2020-02-15T14:35:52Z</time>
      </trkpt>
      <trkpt lat="47.06221" lon="5.41712">
        <ele>244.063</ele>
        <time>2020-02-15T14:35:56Z</time>
      </trkpt>
      <trkpt lat="47.06224" lon="5.41701">
        <ele>242.911</ele>
        <time>2020-02-15T14:36:00Z</time>
      </trkpt>
      <trkpt lat="47.06229" lon="5.41694">
        <ele>243.98</ele>
        <time>2020-02-15T14:36:04Z</time>
      </trkpt>
      <trkpt lat="47.0623" lon="5.41687">
        <ele>244.885</ele>
        <time>2020-02-15T14:36:07Z</time>
      </trkpt>
      <trkpt lat="47.06241" lon="5.41679">
        <ele>246.54</ele>
        <time>2020-02-15T14:36:11Z</time>
      </trkpt>
      <trkpt lat="47.06256" lon="5.41657">
        <ele>248.989</ele>
        <time>2020-02-15T14:36:19Z</time>
      </trkpt>
      <trkpt lat="47.06278" lon="5.41604">
        <ele>267.478</ele>
        <time>2020-02-15T14:36:59Z</time>
      </trkpt>
      <trkpt lat="47.06272" lon="5.41597">
        <ele>267.919</ele>
        <time>2020-02-15T14:37:03Z</time>
      </trkpt>
      <trkpt lat="47.06285" lon="5.41592">
        <ele>256.802</ele>
        <time>2020-02-15T14:37:08Z</time>
      </trkpt>
      <trkpt lat="47.0629" lon="5.41594">
        <ele>253</ele>
        <time>2020-02-15T14:37:10Z</time>
      </trkpt>
      <trkpt lat="47.06295" lon="5.41593">
        <ele>249.966</ele>
        <time>2020-02-15T14:37:12Z</time>
      </trkpt>
      <trkpt lat="47.06298" lon="5.41587">
        <ele>249.325</ele>
        <time>2020-02-15T14:37:14Z</time>
      </trkpt>
      <trkpt lat="47.063" lon="5.41579">
        <ele>248.83</ele>
        <time>2020-02-15T14:37:16Z</time>
      </trkpt>
      <trkpt lat="47.06303" lon="5.41575">
        <ele>248.463</ele>
        <time>2020-02-15T14:37:20Z</time>
      </trkpt>
      <trkpt lat="47.06306" lon="5.41569">
        <ele>250.608</ele>
        <time>2020-02-15T14:37:26Z</time>
      </trkpt>
      <trkpt lat="47.06311" lon="5.4157">
        <ele>250.022</ele>
        <time>2020-02-15T14:37:31Z</time>
      </trkpt>
      <trkpt lat="47.06314" lon="5.41576">
        <ele>250.862</ele>
        <time>2020-02-15T14:37:38Z</time>
      </trkpt>
      <trkpt lat="47.06335" lon="5.41584">
        <ele>252.466</ele>
        <time>2020-02-15T14:37:46Z</time>
      </trkpt>
      <trkpt lat="47.06341" lon="5.41587">
        <ele>252.922</ele>
        <time>2020-02-15T14:37:48Z</time>
      </trkpt>
      <trkpt lat="47.06347" lon="5.41591">
        <ele>253.29</ele>
        <time>2020-02-15T14:37:50Z</time>
      </trkpt>
      <trkpt lat="47.06352" lon="5.41591">
        <ele>253.91</ele>
        <time>2020-02-15T14:37:52Z</time>
      </trkpt>
      <trkpt lat="47.06357" lon="5.41594">
        <ele>255.597</ele>
        <time>2020-02-15T14:37:56Z</time>
      </trkpt>
      <trkpt lat="47.0636" lon="5.41596">
        <ele>256.939</ele>
        <time>2020-02-15T14:37:58Z</time>
      </trkpt>
      <trkpt lat="47.06365" lon="5.41593">
        <ele>258.81</ele>
        <time>2020-02-15T14:38:02Z</time>
      </trkpt>
      <trkpt lat="47.06369" lon="5.41596">
        <ele>260.977</ele>
        <time>2020-02-15T14:38:09Z</time>
      </trkpt>
      <trkpt lat="47.06373" lon="5.41593">
        <ele>260.196</ele>
        <time>2020-02-15T14:38:14Z</time>
      </trkpt>
      <trkpt lat="47.06377" lon="5.41596">
        <ele>261.652</ele>
        <time>2020-02-15T14:38:19Z</time>
      </trkpt>
      <trkpt lat="47.06382" lon="5.41597">
        <ele>263.166</ele>
        <time>2020-02-15T14:38:23Z</time>
      </trkpt>
      <trkpt lat="47.0639" lon="5.41596">
        <ele>262.635</ele>
        <time>2020-02-15T14:38:29Z</time>
      </trkpt>
      <trkpt lat="47.06394" lon="5.41594">
        <ele>262.247</ele>
        <time>2020-02-15T14:38:31Z</time>
      </trkpt>
      <trkpt lat="47.06399" lon="5.41591">
        <ele>260.65</ele>
        <time>2020-02-15T14:38:34Z</time>
      </trkpt>
      <trkpt lat="47.06404" lon="5.41586">
        <ele>258.576</ele>
        <time>2020-02-15T14:38:38Z</time>
      </trkpt>
      <trkpt lat="47.0641" lon="5.41581">
        <ele>256.984</ele>
        <time>2020-02-15T14:38:43Z</time>
      </trkpt>
      <trkpt lat="47.06417" lon="5.41582">
        <ele>256.378</ele>
        <time>2020-02-15T14:38:47Z</time>
      </trkpt>
      <trkpt lat="47.06422" lon="5.41583">
        <ele>256.336</ele>
        <time>2020-02-15T14:38:49Z</time>
      </trkpt>
      <trkpt lat="47.06427" lon="5.4158">
        <ele>255.59</ele>
        <time>2020-02-15T14:38:54Z</time>
      </trkpt>
      <trkpt lat="47.06433" lon="5.41579">
        <ele>255.027</ele>
        <time>2020-02-15T14:38:57Z</time>
      </trkpt>
      <trkpt lat="47.06437" lon="5.41578">
        <ele>255.505</ele>
        <time>2020-02-15T14:38:59Z</time>
      </trkpt>
      <trkpt lat="47.06441" lon="5.41571">
        <ele>256.549</ele>
        <time>2020-02-15T14:39:02Z</time>
      </trkpt>
      <trkpt lat="47.06447" lon="5.41568">
        <ele>256.891</ele>
        <time>2020-02-15T14:39:06Z</time>
      </trkpt>
      <trkpt lat="47.06451" lon="5.41564">
        <ele>257.268</ele>
        <time>2020-02-15T14:39:09Z</time>
      </trkpt>
      <trkpt lat="47.06457" lon="5.41561">
        <ele>258.755</ele>
        <time>2020-02-15T14:39:12Z</time>
      </trkpt>
      <trkpt lat="47.06461" lon="5.41559">
        <ele>259.691</ele>
        <time>2020-02-15T14:39:14Z</time>
      </trkpt>
      <trkpt lat="47.06464" lon="5.41553">
        <ele>260.458</ele>
        <time>2020-02-15T14:39:17Z</time>
      </trkpt>
      <trkpt lat="47.06466" lon="5.4155">
        <ele>259.704</ele>
        <time>2020-02-15T14:39:21Z</time>
      </trkpt>
      <trkpt lat="47.0647" lon="5.41549">
        <ele>257.215</ele>
        <time>2020-02-15T14:39:28Z</time>
      </trkpt>
      <trkpt lat="47.06473" lon="5.41547">
        <ele>257.153</ele>
        <time>2020-02-15T14:39:32Z</time>
      </trkpt>
      <trkpt lat="47.06482" lon="5.41542">
        <ele>257.257</ele>
        <time>2020-02-15T14:39:36Z</time>
      </trkpt>
      <trkpt lat="47.06486" lon="5.41538">
        <ele>256.369</ele>
        <time>2020-02-15T14:39:38Z</time>
      </trkpt>
      <trkpt lat="47.06491" lon="5.41535">
        <ele>255.549</ele>
        <time>2020-02-15T14:39:41Z</time>
      </trkpt>
      <trkpt lat="47.06496" lon="5.41535">
        <ele>256.472</ele>
        <time>2020-02-15T14:39:44Z</time>
      </trkpt>
      <trkpt lat="47.06504" lon="5.41532">
        <ele>256.717</ele>
        <time>2020-02-15T14:39:48Z</time>
      </trkpt>
      <trkpt lat="47.06511" lon="5.4153">
        <ele>257.636</ele>
        <time>2020-02-15T14:39:51Z</time>
      </trkpt>
      <trkpt lat="47.06513" lon="5.4153">
        <ele>258.961</ele>
        <time>2020-02-15T14:39:53Z</time>
      </trkpt>
      <trkpt lat="47.06518" lon="5.41526">
        <ele>260.753</ele>
        <time>2020-02-15T14:39:56Z</time>
      </trkpt>
      <trkpt lat="47.06523" lon="5.41524">
        <ele>262.341</ele>
        <time>2020-02-15T14:40:00Z</time>
      </trkpt>
      <trkpt lat="47.06526" lon="5.41522">
        <ele>263.189</ele>
        <time>2020-02-15T14:40:02Z</time>
      </trkpt>
      <trkpt lat="47.06532" lon="5.41521">
        <ele>266.077</ele>
        <time>2020-02-15T14:40:06Z</time>
      </trkpt>
      <trkpt lat="47.06539" lon="5.41523">
        <ele>269.563</ele>
        <time>2020-02-15T14:40:10Z</time>
      </trkpt>
      <trkpt lat="47.06544" lon="5.41525">
        <ele>270.903</ele>
        <time>2020-02-15T14:40:12Z</time>
      </trkpt>
      <trkpt lat="47.06549" lon="5.41523">
        <ele>272.091</ele>
        <time>2020-02-15T14:40:14Z</time>
      </trkpt>
      <trkpt lat="47.06551" lon="5.41523">
        <ele>272.927</ele>
        <time>2020-02-15T14:40:16Z</time>
      </trkpt>
      <trkpt lat="47.06556" lon="5.4152">
        <ele>273.225</ele>
        <time>2020-02-15T14:40:19Z</time>
      </trkpt>
      <trkpt lat="47.06561" lon="5.41515">
        <ele>274.295</ele>
        <time>2020-02-15T14:40:24Z</time>
      </trkpt>
      <trkpt lat="47.06566" lon="5.41507">
        <ele>273.374</ele>
        <time>2020-02-15T14:40:28Z</time>
      </trkpt>
      <trkpt lat="47.06571" lon="5.41503">
        <ele>274.044</ele>
        <time>2020-02-15T14:40:31Z</time>
      </trkpt>
      <trkpt lat="47.06575" lon="5.41499">
        <ele>274.061</ele>
        <time>2020-02-15T14:40:34Z</time>
      </trkpt>
      <trkpt lat="47.0658" lon="5.41494">
        <ele>275.037</ele>
        <time>2020-02-15T14:40:37Z</time>
      </trkpt>
      <trkpt lat="47.06585" lon="5.41492">
        <ele>274.111</ele>
        <time>2020-02-15T14:40:40Z</time>
      </trkpt>
      <trkpt lat="47.06592" lon="5.4149">
        <ele>273.52</ele>
        <time>2020-02-15T14:40:46Z</time>
      </trkpt>
      <trkpt lat="47.06594" lon="5.41489">
        <ele>274.044</ele>
        <time>2020-02-15T14:40:48Z</time>
      </trkpt>
      <trkpt lat="47.06598" lon="5.41487">
        <ele>273.79</ele>
        <time>2020-02-15T14:40:54Z</time>
      </trkpt>
      <trkpt lat="47.06603" lon="5.41488">
        <ele>273.763</ele>
        <time>2020-02-15T14:40:58Z</time>
      </trkpt>
      <trkpt lat="47.06608" lon="5.41489">
        <ele>274.489</ele>
        <time>2020-02-15T14:41:01Z</time>
      </trkpt>
      <trkpt lat="47.06612" lon="5.41484">
        <ele>274.739</ele>
        <time>2020-02-15T14:41:06Z</time>
      </trkpt>
      <trkpt lat="47.06617" lon="5.41483">
        <ele>275.53</ele>
        <time>2020-02-15T14:41:10Z</time>
      </trkpt>
      <trkpt lat="47.0662" lon="5.41483">
        <ele>275.331</ele>
        <time>2020-02-15T14:41:12Z</time>
      </trkpt>
      <trkpt lat="47.06624" lon="5.41482">
        <ele>274.546</ele>
        <time>2020-02-15T14:41:14Z</time>
      </trkpt>
      <trkpt lat="47.06629" lon="5.41482">
        <ele>274.195</ele>
        <time>2020-02-15T14:41:16Z</time>
      </trkpt>
      <trkpt lat="47.06633" lon="5.41482">
        <ele>273.676</ele>
        <time>2020-02-15T14:41:18Z</time>
      </trkpt>
      <trkpt lat="47.06638" lon="5.4148">
        <ele>272.919</ele>
        <time>2020-02-15T14:41:21Z</time>
      </trkpt>
      <trkpt lat="47.06643" lon="5.41476">
        <ele>272.403</ele>
        <time>2020-02-15T14:41:24Z</time>
      </trkpt>
      <trkpt lat="47.06649" lon="5.41474">
        <ele>271.967</ele>
        <time>2020-02-15T14:41:27Z</time>
      </trkpt>
      <trkpt lat="47.06652" lon="5.41472">
        <ele>271.734</ele>
        <time>2020-02-15T14:41:29Z</time>
      </trkpt>
      <trkpt lat="47.06657" lon="5.41472">
        <ele>270.334</ele>
        <time>2020-02-15T14:41:33Z</time>
      </trkpt>
      <trkpt lat="47.06661" lon="5.41469">
        <ele>269.639</ele>
        <time>2020-02-15T14:41:36Z</time>
      </trkpt>
      <trkpt lat="47.06668" lon="5.41467">
        <ele>268.401</ele>
        <time>2020-02-15T14:41:40Z</time>
      </trkpt>
      <trkpt lat="47.06672" lon="5.41465">
        <ele>266.534</ele>
        <time>2020-02-15T14:41:44Z</time>
      </trkpt>
      <trkpt lat="47.06675" lon="5.41459">
        <ele>265.42</ele>
        <time>2020-02-15T14:41:49Z</time>
      </trkpt>
      <trkpt lat="47.06679" lon="5.41455">
        <ele>263.8</ele>
        <time>2020-02-15T14:41:54Z</time>
      </trkpt>
      <trkpt lat="47.06684" lon="5.41452">
        <ele>262.182</ele>
        <time>2020-02-15T14:42:00Z</time>
      </trkpt>
      <trkpt lat="47.0669" lon="5.41452">
        <ele>261.326</ele>
        <time>2020-02-15T14:42:04Z</time>
      </trkpt>
      <trkpt lat="47.06698" lon="5.41453">
        <ele>260.334</ele>
        <time>2020-02-15T14:42:08Z</time>
      </trkpt>
      <trkpt lat="47.06704" lon="5.41452">
        <ele>259.96</ele>
        <time>2020-02-15T14:42:11Z</time>
      </trkpt>
      <trkpt lat="47.06708" lon="5.41448">
        <ele>259.8</ele>
        <time>2020-02-15T14:42:15Z</time>
      </trkpt>
      <trkpt lat="47.06711" lon="5.41445">
        <ele>259.684</ele>
        <time>2020-02-15T14:42:16Z</time>
      </trkpt>
      <trkpt lat="47.06722" lon="5.41443">
        <ele>258.967</ele>
        <time>2020-02-15T14:42:19Z</time>
      </trkpt>
      <trkpt lat="47.06727" lon="5.41443">
        <ele>258.715</ele>
        <time>2020-02-15T14:42:21Z</time>
      </trkpt>
      <trkpt lat="47.06731" lon="5.41444">
        <ele>257.776</ele>
        <time>2020-02-15T14:42:24Z</time>
      </trkpt>
      <trkpt lat="47.06735" lon="5.4144">
        <ele>256.251</ele>
        <time>2020-02-15T14:42:30Z</time>
      </trkpt>
      <trkpt lat="47.0674" lon="5.4144">
        <ele>255.574</ele>
        <time>2020-02-15T14:42:36Z</time>
      </trkpt>
      <trkpt lat="47.06744" lon="5.41441">
        <ele>255.814</ele>
        <time>2020-02-15T14:42:39Z</time>
      </trkpt>
      <trkpt lat="47.06751" lon="5.41443">
        <ele>257.723</ele>
        <time>2020-02-15T14:42:44Z</time>
      </trkpt>
      <trkpt lat="47.06755" lon="5.41444">
        <ele>258.603</ele>
        <time>2020-02-15T14:42:46Z</time>
      </trkpt>
      <trkpt lat="47.06761" lon="5.41441">
        <ele>260.445</ele>
        <time>2020-02-15T14:42:50Z</time>
      </trkpt>
      <trkpt lat="47.06764" lon="5.41439">
        <ele>261.472</ele>
        <time>2020-02-15T14:42:51Z</time>
      </trkpt>
      <trkpt lat="47.06766" lon="5.41437">
        <ele>262.285</ele>
        <time>2020-02-15T14:42:52Z</time>
      </trkpt>
      <trkpt lat="47.06772" lon="5.41433">
        <ele>263.672</ele>
        <time>2020-02-15T14:42:55Z</time>
      </trkpt>
      <trkpt lat="47.06778" lon="5.4143">
        <ele>265.601</ele>
        <time>2020-02-15T14:42:59Z</time>
      </trkpt>
      <trkpt lat="47.06784" lon="5.41427">
        <ele>266.212</ele>
        <time>2020-02-15T14:43:03Z</time>
      </trkpt>
      <trkpt lat="47.06788" lon="5.41428">
        <ele>267.285</ele>
        <time>2020-02-15T14:43:11Z</time>
      </trkpt>
      <trkpt lat="47.06795" lon="5.4142">
        <ele>265.956</ele>
        <time>2020-02-15T14:43:19Z</time>
      </trkpt>
      <trkpt lat="47.06797" lon="5.41417">
        <ele>265.866</ele>
        <time>2020-02-15T14:43:20Z</time>
      </trkpt>
      <trkpt lat="47.06804" lon="5.41414">
        <ele>265.562</ele>
        <time>2020-02-15T14:43:23Z</time>
      </trkpt>
      <trkpt lat="47.0681" lon="5.4141">
        <ele>266.263</ele>
        <time>2020-02-15T14:43:26Z</time>
      </trkpt>
      <trkpt lat="47.06814" lon="5.41407">
        <ele>266.946</ele>
        <time>2020-02-15T14:43:29Z</time>
      </trkpt>
      <trkpt lat="47.0682" lon="5.41404">
        <ele>266.808</ele>
        <time>2020-02-15T14:43:33Z</time>
      </trkpt>
      <trkpt lat="47.06823" lon="5.41399">
        <ele>266.5</ele>
        <time>2020-02-15T14:43:35Z</time>
      </trkpt>
      <trkpt lat="47.06828" lon="5.41398">
        <ele>266.458</ele>
        <time>2020-02-15T14:43:37Z</time>
      </trkpt>
      <trkpt lat="47.06831" lon="5.41397">
        <ele>266.699</ele>
        <time>2020-02-15T14:43:38Z</time>
      </trkpt>
      <trkpt lat="47.06836" lon="5.41395">
        <ele>267.844</ele>
        <time>2020-02-15T14:43:41Z</time>
      </trkpt>
      <trkpt lat="47.0684" lon="5.41393">
        <ele>269.008</ele>
        <time>2020-02-15T14:43:43Z</time>
      </trkpt>
      <trkpt lat="47.06846" lon="5.41394">
        <ele>270.14</ele>
        <time>2020-02-15T14:43:46Z</time>
      </trkpt>
      <trkpt lat="47.0685" lon="5.4139">
        <ele>271.161</ele>
        <time>2020-02-15T14:43:49Z</time>
      </trkpt>
      <trkpt lat="47.06857" lon="5.41389">
        <ele>273.077</ele>
        <time>2020-02-15T14:43:53Z</time>
      </trkpt>
      <trkpt lat="47.06857" lon="5.41389">
        <ele>273.077</ele>
        <time>2020-02-15T14:44:01Z</time>
      </trkpt>
      <trkpt lat="47.06862" lon="5.41385">
        <ele>273.607</ele>
        <time>2020-02-15T14:44:03Z</time>
      </trkpt>
      <trkpt lat="47.06867" lon="5.4138">
        <ele>270.418</ele>
        <time>2020-02-15T14:44:08Z</time>
      </trkpt>
      <trkpt lat="47.06871" lon="5.41376">
        <ele>267.829</ele>
        <time>2020-02-15T14:44:11Z</time>
      </trkpt>
      <trkpt lat="47.06874" lon="5.41373">
        <ele>266.721</ele>
        <time>2020-02-15T14:44:14Z</time>
      </trkpt>
      <trkpt lat="47.06878" lon="5.41368">
        <ele>266.54</ele>
        <time>2020-02-15T14:44:17Z</time>
      </trkpt>
      <trkpt lat="47.06881" lon="5.41365">
        <ele>266.24</ele>
        <time>2020-02-15T14:44:20Z</time>
      </trkpt>
      <trkpt lat="47.06887" lon="5.41363">
        <ele>265.664</ele>
        <time>2020-02-15T14:44:24Z</time>
      </trkpt>
      <trkpt lat="47.06892" lon="5.41362">
        <ele>265.839</ele>
        <time>2020-02-15T14:44:26Z</time>
      </trkpt>
      <trkpt lat="47.06896" lon="5.41365">
        <ele>266.06</ele>
        <time>2020-02-15T14:44:28Z</time>
      </trkpt>
      <trkpt lat="47.06902" lon="5.41368">
        <ele>266.95</ele>
        <time>2020-02-15T14:44:31Z</time>
      </trkpt>
      <trkpt lat="47.06908" lon="5.41365">
        <ele>266.807</ele>
        <time>2020-02-15T14:44:35Z</time>
      </trkpt>
      <trkpt lat="47.06911" lon="5.41363">
        <ele>266.565</ele>
        <time>2020-02-15T14:44:37Z</time>
      </trkpt>
      <trkpt lat="47.06914" lon="5.41361">
        <ele>266.002</ele>
        <time>2020-02-15T14:44:40Z</time>
      </trkpt>
      <trkpt lat="47.0692" lon="5.41358">
        <ele>265.541</ele>
        <time>2020-02-15T14:44:45Z</time>
      </trkpt>
      <trkpt lat="47.06925" lon="5.41357">
        <ele>266.178</ele>
        <time>2020-02-15T14:44:48Z</time>
      </trkpt>
      <trkpt lat="47.06929" lon="5.41355">
        <ele>267.429</ele>
        <time>2020-02-15T14:44:51Z</time>
      </trkpt>
      <trkpt lat="47.06935" lon="5.41351">
        <ele>267.521</ele>
        <time>2020-02-15T14:44:55Z</time>
      </trkpt>
      <trkpt lat="47.0694" lon="5.41348">
        <ele>267.107</ele>
        <time>2020-02-15T14:44:58Z</time>
      </trkpt>
      <trkpt lat="47.06945" lon="5.41346">
        <ele>265.903</ele>
        <time>2020-02-15T14:45:01Z</time>
      </trkpt>
      <trkpt lat="47.0695" lon="5.41345">
        <ele>264.885</ele>
        <time>2020-02-15T14:45:04Z</time>
      </trkpt>
      <trkpt lat="47.06957" lon="5.4134">
        <ele>264.313</ele>
        <time>2020-02-15T14:45:10Z</time>
      </trkpt>
      <trkpt lat="47.0696" lon="5.41335">
        <ele>263.787</ele>
        <time>2020-02-15T14:45:13Z</time>
      </trkpt>
      <trkpt lat="47.06964" lon="5.41329">
        <ele>263.003</ele>
        <time>2020-02-15T14:45:16Z</time>
      </trkpt>
      <trkpt lat="47.06971" lon="5.41329">
        <ele>262.965</ele>
        <time>2020-02-15T14:45:21Z</time>
      </trkpt>
      <trkpt lat="47.06977" lon="5.41331">
        <ele>262.895</ele>
        <time>2020-02-15T14:45:24Z</time>
      </trkpt>
      <trkpt lat="47.06984" lon="5.41329">
        <ele>262.79</ele>
        <time>2020-02-15T14:45:28Z</time>
      </trkpt>
      <trkpt lat="47.06988" lon="5.41328">
        <ele>262.973</ele>
        <time>2020-02-15T14:45:30Z</time>
      </trkpt>
      <trkpt lat="47.0699" lon="5.41327">
        <ele>263.083</ele>
        <time>2020-02-15T14:45:31Z</time>
      </trkpt>
      <trkpt lat="47.06995" lon="5.41326">
        <ele>263.355</ele>
        <time>2020-02-15T14:45:33Z</time>
      </trkpt>
      <trkpt lat="47.07" lon="5.41321">
        <ele>264.677</ele>
        <time>2020-02-15T14:45:38Z</time>
      </trkpt>
      <trkpt lat="47.07005" lon="5.41316">
        <ele>266.667</ele>
        <time>2020-02-15T14:45:42Z</time>
      </trkpt>
      <trkpt lat="47.07009" lon="5.41311">
        <ele>267.41</ele>
        <time>2020-02-15T14:45:45Z</time>
      </trkpt>
      <trkpt lat="47.07014" lon="5.41303">
        <ele>267.611</ele>
        <time>2020-02-15T14:45:51Z</time>
      </trkpt>
      <trkpt lat="47.07019" lon="5.41301">
        <ele>267.385</ele>
        <time>2020-02-15T14:45:55Z</time>
      </trkpt>
      <trkpt lat="47.07025" lon="5.41298">
        <ele>264.959</ele>
        <time>2020-02-15T14:46:01Z</time>
      </trkpt>
      <trkpt lat="47.0703" lon="5.41297">
        <ele>263.444</ele>
        <time>2020-02-15T14:46:05Z</time>
      </trkpt>
      <trkpt lat="47.07035" lon="5.41295">
        <ele>262.877</ele>
        <time>2020-02-15T14:46:07Z</time>
      </trkpt>
      <trkpt lat="47.07041" lon="5.4129">
        <ele>262.007</ele>
        <time>2020-02-15T14:46:11Z</time>
      </trkpt>
      <trkpt lat="47.07045" lon="5.41286">
        <ele>261.86</ele>
        <time>2020-02-15T14:46:15Z</time>
      </trkpt>
      <trkpt lat="47.0705" lon="5.41285">
        <ele>261.896</ele>
        <time>2020-02-15T14:46:18Z</time>
      </trkpt>
      <trkpt lat="47.07053" lon="5.41278">
        <ele>262.973</ele>
        <time>2020-02-15T14:46:22Z</time>
      </trkpt>
      <trkpt lat="47.07058" lon="5.41275">
        <ele>262.378</ele>
        <time>2020-02-15T14:46:27Z</time>
      </trkpt>
      <trkpt lat="47.07065" lon="5.41275">
        <ele>261.949</ele>
        <time>2020-02-15T14:46:31Z</time>
      </trkpt>
      <trkpt lat="47.0707" lon="5.41271">
        <ele>261.213</ele>
        <time>2020-02-15T14:46:34Z</time>
      </trkpt>
      <trkpt lat="47.07077" lon="5.4127">
        <ele>260.102</ele>
        <time>2020-02-15T14:46:38Z</time>
      </trkpt>
      <trkpt lat="47.07081" lon="5.41269">
        <ele>260.197</ele>
        <time>2020-02-15T14:46:40Z</time>
      </trkpt>
      <trkpt lat="47.07087" lon="5.4127">
        <ele>260.882</ele>
        <time>2020-02-15T14:46:43Z</time>
      </trkpt>
      <trkpt lat="47.07093" lon="5.41273">
        <ele>261.967</ele>
        <time>2020-02-15T14:46:46Z</time>
      </trkpt>
      <trkpt lat="47.07099" lon="5.41277">
        <ele>262.877</ele>
        <time>2020-02-15T14:46:49Z</time>
      </trkpt>
      <trkpt lat="47.07106" lon="5.41275">
        <ele>264.396</ele>
        <time>2020-02-15T14:46:54Z</time>
      </trkpt>
      <trkpt lat="47.07112" lon="5.41267">
        <ele>265.439</ele>
        <time>2020-02-15T14:46:58Z</time>
      </trkpt>
      <trkpt lat="47.07116" lon="5.41261">
        <ele>265.43</ele>
        <time>2020-02-15T14:47:01Z</time>
      </trkpt>
      <trkpt lat="47.0712" lon="5.41253">
        <ele>264.613</ele>
        <time>2020-02-15T14:47:05Z</time>
      </trkpt>
      <trkpt lat="47.07125" lon="5.4125">
        <ele>264.974</ele>
        <time>2020-02-15T14:47:09Z</time>
      </trkpt>
      <trkpt lat="47.07131" lon="5.41245">
        <ele>264.703</ele>
        <time>2020-02-15T14:47:14Z</time>
      </trkpt>
      <trkpt lat="47.07136" lon="5.41242">
        <ele>264.971</ele>
        <time>2020-02-15T14:47:17Z</time>
      </trkpt>
      <trkpt lat="47.07141" lon="5.41237">
        <ele>265.611</ele>
        <time>2020-02-15T14:47:21Z</time>
      </trkpt>
      <trkpt lat="47.07144" lon="5.41235">
        <ele>266.499</ele>
        <time>2020-02-15T14:47:23Z</time>
      </trkpt>
      <trkpt lat="47.07147" lon="5.41232">
        <ele>267.345</ele>
        <time>2020-02-15T14:47:25Z</time>
      </trkpt>
      <trkpt lat="47.07149" lon="5.41229">
        <ele>267.699</ele>
        <time>2020-02-15T14:47:27Z</time>
      </trkpt>
      <trkpt lat="47.07155" lon="5.41228">
        <ele>267.939</ele>
        <time>2020-02-15T14:47:30Z</time>
      </trkpt>
      <trkpt lat="47.07159" lon="5.41223">
        <ele>268.439</ele>
        <time>2020-02-15T14:47:34Z</time>
      </trkpt>
      <trkpt lat="47.07166" lon="5.41222">
        <ele>267.378</ele>
        <time>2020-02-15T14:47:38Z</time>
      </trkpt>
      <trkpt lat="47.0717" lon="5.41218">
        <ele>267.4</ele>
        <time>2020-02-15T14:47:42Z</time>
      </trkpt>
      <trkpt lat="47.07175" lon="5.41215">
        <ele>267.421</ele>
        <time>2020-02-15T14:47:46Z</time>
      </trkpt>
      <trkpt lat="47.07181" lon="5.41215">
        <ele>266.451</ele>
        <time>2020-02-15T14:47:50Z</time>
      </trkpt>
      <trkpt lat="47.07185" lon="5.41214">
        <ele>264.492</ele>
        <time>2020-02-15T14:47:57Z</time>
      </trkpt>
      <trkpt lat="47.0719" lon="5.41216">
        <ele>263.398</ele>
        <time>2020-02-15T14:48:01Z</time>
      </trkpt>
      <trkpt lat="47.07192" lon="5.41216">
        <ele>263.059</ele>
        <time>2020-02-15T14:48:03Z</time>
      </trkpt>
      <trkpt lat="47.07198" lon="5.41218">
        <ele>262.67</ele>
        <time>2020-02-15T14:48:07Z</time>
      </trkpt>
      <trkpt lat="47.07203" lon="5.41223">
        <ele>263.224</ele>
        <time>2020-02-15T14:48:10Z</time>
      </trkpt>
      <trkpt lat="47.07208" lon="5.41225">
        <ele>264.082</ele>
        <time>2020-02-15T14:48:12Z</time>
      </trkpt>
      <trkpt lat="47.07213" lon="5.41227">
        <ele>265.41</ele>
        <time>2020-02-15T14:48:15Z</time>
      </trkpt>
      <trkpt lat="47.07216" lon="5.41229">
        <ele>265.6</ele>
        <time>2020-02-15T14:48:17Z</time>
      </trkpt>
      <trkpt lat="47.0722" lon="5.4123">
        <ele>264.701</ele>
        <time>2020-02-15T14:48:21Z</time>
      </trkpt>
      <trkpt lat="47.07223" lon="5.41232">
        <ele>264.134</ele>
        <time>2020-02-15T14:48:23Z</time>
      </trkpt>
      <trkpt lat="47.07229" lon="5.41237">
        <ele>263.8</ele>
        <time>2020-02-15T14:48:26Z</time>
      </trkpt>
      <trkpt lat="47.07234" lon="5.41241">
        <ele>264.755</ele>
        <time>2020-02-15T14:48:29Z</time>
      </trkpt>
      <trkpt lat="47.07238" lon="5.41244">
        <ele>265.057</ele>
        <time>2020-02-15T14:48:31Z</time>
      </trkpt>
      <trkpt lat="47.07242" lon="5.41246">
        <ele>264.931</ele>
        <time>2020-02-15T14:48:33Z</time>
      </trkpt>
      <trkpt lat="47.07248" lon="5.4125">
        <ele>265.059</ele>
        <time>2020-02-15T14:48:36Z</time>
      </trkpt>
      <trkpt lat="47.07252" lon="5.41255">
        <ele>264.859</ele>
        <time>2020-02-15T14:48:40Z</time>
      </trkpt>
      <trkpt lat="47.07255" lon="5.41259">
        <ele>265.149</ele>
        <time>2020-02-15T14:48:42Z</time>
      </trkpt>
      <trkpt lat="47.07259" lon="5.41262">
        <ele>265.344</ele>
        <time>2020-02-15T14:48:46Z</time>
      </trkpt>
      <trkpt lat="47.07264" lon="5.41263">
        <ele>265.09</ele>
        <time>2020-02-15T14:48:53Z</time>
      </trkpt>
      <trkpt lat="47.07268" lon="5.41268">
        <ele>263.597</ele>
        <time>2020-02-15T14:48:56Z</time>
      </trkpt>
      <trkpt lat="47.07276" lon="5.41272">
        <ele>262.489</ele>
        <time>2020-02-15T14:49:01Z</time>
      </trkpt>
      <trkpt lat="47.07282" lon="5.41273">
        <ele>262.326</ele>
        <time>2020-02-15T14:49:05Z</time>
      </trkpt>
      <trkpt lat="47.07287" lon="5.41276">
        <ele>261.925</ele>
        <time>2020-02-15T14:49:08Z</time>
      </trkpt>
      <trkpt lat="47.07292" lon="5.4128">
        <ele>261.402</ele>
        <time>2020-02-15T14:49:12Z</time>
      </trkpt>
      <trkpt lat="47.07296" lon="5.41282">
        <ele>261.212</ele>
        <time>2020-02-15T14:49:14Z</time>
      </trkpt>
      <trkpt lat="47.07302" lon="5.41283">
        <ele>261.333</ele>
        <time>2020-02-15T14:49:18Z</time>
      </trkpt>
      <trkpt lat="47.07309" lon="5.41288">
        <ele>261.73</ele>
        <time>2020-02-15T14:49:22Z</time>
      </trkpt>
      <trkpt lat="47.07312" lon="5.41289">
        <ele>262.134</ele>
        <time>2020-02-15T14:49:24Z</time>
      </trkpt>
      <trkpt lat="47.07315" lon="5.4129">
        <ele>262.845</ele>
        <time>2020-02-15T14:49:26Z</time>
      </trkpt>
      <trkpt lat="47.07322" lon="5.41296">
        <ele>263.155</ele>
        <time>2020-02-15T14:49:31Z</time>
      </trkpt>
      <trkpt lat="47.07328" lon="5.413">
        <ele>263.045</ele>
        <time>2020-02-15T14:49:35Z</time>
      </trkpt>
      <trkpt lat="47.07333" lon="5.41303">
        <ele>263.494</ele>
        <time>2020-02-15T14:49:40Z</time>
      </trkpt>
      <trkpt lat="47.07341" lon="5.41302">
        <ele>262.542</ele>
        <time>2020-02-15T14:49:44Z</time>
      </trkpt>
      <trkpt lat="47.07347" lon="5.41304">
        <ele>261.989</ele>
        <time>2020-02-15T14:49:48Z</time>
      </trkpt>
      <trkpt lat="47.07349" lon="5.41305">
        <ele>262.173</ele>
        <time>2020-02-15T14:49:50Z</time>
      </trkpt>
      <trkpt lat="47.07353" lon="5.41311">
        <ele>261.626</ele>
        <time>2020-02-15T14:49:54Z</time>
      </trkpt>
      <trkpt lat="47.07355" lon="5.41316">
        <ele>261.177</ele>
        <time>2020-02-15T14:49:56Z</time>
      </trkpt>
      <trkpt lat="47.07357" lon="5.41319">
        <ele>261.234</ele>
        <time>2020-02-15T14:49:58Z</time>
      </trkpt>
      <trkpt lat="47.07362" lon="5.41322">
        <ele>261.65</ele>
        <time>2020-02-15T14:50:03Z</time>
      </trkpt>
      <trkpt lat="47.07367" lon="5.41324">
        <ele>262.52</ele>
        <time>2020-02-15T14:50:06Z</time>
      </trkpt>
      <trkpt lat="47.07372" lon="5.41326">
        <ele>263.063</ele>
        <time>2020-02-15T14:50:09Z</time>
      </trkpt>
      <trkpt lat="47.07379" lon="5.4133">
        <ele>262.846</ele>
        <time>2020-02-15T14:50:13Z</time>
      </trkpt>
      <trkpt lat="47.07383" lon="5.41334">
        <ele>263.472</ele>
        <time>2020-02-15T14:50:18Z</time>
      </trkpt>
      <trkpt lat="47.0739" lon="5.41336">
        <ele>264.189</ele>
        <time>2020-02-15T14:50:23Z</time>
      </trkpt>
      <trkpt lat="47.07394" lon="5.41344">
        <ele>263.118</ele>
        <time>2020-02-15T14:50:29Z</time>
      </trkpt>
      <trkpt lat="47.07397" lon="5.41351">
        <ele>262.558</ele>
        <time>2020-02-15T14:50:33Z</time>
      </trkpt>
      <trkpt lat="47.07399" lon="5.41355">
        <ele>262.512</ele>
        <time>2020-02-15T14:50:35Z</time>
      </trkpt>
      <trkpt lat="47.07404" lon="5.41361">
        <ele>262.189</ele>
        <time>2020-02-15T14:50:39Z</time>
      </trkpt>
      <trkpt lat="47.07407" lon="5.41367">
        <ele>263.885</ele>
        <time>2020-02-15T14:50:43Z</time>
      </trkpt>
      <trkpt lat="47.07411" lon="5.41372">
        <ele>265.338</ele>
        <time>2020-02-15T14:50:49Z</time>
      </trkpt>
      <trkpt lat="47.07414" lon="5.4138">
        <ele>268.249</ele>
        <time>2020-02-15T14:50:55Z</time>
      </trkpt>
      <trkpt lat="47.07418" lon="5.41384">
        <ele>269.551</ele>
        <time>2020-02-15T14:50:58Z</time>
      </trkpt>
      <trkpt lat="47.07423" lon="5.41385">
        <ele>270.016</ele>
        <time>2020-02-15T14:51:01Z</time>
      </trkpt>
      <trkpt lat="47.07428" lon="5.41384">
        <ele>270.467</ele>
        <time>2020-02-15T14:51:03Z</time>
      </trkpt>
      <trkpt lat="47.07433" lon="5.41382">
        <ele>270.026</ele>
        <time>2020-02-15T14:51:06Z</time>
      </trkpt>
      <trkpt lat="47.07438" lon="5.4138">
        <ele>270.05</ele>
        <time>2020-02-15T14:51:08Z</time>
      </trkpt>
      <trkpt lat="47.07441" lon="5.41379">
        <ele>268.826</ele>
        <time>2020-02-15T14:51:11Z</time>
      </trkpt>
      <trkpt lat="47.07447" lon="5.41378">
        <ele>268.676</ele>
        <time>2020-02-15T14:51:15Z</time>
      </trkpt>
      <trkpt lat="47.07453" lon="5.41378">
        <ele>268.476</ele>
        <time>2020-02-15T14:51:19Z</time>
      </trkpt>
      <trkpt lat="47.07459" lon="5.41378">
        <ele>267.7</ele>
        <time>2020-02-15T14:51:23Z</time>
      </trkpt>
      <trkpt lat="47.07464" lon="5.41378">
        <ele>266.952</ele>
        <time>2020-02-15T14:51:26Z</time>
      </trkpt>
      <trkpt lat="47.0747" lon="5.4138">
        <ele>266.247</ele>
        <time>2020-02-15T14:51:32Z</time>
      </trkpt>
      <trkpt lat="47.07473" lon="5.41381">
        <ele>266.778</ele>
        <time>2020-02-15T14:51:34Z</time>
      </trkpt>
      <trkpt lat="47.07479" lon="5.41381">
        <ele>267.02</ele>
        <time>2020-02-15T14:51:37Z</time>
      </trkpt>
      <trkpt lat="47.07485" lon="5.41384">
        <ele>268.853</ele>
        <time>2020-02-15T14:51:41Z</time>
      </trkpt>
      <trkpt lat="47.07487" lon="5.41385">
        <ele>269.621</ele>
        <time>2020-02-15T14:51:44Z</time>
      </trkpt>
      <trkpt lat="47.07492" lon="5.41392">
        <ele>270.615</ele>
        <time>2020-02-15T14:51:50Z</time>
      </trkpt>
      <trkpt lat="47.07494" lon="5.41395">
        <ele>270.641</ele>
        <time>2020-02-15T14:51:52Z</time>
      </trkpt>
      <trkpt lat="47.07497" lon="5.414">
        <ele>270.329</ele>
        <time>2020-02-15T14:51:55Z</time>
      </trkpt>
      <trkpt lat="47.075" lon="5.41407">
        <ele>270.419</ele>
        <time>2020-02-15T14:51:58Z</time>
      </trkpt>
      <trkpt lat="47.07504" lon="5.41411">
        <ele>270.217</ele>
        <time>2020-02-15T14:52:01Z</time>
      </trkpt>
      <trkpt lat="47.07507" lon="5.4142">
        <ele>268.849</ele>
        <time>2020-02-15T14:52:06Z</time>
      </trkpt>
      <trkpt lat="47.07508" lon="5.41424">
        <ele>267.497</ele>
        <time>2020-02-15T14:52:09Z</time>
      </trkpt>
      <trkpt lat="47.0751" lon="5.41433">
        <ele>265.574</ele>
        <time>2020-02-15T14:52:14Z</time>
      </trkpt>
      <trkpt lat="47.07514" lon="5.41438">
        <ele>265.402</ele>
        <time>2020-02-15T14:52:16Z</time>
      </trkpt>
      <trkpt lat="47.07516" lon="5.4144">
        <ele>265.532</ele>
        <time>2020-02-15T14:52:17Z</time>
      </trkpt>
      <trkpt lat="47.07521" lon="5.41445">
        <ele>266.532</ele>
        <time>2020-02-15T14:52:20Z</time>
      </trkpt>
      <trkpt lat="47.07524" lon="5.41453">
        <ele>266.086</ele>
        <time>2020-02-15T14:52:24Z</time>
      </trkpt>
      <trkpt lat="47.07526" lon="5.41459">
        <ele>265.002</ele>
        <time>2020-02-15T14:52:28Z</time>
      </trkpt>
      <trkpt lat="47.0753" lon="5.41464">
        <ele>261.839</ele>
        <time>2020-02-15T14:52:34Z</time>
      </trkpt>
      <trkpt lat="47.07531" lon="5.41474">
        <ele>260.833</ele>
        <time>2020-02-15T14:52:40Z</time>
      </trkpt>
      <trkpt lat="47.07531" lon="5.41482">
        <ele>262.069</ele>
        <time>2020-02-15T14:52:44Z</time>
      </trkpt>
      <trkpt lat="47.07532" lon="5.41492">
        <ele>261.309</ele>
        <time>2020-02-15T14:52:49Z</time>
      </trkpt>
      <trkpt lat="47.07534" lon="5.41502">
        <ele>259.882</ele>
        <time>2020-02-15T14:52:53Z</time>
      </trkpt>
      <trkpt lat="47.07535" lon="5.41506">
        <ele>258.892</ele>
        <time>2020-02-15T14:52:56Z</time>
      </trkpt>
      <trkpt lat="47.07536" lon="5.41513">
        <ele>259.551</ele>
        <time>2020-02-15T14:52:59Z</time>
      </trkpt>
      <trkpt lat="47.07535" lon="5.41521">
        <ele>258.84</ele>
        <time>2020-02-15T14:53:05Z</time>
      </trkpt>
      <trkpt lat="47.07533" lon="5.4153">
        <ele>259.248</ele>
        <time>2020-02-15T14:53:09Z</time>
      </trkpt>
      <trkpt lat="47.07533" lon="5.41537">
        <ele>259.642</ele>
        <time>2020-02-15T14:53:11Z</time>
      </trkpt>
      <trkpt lat="47.07533" lon="5.41546">
        <ele>261.849</ele>
        <time>2020-02-15T14:53:14Z</time>
      </trkpt>
      <trkpt lat="47.07531" lon="5.41554">
        <ele>261</ele>
        <time>2020-02-15T14:53:18Z</time>
      </trkpt>
      <trkpt lat="47.07535" lon="5.41564">
        <ele>260.729</ele>
        <time>2020-02-15T14:53:21Z</time>
      </trkpt>
      <trkpt lat="47.07541" lon="5.41573">
        <ele>261.476</ele>
        <time>2020-02-15T14:53:25Z</time>
      </trkpt>
      <trkpt lat="47.07543" lon="5.41576">
        <ele>261.971</ele>
        <time>2020-02-15T14:53:29Z</time>
      </trkpt>
      <trkpt lat="47.0755" lon="5.41579">
        <ele>263.728</ele>
        <time>2020-02-15T14:53:37Z</time>
      </trkpt>
      <trkpt lat="47.07557" lon="5.41578">
        <ele>263.66</ele>
        <time>2020-02-15T14:53:40Z</time>
      </trkpt>
      <trkpt lat="47.07562" lon="5.41582">
        <ele>263.569</ele>
        <time>2020-02-15T14:53:44Z</time>
      </trkpt>
      <trkpt lat="47.07565" lon="5.41588">
        <ele>263.403</ele>
        <time>2020-02-15T14:53:47Z</time>
      </trkpt>
      <trkpt lat="47.07566" lon="5.41591">
        <ele>263.355</ele>
        <time>2020-02-15T14:53:49Z</time>
      </trkpt>
      <trkpt lat="47.07568" lon="5.41595">
        <ele>263.274</ele>
        <time>2020-02-15T14:53:51Z</time>
      </trkpt>
      <trkpt lat="47.0757" lon="5.416">
        <ele>263.227</ele>
        <time>2020-02-15T14:53:53Z</time>
      </trkpt>
      <trkpt lat="47.07568" lon="5.41609">
        <ele>263.163</ele>
        <time>2020-02-15T14:53:56Z</time>
      </trkpt>
      <trkpt lat="47.07568" lon="5.41609">
        <ele>263.163</ele>
        <time>2020-02-15T14:54:03Z</time>
      </trkpt>
      <trkpt lat="47.07566" lon="5.4162">
        <ele>262.022</ele>
        <time>2020-02-15T14:54:05Z</time>
      </trkpt>
      <trkpt lat="47.0757" lon="5.41627">
        <ele>261.866</ele>
        <time>2020-02-15T14:54:09Z</time>
      </trkpt>
      <trkpt lat="47.07573" lon="5.41634">
        <ele>262.223</ele>
        <time>2020-02-15T14:54:13Z</time>
      </trkpt>
      <trkpt lat="47.07576" lon="5.41639">
        <ele>262.89</ele>
        <time>2020-02-15T14:54:21Z</time>
      </trkpt>
      <trkpt lat="47.07568" lon="5.41645">
        <ele>262.79</ele>
        <time>2020-02-15T14:54:27Z</time>
      </trkpt>
      <trkpt lat="47.07573" lon="5.41656">
        <ele>262.212</ele>
        <time>2020-02-15T14:54:33Z</time>
      </trkpt>
      <trkpt lat="47.07575" lon="5.41667">
        <ele>260.869</ele>
        <time>2020-02-15T14:54:37Z</time>
      </trkpt>
      <trkpt lat="47.07571" lon="5.41672">
        <ele>259.782</ele>
        <time>2020-02-15T14:54:41Z</time>
      </trkpt>
      <trkpt lat="47.0757" lon="5.41679">
        <ele>258.635</ele>
        <time>2020-02-15T14:54:47Z</time>
      </trkpt>
      <trkpt lat="47.07571" lon="5.41689">
        <ele>261.617</ele>
        <time>2020-02-15T14:54:49Z</time>
      </trkpt>
      <trkpt lat="47.07571" lon="5.41695">
        <ele>264.919</ele>
        <time>2020-02-15T14:54:50Z</time>
      </trkpt>
      <trkpt lat="47.07574" lon="5.41705">
        <ele>268.778</ele>
        <time>2020-02-15T14:54:53Z</time>
      </trkpt>
      <trkpt lat="47.07577" lon="5.41711">
        <ele>268.385</ele>
        <time>2020-02-15T14:54:56Z</time>
      </trkpt>
      <trkpt lat="47.07579" lon="5.41719">
        <ele>268.612</ele>
        <time>2020-02-15T14:55:01Z</time>
      </trkpt>
      <trkpt lat="47.07579" lon="5.41728">
        <ele>267.527</ele>
        <time>2020-02-15T14:55:07Z</time>
      </trkpt>
      <trkpt lat="47.0758" lon="5.41735">
        <ele>268.287</ele>
        <time>2020-02-15T14:55:11Z</time>
      </trkpt>
      <trkpt lat="47.07585" lon="5.41737">
        <ele>267.89</ele>
        <time>2020-02-15T14:55:16Z</time>
      </trkpt>
      <trkpt lat="47.0759" lon="5.41742">
        <ele>268.856</ele>
        <time>2020-02-15T14:55:20Z</time>
      </trkpt>
      <trkpt lat="47.07593" lon="5.41748">
        <ele>269.467</ele>
        <time>2020-02-15T14:55:23Z</time>
      </trkpt>
      <trkpt lat="47.07593" lon="5.41754">
        <ele>269.858</ele>
        <time>2020-02-15T14:55:28Z</time>
      </trkpt>
      <trkpt lat="47.07593" lon="5.41765">
        <ele>270.811</ele>
        <time>2020-02-15T14:55:33Z</time>
      </trkpt>
      <trkpt lat="47.07596" lon="5.41772">
        <ele>270.724</ele>
        <time>2020-02-15T14:55:38Z</time>
      </trkpt>
      <trkpt lat="47.07597" lon="5.41776">
        <ele>270.471</ele>
        <time>2020-02-15T14:55:40Z</time>
      </trkpt>
      <trkpt lat="47.076" lon="5.41781">
        <ele>271.077</ele>
        <time>2020-02-15T14:55:43Z</time>
      </trkpt>
      <trkpt lat="47.07606" lon="5.41786">
        <ele>272.881</ele>
        <time>2020-02-15T14:55:47Z</time>
      </trkpt>
      <trkpt lat="47.07611" lon="5.41788">
        <ele>274.165</ele>
        <time>2020-02-15T14:55:50Z</time>
      </trkpt>
      <trkpt lat="47.07617" lon="5.41789">
        <ele>275.413</ele>
        <time>2020-02-15T14:55:53Z</time>
      </trkpt>
      <trkpt lat="47.07622" lon="5.4179">
        <ele>275.507</ele>
        <time>2020-02-15T14:55:55Z</time>
      </trkpt>
      <trkpt lat="47.07627" lon="5.41795">
        <ele>276.35</ele>
        <time>2020-02-15T14:55:58Z</time>
      </trkpt>
      <trkpt lat="47.0763" lon="5.41799">
        <ele>277.609</ele>
        <time>2020-02-15T14:56:00Z</time>
      </trkpt>
      <trkpt lat="47.07635" lon="5.41802">
        <ele>278.255</ele>
        <time>2020-02-15T14:56:03Z</time>
      </trkpt>
      <trkpt lat="47.07641" lon="5.41803">
        <ele>278.882</ele>
        <time>2020-02-15T14:56:06Z</time>
      </trkpt>
      <trkpt lat="47.07646" lon="5.41809">
        <ele>280.745</ele>
        <time>2020-02-15T14:56:12Z</time>
      </trkpt>
      <trkpt lat="47.07649" lon="5.41812">
        <ele>281.177</ele>
        <time>2020-02-15T14:56:14Z</time>
      </trkpt>
      <trkpt lat="47.07653" lon="5.41815">
        <ele>281.602</ele>
        <time>2020-02-15T14:56:17Z</time>
      </trkpt>
      <trkpt lat="47.07656" lon="5.41818">
        <ele>281.401</ele>
        <time>2020-02-15T14:56:21Z</time>
      </trkpt>
      <trkpt lat="47.07659" lon="5.41826">
        <ele>278.888</ele>
        <time>2020-02-15T14:56:28Z</time>
      </trkpt>
      <trkpt lat="47.07663" lon="5.41829">
        <ele>278.815</ele>
        <time>2020-02-15T14:56:33Z</time>
      </trkpt>
      <trkpt lat="47.07667" lon="5.41835">
        <ele>278.491</ele>
        <time>2020-02-15T14:56:37Z</time>
      </trkpt>
      <trkpt lat="47.0767" lon="5.41844">
        <ele>277.907</ele>
        <time>2020-02-15T14:56:42Z</time>
      </trkpt>
      <trkpt lat="47.07673" lon="5.41849">
        <ele>277.066</ele>
        <time>2020-02-15T14:56:45Z</time>
      </trkpt>
      <trkpt lat="47.07675" lon="5.41853">
        <ele>276.623</ele>
        <time>2020-02-15T14:56:47Z</time>
      </trkpt>
      <trkpt lat="47.07677" lon="5.41856">
        <ele>276.584</ele>
        <time>2020-02-15T14:56:49Z</time>
      </trkpt>
      <trkpt lat="47.07683" lon="5.41863">
        <ele>274.925</ele>
        <time>2020-02-15T14:56:54Z</time>
      </trkpt>
      <trkpt lat="47.07683" lon="5.4187">
        <ele>272.055</ele>
        <time>2020-02-15T14:56:59Z</time>
      </trkpt>
      <trkpt lat="47.07684" lon="5.41877">
        <ele>269.457</ele>
        <time>2020-02-15T14:57:03Z</time>
      </trkpt>
      <trkpt lat="47.07687" lon="5.41885">
        <ele>269.06</ele>
        <time>2020-02-15T14:57:07Z</time>
      </trkpt>
      <trkpt lat="47.07691" lon="5.41889">
        <ele>269.142</ele>
        <time>2020-02-15T14:57:10Z</time>
      </trkpt>
      <trkpt lat="47.07693" lon="5.41892">
        <ele>268.777</ele>
        <time>2020-02-15T14:57:12Z</time>
      </trkpt>
      <trkpt lat="47.07696" lon="5.41896">
        <ele>268.619</ele>
        <time>2020-02-15T14:57:14Z</time>
      </trkpt>
      <trkpt lat="47.07698" lon="5.419">
        <ele>268.609</ele>
        <time>2020-02-15T14:57:16Z</time>
      </trkpt>
      <trkpt lat="47.07702" lon="5.41905">
        <ele>268.939</ele>
        <time>2020-02-15T14:57:19Z</time>
      </trkpt>
      <trkpt lat="47.07705" lon="5.41909">
        <ele>269.31</ele>
        <time>2020-02-15T14:57:21Z</time>
      </trkpt>
      <trkpt lat="47.07709" lon="5.41915">
        <ele>269.975</ele>
        <time>2020-02-15T14:57:24Z</time>
      </trkpt>
      <trkpt lat="47.07712" lon="5.41921">
        <ele>270.683</ele>
        <time>2020-02-15T14:57:27Z</time>
      </trkpt>
      <trkpt lat="47.07715" lon="5.41926">
        <ele>271.261</ele>
        <time>2020-02-15T14:57:30Z</time>
      </trkpt>
      <trkpt lat="47.07719" lon="5.4193">
        <ele>271.519</ele>
        <time>2020-02-15T14:57:34Z</time>
      </trkpt>
      <trkpt lat="47.07724" lon="5.41934">
        <ele>270.938</ele>
        <time>2020-02-15T14:57:38Z</time>
      </trkpt>
      <trkpt lat="47.07728" lon="5.41939">
        <ele>270.246</ele>
        <time>2020-02-15T14:57:42Z</time>
      </trkpt>
      <trkpt lat="47.07733" lon="5.41946">
        <ele>270.943</ele>
        <time>2020-02-15T14:57:47Z</time>
      </trkpt>
      <trkpt lat="47.07736" lon="5.41952">
        <ele>270.923</ele>
        <time>2020-02-15T14:57:51Z</time>
      </trkpt>
      <trkpt lat="47.07737" lon="5.41955">
        <ele>270.534</ele>
        <time>2020-02-15T14:57:53Z</time>
      </trkpt>
      <trkpt lat="47.07739" lon="5.41959">
        <ele>270.493</ele>
        <time>2020-02-15T14:57:55Z</time>
      </trkpt>
      <trkpt lat="47.07741" lon="5.41962">
        <ele>269.993</ele>
        <time>2020-02-15T14:57:57Z</time>
      </trkpt>
      <trkpt lat="47.07745" lon="5.41966">
        <ele>269.555</ele>
        <time>2020-02-15T14:58:00Z</time>
      </trkpt>
      <trkpt lat="47.07747" lon="5.41969">
        <ele>269.312</ele>
        <time>2020-02-15T14:58:02Z</time>
      </trkpt>
      <trkpt lat="47.0775" lon="5.41971">
        <ele>269.106</ele>
        <time>2020-02-15T14:58:04Z</time>
      </trkpt>
      <trkpt lat="47.07753" lon="5.41975">
        <ele>268.518</ele>
        <time>2020-02-15T14:58:07Z</time>
      </trkpt>
      <trkpt lat="47.07757" lon="5.41979">
        <ele>267.57</ele>
        <time>2020-02-15T14:58:11Z</time>
      </trkpt>
      <trkpt lat="47.0776" lon="5.41982">
        <ele>266.811</ele>
        <time>2020-02-15T14:58:13Z</time>
      </trkpt>
      <trkpt lat="47.07764" lon="5.41988">
        <ele>265.595</ele>
        <time>2020-02-15T14:58:17Z</time>
      </trkpt>
      <trkpt lat="47.07767" lon="5.41992">
        <ele>265</ele>
        <time>2020-02-15T14:58:20Z</time>
      </trkpt>
      <trkpt lat="47.07769" lon="5.41995">
        <ele>264.773</ele>
        <time>2020-02-15T14:58:22Z</time>
      </trkpt>
      <trkpt lat="47.0777" lon="5.42005">
        <ele>264.586</ele>
        <time>2020-02-15T14:58:27Z</time>
      </trkpt>
      <trkpt lat="47.0777" lon="5.42008">
        <ele>264.79</ele>
        <time>2020-02-15T14:58:28Z</time>
      </trkpt>
      <trkpt lat="47.07772" lon="5.42014">
        <ele>264.724</ele>
        <time>2020-02-15T14:58:30Z</time>
      </trkpt>
      <trkpt lat="47.07773" lon="5.4202">
        <ele>263.549</ele>
        <time>2020-02-15T14:58:33Z</time>
      </trkpt>
      <trkpt lat="47.07774" lon="5.42028">
        <ele>263.993</ele>
        <time>2020-02-15T14:58:38Z</time>
      </trkpt>
      <trkpt lat="47.07777" lon="5.42036">
        <ele>264.517</ele>
        <time>2020-02-15T14:58:42Z</time>
      </trkpt>
      <trkpt lat="47.07778" lon="5.42039">
        <ele>264.484</ele>
        <time>2020-02-15T14:58:44Z</time>
      </trkpt>
      <trkpt lat="47.07779" lon="5.42046">
        <ele>263.777</ele>
        <time>2020-02-15T14:58:48Z</time>
      </trkpt>
      <trkpt lat="47.07782" lon="5.42053">
        <ele>263.029</ele>
        <time>2020-02-15T14:58:52Z</time>
      </trkpt>
      <trkpt lat="47.07783" lon="5.42057">
        <ele>262.677</ele>
        <time>2020-02-15T14:58:54Z</time>
      </trkpt>
      <trkpt lat="47.07787" lon="5.42065">
        <ele>262.755</ele>
        <time>2020-02-15T14:58:58Z</time>
      </trkpt>
      <trkpt lat="47.0779" lon="5.42072">
        <ele>263.276</ele>
        <time>2020-02-15T14:59:02Z</time>
      </trkpt>
      <trkpt lat="47.07791" lon="5.42075">
        <ele>263.603</ele>
        <time>2020-02-15T14:59:04Z</time>
      </trkpt>
      <trkpt lat="47.07792" lon="5.42079">
        <ele>263.792</ele>
        <time>2020-02-15T14:59:06Z</time>
      </trkpt>
      <trkpt lat="47.07794" lon="5.42083">
        <ele>264.495</ele>
        <time>2020-02-15T14:59:08Z</time>
      </trkpt>
      <trkpt lat="47.07796" lon="5.42088">
        <ele>265.413</ele>
        <time>2020-02-15T14:59:10Z</time>
      </trkpt>
      <trkpt lat="47.07797" lon="5.42094">
        <ele>266.454</ele>
        <time>2020-02-15T14:59:13Z</time>
      </trkpt>
      <trkpt lat="47.078" lon="5.42101">
        <ele>267.522</ele>
        <time>2020-02-15T14:59:16Z</time>
      </trkpt>
      <trkpt lat="47.07801" lon="5.4211">
        <ele>268.489</ele>
        <time>2020-02-15T14:59:20Z</time>
      </trkpt>
      <trkpt lat="47.07804" lon="5.42117">
        <ele>269.287</ele>
        <time>2020-02-15T14:59:23Z</time>
      </trkpt>
      <trkpt lat="47.07806" lon="5.42122">
        <ele>269.764</ele>
        <time>2020-02-15T14:59:26Z</time>
      </trkpt>
      <trkpt lat="47.07806" lon="5.42128">
        <ele>270.841</ele>
        <time>2020-02-15T14:59:31Z</time>
      </trkpt>
      <trkpt lat="47.07809" lon="5.42136">
        <ele>270.522</ele>
        <time>2020-02-15T14:59:35Z</time>
      </trkpt>
      <trkpt lat="47.0781" lon="5.42139">
        <ele>270.75</ele>
        <time>2020-02-15T14:59:36Z</time>
      </trkpt>
      <trkpt lat="47.0781" lon="5.42147">
        <ele>271.561</ele>
        <time>2020-02-15T14:59:40Z</time>
      </trkpt>
      <trkpt lat="47.0781" lon="5.42152">
        <ele>272.54</ele>
        <time>2020-02-15T14:59:43Z</time>
      </trkpt>
      <trkpt lat="47.07812" lon="5.42159">
        <ele>273.539</ele>
        <time>2020-02-15T14:59:47Z</time>
      </trkpt>
      <trkpt lat="47.07816" lon="5.42164">
        <ele>273.464</ele>
        <time>2020-02-15T14:59:51Z</time>
      </trkpt>
      <trkpt lat="47.07816" lon="5.42171">
        <ele>275.255</ele>
        <time>2020-02-15T14:59:55Z</time>
      </trkpt>
      <trkpt lat="47.07815" lon="5.42177">
        <ele>278.403</ele>
        <time>2020-02-15T14:59:59Z</time>
      </trkpt>
      <trkpt lat="47.07815" lon="5.42184">
        <ele>280.671</ele>
        <time>2020-02-15T15:00:06Z</time>
      </trkpt>
      <trkpt lat="47.07819" lon="5.42193">
        <ele>280.07</ele>
        <time>2020-02-15T15:00:19Z</time>
      </trkpt>
      <trkpt lat="47.0782" lon="5.42202">
        <ele>280.001</ele>
        <time>2020-02-15T15:00:23Z</time>
      </trkpt>
      <trkpt lat="47.07821" lon="5.42211">
        <ele>279.073</ele>
        <time>2020-02-15T15:00:28Z</time>
      </trkpt>
      <trkpt lat="47.0782" lon="5.42218">
        <ele>279.483</ele>
        <time>2020-02-15T15:00:34Z</time>
      </trkpt>
      <trkpt lat="47.07818" lon="5.42224">
        <ele>280.193</ele>
        <time>2020-02-15T15:00:39Z</time>
      </trkpt>
      <trkpt lat="47.07819" lon="5.42233">
        <ele>281.208</ele>
        <time>2020-02-15T15:00:43Z</time>
      </trkpt>
      <trkpt lat="47.07822" lon="5.42245">
        <ele>281.236</ele>
        <time>2020-02-15T15:00:47Z</time>
      </trkpt>
      <trkpt lat="47.07823" lon="5.42252">
        <ele>280.936</ele>
        <time>2020-02-15T15:00:49Z</time>
      </trkpt>
      <trkpt lat="47.07824" lon="5.4226">
        <ele>280.634</ele>
        <time>2020-02-15T15:00:52Z</time>
      </trkpt>
      <trkpt lat="47.07824" lon="5.42267">
        <ele>280.628</ele>
        <time>2020-02-15T15:00:55Z</time>
      </trkpt>
      <trkpt lat="47.07823" lon="5.42274">
        <ele>280.389</ele>
        <time>2020-02-15T15:00:58Z</time>
      </trkpt>
      <trkpt lat="47.07823" lon="5.42279">
        <ele>280.314</ele>
        <time>2020-02-15T15:01:00Z</time>
      </trkpt>
      <trkpt lat="47.07824" lon="5.42285">
        <ele>280.729</ele>
        <time>2020-02-15T15:01:03Z</time>
      </trkpt>
      <trkpt lat="47.07823" lon="5.42293">
        <ele>282.101</ele>
        <time>2020-02-15T15:01:06Z</time>
      </trkpt>
      <trkpt lat="47.07819" lon="5.423">
        <ele>283.462</ele>
        <time>2020-02-15T15:01:09Z</time>
      </trkpt>
      <trkpt lat="47.07817" lon="5.42306">
        <ele>285.836</ele>
        <time>2020-02-15T15:01:13Z</time>
      </trkpt>
      <trkpt lat="47.07812" lon="5.42309">
        <ele>287.9</ele>
        <time>2020-02-15T15:01:18Z</time>
      </trkpt>
      <trkpt lat="47.07812" lon="5.42309">
        <ele>287.9</ele>
        <time>2020-02-15T15:01:26Z</time>
      </trkpt>
      <trkpt lat="47.07812" lon="5.42309">
        <ele>287.9</ele>
        <time>2020-02-15T15:01:27Z</time>
      </trkpt>
      <trkpt lat="47.07809" lon="5.42326">
        <ele>290.765</ele>
        <time>2020-02-15T15:01:36Z</time>
      </trkpt>
      <trkpt lat="47.07813" lon="5.42332">
        <ele>289.471</ele>
        <time>2020-02-15T15:01:45Z</time>
      </trkpt>
      <trkpt lat="47.07814" lon="5.42339">
        <ele>290.721</ele>
        <time>2020-02-15T15:01:51Z</time>
      </trkpt>
      <trkpt lat="47.07812" lon="5.42346">
        <ele>291.127</ele>
        <time>2020-02-15T15:01:54Z</time>
      </trkpt>
      <trkpt lat="47.07812" lon="5.42355">
        <ele>291.341</ele>
        <time>2020-02-15T15:01:57Z</time>
      </trkpt>
      <trkpt lat="47.07812" lon="5.42362">
        <ele>291.212</ele>
        <time>2020-02-15T15:02:00Z</time>
      </trkpt>
      <trkpt lat="47.07813" lon="5.42369">
        <ele>291.457</ele>
        <time>2020-02-15T15:02:04Z</time>
      </trkpt>
      <trkpt lat="47.07816" lon="5.42375">
        <ele>292.983</ele>
        <time>2020-02-15T15:02:08Z</time>
      </trkpt>
      <trkpt lat="47.07818" lon="5.42382">
        <ele>294.061</ele>
        <time>2020-02-15T15:02:12Z</time>
      </trkpt>
      <trkpt lat="47.07819" lon="5.42387">
        <ele>295.835</ele>
        <time>2020-02-15T15:02:14Z</time>
      </trkpt>
      <trkpt lat="47.07822" lon="5.42394">
        <ele>296.627</ele>
        <time>2020-02-15T15:02:17Z</time>
      </trkpt>
      <trkpt lat="47.07827" lon="5.42399">
        <ele>295.98</ele>
        <time>2020-02-15T15:02:22Z</time>
      </trkpt>
      <trkpt lat="47.07832" lon="5.42402">
        <ele>294.68</ele>
        <time>2020-02-15T15:02:26Z</time>
      </trkpt>
      <trkpt lat="47.07836" lon="5.42405">
        <ele>294.05</ele>
        <time>2020-02-15T15:02:29Z</time>
      </trkpt>
      <trkpt lat="47.0784" lon="5.42411">
        <ele>293.424</ele>
        <time>2020-02-15T15:02:33Z</time>
      </trkpt>
      <trkpt lat="47.07843" lon="5.42414">
        <ele>292.893</ele>
        <time>2020-02-15T15:02:35Z</time>
      </trkpt>
      <trkpt lat="47.07847" lon="5.4242">
        <ele>292.71</ele>
        <time>2020-02-15T15:02:39Z</time>
      </trkpt>
      <trkpt lat="47.07851" lon="5.42425">
        <ele>292.441</ele>
        <time>2020-02-15T15:02:43Z</time>
      </trkpt>
      <trkpt lat="47.07855" lon="5.42432">
        <ele>292.111</ele>
        <time>2020-02-15T15:02:48Z</time>
      </trkpt>
      <trkpt lat="47.07856" lon="5.42435">
        <ele>291.986</ele>
        <time>2020-02-15T15:02:50Z</time>
      </trkpt>
      <trkpt lat="47.07859" lon="5.4244">
        <ele>290.812</ele>
        <time>2020-02-15T15:02:55Z</time>
      </trkpt>
      <trkpt lat="47.07864" lon="5.42444">
        <ele>290.498</ele>
        <time>2020-02-15T15:03:00Z</time>
      </trkpt>
      <trkpt lat="47.07868" lon="5.42448">
        <ele>291.989</ele>
        <time>2020-02-15T15:03:02Z</time>
      </trkpt>
      <trkpt lat="47.07871" lon="5.42451">
        <ele>292.517</ele>
        <time>2020-02-15T15:03:04Z</time>
      </trkpt>
      <trkpt lat="47.07876" lon="5.42458">
        <ele>292.766</ele>
        <time>2020-02-15T15:03:08Z</time>
      </trkpt>
      <trkpt lat="47.07878" lon="5.42461">
        <ele>292.814</ele>
        <time>2020-02-15T15:03:10Z</time>
      </trkpt>
      <trkpt lat="47.0788" lon="5.42467">
        <ele>292.049</ele>
        <time>2020-02-15T15:03:14Z</time>
      </trkpt>
      <trkpt lat="47.0788" lon="5.42467">
        <ele>292.049</ele>
        <time>2020-02-15T15:03:21Z</time>
      </trkpt>
      <trkpt lat="47.07881" lon="5.42474">
        <ele>288.237</ele>
        <time>2020-02-15T15:03:23Z</time>
      </trkpt>
      <trkpt lat="47.07886" lon="5.42483">
        <ele>287.625</ele>
        <time>2020-02-15T15:03:28Z</time>
      </trkpt>
      <trkpt lat="47.07888" lon="5.4249">
        <ele>287.445</ele>
        <time>2020-02-15T15:03:31Z</time>
      </trkpt>
      <trkpt lat="47.07891" lon="5.42495">
        <ele>287.827</ele>
        <time>2020-02-15T15:03:34Z</time>
      </trkpt>
      <trkpt lat="47.07894" lon="5.42503">
        <ele>287.467</ele>
        <time>2020-02-15T15:03:38Z</time>
      </trkpt>
      <trkpt lat="47.07895" lon="5.42508">
        <ele>287.52</ele>
        <time>2020-02-15T15:03:40Z</time>
      </trkpt>
      <trkpt lat="47.07896" lon="5.42512">
        <ele>287.508</ele>
        <time>2020-02-15T15:03:42Z</time>
      </trkpt>
      <trkpt lat="47.07896" lon="5.42516">
        <ele>287.378</ele>
        <time>2020-02-15T15:03:44Z</time>
      </trkpt>
      <trkpt lat="47.07899" lon="5.42523">
        <ele>287.597</ele>
        <time>2020-02-15T15:03:48Z</time>
      </trkpt>
      <trkpt lat="47.079" lon="5.42531">
        <ele>287.564</ele>
        <time>2020-02-15T15:03:52Z</time>
      </trkpt>
      <trkpt lat="47.07901" lon="5.42535">
        <ele>287.448</ele>
        <time>2020-02-15T15:03:54Z</time>
      </trkpt>
      <trkpt lat="47.07904" lon="5.42541">
        <ele>287.615</ele>
        <time>2020-02-15T15:03:58Z</time>
      </trkpt>
      <trkpt lat="47.07909" lon="5.42545">
        <ele>288.111</ele>
        <time>2020-02-15T15:04:01Z</time>
      </trkpt>
      <trkpt lat="47.07912" lon="5.42553">
        <ele>289.594</ele>
        <time>2020-02-15T15:04:06Z</time>
      </trkpt>
      <trkpt lat="47.07915" lon="5.42558">
        <ele>290.224</ele>
        <time>2020-02-15T15:04:10Z</time>
      </trkpt>
      <trkpt lat="47.07909" lon="5.42559">
        <ele>291.099</ele>
        <time>2020-02-15T15:04:21Z</time>
      </trkpt>
      <trkpt lat="47.07919" lon="5.42579">
        <ele>292.424</ele>
        <time>2020-02-15T15:05:10Z</time>
      </trkpt>
      <trkpt lat="47.07929" lon="5.42592">
        <ele>291.943</ele>
        <time>2020-02-15T15:05:36Z</time>
      </trkpt>
      <trkpt lat="47.07941" lon="5.42595">
        <ele>292.254</ele>
        <time>2020-02-15T15:05:43Z</time>
      </trkpt>
      <trkpt lat="47.07946" lon="5.42598">
        <ele>293.308</ele>
        <time>2020-02-15T15:05:45Z</time>
      </trkpt>
      <trkpt lat="47.07949" lon="5.426">
        <ele>293.116</ele>
        <time>2020-02-15T15:05:49Z</time>
      </trkpt>
      <trkpt lat="47.07973" lon="5.42633">
        <ele>291.968</ele>
        <time>2020-02-15T15:06:28Z</time>
      </trkpt>
      <trkpt lat="47.07946" lon="5.42619">
        <ele>294.049</ele>
        <time>2020-02-15T15:07:09Z</time>
      </trkpt>
      <trkpt lat="47.07949" lon="5.42598">
        <ele>297.602</ele>
        <time>2020-02-15T15:08:02Z</time>
      </trkpt>
      <trkpt lat="47.07989" lon="5.42627">
        <ele>301.003</ele>
        <time>2020-02-15T15:09:05Z</time>
      </trkpt>
      <trkpt lat="47.08013" lon="5.42694">
        <ele>307.763</ele>
        <time>2020-02-15T15:09:25Z</time>
      </trkpt>
      <trkpt lat="47.08013" lon="5.42694">
        <ele>307.763</ele>
        <time>2020-02-15T15:09:34Z</time>
      </trkpt>
      <trkpt lat="47.0802" lon="5.42688">
        <ele>300.048</ele>
        <time>2020-02-15T15:09:36Z</time>
      </trkpt>
      <trkpt lat="47.08028" lon="5.42678">
        <ele>303.889</ele>
        <time>2020-02-15T15:09:53Z</time>
      </trkpt>
      <trkpt lat="47.08031" lon="5.42672">
        <ele>305.04</ele>
        <time>2020-02-15T15:09:55Z</time>
      </trkpt>
      <trkpt lat="47.08035" lon="5.42666">
        <ele>306.953</ele>
        <time>2020-02-15T15:09:59Z</time>
      </trkpt>
      <trkpt lat="47.0804" lon="5.42662">
        <ele>308.266</ele>
        <time>2020-02-15T15:10:09Z</time>
      </trkpt>
      <trkpt lat="47.08046" lon="5.42658">
        <ele>308.362</ele>
        <time>2020-02-15T15:10:13Z</time>
      </trkpt>
      <trkpt lat="47.08052" lon="5.42658">
        <ele>308.213</ele>
        <time>2020-02-15T15:10:16Z</time>
      </trkpt>
      <trkpt lat="47.08056" lon="5.42652">
        <ele>307.91</ele>
        <time>2020-02-15T15:10:19Z</time>
      </trkpt>
      <trkpt lat="47.08058" lon="5.42646">
        <ele>307.867</ele>
        <time>2020-02-15T15:10:21Z</time>
      </trkpt>
      <trkpt lat="47.08057" lon="5.42637">
        <ele>307.303</ele>
        <time>2020-02-15T15:10:23Z</time>
      </trkpt>
      <trkpt lat="47.08054" lon="5.42628">
        <ele>306.092</ele>
        <time>2020-02-15T15:10:26Z</time>
      </trkpt>
      <trkpt lat="47.08051" lon="5.42622">
        <ele>305.179</ele>
        <time>2020-02-15T15:10:27Z</time>
      </trkpt>
      <trkpt lat="47.08051" lon="5.42615">
        <ele>303.127</ele>
        <time>2020-02-15T15:10:30Z</time>
      </trkpt>
      <trkpt lat="47.08055" lon="5.42606">
        <ele>300.083</ele>
        <time>2020-02-15T15:10:37Z</time>
      </trkpt>
      <trkpt lat="47.08055" lon="5.42599">
        <ele>300.49</ele>
        <time>2020-02-15T15:10:39Z</time>
      </trkpt>
      <trkpt lat="47.08052" lon="5.42592">
        <ele>302.497</ele>
        <time>2020-02-15T15:10:41Z</time>
      </trkpt>
      <trkpt lat="47.08053" lon="5.42583">
        <ele>301.839</ele>
        <time>2020-02-15T15:10:45Z</time>
      </trkpt>
      <trkpt lat="47.08054" lon="5.42575">
        <ele>301.252</ele>
        <time>2020-02-15T15:10:48Z</time>
      </trkpt>
      <trkpt lat="47.08054" lon="5.42567">
        <ele>301.504</ele>
        <time>2020-02-15T15:10:55Z</time>
      </trkpt>
      <trkpt lat="47.08061" lon="5.42546">
        <ele>297.827</ele>
        <time>2020-02-15T15:11:05Z</time>
      </trkpt>
      <trkpt lat="47.08063" lon="5.42539">
        <ele>298.191</ele>
        <time>2020-02-15T15:11:08Z</time>
      </trkpt>
      <trkpt lat="47.08062" lon="5.42528">
        <ele>296.64</ele>
        <time>2020-02-15T15:11:12Z</time>
      </trkpt>
      <trkpt lat="47.08061" lon="5.42517">
        <ele>295.885</ele>
        <time>2020-02-15T15:11:16Z</time>
      </trkpt>
      <trkpt lat="47.0806" lon="5.42508">
        <ele>294.362</ele>
        <time>2020-02-15T15:11:21Z</time>
      </trkpt>
      <trkpt lat="47.08058" lon="5.42498">
        <ele>296.182</ele>
        <time>2020-02-15T15:11:32Z</time>
      </trkpt>
      <trkpt lat="47.08059" lon="5.42491">
        <ele>293.667</ele>
        <time>2020-02-15T15:11:36Z</time>
      </trkpt>
      <trkpt lat="47.0806" lon="5.42487">
        <ele>292.531</ele>
        <time>2020-02-15T15:11:37Z</time>
      </trkpt>
      <trkpt lat="47.0806" lon="5.42484">
        <ele>292.229</ele>
        <time>2020-02-15T15:11:38Z</time>
      </trkpt>
      <trkpt lat="47.08061" lon="5.42476">
        <ele>292.039</ele>
        <time>2020-02-15T15:11:40Z</time>
      </trkpt>
      <trkpt lat="47.08066" lon="5.42467">
        <ele>292.336</ele>
        <time>2020-02-15T15:11:44Z</time>
      </trkpt>
      <trkpt lat="47.08068" lon="5.42462">
        <ele>291.935</ele>
        <time>2020-02-15T15:11:47Z</time>
      </trkpt>
      <trkpt lat="47.0807" lon="5.42454">
        <ele>291.564</ele>
        <time>2020-02-15T15:11:51Z</time>
      </trkpt>
      <trkpt lat="47.08073" lon="5.42445">
        <ele>291.874</ele>
        <time>2020-02-15T15:11:56Z</time>
      </trkpt>
      <trkpt lat="47.08075" lon="5.42437">
        <ele>292.177</ele>
        <time>2020-02-15T15:11:58Z</time>
      </trkpt>
      <trkpt lat="47.08076" lon="5.42428">
        <ele>291.994</ele>
        <time>2020-02-15T15:12:00Z</time>
      </trkpt>
      <trkpt lat="47.08074" lon="5.42419">
        <ele>293.294</ele>
        <time>2020-02-15T15:12:04Z</time>
      </trkpt>
      <trkpt lat="47.08075" lon="5.42413">
        <ele>294.202</ele>
        <time>2020-02-15T15:12:10Z</time>
      </trkpt>
      <trkpt lat="47.08079" lon="5.4241">
        <ele>291.035</ele>
        <time>2020-02-15T15:12:12Z</time>
      </trkpt>
      <trkpt lat="47.08084" lon="5.42405">
        <ele>289.391</ele>
        <time>2020-02-15T15:12:15Z</time>
      </trkpt>
      <trkpt lat="47.0809" lon="5.42402">
        <ele>286.844</ele>
        <time>2020-02-15T15:12:21Z</time>
      </trkpt>
      <trkpt lat="47.08097" lon="5.42403">
        <ele>283.592</ele>
        <time>2020-02-15T15:12:26Z</time>
      </trkpt>
      <trkpt lat="47.08104" lon="5.42404">
        <ele>280.69</ele>
        <time>2020-02-15T15:12:32Z</time>
      </trkpt>
      <trkpt lat="47.08106" lon="5.42396">
        <ele>280.229</ele>
        <time>2020-02-15T15:12:37Z</time>
      </trkpt>
      <trkpt lat="47.08109" lon="5.42397">
        <ele>280.253</ele>
        <time>2020-02-15T15:12:46Z</time>
      </trkpt>
      <trkpt lat="47.08114" lon="5.42394">
        <ele>280.151</ele>
        <time>2020-02-15T15:12:50Z</time>
      </trkpt>
      <trkpt lat="47.08118" lon="5.42387">
        <ele>278.459</ele>
        <time>2020-02-15T15:12:53Z</time>
      </trkpt>
      <trkpt lat="47.0812" lon="5.42381">
        <ele>277.732</ele>
        <time>2020-02-15T15:12:55Z</time>
      </trkpt>
      <trkpt lat="47.08121" lon="5.4237">
        <ele>276.888</ele>
        <time>2020-02-15T15:12:59Z</time>
      </trkpt>
      <trkpt lat="47.08122" lon="5.42361">
        <ele>277.276</ele>
        <time>2020-02-15T15:13:02Z</time>
      </trkpt>
      <trkpt lat="47.08127" lon="5.42354">
        <ele>278.508</ele>
        <time>2020-02-15T15:13:05Z</time>
      </trkpt>
      <trkpt lat="47.0813" lon="5.42348">
        <ele>279.454</ele>
        <time>2020-02-15T15:13:09Z</time>
      </trkpt>
      <trkpt lat="47.08131" lon="5.42336">
        <ele>279.543</ele>
        <time>2020-02-15T15:13:14Z</time>
      </trkpt>
      <trkpt lat="47.08133" lon="5.42321">
        <ele>280.016</ele>
        <time>2020-02-15T15:13:18Z</time>
      </trkpt>
      <trkpt lat="47.08133" lon="5.42313">
        <ele>280.33</ele>
        <time>2020-02-15T15:13:20Z</time>
      </trkpt>
      <trkpt lat="47.08134" lon="5.42307">
        <ele>281.11</ele>
        <time>2020-02-15T15:13:22Z</time>
      </trkpt>
      <trkpt lat="47.08138" lon="5.423">
        <ele>281.985</ele>
        <time>2020-02-15T15:13:27Z</time>
      </trkpt>
      <trkpt lat="47.08141" lon="5.42296">
        <ele>282.825</ele>
        <time>2020-02-15T15:13:30Z</time>
      </trkpt>
      <trkpt lat="47.08145" lon="5.42293">
        <ele>282.938</ele>
        <time>2020-02-15T15:13:34Z</time>
      </trkpt>
      <trkpt lat="47.08149" lon="5.42289">
        <ele>282.55</ele>
        <time>2020-02-15T15:13:38Z</time>
      </trkpt>
      <trkpt lat="47.08153" lon="5.42284">
        <ele>283.601</ele>
        <time>2020-02-15T15:13:44Z</time>
      </trkpt>
      <trkpt lat="47.08155" lon="5.42276">
        <ele>284.318</ele>
        <time>2020-02-15T15:13:48Z</time>
      </trkpt>
      <trkpt lat="47.08157" lon="5.4227">
        <ele>283.552</ele>
        <time>2020-02-15T15:13:54Z</time>
      </trkpt>
      <trkpt lat="47.08161" lon="5.42265">
        <ele>282.45</ele>
        <time>2020-02-15T15:13:58Z</time>
      </trkpt>
      <trkpt lat="47.08162" lon="5.42261">
        <ele>281.687</ele>
        <time>2020-02-15T15:14:00Z</time>
      </trkpt>
      <trkpt lat="47.08164" lon="5.42257">
        <ele>281.095</ele>
        <time>2020-02-15T15:14:03Z</time>
      </trkpt>
      <trkpt lat="47.08167" lon="5.42247">
        <ele>279.82</ele>
        <time>2020-02-15T15:14:08Z</time>
      </trkpt>
      <trkpt lat="47.08169" lon="5.42238">
        <ele>278.978</ele>
        <time>2020-02-15T15:14:12Z</time>
      </trkpt>
      <trkpt lat="47.08169" lon="5.42238">
        <ele>278.978</ele>
        <time>2020-02-15T15:14:20Z</time>
      </trkpt>
      <trkpt lat="47.08171" lon="5.42222">
        <ele>275.6</ele>
        <time>2020-02-15T15:14:26Z</time>
      </trkpt>
      <trkpt lat="47.08172" lon="5.42215">
        <ele>275.306</ele>
        <time>2020-02-15T15:14:29Z</time>
      </trkpt>
      <trkpt lat="47.08172" lon="5.4221">
        <ele>274.811</ele>
        <time>2020-02-15T15:14:32Z</time>
      </trkpt>
      <trkpt lat="47.08177" lon="5.42206">
        <ele>274.508</ele>
        <time>2020-02-15T15:14:37Z</time>
      </trkpt>
      <trkpt lat="47.08179" lon="5.42201">
        <ele>275.462</ele>
        <time>2020-02-15T15:14:41Z</time>
      </trkpt>
      <trkpt lat="47.08183" lon="5.42194">
        <ele>278.052</ele>
        <time>2020-02-15T15:14:47Z</time>
      </trkpt>
      <trkpt lat="47.08184" lon="5.4219">
        <ele>278.431</ele>
        <time>2020-02-15T15:14:50Z</time>
      </trkpt>
      <trkpt lat="47.08186" lon="5.42184">
        <ele>278.967</ele>
        <time>2020-02-15T15:14:54Z</time>
      </trkpt>
      <trkpt lat="47.08187" lon="5.42174">
        <ele>278.97</ele>
        <time>2020-02-15T15:14:57Z</time>
      </trkpt>
      <trkpt lat="47.08191" lon="5.42165">
        <ele>277.838</ele>
        <time>2020-02-15T15:15:01Z</time>
      </trkpt>
      <trkpt lat="47.08193" lon="5.42159">
        <ele>276.482</ele>
        <time>2020-02-15T15:15:05Z</time>
      </trkpt>
      <trkpt lat="47.08193" lon="5.42148">
        <ele>274.676</ele>
        <time>2020-02-15T15:15:11Z</time>
      </trkpt>
      <trkpt lat="47.08194" lon="5.42141">
        <ele>274.686</ele>
        <time>2020-02-15T15:15:16Z</time>
      </trkpt>
      <trkpt lat="47.08194" lon="5.42133">
        <ele>274.922</ele>
        <time>2020-02-15T15:15:20Z</time>
      </trkpt>
      <trkpt lat="47.08197" lon="5.42127">
        <ele>275.645</ele>
        <time>2020-02-15T15:15:24Z</time>
      </trkpt>
      <trkpt lat="47.08199" lon="5.42123">
        <ele>274.143</ele>
        <time>2020-02-15T15:15:27Z</time>
      </trkpt>
      <trkpt lat="47.08199" lon="5.42112">
        <ele>271.495</ele>
        <time>2020-02-15T15:15:33Z</time>
      </trkpt>
      <trkpt lat="47.082" lon="5.42103">
        <ele>271.517</ele>
        <time>2020-02-15T15:15:37Z</time>
      </trkpt>
      <trkpt lat="47.08201" lon="5.42098">
        <ele>271.709</ele>
        <time>2020-02-15T15:15:39Z</time>
      </trkpt>
      <trkpt lat="47.08203" lon="5.4209">
        <ele>272.143</ele>
        <time>2020-02-15T15:15:42Z</time>
      </trkpt>
      <trkpt lat="47.08205" lon="5.42085">
        <ele>272.552</ele>
        <time>2020-02-15T15:15:45Z</time>
      </trkpt>
      <trkpt lat="47.08208" lon="5.42079">
        <ele>271.981</ele>
        <time>2020-02-15T15:15:48Z</time>
      </trkpt>
      <trkpt lat="47.08209" lon="5.42069">
        <ele>270.962</ele>
        <time>2020-02-15T15:15:52Z</time>
      </trkpt>
      <trkpt lat="47.0821" lon="5.4206">
        <ele>270.4</ele>
        <time>2020-02-15T15:15:56Z</time>
      </trkpt>
      <trkpt lat="47.0821" lon="5.42056">
        <ele>270.004</ele>
        <time>2020-02-15T15:15:58Z</time>
      </trkpt>
      <trkpt lat="47.0821" lon="5.42048">
        <ele>269.623</ele>
        <time>2020-02-15T15:16:01Z</time>
      </trkpt>
      <trkpt lat="47.08211" lon="5.42044">
        <ele>269.212</ele>
        <time>2020-02-15T15:16:03Z</time>
      </trkpt>
      <trkpt lat="47.08211" lon="5.42038">
        <ele>268.895</ele>
        <time>2020-02-15T15:16:06Z</time>
      </trkpt>
      <trkpt lat="47.08212" lon="5.42033">
        <ele>268.186</ele>
        <time>2020-02-15T15:16:09Z</time>
      </trkpt>
      <trkpt lat="47.08215" lon="5.42025">
        <ele>267.356</ele>
        <time>2020-02-15T15:16:14Z</time>
      </trkpt>
      <trkpt lat="47.08218" lon="5.42015">
        <ele>268.173</ele>
        <time>2020-02-15T15:16:20Z</time>
      </trkpt>
      <trkpt lat="47.08221" lon="5.42007">
        <ele>269.118</ele>
        <time>2020-02-15T15:16:25Z</time>
      </trkpt>
      <trkpt lat="47.08225" lon="5.42">
        <ele>269.558</ele>
        <time>2020-02-15T15:16:30Z</time>
      </trkpt>
      <trkpt lat="47.08225" lon="5.41993">
        <ele>269.83</ele>
        <time>2020-02-15T15:16:32Z</time>
      </trkpt>
      <trkpt lat="47.08227" lon="5.41984">
        <ele>270.068</ele>
        <time>2020-02-15T15:16:35Z</time>
      </trkpt>
      <trkpt lat="47.08227" lon="5.41977">
        <ele>270.661</ele>
        <time>2020-02-15T15:16:37Z</time>
      </trkpt>
      <trkpt lat="47.08227" lon="5.4197">
        <ele>271.048</ele>
        <time>2020-02-15T15:16:39Z</time>
      </trkpt>
      <trkpt lat="47.08231" lon="5.41967">
        <ele>270.149</ele>
        <time>2020-02-15T15:16:44Z</time>
      </trkpt>
      <trkpt lat="47.08236" lon="5.41961">
        <ele>269.36</ele>
        <time>2020-02-15T15:16:50Z</time>
      </trkpt>
      <trkpt lat="47.08236" lon="5.41961">
        <ele>269.36</ele>
        <time>2020-02-15T15:16:58Z</time>
      </trkpt>
      <trkpt lat="47.08236" lon="5.41961">
        <ele>269.36</ele>
        <time>2020-02-15T15:17:00Z</time>
      </trkpt>
      <trkpt lat="47.08233" lon="5.41955">
        <ele>267.54</ele>
        <time>2020-02-15T15:17:01Z</time>
      </trkpt>
      <trkpt lat="47.0823" lon="5.41949">
        <ele>271.744</ele>
        <time>2020-02-15T15:17:09Z</time>
      </trkpt>
      <trkpt lat="47.08228" lon="5.4194">
        <ele>275.181</ele>
        <time>2020-02-15T15:17:13Z</time>
      </trkpt>
      <trkpt lat="47.08223" lon="5.41935">
        <ele>271.879</ele>
        <time>2020-02-15T15:17:19Z</time>
      </trkpt>
      <trkpt lat="47.08217" lon="5.4193">
        <ele>270.777</ele>
        <time>2020-02-15T15:17:24Z</time>
      </trkpt>
      <trkpt lat="47.08213" lon="5.41927">
        <ele>270.327</ele>
        <time>2020-02-15T15:17:27Z</time>
      </trkpt>
      <trkpt lat="47.0821" lon="5.41925">
        <ele>270.282</ele>
        <time>2020-02-15T15:17:30Z</time>
      </trkpt>
      <trkpt lat="47.08204" lon="5.41921">
        <ele>268.849</ele>
        <time>2020-02-15T15:17:38Z</time>
      </trkpt>
      <trkpt lat="47.08199" lon="5.41917">
        <ele>267.469</ele>
        <time>2020-02-15T15:17:42Z</time>
      </trkpt>
      <trkpt lat="47.08194" lon="5.4191">
        <ele>266.01</ele>
        <time>2020-02-15T15:17:47Z</time>
      </trkpt>
      <trkpt lat="47.08189" lon="5.41903">
        <ele>265.881</ele>
        <time>2020-02-15T15:17:51Z</time>
      </trkpt>
      <trkpt lat="47.08184" lon="5.41899">
        <ele>265.206</ele>
        <time>2020-02-15T15:17:55Z</time>
      </trkpt>
      <trkpt lat="47.08181" lon="5.41896">
        <ele>264.583</ele>
        <time>2020-02-15T15:17:58Z</time>
      </trkpt>
      <trkpt lat="47.08179" lon="5.41891">
        <ele>263.551</ele>
        <time>2020-02-15T15:18:01Z</time>
      </trkpt>
      <trkpt lat="47.08174" lon="5.41885">
        <ele>262.411</ele>
        <time>2020-02-15T15:18:04Z</time>
      </trkpt>
      <trkpt lat="47.08168" lon="5.4188">
        <ele>261.662</ele>
        <time>2020-02-15T15:18:07Z</time>
      </trkpt>
      <trkpt lat="47.08163" lon="5.41877">
        <ele>261.189</ele>
        <time>2020-02-15T15:18:11Z</time>
      </trkpt>
      <trkpt lat="47.08162" lon="5.41871">
        <ele>261.51</ele>
        <time>2020-02-15T15:18:20Z</time>
      </trkpt>
      <trkpt lat="47.08161" lon="5.4186">
        <ele>259.826</ele>
        <time>2020-02-15T15:18:26Z</time>
      </trkpt>
      <trkpt lat="47.0816" lon="5.41856">
        <ele>259.536</ele>
        <time>2020-02-15T15:18:29Z</time>
      </trkpt>
      <trkpt lat="47.08155" lon="5.41854">
        <ele>259.588</ele>
        <time>2020-02-15T15:18:33Z</time>
      </trkpt>
      <trkpt lat="47.08152" lon="5.41854">
        <ele>259.607</ele>
        <time>2020-02-15T15:18:35Z</time>
      </trkpt>
      <trkpt lat="47.08147" lon="5.41852">
        <ele>259.834</ele>
        <time>2020-02-15T15:18:37Z</time>
      </trkpt>
      <trkpt lat="47.08142" lon="5.41849">
        <ele>259.699</ele>
        <time>2020-02-15T15:18:41Z</time>
      </trkpt>
      <trkpt lat="47.08136" lon="5.41851">
        <ele>259.537</ele>
        <time>2020-02-15T15:18:45Z</time>
      </trkpt>
      <trkpt lat="47.08134" lon="5.4184">
        <ele>259.08</ele>
        <time>2020-02-15T15:18:52Z</time>
      </trkpt>
      <trkpt lat="47.08132" lon="5.41832">
        <ele>260.39</ele>
        <time>2020-02-15T15:18:57Z</time>
      </trkpt>
      <trkpt lat="47.08131" lon="5.41825">
        <ele>261.562</ele>
        <time>2020-02-15T15:19:02Z</time>
      </trkpt>
      <trkpt lat="47.08131" lon="5.41815">
        <ele>261.694</ele>
        <time>2020-02-15T15:19:05Z</time>
      </trkpt>
      <trkpt lat="47.08133" lon="5.41805">
        <ele>262.423</ele>
        <time>2020-02-15T15:19:08Z</time>
      </trkpt>
      <trkpt lat="47.08134" lon="5.41788">
        <ele>263.482</ele>
        <time>2020-02-15T15:19:12Z</time>
      </trkpt>
      <trkpt lat="47.08134" lon="5.41784">
        <ele>263.624</ele>
        <time>2020-02-15T15:19:13Z</time>
      </trkpt>
      <trkpt lat="47.08134" lon="5.41781">
        <ele>263.674</ele>
        <time>2020-02-15T15:19:14Z</time>
      </trkpt>
      <trkpt lat="47.08135" lon="5.41774">
        <ele>263.411</ele>
        <time>2020-02-15T15:19:17Z</time>
      </trkpt>
      <trkpt lat="47.08138" lon="5.41767">
        <ele>262.971</ele>
        <time>2020-02-15T15:19:21Z</time>
      </trkpt>
      <trkpt lat="47.0814" lon="5.41759">
        <ele>262.251</ele>
        <time>2020-02-15T15:19:25Z</time>
      </trkpt>
      <trkpt lat="47.08143" lon="5.41752">
        <ele>262.164</ele>
        <time>2020-02-15T15:19:29Z</time>
      </trkpt>
      <trkpt lat="47.08144" lon="5.41747">
        <ele>262.018</ele>
        <time>2020-02-15T15:19:31Z</time>
      </trkpt>
      <trkpt lat="47.08145" lon="5.41738">
        <ele>261.403</ele>
        <time>2020-02-15T15:19:34Z</time>
      </trkpt>
      <trkpt lat="47.08145" lon="5.41731">
        <ele>261.406</ele>
        <time>2020-02-15T15:19:36Z</time>
      </trkpt>
      <trkpt lat="47.08146" lon="5.4172">
        <ele>261.056</ele>
        <time>2020-02-15T15:19:40Z</time>
      </trkpt>
      <trkpt lat="47.08146" lon="5.41716">
        <ele>261.325</ele>
        <time>2020-02-15T15:19:42Z</time>
      </trkpt>
      <trkpt lat="47.08149" lon="5.4171">
        <ele>261.784</ele>
        <time>2020-02-15T15:19:45Z</time>
      </trkpt>
      <trkpt lat="47.08151" lon="5.41706">
        <ele>262.001</ele>
        <time>2020-02-15T15:19:47Z</time>
      </trkpt>
      <trkpt lat="47.08152" lon="5.41699">
        <ele>261.877</ele>
        <time>2020-02-15T15:19:51Z</time>
      </trkpt>
      <trkpt lat="47.08154" lon="5.41691">
        <ele>261.781</ele>
        <time>2020-02-15T15:19:55Z</time>
      </trkpt>
      <trkpt lat="47.08156" lon="5.41684">
        <ele>261.869</ele>
        <time>2020-02-15T15:20:00Z</time>
      </trkpt>
      <trkpt lat="47.08157" lon="5.41681">
        <ele>261.54</ele>
        <time>2020-02-15T15:20:02Z</time>
      </trkpt>
      <trkpt lat="47.08162" lon="5.41679">
        <ele>260.556</ele>
        <time>2020-02-15T15:20:06Z</time>
      </trkpt>
      <trkpt lat="47.08162" lon="5.41679">
        <ele>260.556</ele>
        <time>2020-02-15T15:20:13Z</time>
      </trkpt>
      <trkpt lat="47.08162" lon="5.41679">
        <ele>260.556</ele>
        <time>2020-02-15T15:20:15Z</time>
      </trkpt>
      <trkpt lat="47.08144" lon="5.41665">
        <ele>257.951</ele>
        <time>2020-02-15T15:20:20Z</time>
      </trkpt>
      <trkpt lat="47.08141" lon="5.4166">
        <ele>258.517</ele>
        <time>2020-02-15T15:20:24Z</time>
      </trkpt>
      <trkpt lat="47.08137" lon="5.41655">
        <ele>258.377</ele>
        <time>2020-02-15T15:20:28Z</time>
      </trkpt>
      <trkpt lat="47.08134" lon="5.41652">
        <ele>258.038</ele>
        <time>2020-02-15T15:20:30Z</time>
      </trkpt>
      <trkpt lat="47.08128" lon="5.4165">
        <ele>257.532</ele>
        <time>2020-02-15T15:20:33Z</time>
      </trkpt>
      <trkpt lat="47.08124" lon="5.41649">
        <ele>257.324</ele>
        <time>2020-02-15T15:20:35Z</time>
      </trkpt>
      <trkpt lat="47.08118" lon="5.41646">
        <ele>256.799</ele>
        <time>2020-02-15T15:20:38Z</time>
      </trkpt>
      <trkpt lat="47.08109" lon="5.41645">
        <ele>255.945</ele>
        <time>2020-02-15T15:20:42Z</time>
      </trkpt>
      <trkpt lat="47.08106" lon="5.4164">
        <ele>255.688</ele>
        <time>2020-02-15T15:20:46Z</time>
      </trkpt>
      <trkpt lat="47.08106" lon="5.4164">
        <ele>255.688</ele>
        <time>2020-02-15T15:20:53Z</time>
      </trkpt>
      <trkpt lat="47.08106" lon="5.4164">
        <ele>255.688</ele>
        <time>2020-02-15T15:20:55Z</time>
      </trkpt>
      <trkpt lat="47.08097" lon="5.41638">
        <ele>255.675</ele>
        <time>2020-02-15T15:20:59Z</time>
      </trkpt>
      <trkpt lat="47.08093" lon="5.41629">
        <ele>256.967</ele>
        <time>2020-02-15T15:21:01Z</time>
      </trkpt>
      <trkpt lat="47.08091" lon="5.41618">
        <ele>256.887</ele>
        <time>2020-02-15T15:21:05Z</time>
      </trkpt>
      <trkpt lat="47.08086" lon="5.41614">
        <ele>256.604</ele>
        <time>2020-02-15T15:21:10Z</time>
      </trkpt>
      <trkpt lat="47.0808" lon="5.41613">
        <ele>257.565</ele>
        <time>2020-02-15T15:21:13Z</time>
      </trkpt>
      <trkpt lat="47.08076" lon="5.41609">
        <ele>257.786</ele>
        <time>2020-02-15T15:21:16Z</time>
      </trkpt>
      <trkpt lat="47.08073" lon="5.41606">
        <ele>257.577</ele>
        <time>2020-02-15T15:21:18Z</time>
      </trkpt>
      <trkpt lat="47.08067" lon="5.41602">
        <ele>257.42</ele>
        <time>2020-02-15T15:21:22Z</time>
      </trkpt>
      <trkpt lat="47.08062" lon="5.41601">
        <ele>257.091</ele>
        <time>2020-02-15T15:21:25Z</time>
      </trkpt>
      <trkpt lat="47.08054" lon="5.41599">
        <ele>257.182</ele>
        <time>2020-02-15T15:21:28Z</time>
      </trkpt>
      <trkpt lat="47.08051" lon="5.41598">
        <ele>257.195</ele>
        <time>2020-02-15T15:21:30Z</time>
      </trkpt>
      <trkpt lat="47.08045" lon="5.41592">
        <ele>256.565</ele>
        <time>2020-02-15T15:21:34Z</time>
      </trkpt>
      <trkpt lat="47.0804" lon="5.41585">
        <ele>257.684</ele>
        <time>2020-02-15T15:21:39Z</time>
      </trkpt>
      <trkpt lat="47.08035" lon="5.41583">
        <ele>257.361</ele>
        <time>2020-02-15T15:21:42Z</time>
      </trkpt>
      <trkpt lat="47.0803" lon="5.41582">
        <ele>256.33</ele>
        <time>2020-02-15T15:21:45Z</time>
      </trkpt>
      <trkpt lat="47.08025" lon="5.41581">
        <ele>255.459</ele>
        <time>2020-02-15T15:21:48Z</time>
      </trkpt>
      <trkpt lat="47.08022" lon="5.4158">
        <ele>255.136</ele>
        <time>2020-02-15T15:21:50Z</time>
      </trkpt>
      <trkpt lat="47.08019" lon="5.41579">
        <ele>255.324</ele>
        <time>2020-02-15T15:21:52Z</time>
      </trkpt>
      <trkpt lat="47.08013" lon="5.41574">
        <ele>255.309</ele>
        <time>2020-02-15T15:21:57Z</time>
      </trkpt>
      <trkpt lat="47.0801" lon="5.41571">
        <ele>255.726</ele>
        <time>2020-02-15T15:22:00Z</time>
      </trkpt>
      <trkpt lat="47.08004" lon="5.41565">
        <ele>255.677</ele>
        <time>2020-02-15T15:22:04Z</time>
      </trkpt>
      <trkpt lat="47.08001" lon="5.41563">
        <ele>255.264</ele>
        <time>2020-02-15T15:22:06Z</time>
      </trkpt>
      <trkpt lat="47.07998" lon="5.41561">
        <ele>255.205</ele>
        <time>2020-02-15T15:22:08Z</time>
      </trkpt>
      <trkpt lat="47.07992" lon="5.41558">
        <ele>257.792</ele>
        <time>2020-02-15T15:22:13Z</time>
      </trkpt>
      <trkpt lat="47.0799" lon="5.41557">
        <ele>258.135</ele>
        <time>2020-02-15T15:22:14Z</time>
      </trkpt>
      <trkpt lat="47.07981" lon="5.41554">
        <ele>260.178</ele>
        <time>2020-02-15T15:22:18Z</time>
      </trkpt>
      <trkpt lat="47.07975" lon="5.41548">
        <ele>261.161</ele>
        <time>2020-02-15T15:22:23Z</time>
      </trkpt>
      <trkpt lat="47.07971" lon="5.41545">
        <ele>261.664</ele>
        <time>2020-02-15T15:22:26Z</time>
      </trkpt>
      <trkpt lat="47.07966" lon="5.41539">
        <ele>264.045</ele>
        <time>2020-02-15T15:22:30Z</time>
      </trkpt>
      <trkpt lat="47.07961" lon="5.41536">
        <ele>267.147</ele>
        <time>2020-02-15T15:22:34Z</time>
      </trkpt>
      <trkpt lat="47.07958" lon="5.41531">
        <ele>267.827</ele>
        <time>2020-02-15T15:22:37Z</time>
      </trkpt>
      <trkpt lat="47.07955" lon="5.41525">
        <ele>268.181</ele>
        <time>2020-02-15T15:22:40Z</time>
      </trkpt>
      <trkpt lat="47.07951" lon="5.41515">
        <ele>267.954</ele>
        <time>2020-02-15T15:22:44Z</time>
      </trkpt>
      <trkpt lat="47.07947" lon="5.4151">
        <ele>267.35</ele>
        <time>2020-02-15T15:22:48Z</time>
      </trkpt>
      <trkpt lat="47.07941" lon="5.41505">
        <ele>265.157</ele>
        <time>2020-02-15T15:22:53Z</time>
      </trkpt>
      <trkpt lat="47.07937" lon="5.41501">
        <ele>262.137</ele>
        <time>2020-02-15T15:22:57Z</time>
      </trkpt>
      <trkpt lat="47.07932" lon="5.41495">
        <ele>259.575</ele>
        <time>2020-02-15T15:23:02Z</time>
      </trkpt>
      <trkpt lat="47.07925" lon="5.41495">
        <ele>257.547</ele>
        <time>2020-02-15T15:23:06Z</time>
      </trkpt>
      <trkpt lat="47.07917" lon="5.41496">
        <ele>256.957</ele>
        <time>2020-02-15T15:23:09Z</time>
      </trkpt>
      <trkpt lat="47.07912" lon="5.41495">
        <ele>256.573</ele>
        <time>2020-02-15T15:23:11Z</time>
      </trkpt>
      <trkpt lat="47.07907" lon="5.41496">
        <ele>256.007</ele>
        <time>2020-02-15T15:23:13Z</time>
      </trkpt>
      <trkpt lat="47.07902" lon="5.41496">
        <ele>256.036</ele>
        <time>2020-02-15T15:23:16Z</time>
      </trkpt>
      <trkpt lat="47.07898" lon="5.41492">
        <ele>256.063</ele>
        <time>2020-02-15T15:23:19Z</time>
      </trkpt>
      <trkpt lat="47.07894" lon="5.4149">
        <ele>257.609</ele>
        <time>2020-02-15T15:23:22Z</time>
      </trkpt>
      <trkpt lat="47.07892" lon="5.41482">
        <ele>259.513</ele>
        <time>2020-02-15T15:23:27Z</time>
      </trkpt>
      <trkpt lat="47.07886" lon="5.41479">
        <ele>260.038</ele>
        <time>2020-02-15T15:23:30Z</time>
      </trkpt>
      <trkpt lat="47.0788" lon="5.41478">
        <ele>259.795</ele>
        <time>2020-02-15T15:23:33Z</time>
      </trkpt>
      <trkpt lat="47.07877" lon="5.41478">
        <ele>259.065</ele>
        <time>2020-02-15T15:23:35Z</time>
      </trkpt>
      <trkpt lat="47.07873" lon="5.41472">
        <ele>259.01</ele>
        <time>2020-02-15T15:23:39Z</time>
      </trkpt>
      <trkpt lat="47.07871" lon="5.4147">
        <ele>259.555</ele>
        <time>2020-02-15T15:23:41Z</time>
      </trkpt>
      <trkpt lat="47.07868" lon="5.41464">
        <ele>259.826</ele>
        <time>2020-02-15T15:23:44Z</time>
      </trkpt>
      <trkpt lat="47.07862" lon="5.41461">
        <ele>259.892</ele>
        <time>2020-02-15T15:23:48Z</time>
      </trkpt>
      <trkpt lat="47.07857" lon="5.41459">
        <ele>260.023</ele>
        <time>2020-02-15T15:23:50Z</time>
      </trkpt>
      <trkpt lat="47.07854" lon="5.41457">
        <ele>259.852</ele>
        <time>2020-02-15T15:23:52Z</time>
      </trkpt>
      <trkpt lat="47.0785" lon="5.41456">
        <ele>260.551</ele>
        <time>2020-02-15T15:23:54Z</time>
      </trkpt>
      <trkpt lat="47.07841" lon="5.41454">
        <ele>261.254</ele>
        <time>2020-02-15T15:23:58Z</time>
      </trkpt>
      <trkpt lat="47.07837" lon="5.4145">
        <ele>261.998</ele>
        <time>2020-02-15T15:24:04Z</time>
      </trkpt>
      <trkpt lat="47.07833" lon="5.41443">
        <ele>261.119</ele>
        <time>2020-02-15T15:24:08Z</time>
      </trkpt>
      <trkpt lat="47.07834" lon="5.41436">
        <ele>260.071</ele>
        <time>2020-02-15T15:24:11Z</time>
      </trkpt>
      <trkpt lat="47.07831" lon="5.4143">
        <ele>257.821</ele>
        <time>2020-02-15T15:24:15Z</time>
      </trkpt>
      <trkpt lat="47.07826" lon="5.41426">
        <ele>254.174</ele>
        <time>2020-02-15T15:24:20Z</time>
      </trkpt>
      <trkpt lat="47.07821" lon="5.41425">
        <ele>253.354</ele>
        <time>2020-02-15T15:24:23Z</time>
      </trkpt>
      <trkpt lat="47.07816" lon="5.41421">
        <ele>252.781</ele>
        <time>2020-02-15T15:24:27Z</time>
      </trkpt>
      <trkpt lat="47.07809" lon="5.41416">
        <ele>252.589</ele>
        <time>2020-02-15T15:24:32Z</time>
      </trkpt>
      <trkpt lat="47.07804" lon="5.41416">
        <ele>252.535</ele>
        <time>2020-02-15T15:24:35Z</time>
      </trkpt>
      <trkpt lat="47.078" lon="5.41412">
        <ele>253.369</ele>
        <time>2020-02-15T15:24:38Z</time>
      </trkpt>
      <trkpt lat="47.07796" lon="5.41409">
        <ele>252.444</ele>
        <time>2020-02-15T15:24:42Z</time>
      </trkpt>
      <trkpt lat="47.07792" lon="5.41403">
        <ele>252.398</ele>
        <time>2020-02-15T15:24:44Z</time>
      </trkpt>
      <trkpt lat="47.07785" lon="5.41399">
        <ele>252.247</ele>
        <time>2020-02-15T15:24:47Z</time>
      </trkpt>
      <trkpt lat="47.07777" lon="5.41401">
        <ele>252.83</ele>
        <time>2020-02-15T15:24:50Z</time>
      </trkpt>
      <trkpt lat="47.07771" lon="5.41396">
        <ele>253.9</ele>
        <time>2020-02-15T15:24:53Z</time>
      </trkpt>
      <trkpt lat="47.07764" lon="5.41395">
        <ele>254.384</ele>
        <time>2020-02-15T15:24:56Z</time>
      </trkpt>
      <trkpt lat="47.07759" lon="5.41391">
        <ele>254.326</ele>
        <time>2020-02-15T15:24:59Z</time>
      </trkpt>
      <trkpt lat="47.07756" lon="5.41384">
        <ele>252.464</ele>
        <time>2020-02-15T15:25:02Z</time>
      </trkpt>
      <trkpt lat="47.07754" lon="5.41381">
        <ele>251.056</ele>
        <time>2020-02-15T15:25:05Z</time>
      </trkpt>
      <trkpt lat="47.0775" lon="5.41376">
        <ele>251.161</ele>
        <time>2020-02-15T15:25:09Z</time>
      </trkpt>
      <trkpt lat="47.07744" lon="5.41376">
        <ele>250.159</ele>
        <time>2020-02-15T15:25:16Z</time>
      </trkpt>
      <trkpt lat="47.07737" lon="5.41378">
        <ele>251.603</ele>
        <time>2020-02-15T15:25:21Z</time>
      </trkpt>
      <trkpt lat="47.07732" lon="5.41376">
        <ele>253.422</ele>
        <time>2020-02-15T15:25:24Z</time>
      </trkpt>
      <trkpt lat="47.07729" lon="5.4137">
        <ele>254.799</ele>
        <time>2020-02-15T15:25:27Z</time>
      </trkpt>
      <trkpt lat="47.07724" lon="5.41365">
        <ele>256.874</ele>
        <time>2020-02-15T15:25:30Z</time>
      </trkpt>
      <trkpt lat="47.0772" lon="5.4136">
        <ele>258.062</ele>
        <time>2020-02-15T15:25:34Z</time>
      </trkpt>
      <trkpt lat="47.07723" lon="5.41353">
        <ele>259.392</ele>
        <time>2020-02-15T15:25:37Z</time>
      </trkpt>
      <trkpt lat="47.07726" lon="5.41347">
        <ele>260.168</ele>
        <time>2020-02-15T15:25:40Z</time>
      </trkpt>
      <trkpt lat="47.07721" lon="5.4134">
        <ele>259.594</ele>
        <time>2020-02-15T15:25:45Z</time>
      </trkpt>
      <trkpt lat="47.07718" lon="5.41336">
        <ele>258.907</ele>
        <time>2020-02-15T15:25:48Z</time>
      </trkpt>
      <trkpt lat="47.07714" lon="5.41329">
        <ele>259.035</ele>
        <time>2020-02-15T15:25:53Z</time>
      </trkpt>
      <trkpt lat="47.07709" lon="5.41325">
        <ele>258.51</ele>
        <time>2020-02-15T15:25:56Z</time>
      </trkpt>
      <trkpt lat="47.07706" lon="5.41322">
        <ele>258.247</ele>
        <time>2020-02-15T15:25:59Z</time>
      </trkpt>
      <trkpt lat="47.07701" lon="5.4132">
        <ele>257.124</ele>
        <time>2020-02-15T15:26:04Z</time>
      </trkpt>
      <trkpt lat="47.07698" lon="5.41318">
        <ele>256.792</ele>
        <time>2020-02-15T15:26:06Z</time>
      </trkpt>
      <trkpt lat="47.07693" lon="5.41313">
        <ele>255.995</ele>
        <time>2020-02-15T15:26:09Z</time>
      </trkpt>
      <trkpt lat="47.07689" lon="5.41309">
        <ele>255.519</ele>
        <time>2020-02-15T15:26:11Z</time>
      </trkpt>
      <trkpt lat="47.07683" lon="5.41306">
        <ele>255.079</ele>
        <time>2020-02-15T15:26:13Z</time>
      </trkpt>
      <trkpt lat="47.0768" lon="5.41304">
        <ele>254.983</ele>
        <time>2020-02-15T15:26:14Z</time>
      </trkpt>
      <trkpt lat="47.0767" lon="5.41285">
        <ele>254.791</ele>
        <time>2020-02-15T15:26:19Z</time>
      </trkpt>
      <trkpt lat="47.07656" lon="5.4125">
        <ele>253.814</ele>
        <time>2020-02-15T15:26:35Z</time>
      </trkpt>
      <trkpt lat="47.0765" lon="5.41253">
        <ele>256.224</ele>
        <time>2020-02-15T15:26:40Z</time>
      </trkpt>
      <trkpt lat="47.07646" lon="5.41258">
        <ele>258.859</ele>
        <time>2020-02-15T15:26:44Z</time>
      </trkpt>
      <trkpt lat="47.07641" lon="5.41253">
        <ele>259.679</ele>
        <time>2020-02-15T15:26:47Z</time>
      </trkpt>
      <trkpt lat="47.07637" lon="5.41245">
        <ele>259.314</ele>
        <time>2020-02-15T15:26:49Z</time>
      </trkpt>
      <trkpt lat="47.07634" lon="5.41236">
        <ele>259.131</ele>
        <time>2020-02-15T15:26:51Z</time>
      </trkpt>
      <trkpt lat="47.07634" lon="5.41236">
        <ele>259.131</ele>
        <time>2020-02-15T15:26:58Z</time>
      </trkpt>
      <trkpt lat="47.07634" lon="5.41236">
        <ele>259.131</ele>
        <time>2020-02-15T15:26:59Z</time>
      </trkpt>
      <trkpt lat="47.07623" lon="5.41233">
        <ele>255.4</ele>
        <time>2020-02-15T15:27:03Z</time>
      </trkpt>
      <trkpt lat="47.07619" lon="5.41227">
        <ele>255.68</ele>
        <time>2020-02-15T15:27:06Z</time>
      </trkpt>
      <trkpt lat="47.07615" lon="5.41222">
        <ele>255.44</ele>
        <time>2020-02-15T15:27:11Z</time>
      </trkpt>
      <trkpt lat="47.07613" lon="5.41215">
        <ele>252.825</ele>
        <time>2020-02-15T15:27:17Z</time>
      </trkpt>
      <trkpt lat="47.07606" lon="5.41211">
        <ele>249.19</ele>
        <time>2020-02-15T15:27:22Z</time>
      </trkpt>
      <trkpt lat="47.07604" lon="5.4121">
        <ele>247.74</ele>
        <time>2020-02-15T15:27:24Z</time>
      </trkpt>
      <trkpt lat="47.076" lon="5.41209">
        <ele>245.937</ele>
        <time>2020-02-15T15:27:26Z</time>
      </trkpt>
      <trkpt lat="47.07594" lon="5.41212">
        <ele>242.904</ele>
        <time>2020-02-15T15:27:29Z</time>
      </trkpt>
      <trkpt lat="47.07589" lon="5.41213">
        <ele>243.316</ele>
        <time>2020-02-15T15:27:32Z</time>
      </trkpt>
      <trkpt lat="47.07582" lon="5.41211">
        <ele>246.425</ele>
        <time>2020-02-15T15:27:35Z</time>
      </trkpt>
      <trkpt lat="47.07578" lon="5.4121">
        <ele>248.32</ele>
        <time>2020-02-15T15:27:37Z</time>
      </trkpt>
      <trkpt lat="47.07571" lon="5.41212">
        <ele>249.728</ele>
        <time>2020-02-15T15:27:41Z</time>
      </trkpt>
      <trkpt lat="47.07568" lon="5.41213">
        <ele>250.192</ele>
        <time>2020-02-15T15:27:43Z</time>
      </trkpt>
      <trkpt lat="47.07562" lon="5.41217">
        <ele>251.634</ele>
        <time>2020-02-15T15:27:48Z</time>
      </trkpt>
      <trkpt lat="47.07555" lon="5.41215">
        <ele>252.74</ele>
        <time>2020-02-15T15:28:00Z</time>
      </trkpt>
      <trkpt lat="47.07547" lon="5.4121">
        <ele>256.236</ele>
        <time>2020-02-15T15:28:04Z</time>
      </trkpt>
      <trkpt lat="47.07541" lon="5.41212">
        <ele>256.684</ele>
        <time>2020-02-15T15:28:09Z</time>
      </trkpt>
      <trkpt lat="47.07535" lon="5.41213">
        <ele>257.391</ele>
        <time>2020-02-15T15:28:12Z</time>
      </trkpt>
      <trkpt lat="47.07529" lon="5.41217">
        <ele>257.015</ele>
        <time>2020-02-15T15:28:16Z</time>
      </trkpt>
      <trkpt lat="47.07523" lon="5.41224">
        <ele>256.349</ele>
        <time>2020-02-15T15:28:20Z</time>
      </trkpt>
      <trkpt lat="47.07521" lon="5.41227">
        <ele>255.005</ele>
        <time>2020-02-15T15:28:23Z</time>
      </trkpt>
      <trkpt lat="47.07514" lon="5.41233">
        <ele>252.016</ele>
        <time>2020-02-15T15:28:32Z</time>
      </trkpt>
      <trkpt lat="47.0751" lon="5.41239">
        <ele>256.753</ele>
        <time>2020-02-15T15:28:37Z</time>
      </trkpt>
      <trkpt lat="47.07507" lon="5.41244">
        <ele>257.356</ele>
        <time>2020-02-15T15:28:39Z</time>
      </trkpt>
      <trkpt lat="47.07504" lon="5.41249">
        <ele>257.38</ele>
        <time>2020-02-15T15:28:45Z</time>
      </trkpt>
      <trkpt lat="47.07496" lon="5.41252">
        <ele>256.864</ele>
        <time>2020-02-15T15:28:50Z</time>
      </trkpt>
      <trkpt lat="47.07492" lon="5.41254">
        <ele>257.723</ele>
        <time>2020-02-15T15:28:53Z</time>
      </trkpt>
      <trkpt lat="47.07488" lon="5.4126">
        <ele>258.666</ele>
        <time>2020-02-15T15:28:55Z</time>
      </trkpt>
      <trkpt lat="47.07483" lon="5.41261">
        <ele>259.171</ele>
        <time>2020-02-15T15:28:58Z</time>
      </trkpt>
      <trkpt lat="47.0748" lon="5.41262">
        <ele>260.001</ele>
        <time>2020-02-15T15:29:01Z</time>
      </trkpt>
      <trkpt lat="47.07477" lon="5.41268">
        <ele>260.788</ele>
        <time>2020-02-15T15:29:04Z</time>
      </trkpt>
      <trkpt lat="47.07476" lon="5.41274">
        <ele>261.385</ele>
        <time>2020-02-15T15:29:07Z</time>
      </trkpt>
      <trkpt lat="47.07471" lon="5.41278">
        <ele>261.291</ele>
        <time>2020-02-15T15:29:11Z</time>
      </trkpt>
      <trkpt lat="47.07467" lon="5.41283">
        <ele>261.105</ele>
        <time>2020-02-15T15:29:13Z</time>
      </trkpt>
      <trkpt lat="47.07457" lon="5.41284">
        <ele>262.454</ele>
        <time>2020-02-15T15:29:17Z</time>
      </trkpt>
      <trkpt lat="47.07454" lon="5.41284">
        <ele>262.658</ele>
        <time>2020-02-15T15:29:19Z</time>
      </trkpt>
      <trkpt lat="47.07448" lon="5.4129">
        <ele>261.67</ele>
        <time>2020-02-15T15:29:23Z</time>
      </trkpt>
      <trkpt lat="47.07443" lon="5.41293">
        <ele>260.369</ele>
        <time>2020-02-15T15:29:27Z</time>
      </trkpt>
      <trkpt lat="47.07438" lon="5.41294">
        <ele>260.413</ele>
        <time>2020-02-15T15:29:30Z</time>
      </trkpt>
      <trkpt lat="47.07432" lon="5.41294">
        <ele>261.172</ele>
        <time>2020-02-15T15:29:34Z</time>
      </trkpt>
      <trkpt lat="47.07428" lon="5.41298">
        <ele>262.727</ele>
        <time>2020-02-15T15:29:39Z</time>
      </trkpt>
      <trkpt lat="47.07425" lon="5.41301">
        <ele>263.304</ele>
        <time>2020-02-15T15:29:41Z</time>
      </trkpt>
      <trkpt lat="47.07423" lon="5.41303">
        <ele>263.9</ele>
        <time>2020-02-15T15:29:43Z</time>
      </trkpt>
      <trkpt lat="47.07421" lon="5.41306">
        <ele>264.739</ele>
        <time>2020-02-15T15:29:45Z</time>
      </trkpt>
      <trkpt lat="47.07417" lon="5.41308">
        <ele>264.314</ele>
        <time>2020-02-15T15:29:48Z</time>
      </trkpt>
      <trkpt lat="47.07409" lon="5.41307">
        <ele>261.684</ele>
        <time>2020-02-15T15:29:53Z</time>
      </trkpt>
      <trkpt lat="47.07403" lon="5.41309">
        <ele>258.393</ele>
        <time>2020-02-15T15:29:57Z</time>
      </trkpt>
      <trkpt lat="47.07398" lon="5.4131">
        <ele>258.118</ele>
        <time>2020-02-15T15:30:01Z</time>
      </trkpt>
      <trkpt lat="47.07392" lon="5.41311">
        <ele>259.08</ele>
        <time>2020-02-15T15:30:05Z</time>
      </trkpt>
      <trkpt lat="47.07387" lon="5.41319">
        <ele>258.763</ele>
        <time>2020-02-15T15:30:09Z</time>
      </trkpt>
      <trkpt lat="47.07383" lon="5.41322">
        <ele>257.784</ele>
        <time>2020-02-15T15:30:12Z</time>
      </trkpt>
      <trkpt lat="47.07376" lon="5.41317">
        <ele>255.787</ele>
        <time>2020-02-15T15:30:16Z</time>
      </trkpt>
      <trkpt lat="47.07372" lon="5.41314">
        <ele>254.293</ele>
        <time>2020-02-15T15:30:19Z</time>
      </trkpt>
      <trkpt lat="47.0737" lon="5.41312">
        <ele>254.007</ele>
        <time>2020-02-15T15:30:21Z</time>
      </trkpt>
      <trkpt lat="47.07364" lon="5.41308">
        <ele>252.736</ele>
        <time>2020-02-15T15:30:25Z</time>
      </trkpt>
      <trkpt lat="47.07357" lon="5.41307">
        <ele>251.295</ele>
        <time>2020-02-15T15:30:29Z</time>
      </trkpt>
      <trkpt lat="47.07352" lon="5.41308">
        <ele>250.298</ele>
        <time>2020-02-15T15:30:32Z</time>
      </trkpt>
      <trkpt lat="47.07346" lon="5.41304">
        <ele>249.65</ele>
        <time>2020-02-15T15:30:38Z</time>
      </trkpt>
      <trkpt lat="47.0734" lon="5.41303">
        <ele>252.617</ele>
        <time>2020-02-15T15:30:42Z</time>
      </trkpt>
      <trkpt lat="47.07334" lon="5.41301">
        <ele>253.652</ele>
        <time>2020-02-15T15:30:46Z</time>
      </trkpt>
      <trkpt lat="47.07328" lon="5.413">
        <ele>253.271</ele>
        <time>2020-02-15T15:30:49Z</time>
      </trkpt>
      <trkpt lat="47.07324" lon="5.41299">
        <ele>251.941</ele>
        <time>2020-02-15T15:30:51Z</time>
      </trkpt>
      <trkpt lat="47.07319" lon="5.41294">
        <ele>250.307</ele>
        <time>2020-02-15T15:30:55Z</time>
      </trkpt>
      <trkpt lat="47.07316" lon="5.41288">
        <ele>249.672</ele>
        <time>2020-02-15T15:30:58Z</time>
      </trkpt>
      <trkpt lat="47.07314" lon="5.41284">
        <ele>248.783</ele>
        <time>2020-02-15T15:31:00Z</time>
      </trkpt>
      <trkpt lat="47.0731" lon="5.41282">
        <ele>248.774</ele>
        <time>2020-02-15T15:31:05Z</time>
      </trkpt>
      <trkpt lat="47.07302" lon="5.41279">
        <ele>248.689</ele>
        <time>2020-02-15T15:31:10Z</time>
      </trkpt>
      <trkpt lat="47.07298" lon="5.41275">
        <ele>249.982</ele>
        <time>2020-02-15T15:31:14Z</time>
      </trkpt>
      <trkpt lat="47.07294" lon="5.4127">
        <ele>250.243</ele>
        <time>2020-02-15T15:31:18Z</time>
      </trkpt>
      <trkpt lat="47.07288" lon="5.41267">
        <ele>250.147</ele>
        <time>2020-02-15T15:31:22Z</time>
      </trkpt>
      <trkpt lat="47.07282" lon="5.41266">
        <ele>248.994</ele>
        <time>2020-02-15T15:31:25Z</time>
      </trkpt>
      <trkpt lat="47.07276" lon="5.41266">
        <ele>248.126</ele>
        <time>2020-02-15T15:31:28Z</time>
      </trkpt>
      <trkpt lat="47.07271" lon="5.41265">
        <ele>248.101</ele>
        <time>2020-02-15T15:31:31Z</time>
      </trkpt>
      <trkpt lat="47.07267" lon="5.41262">
        <ele>249.213</ele>
        <time>2020-02-15T15:31:34Z</time>
      </trkpt>
      <trkpt lat="47.07262" lon="5.41263">
        <ele>250.843</ele>
        <time>2020-02-15T15:31:37Z</time>
      </trkpt>
      <trkpt lat="47.07256" lon="5.41261">
        <ele>252.953</ele>
        <time>2020-02-15T15:31:41Z</time>
      </trkpt>
      <trkpt lat="47.07252" lon="5.41261">
        <ele>253.791</ele>
        <time>2020-02-15T15:31:43Z</time>
      </trkpt>
      <trkpt lat="47.07248" lon="5.4126">
        <ele>254.027</ele>
        <time>2020-02-15T15:31:45Z</time>
      </trkpt>
      <trkpt lat="47.07245" lon="5.41259">
        <ele>254.147</ele>
        <time>2020-02-15T15:31:47Z</time>
      </trkpt>
      <trkpt lat="47.07241" lon="5.41258">
        <ele>254.069</ele>
        <time>2020-02-15T15:31:49Z</time>
      </trkpt>
      <trkpt lat="47.07236" lon="5.41256">
        <ele>255.063</ele>
        <time>2020-02-15T15:31:53Z</time>
      </trkpt>
      <trkpt lat="47.0723" lon="5.41248">
        <ele>255.732</ele>
        <time>2020-02-15T15:31:58Z</time>
      </trkpt>
      <trkpt lat="47.07224" lon="5.41244">
        <ele>257.148</ele>
        <time>2020-02-15T15:32:02Z</time>
      </trkpt>
      <trkpt lat="47.07221" lon="5.41237">
        <ele>257.646</ele>
        <time>2020-02-15T15:32:07Z</time>
      </trkpt>
      <trkpt lat="47.07216" lon="5.41234">
        <ele>257.374</ele>
        <time>2020-02-15T15:32:10Z</time>
      </trkpt>
      <trkpt lat="47.07212" lon="5.41235">
        <ele>258.448</ele>
        <time>2020-02-15T15:32:14Z</time>
      </trkpt>
      <trkpt lat="47.07207" lon="5.41231">
        <ele>260.797</ele>
        <time>2020-02-15T15:32:18Z</time>
      </trkpt>
      <trkpt lat="47.07203" lon="5.41229">
        <ele>260.408</ele>
        <time>2020-02-15T15:32:21Z</time>
      </trkpt>
      <trkpt lat="47.07199" lon="5.41225">
        <ele>255.729</ele>
        <time>2020-02-15T15:32:26Z</time>
      </trkpt>
      <trkpt lat="47.07193" lon="5.41221">
        <ele>252.783</ele>
        <time>2020-02-15T15:32:30Z</time>
      </trkpt>
      <trkpt lat="47.0719" lon="5.41218">
        <ele>250.168</ele>
        <time>2020-02-15T15:32:33Z</time>
      </trkpt>
      <trkpt lat="47.07185" lon="5.4122">
        <ele>247.995</ele>
        <time>2020-02-15T15:32:36Z</time>
      </trkpt>
      <trkpt lat="47.07181" lon="5.41221">
        <ele>246.25</ele>
        <time>2020-02-15T15:32:39Z</time>
      </trkpt>
      <trkpt lat="47.07178" lon="5.41222">
        <ele>244.626</ele>
        <time>2020-02-15T15:32:41Z</time>
      </trkpt>
      <trkpt lat="47.07173" lon="5.41224">
        <ele>242.553</ele>
        <time>2020-02-15T15:32:44Z</time>
      </trkpt>
      <trkpt lat="47.07169" lon="5.41226">
        <ele>242.441</ele>
        <time>2020-02-15T15:32:47Z</time>
      </trkpt>
      <trkpt lat="47.07164" lon="5.41227">
        <ele>242.582</ele>
        <time>2020-02-15T15:32:50Z</time>
      </trkpt>
      <trkpt lat="47.07159" lon="5.4123">
        <ele>241.48</ele>
        <time>2020-02-15T15:32:54Z</time>
      </trkpt>
      <trkpt lat="47.07154" lon="5.41233">
        <ele>241.035</ele>
        <time>2020-02-15T15:32:56Z</time>
      </trkpt>
      <trkpt lat="47.07148" lon="5.41236">
        <ele>241.784</ele>
        <time>2020-02-15T15:33:00Z</time>
      </trkpt>
      <trkpt lat="47.07142" lon="5.41235">
        <ele>243.318</ele>
        <time>2020-02-15T15:33:03Z</time>
      </trkpt>
      <trkpt lat="47.07136" lon="5.41236">
        <ele>245.294</ele>
        <time>2020-02-15T15:33:06Z</time>
      </trkpt>
      <trkpt lat="47.07133" lon="5.41237">
        <ele>246.795</ele>
        <time>2020-02-15T15:33:08Z</time>
      </trkpt>
      <trkpt lat="47.0713" lon="5.41238">
        <ele>250.424</ele>
        <time>2020-02-15T15:33:12Z</time>
      </trkpt>
      <trkpt lat="47.07124" lon="5.41242">
        <ele>251.201</ele>
        <time>2020-02-15T15:33:16Z</time>
      </trkpt>
      <trkpt lat="47.07119" lon="5.41243">
        <ele>252.406</ele>
        <time>2020-02-15T15:33:21Z</time>
      </trkpt>
      <trkpt lat="47.07117" lon="5.41245">
        <ele>252.966</ele>
        <time>2020-02-15T15:33:23Z</time>
      </trkpt>
      <trkpt lat="47.07113" lon="5.41249">
        <ele>254.603</ele>
        <time>2020-02-15T15:33:27Z</time>
      </trkpt>
      <trkpt lat="47.0711" lon="5.41254">
        <ele>255.241</ele>
        <time>2020-02-15T15:33:30Z</time>
      </trkpt>
      <trkpt lat="47.07105" lon="5.41256">
        <ele>255.139</ele>
        <time>2020-02-15T15:33:34Z</time>
      </trkpt>
      <trkpt lat="47.071" lon="5.41259">
        <ele>255.419</ele>
        <time>2020-02-15T15:33:39Z</time>
      </trkpt>
      <trkpt lat="47.07094" lon="5.41261">
        <ele>257.101</ele>
        <time>2020-02-15T15:33:43Z</time>
      </trkpt>
      <trkpt lat="47.0709" lon="5.41263">
        <ele>257.849</ele>
        <time>2020-02-15T15:33:45Z</time>
      </trkpt>
      <trkpt lat="47.07084" lon="5.41261">
        <ele>258.673</ele>
        <time>2020-02-15T15:33:51Z</time>
      </trkpt>
      <trkpt lat="47.07075" lon="5.41263">
        <ele>259.503</ele>
        <time>2020-02-15T15:33:55Z</time>
      </trkpt>
      <trkpt lat="47.07067" lon="5.41264">
        <ele>261.165</ele>
        <time>2020-02-15T15:33:59Z</time>
      </trkpt>
      <trkpt lat="47.07062" lon="5.41266">
        <ele>262.236</ele>
        <time>2020-02-15T15:34:02Z</time>
      </trkpt>
      <trkpt lat="47.07056" lon="5.4127">
        <ele>263.871</ele>
        <time>2020-02-15T15:34:06Z</time>
      </trkpt>
      <trkpt lat="47.07052" lon="5.41274">
        <ele>265.133</ele>
        <time>2020-02-15T15:34:11Z</time>
      </trkpt>
      <trkpt lat="47.07048" lon="5.41279">
        <ele>266.085</ele>
        <time>2020-02-15T15:34:16Z</time>
      </trkpt>
      <trkpt lat="47.07045" lon="5.41282">
        <ele>267.041</ele>
        <time>2020-02-15T15:34:18Z</time>
      </trkpt>
      <trkpt lat="47.07041" lon="5.41287">
        <ele>268.458</ele>
        <time>2020-02-15T15:34:21Z</time>
      </trkpt>
      <trkpt lat="47.07038" lon="5.41293">
        <ele>269.008</ele>
        <time>2020-02-15T15:34:24Z</time>
      </trkpt>
      <trkpt lat="47.07034" lon="5.41297">
        <ele>270.953</ele>
        <time>2020-02-15T15:34:27Z</time>
      </trkpt>
      <trkpt lat="47.07032" lon="5.41299">
        <ele>271.924</ele>
        <time>2020-02-15T15:34:28Z</time>
      </trkpt>
      <trkpt lat="47.07027" lon="5.41302">
        <ele>273.454</ele>
        <time>2020-02-15T15:34:30Z</time>
      </trkpt>
      <trkpt lat="47.07024" lon="5.41305">
        <ele>275.198</ele>
        <time>2020-02-15T15:34:32Z</time>
      </trkpt>
      <trkpt lat="47.0702" lon="5.41307">
        <ele>276.409</ele>
        <time>2020-02-15T15:34:34Z</time>
      </trkpt>
      <trkpt lat="47.07015" lon="5.41312">
        <ele>275.969</ele>
        <time>2020-02-15T15:34:38Z</time>
      </trkpt>
      <trkpt lat="47.07012" lon="5.41315">
        <ele>276.382</ele>
        <time>2020-02-15T15:34:40Z</time>
      </trkpt>
      <trkpt lat="47.07003" lon="5.41318">
        <ele>274.74</ele>
        <time>2020-02-15T15:34:43Z</time>
      </trkpt>
      <trkpt lat="47.07" lon="5.41319">
        <ele>274.194</ele>
        <time>2020-02-15T15:34:44Z</time>
      </trkpt>
      <trkpt lat="47.06996" lon="5.41322">
        <ele>272.792</ele>
        <time>2020-02-15T15:34:47Z</time>
      </trkpt>
      <trkpt lat="47.06991" lon="5.41322">
        <ele>273.727</ele>
        <time>2020-02-15T15:34:53Z</time>
      </trkpt>
      <trkpt lat="47.06984" lon="5.41321">
        <ele>273.096</ele>
        <time>2020-02-15T15:35:01Z</time>
      </trkpt>
      <trkpt lat="47.06978" lon="5.41322">
        <ele>273.436</ele>
        <time>2020-02-15T15:35:06Z</time>
      </trkpt>
      <trkpt lat="47.06971" lon="5.41326">
        <ele>274.476</ele>
        <time>2020-02-15T15:35:16Z</time>
      </trkpt>
      <trkpt lat="47.06966" lon="5.41324">
        <ele>273.027</ele>
        <time>2020-02-15T15:35:21Z</time>
      </trkpt>
      <trkpt lat="47.0696" lon="5.41323">
        <ele>271.93</ele>
        <time>2020-02-15T15:35:24Z</time>
      </trkpt>
      <trkpt lat="47.06956" lon="5.41328">
        <ele>271.463</ele>
        <time>2020-02-15T15:35:26Z</time>
      </trkpt>
      <trkpt lat="47.06951" lon="5.41332">
        <ele>270.872</ele>
        <time>2020-02-15T15:35:29Z</time>
      </trkpt>
      <trkpt lat="47.06948" lon="5.41334">
        <ele>270.236</ele>
        <time>2020-02-15T15:35:30Z</time>
      </trkpt>
      <trkpt lat="47.06943" lon="5.41338">
        <ele>269.613</ele>
        <time>2020-02-15T15:35:32Z</time>
      </trkpt>
      <trkpt lat="47.06941" lon="5.4134">
        <ele>269.721</ele>
        <time>2020-02-15T15:35:33Z</time>
      </trkpt>
      <trkpt lat="47.06936" lon="5.41343">
        <ele>271.111</ele>
        <time>2020-02-15T15:35:38Z</time>
      </trkpt>
      <trkpt lat="47.06932" lon="5.41347">
        <ele>270.369</ele>
        <time>2020-02-15T15:35:41Z</time>
      </trkpt>
      <trkpt lat="47.06927" lon="5.41349">
        <ele>268.488</ele>
        <time>2020-02-15T15:35:45Z</time>
      </trkpt>
      <trkpt lat="47.06921" lon="5.41351">
        <ele>266.068</ele>
        <time>2020-02-15T15:35:50Z</time>
      </trkpt>
      <trkpt lat="47.06915" lon="5.41355">
        <ele>264.914</ele>
        <time>2020-02-15T15:35:53Z</time>
      </trkpt>
      <trkpt lat="47.06911" lon="5.41359">
        <ele>264.304</ele>
        <time>2020-02-15T15:35:55Z</time>
      </trkpt>
      <trkpt lat="47.06906" lon="5.41362">
        <ele>263.244</ele>
        <time>2020-02-15T15:35:58Z</time>
      </trkpt>
      <trkpt lat="47.06901" lon="5.41361">
        <ele>263.107</ele>
        <time>2020-02-15T15:36:03Z</time>
      </trkpt>
      <trkpt lat="47.06897" lon="5.41364">
        <ele>262.963</ele>
        <time>2020-02-15T15:36:08Z</time>
      </trkpt>
      <trkpt lat="47.06892" lon="5.41366">
        <ele>264.59</ele>
        <time>2020-02-15T15:36:11Z</time>
      </trkpt>
      <trkpt lat="47.06885" lon="5.41367">
        <ele>265.986</ele>
        <time>2020-02-15T15:36:16Z</time>
      </trkpt>
      <trkpt lat="47.06882" lon="5.41367">
        <ele>265.673</ele>
        <time>2020-02-15T15:36:18Z</time>
      </trkpt>
      <trkpt lat="47.06877" lon="5.41369">
        <ele>265.307</ele>
        <time>2020-02-15T15:36:21Z</time>
      </trkpt>
      <trkpt lat="47.06872" lon="5.4137">
        <ele>265.317</ele>
        <time>2020-02-15T15:36:24Z</time>
      </trkpt>
      <trkpt lat="47.06866" lon="5.41369">
        <ele>265.402</ele>
        <time>2020-02-15T15:36:28Z</time>
      </trkpt>
      <trkpt lat="47.06864" lon="5.41368">
        <ele>264.851</ele>
        <time>2020-02-15T15:36:31Z</time>
      </trkpt>
      <trkpt lat="47.06859" lon="5.41371">
        <ele>263.23</ele>
        <time>2020-02-15T15:36:34Z</time>
      </trkpt>
      <trkpt lat="47.06855" lon="5.41378">
        <ele>260.274</ele>
        <time>2020-02-15T15:36:37Z</time>
      </trkpt>
      <trkpt lat="47.06853" lon="5.41381">
        <ele>259.5</ele>
        <time>2020-02-15T15:36:38Z</time>
      </trkpt>
      <trkpt lat="47.0685" lon="5.41388">
        <ele>257.245</ele>
        <time>2020-02-15T15:36:41Z</time>
      </trkpt>
      <trkpt lat="47.06846" lon="5.41393">
        <ele>256.134</ele>
        <time>2020-02-15T15:36:45Z</time>
      </trkpt>
      <trkpt lat="47.06841" lon="5.41395">
        <ele>257.057</ele>
        <time>2020-02-15T15:36:47Z</time>
      </trkpt>
      <trkpt lat="47.06833" lon="5.41398">
        <ele>258.276</ele>
        <time>2020-02-15T15:36:51Z</time>
      </trkpt>
      <trkpt lat="47.06831" lon="5.41399">
        <ele>257.669</ele>
        <time>2020-02-15T15:36:53Z</time>
      </trkpt>
      <trkpt lat="47.06827" lon="5.414">
        <ele>257.496</ele>
        <time>2020-02-15T15:36:56Z</time>
      </trkpt>
      <trkpt lat="47.06821" lon="5.41399">
        <ele>258.599</ele>
        <time>2020-02-15T15:37:00Z</time>
      </trkpt>
      <trkpt lat="47.06816" lon="5.41399">
        <ele>261.655</ele>
        <time>2020-02-15T15:37:04Z</time>
      </trkpt>
      <trkpt lat="47.06811" lon="5.41405">
        <ele>264.113</ele>
        <time>2020-02-15T15:37:07Z</time>
      </trkpt>
      <trkpt lat="47.06807" lon="5.4141">
        <ele>265.518</ele>
        <time>2020-02-15T15:37:09Z</time>
      </trkpt>
      <trkpt lat="47.06803" lon="5.41416">
        <ele>267.714</ele>
        <time>2020-02-15T15:37:12Z</time>
      </trkpt>
      <trkpt lat="47.06797" lon="5.4142">
        <ele>269.781</ele>
        <time>2020-02-15T15:37:15Z</time>
      </trkpt>
      <trkpt lat="47.06793" lon="5.41422">
        <ele>271.27</ele>
        <time>2020-02-15T15:37:18Z</time>
      </trkpt>
      <trkpt lat="47.06788" lon="5.4142">
        <ele>272.378</ele>
        <time>2020-02-15T15:37:22Z</time>
      </trkpt>
      <trkpt lat="47.06785" lon="5.41419">
        <ele>271.42</ele>
        <time>2020-02-15T15:37:24Z</time>
      </trkpt>
      <trkpt lat="47.06781" lon="5.41418">
        <ele>270.848</ele>
        <time>2020-02-15T15:37:27Z</time>
      </trkpt>
      <trkpt lat="47.06779" lon="5.41417">
        <ele>270.862</ele>
        <time>2020-02-15T15:37:29Z</time>
      </trkpt>
      <trkpt lat="47.06775" lon="5.4142">
        <ele>269.7</ele>
        <time>2020-02-15T15:37:32Z</time>
      </trkpt>
      <trkpt lat="47.0677" lon="5.41424">
        <ele>268.578</ele>
        <time>2020-02-15T15:37:35Z</time>
      </trkpt>
      <trkpt lat="47.06767" lon="5.41426">
        <ele>267.058</ele>
        <time>2020-02-15T15:37:38Z</time>
      </trkpt>
      <trkpt lat="47.06764" lon="5.41429">
        <ele>264.118</ele>
        <time>2020-02-15T15:37:43Z</time>
      </trkpt>
      <trkpt lat="47.06758" lon="5.41431">
        <ele>263.632</ele>
        <time>2020-02-15T15:37:46Z</time>
      </trkpt>
      <trkpt lat="47.06754" lon="5.41431">
        <ele>263.893</ele>
        <time>2020-02-15T15:37:50Z</time>
      </trkpt>
      <trkpt lat="47.06749" lon="5.41431">
        <ele>263.412</ele>
        <time>2020-02-15T15:37:54Z</time>
      </trkpt>
      <trkpt lat="47.06743" lon="5.41435">
        <ele>262.989</ele>
        <time>2020-02-15T15:37:57Z</time>
      </trkpt>
      <trkpt lat="47.0674" lon="5.41437">
        <ele>262.812</ele>
        <time>2020-02-15T15:37:59Z</time>
      </trkpt>
      <trkpt lat="47.06735" lon="5.4144">
        <ele>263.11</ele>
        <time>2020-02-15T15:38:02Z</time>
      </trkpt>
      <trkpt lat="47.0673" lon="5.41441">
        <ele>262.843</ele>
        <time>2020-02-15T15:38:05Z</time>
      </trkpt>
      <trkpt lat="47.06727" lon="5.41442">
        <ele>263.332</ele>
        <time>2020-02-15T15:38:07Z</time>
      </trkpt>
      <trkpt lat="47.06721" lon="5.4145">
        <ele>264.256</ele>
        <time>2020-02-15T15:38:11Z</time>
      </trkpt>
      <trkpt lat="47.06714" lon="5.41453">
        <ele>265.634</ele>
        <time>2020-02-15T15:38:16Z</time>
      </trkpt>
      <trkpt lat="47.06709" lon="5.41457">
        <ele>267.34</ele>
        <time>2020-02-15T15:38:20Z</time>
      </trkpt>
      <trkpt lat="47.06705" lon="5.41462">
        <ele>268.063</ele>
        <time>2020-02-15T15:38:23Z</time>
      </trkpt>
      <trkpt lat="47.06697" lon="5.41466">
        <ele>269.571</ele>
        <time>2020-02-15T15:38:27Z</time>
      </trkpt>
      <trkpt lat="47.06695" lon="5.41467">
        <ele>270.098</ele>
        <time>2020-02-15T15:38:28Z</time>
      </trkpt>
      <trkpt lat="47.06691" lon="5.41468">
        <ele>270.524</ele>
        <time>2020-02-15T15:38:30Z</time>
      </trkpt>
      <trkpt lat="47.06686" lon="5.41469">
        <ele>270.884</ele>
        <time>2020-02-15T15:38:32Z</time>
      </trkpt>
      <trkpt lat="47.0668" lon="5.41465">
        <ele>270.459</ele>
        <time>2020-02-15T15:38:35Z</time>
      </trkpt>
      <trkpt lat="47.06675" lon="5.41465">
        <ele>271.277</ele>
        <time>2020-02-15T15:38:38Z</time>
      </trkpt>
      <trkpt lat="47.0667" lon="5.41465">
        <ele>273.85</ele>
        <time>2020-02-15T15:38:44Z</time>
      </trkpt>
      <trkpt lat="47.06666" lon="5.4147">
        <ele>275.555</ele>
        <time>2020-02-15T15:38:47Z</time>
      </trkpt>
      <trkpt lat="47.0666" lon="5.41475">
        <ele>276.279</ele>
        <time>2020-02-15T15:38:51Z</time>
      </trkpt>
      <trkpt lat="47.06655" lon="5.41476">
        <ele>276.633</ele>
        <time>2020-02-15T15:38:53Z</time>
      </trkpt>
      <trkpt lat="47.06649" lon="5.4148">
        <ele>277.028</ele>
        <time>2020-02-15T15:38:56Z</time>
      </trkpt>
      <trkpt lat="47.06646" lon="5.41484">
        <ele>276.429</ele>
        <time>2020-02-15T15:38:58Z</time>
      </trkpt>
      <trkpt lat="47.0664" lon="5.41488">
        <ele>276.692</ele>
        <time>2020-02-15T15:39:01Z</time>
      </trkpt>
      <trkpt lat="47.06637" lon="5.41493">
        <ele>276.395</ele>
        <time>2020-02-15T15:39:04Z</time>
      </trkpt>
      <trkpt lat="47.06632" lon="5.41494">
        <ele>274.994</ele>
        <time>2020-02-15T15:39:08Z</time>
      </trkpt>
      <trkpt lat="47.06628" lon="5.41494">
        <ele>273.773</ele>
        <time>2020-02-15T15:39:12Z</time>
      </trkpt>
      <trkpt lat="47.06626" lon="5.41494">
        <ele>273.725</ele>
        <time>2020-02-15T15:39:14Z</time>
      </trkpt>
      <trkpt lat="47.06623" lon="5.41494">
        <ele>273.874</ele>
        <time>2020-02-15T15:39:16Z</time>
      </trkpt>
      <trkpt lat="47.06618" lon="5.41499">
        <ele>274.427</ele>
        <time>2020-02-15T15:39:19Z</time>
      </trkpt>
      <trkpt lat="47.06613" lon="5.41502">
        <ele>275.705</ele>
        <time>2020-02-15T15:39:22Z</time>
      </trkpt>
      <trkpt lat="47.06607" lon="5.41501">
        <ele>275.791</ele>
        <time>2020-02-15T15:39:29Z</time>
      </trkpt>
      <trkpt lat="47.06602" lon="5.41503">
        <ele>276.867</ele>
        <time>2020-02-15T15:39:34Z</time>
      </trkpt>
      <trkpt lat="47.06596" lon="5.41505">
        <ele>277.277</ele>
        <time>2020-02-15T15:39:38Z</time>
      </trkpt>
      <trkpt lat="47.06592" lon="5.41508">
        <ele>276.914</ele>
        <time>2020-02-15T15:39:41Z</time>
      </trkpt>
      <trkpt lat="47.06586" lon="5.4151">
        <ele>275.228</ele>
        <time>2020-02-15T15:39:45Z</time>
      </trkpt>
      <trkpt lat="47.0658" lon="5.4151">
        <ele>273.571</ele>
        <time>2020-02-15T15:39:48Z</time>
      </trkpt>
      <trkpt lat="47.06575" lon="5.41512">
        <ele>272.643</ele>
        <time>2020-02-15T15:39:53Z</time>
      </trkpt>
      <trkpt lat="47.0657" lon="5.41517">
        <ele>271.873</ele>
        <time>2020-02-15T15:39:56Z</time>
      </trkpt>
      <trkpt lat="47.06564" lon="5.4152">
        <ele>270.621</ele>
        <time>2020-02-15T15:40:01Z</time>
      </trkpt>
      <trkpt lat="47.0656" lon="5.41528">
        <ele>268.495</ele>
        <time>2020-02-15T15:40:05Z</time>
      </trkpt>
      <trkpt lat="47.06556" lon="5.41532">
        <ele>267.86</ele>
        <time>2020-02-15T15:40:08Z</time>
      </trkpt>
      <trkpt lat="47.06554" lon="5.41535">
        <ele>267.856</ele>
        <time>2020-02-15T15:40:10Z</time>
      </trkpt>
      <trkpt lat="47.06548" lon="5.41535">
        <ele>267.871</ele>
        <time>2020-02-15T15:40:14Z</time>
      </trkpt>
      <trkpt lat="47.06542" lon="5.41531">
        <ele>267.368</ele>
        <time>2020-02-15T15:40:18Z</time>
      </trkpt>
      <trkpt lat="47.06534" lon="5.4153">
        <ele>266.241</ele>
        <time>2020-02-15T15:40:23Z</time>
      </trkpt>
      <trkpt lat="47.06528" lon="5.41531">
        <ele>265.369</ele>
        <time>2020-02-15T15:40:27Z</time>
      </trkpt>
      <trkpt lat="47.06523" lon="5.41532">
        <ele>264.01</ele>
        <time>2020-02-15T15:40:33Z</time>
      </trkpt>
      <trkpt lat="47.06519" lon="5.41536">
        <ele>264.358</ele>
        <time>2020-02-15T15:40:36Z</time>
      </trkpt>
      <trkpt lat="47.06512" lon="5.41536">
        <ele>265.277</ele>
        <time>2020-02-15T15:40:41Z</time>
      </trkpt>
      <trkpt lat="47.06507" lon="5.41539">
        <ele>265.42</ele>
        <time>2020-02-15T15:40:44Z</time>
      </trkpt>
      <trkpt lat="47.06501" lon="5.4154">
        <ele>266.113</ele>
        <time>2020-02-15T15:40:47Z</time>
      </trkpt>
      <trkpt lat="47.06496" lon="5.41545">
        <ele>266.525</ele>
        <time>2020-02-15T15:40:50Z</time>
      </trkpt>
      <trkpt lat="47.06493" lon="5.41551">
        <ele>266.893</ele>
        <time>2020-02-15T15:40:53Z</time>
      </trkpt>
      <trkpt lat="47.06489" lon="5.41555">
        <ele>266.616</ele>
        <time>2020-02-15T15:40:56Z</time>
      </trkpt>
      <trkpt lat="47.06481" lon="5.41556">
        <ele>265.979</ele>
        <time>2020-02-15T15:41:02Z</time>
      </trkpt>
      <trkpt lat="47.06477" lon="5.41556">
        <ele>266.296</ele>
        <time>2020-02-15T15:41:04Z</time>
      </trkpt>
      <trkpt lat="47.06473" lon="5.41556">
        <ele>266.221</ele>
        <time>2020-02-15T15:41:06Z</time>
      </trkpt>
      <trkpt lat="47.0647" lon="5.41557">
        <ele>266.164</ele>
        <time>2020-02-15T15:41:08Z</time>
      </trkpt>
      <trkpt lat="47.06467" lon="5.41557">
        <ele>266.597</ele>
        <time>2020-02-15T15:41:10Z</time>
      </trkpt>
      <trkpt lat="47.06462" lon="5.41557">
        <ele>266.205</ele>
        <time>2020-02-15T15:41:13Z</time>
      </trkpt>
      <trkpt lat="47.06458" lon="5.41557">
        <ele>265.719</ele>
        <time>2020-02-15T15:41:15Z</time>
      </trkpt>
      <trkpt lat="47.06455" lon="5.41557">
        <ele>265.559</ele>
        <time>2020-02-15T15:41:17Z</time>
      </trkpt>
      <trkpt lat="47.06449" lon="5.41557">
        <ele>265.414</ele>
        <time>2020-02-15T15:41:20Z</time>
      </trkpt>
      <trkpt lat="47.06445" lon="5.41562">
        <ele>264.393</ele>
        <time>2020-02-15T15:41:25Z</time>
      </trkpt>
      <trkpt lat="47.06438" lon="5.41566">
        <ele>266.431</ele>
        <time>2020-02-15T15:41:30Z</time>
      </trkpt>
      <trkpt lat="47.06435" lon="5.41569">
        <ele>267.827</ele>
        <time>2020-02-15T15:41:32Z</time>
      </trkpt>
      <trkpt lat="47.06431" lon="5.41573">
        <ele>270.39</ele>
        <time>2020-02-15T15:41:35Z</time>
      </trkpt>
      <trkpt lat="47.06427" lon="5.41578">
        <ele>272.984</ele>
        <time>2020-02-15T15:41:37Z</time>
      </trkpt>
      <trkpt lat="47.06423" lon="5.41582">
        <ele>273.581</ele>
        <time>2020-02-15T15:41:40Z</time>
      </trkpt>
      <trkpt lat="47.06417" lon="5.41584">
        <ele>275.537</ele>
        <time>2020-02-15T15:41:44Z</time>
      </trkpt>
      <trkpt lat="47.06412" lon="5.41585">
        <ele>277.808</ele>
        <time>2020-02-15T15:41:49Z</time>
      </trkpt>
      <trkpt lat="47.06406" lon="5.41587">
        <ele>278</ele>
        <time>2020-02-15T15:41:53Z</time>
      </trkpt>
      <trkpt lat="47.06401" lon="5.41587">
        <ele>276.852</ele>
        <time>2020-02-15T15:41:56Z</time>
      </trkpt>
      <trkpt lat="47.06396" lon="5.4159">
        <ele>275.995</ele>
        <time>2020-02-15T15:42:01Z</time>
      </trkpt>
      <trkpt lat="47.06388" lon="5.41587">
        <ele>275.61</ele>
        <time>2020-02-15T15:42:05Z</time>
      </trkpt>
      <trkpt lat="47.06382" lon="5.41591">
        <ele>275.146</ele>
        <time>2020-02-15T15:42:09Z</time>
      </trkpt>
      <trkpt lat="47.0638" lon="5.41593">
        <ele>275.166</ele>
        <time>2020-02-15T15:42:10Z</time>
      </trkpt>
      <trkpt lat="47.06373" lon="5.41593">
        <ele>276.483</ele>
        <time>2020-02-15T15:42:15Z</time>
      </trkpt>
      <trkpt lat="47.06368" lon="5.41598">
        <ele>276.979</ele>
        <time>2020-02-15T15:42:19Z</time>
      </trkpt>
      <trkpt lat="47.06363" lon="5.41603">
        <ele>277.549</ele>
        <time>2020-02-15T15:42:22Z</time>
      </trkpt>
      <trkpt lat="47.06355" lon="5.41602">
        <ele>277.371</ele>
        <time>2020-02-15T15:42:26Z</time>
      </trkpt>
      <trkpt lat="47.0635" lon="5.41599">
        <ele>276.783</ele>
        <time>2020-02-15T15:42:29Z</time>
      </trkpt>
      <trkpt lat="47.06344" lon="5.41598">
        <ele>276.663</ele>
        <time>2020-02-15T15:42:32Z</time>
      </trkpt>
      <trkpt lat="47.06339" lon="5.41604">
        <ele>277.633</ele>
        <time>2020-02-15T15:42:35Z</time>
      </trkpt>
      <trkpt lat="47.06334" lon="5.41604">
        <ele>279.049</ele>
        <time>2020-02-15T15:42:38Z</time>
      </trkpt>
      <trkpt lat="47.0633" lon="5.41598">
        <ele>279.4</ele>
        <time>2020-02-15T15:42:41Z</time>
      </trkpt>
      <trkpt lat="47.06329" lon="5.41596">
        <ele>279.141</ele>
        <time>2020-02-15T15:42:43Z</time>
      </trkpt>
      <trkpt lat="47.06324" lon="5.41593">
        <ele>278.098</ele>
        <time>2020-02-15T15:42:47Z</time>
      </trkpt>
      <trkpt lat="47.06321" lon="5.41591">
        <ele>277.897</ele>
        <time>2020-02-15T15:42:50Z</time>
      </trkpt>
      <trkpt lat="47.06316" lon="5.41588">
        <ele>278.616</ele>
        <time>2020-02-15T15:42:53Z</time>
      </trkpt>
      <trkpt lat="47.06311" lon="5.41582">
        <ele>279.137</ele>
        <time>2020-02-15T15:42:57Z</time>
      </trkpt>
      <trkpt lat="47.06309" lon="5.41577">
        <ele>279.813</ele>
        <time>2020-02-15T15:43:01Z</time>
      </trkpt>
      <trkpt lat="47.06303" lon="5.41573">
        <ele>280.96</ele>
        <time>2020-02-15T15:43:04Z</time>
      </trkpt>
      <trkpt lat="47.063" lon="5.41571">
        <ele>280.819</ele>
        <time>2020-02-15T15:43:06Z</time>
      </trkpt>
      <trkpt lat="47.06297" lon="5.41568">
        <ele>280.301</ele>
        <time>2020-02-15T15:43:10Z</time>
      </trkpt>
      <trkpt lat="47.06292" lon="5.41562">
        <ele>279.615</ele>
        <time>2020-02-15T15:43:13Z</time>
      </trkpt>
      <trkpt lat="47.06286" lon="5.41552">
        <ele>278.268</ele>
        <time>2020-02-15T15:43:17Z</time>
      </trkpt>
      <trkpt lat="47.06282" lon="5.41543">
        <ele>276.975</ele>
        <time>2020-02-15T15:43:21Z</time>
      </trkpt>
      <trkpt lat="47.06277" lon="5.41536">
        <ele>277.109</ele>
        <time>2020-02-15T15:43:26Z</time>
      </trkpt>
      <trkpt lat="47.06272" lon="5.41534">
        <ele>274.864</ele>
        <time>2020-02-15T15:43:32Z</time>
      </trkpt>
      <trkpt lat="47.06265" lon="5.41531">
        <ele>271.586</ele>
        <time>2020-02-15T15:43:37Z</time>
      </trkpt>
      <trkpt lat="47.06261" lon="5.41527">
        <ele>270.325</ele>
        <time>2020-02-15T15:43:40Z</time>
      </trkpt>
      <trkpt lat="47.06258" lon="5.4152">
        <ele>269.552</ele>
        <time>2020-02-15T15:43:43Z</time>
      </trkpt>
      <trkpt lat="47.06255" lon="5.41514">
        <ele>268.504</ele>
        <time>2020-02-15T15:43:46Z</time>
      </trkpt>
      <trkpt lat="47.06252" lon="5.41506">
        <ele>268.917</ele>
        <time>2020-02-15T15:43:50Z</time>
      </trkpt>
      <trkpt lat="47.06252" lon="5.41499">
        <ele>268.721</ele>
        <time>2020-02-15T15:43:53Z</time>
      </trkpt>
      <trkpt lat="47.06247" lon="5.41494">
        <ele>268.796</ele>
        <time>2020-02-15T15:43:57Z</time>
      </trkpt>
      <trkpt lat="47.06245" lon="5.4149">
        <ele>269.418</ele>
        <time>2020-02-15T15:44:00Z</time>
      </trkpt>
      <trkpt lat="47.06241" lon="5.41485">
        <ele>271.11</ele>
        <time>2020-02-15T15:44:03Z</time>
      </trkpt>
      <trkpt lat="47.06238" lon="5.41481">
        <ele>270.374</ele>
        <time>2020-02-15T15:44:05Z</time>
      </trkpt>
      <trkpt lat="47.06233" lon="5.41478">
        <ele>269.966</ele>
        <time>2020-02-15T15:44:07Z</time>
      </trkpt>
      <trkpt lat="47.06227" lon="5.41477">
        <ele>269.822</ele>
        <time>2020-02-15T15:44:10Z</time>
      </trkpt>
      <trkpt lat="47.06223" lon="5.41476">
        <ele>270.917</ele>
        <time>2020-02-15T15:44:12Z</time>
      </trkpt>
      <trkpt lat="47.0622" lon="5.41469">
        <ele>273.804</ele>
        <time>2020-02-15T15:44:18Z</time>
      </trkpt>
      <trkpt lat="47.06218" lon="5.41465">
        <ele>274.902</ele>
        <time>2020-02-15T15:44:21Z</time>
      </trkpt>
      <trkpt lat="47.06214" lon="5.4146">
        <ele>275.205</ele>
        <time>2020-02-15T15:44:24Z</time>
      </trkpt>
      <trkpt lat="47.06208" lon="5.41452">
        <ele>275.715</ele>
        <time>2020-02-15T15:44:28Z</time>
      </trkpt>
      <trkpt lat="47.06204" lon="5.41448">
        <ele>274.887</ele>
        <time>2020-02-15T15:44:32Z</time>
      </trkpt>
      <trkpt lat="47.06199" lon="5.41446">
        <ele>274.368</ele>
        <time>2020-02-15T15:44:36Z</time>
      </trkpt>
      <trkpt lat="47.06195" lon="5.41443">
        <ele>275.941</ele>
        <time>2020-02-15T15:44:40Z</time>
      </trkpt>
      <trkpt lat="47.06191" lon="5.41433">
        <ele>275.281</ele>
        <time>2020-02-15T15:44:44Z</time>
      </trkpt>
      <trkpt lat="47.06188" lon="5.41425">
        <ele>274.447</ele>
        <time>2020-02-15T15:44:47Z</time>
      </trkpt>
      <trkpt lat="47.06186" lon="5.41417">
        <ele>272.956</ele>
        <time>2020-02-15T15:44:52Z</time>
      </trkpt>
      <trkpt lat="47.06185" lon="5.41413">
        <ele>273.093</ele>
        <time>2020-02-15T15:44:54Z</time>
      </trkpt>
      <trkpt lat="47.06181" lon="5.41407">
        <ele>273.278</ele>
        <time>2020-02-15T15:44:58Z</time>
      </trkpt>
      <trkpt lat="47.06174" lon="5.41403">
        <ele>272.382</ele>
        <time>2020-02-15T15:45:02Z</time>
      </trkpt>
      <trkpt lat="47.06168" lon="5.41398">
        <ele>272.146</ele>
        <time>2020-02-15T15:45:04Z</time>
      </trkpt>
      <trkpt lat="47.06163" lon="5.41392">
        <ele>271.946</ele>
        <time>2020-02-15T15:45:07Z</time>
      </trkpt>
      <trkpt lat="47.0616" lon="5.41385">
        <ele>271.986</ele>
        <time>2020-02-15T15:45:10Z</time>
      </trkpt>
      <trkpt lat="47.06154" lon="5.41386">
        <ele>271.185</ele>
        <time>2020-02-15T15:45:16Z</time>
      </trkpt>
      <trkpt lat="47.0615" lon="5.41383">
        <ele>270.574</ele>
        <time>2020-02-15T15:45:20Z</time>
      </trkpt>
      <trkpt lat="47.06146" lon="5.41378">
        <ele>270.162</ele>
        <time>2020-02-15T15:45:25Z</time>
      </trkpt>
      <trkpt lat="47.06145" lon="5.41376">
        <ele>269.816</ele>
        <time>2020-02-15T15:45:27Z</time>
      </trkpt>
      <trkpt lat="47.06142" lon="5.41373">
        <ele>270.62</ele>
        <time>2020-02-15T15:45:29Z</time>
      </trkpt>
      <trkpt lat="47.06137" lon="5.4137">
        <ele>269.887</ele>
        <time>2020-02-15T15:45:32Z</time>
      </trkpt>
      <trkpt lat="47.06132" lon="5.41369">
        <ele>270.187</ele>
        <time>2020-02-15T15:45:34Z</time>
      </trkpt>
      <trkpt lat="47.06125" lon="5.41365">
        <ele>271.168</ele>
        <time>2020-02-15T15:45:38Z</time>
      </trkpt>
      <trkpt lat="47.06118" lon="5.41363">
        <ele>271.091</ele>
        <time>2020-02-15T15:45:41Z</time>
      </trkpt>
      <trkpt lat="47.06115" lon="5.41359">
        <ele>270.247</ele>
        <time>2020-02-15T15:45:43Z</time>
      </trkpt>
      <trkpt lat="47.06111" lon="5.41355">
        <ele>269.91</ele>
        <time>2020-02-15T15:45:45Z</time>
      </trkpt>
      <trkpt lat="47.06104" lon="5.41349">
        <ele>268.218</ele>
        <time>2020-02-15T15:45:49Z</time>
      </trkpt>
      <trkpt lat="47.061" lon="5.41342">
        <ele>268.404</ele>
        <time>2020-02-15T15:45:52Z</time>
      </trkpt>
      <trkpt lat="47.06094" lon="5.41338">
        <ele>268.189</ele>
        <time>2020-02-15T15:45:56Z</time>
      </trkpt>
      <trkpt lat="47.06088" lon="5.41338">
        <ele>267.087</ele>
        <time>2020-02-15T15:45:59Z</time>
      </trkpt>
      <trkpt lat="47.06082" lon="5.41337">
        <ele>268.746</ele>
        <time>2020-02-15T15:46:03Z</time>
      </trkpt>
      <trkpt lat="47.06078" lon="5.41337">
        <ele>269.944</ele>
        <time>2020-02-15T15:46:08Z</time>
      </trkpt>
      <trkpt lat="47.06073" lon="5.41331">
        <ele>269.364</ele>
        <time>2020-02-15T15:46:13Z</time>
      </trkpt>
      <trkpt lat="47.06069" lon="5.41329">
        <ele>268.557</ele>
        <time>2020-02-15T15:46:17Z</time>
      </trkpt>
      <trkpt lat="47.06064" lon="5.41328">
        <ele>267.755</ele>
        <time>2020-02-15T15:46:23Z</time>
      </trkpt>
      <trkpt lat="47.06061" lon="5.41324">
        <ele>266.7</ele>
        <time>2020-02-15T15:46:26Z</time>
      </trkpt>
      <trkpt lat="47.06055" lon="5.41322">
        <ele>267.166</ele>
        <time>2020-02-15T15:46:29Z</time>
      </trkpt>
      <trkpt lat="47.06049" lon="5.41322">
        <ele>266.172</ele>
        <time>2020-02-15T15:46:33Z</time>
      </trkpt>
      <trkpt lat="47.06044" lon="5.41317">
        <ele>266.197</ele>
        <time>2020-02-15T15:46:36Z</time>
      </trkpt>
      <trkpt lat="47.06039" lon="5.41315">
        <ele>266.816</ele>
        <time>2020-02-15T15:46:38Z</time>
      </trkpt>
      <trkpt lat="47.06032" lon="5.41311">
        <ele>267.043</ele>
        <time>2020-02-15T15:46:42Z</time>
      </trkpt>
      <trkpt lat="47.06029" lon="5.41308">
        <ele>266.024</ele>
        <time>2020-02-15T15:46:47Z</time>
      </trkpt>
      <trkpt lat="47.06024" lon="5.41309">
        <ele>265.351</ele>
        <time>2020-02-15T15:46:51Z</time>
      </trkpt>
      <trkpt lat="47.06018" lon="5.41304">
        <ele>263.483</ele>
        <time>2020-02-15T15:46:56Z</time>
      </trkpt>
      <trkpt lat="47.06016" lon="5.41302">
        <ele>263.149</ele>
        <time>2020-02-15T15:46:58Z</time>
      </trkpt>
      <trkpt lat="47.06012" lon="5.413">
        <ele>262.351</ele>
        <time>2020-02-15T15:47:02Z</time>
      </trkpt>
      <trkpt lat="47.06007" lon="5.41299">
        <ele>261.578</ele>
        <time>2020-02-15T15:47:05Z</time>
      </trkpt>
      <trkpt lat="47.06002" lon="5.41294">
        <ele>261.808</ele>
        <time>2020-02-15T15:47:09Z</time>
      </trkpt>
      <trkpt lat="47.05999" lon="5.41289">
        <ele>261.437</ele>
        <time>2020-02-15T15:47:13Z</time>
      </trkpt>
      <trkpt lat="47.05996" lon="5.41283">
        <ele>260.565</ele>
        <time>2020-02-15T15:47:17Z</time>
      </trkpt>
      <trkpt lat="47.05991" lon="5.41279">
        <ele>259.016</ele>
        <time>2020-02-15T15:47:20Z</time>
      </trkpt>
      <trkpt lat="47.05987" lon="5.41275">
        <ele>257.412</ele>
        <time>2020-02-15T15:47:23Z</time>
      </trkpt>
      <trkpt lat="47.05981" lon="5.41272">
        <ele>256.038</ele>
        <time>2020-02-15T15:47:26Z</time>
      </trkpt>
      <trkpt lat="47.05975" lon="5.41269">
        <ele>255.282</ele>
        <time>2020-02-15T15:47:30Z</time>
      </trkpt>
      <trkpt lat="47.05969" lon="5.41268">
        <ele>254.255</ele>
        <time>2020-02-15T15:47:33Z</time>
      </trkpt>
      <trkpt lat="47.05966" lon="5.41267">
        <ele>253.568</ele>
        <time>2020-02-15T15:47:35Z</time>
      </trkpt>
      <trkpt lat="47.05963" lon="5.41267">
        <ele>251.543</ele>
        <time>2020-02-15T15:47:37Z</time>
      </trkpt>
      <trkpt lat="47.05958" lon="5.41269">
        <ele>247.553</ele>
        <time>2020-02-15T15:47:43Z</time>
      </trkpt>
      <trkpt lat="47.05955" lon="5.4127">
        <ele>247.202</ele>
        <time>2020-02-15T15:47:45Z</time>
      </trkpt>
      <trkpt lat="47.05949" lon="5.41269">
        <ele>246.499</ele>
        <time>2020-02-15T15:47:49Z</time>
      </trkpt>
      <trkpt lat="47.05941" lon="5.41269">
        <ele>245.528</ele>
        <time>2020-02-15T15:47:54Z</time>
      </trkpt>
      <trkpt lat="47.05936" lon="5.41271">
        <ele>245.242</ele>
        <time>2020-02-15T15:47:56Z</time>
      </trkpt>
      <trkpt lat="47.05931" lon="5.41272">
        <ele>244.905</ele>
        <time>2020-02-15T15:48:00Z</time>
      </trkpt>
      <trkpt lat="47.05925" lon="5.41273">
        <ele>244.856</ele>
        <time>2020-02-15T15:48:03Z</time>
      </trkpt>
      <trkpt lat="47.05923" lon="5.41274">
        <ele>244.86</ele>
        <time>2020-02-15T15:48:05Z</time>
      </trkpt>
      <trkpt lat="47.05916" lon="5.41271">
        <ele>244.275</ele>
        <time>2020-02-15T15:48:09Z</time>
      </trkpt>
      <trkpt lat="47.05911" lon="5.41269">
        <ele>245.82</ele>
        <time>2020-02-15T15:48:13Z</time>
      </trkpt>
      <trkpt lat="47.05907" lon="5.41264">
        <ele>246.013</ele>
        <time>2020-02-15T15:48:17Z</time>
      </trkpt>
      <trkpt lat="47.059" lon="5.41267">
        <ele>246.219</ele>
        <time>2020-02-15T15:48:21Z</time>
      </trkpt>
      <trkpt lat="47.05896" lon="5.41269">
        <ele>246.789</ele>
        <time>2020-02-15T15:48:23Z</time>
      </trkpt>
      <trkpt lat="47.05891" lon="5.4127">
        <ele>246.949</ele>
        <time>2020-02-15T15:48:26Z</time>
      </trkpt>
      <trkpt lat="47.05887" lon="5.41268">
        <ele>246.622</ele>
        <time>2020-02-15T15:48:28Z</time>
      </trkpt>
      <trkpt lat="47.05881" lon="5.41269">
        <ele>245.18</ele>
        <time>2020-02-15T15:48:31Z</time>
      </trkpt>
      <trkpt lat="47.05878" lon="5.41271">
        <ele>244.528</ele>
        <time>2020-02-15T15:48:33Z</time>
      </trkpt>
      <trkpt lat="47.0587" lon="5.41272">
        <ele>242.902</ele>
        <time>2020-02-15T15:48:36Z</time>
      </trkpt>
      <trkpt lat="47.05864" lon="5.4127">
        <ele>241.528</ele>
        <time>2020-02-15T15:48:38Z</time>
      </trkpt>
      <trkpt lat="47.05862" lon="5.41269">
        <ele>240.928</ele>
        <time>2020-02-15T15:48:39Z</time>
      </trkpt>
      <trkpt lat="47.05854" lon="5.41269">
        <ele>239.758</ele>
        <time>2020-02-15T15:48:42Z</time>
      </trkpt>
      <trkpt lat="47.05848" lon="5.41271">
        <ele>239.283</ele>
        <time>2020-02-15T15:48:46Z</time>
      </trkpt>
      <trkpt lat="47.05848" lon="5.41271">
        <ele>239.283</ele>
        <time>2020-02-15T15:48:54Z</time>
      </trkpt>
      <trkpt lat="47.05843" lon="5.4127">
        <ele>240.055</ele>
        <time>2020-02-15T15:48:55Z</time>
      </trkpt>
      <trkpt lat="47.05839" lon="5.41274">
        <ele>238.267</ele>
        <time>2020-02-15T15:49:01Z</time>
      </trkpt>
      <trkpt lat="47.05834" lon="5.41278">
        <ele>237.668</ele>
        <time>2020-02-15T15:49:04Z</time>
      </trkpt>
      <trkpt lat="47.0583" lon="5.41282">
        <ele>238.424</ele>
        <time>2020-02-15T15:49:06Z</time>
      </trkpt>
      <trkpt lat="47.05824" lon="5.41284">
        <ele>239.442</ele>
        <time>2020-02-15T15:49:10Z</time>
      </trkpt>
      <trkpt lat="47.05818" lon="5.41292">
        <ele>241.252</ele>
        <time>2020-02-15T15:49:14Z</time>
      </trkpt>
      <trkpt lat="47.05816" lon="5.41301">
        <ele>242.526</ele>
        <time>2020-02-15T15:49:17Z</time>
      </trkpt>
      <trkpt lat="47.05815" lon="5.41304">
        <ele>243.917</ele>
        <time>2020-02-15T15:49:20Z</time>
      </trkpt>
      <trkpt lat="47.05815" lon="5.41314">
        <ele>243.896</ele>
        <time>2020-02-15T15:49:23Z</time>
      </trkpt>
      <trkpt lat="47.05811" lon="5.41319">
        <ele>245.189</ele>
        <time>2020-02-15T15:49:27Z</time>
      </trkpt>
      <trkpt lat="47.05808" lon="5.41333">
        <ele>247.441</ele>
        <time>2020-02-15T15:49:31Z</time>
      </trkpt>
      <trkpt lat="47.05807" lon="5.41337">
        <ele>247.914</ele>
        <time>2020-02-15T15:49:32Z</time>
      </trkpt>
      <trkpt lat="47.05804" lon="5.41343">
        <ele>250.497</ele>
        <time>2020-02-15T15:49:35Z</time>
      </trkpt>
      <trkpt lat="47.058" lon="5.41349">
        <ele>251.602</ele>
        <time>2020-02-15T15:49:39Z</time>
      </trkpt>
      <trkpt lat="47.05796" lon="5.41356">
        <ele>254.858</ele>
        <time>2020-02-15T15:49:44Z</time>
      </trkpt>
      <trkpt lat="47.05789" lon="5.41362">
        <ele>254.497</ele>
        <time>2020-02-15T15:49:49Z</time>
      </trkpt>
      <trkpt lat="47.05781" lon="5.41366">
        <ele>253.938</ele>
        <time>2020-02-15T15:49:53Z</time>
      </trkpt>
      <trkpt lat="47.05778" lon="5.41371">
        <ele>253.359</ele>
        <time>2020-02-15T15:49:57Z</time>
      </trkpt>
      <trkpt lat="47.05774" lon="5.41379">
        <ele>253.644</ele>
        <time>2020-02-15T15:50:01Z</time>
      </trkpt>
      <trkpt lat="47.05768" lon="5.4138">
        <ele>254.912</ele>
        <time>2020-02-15T15:50:06Z</time>
      </trkpt>
      <trkpt lat="47.05763" lon="5.4138">
        <ele>254.097</ele>
        <time>2020-02-15T15:50:11Z</time>
      </trkpt>
      <trkpt lat="47.0576" lon="5.41385">
        <ele>251.628</ele>
        <time>2020-02-15T15:50:16Z</time>
      </trkpt>
      <trkpt lat="47.05758" lon="5.41388">
        <ele>251.448</ele>
        <time>2020-02-15T15:50:17Z</time>
      </trkpt>
      <trkpt lat="47.05753" lon="5.41391">
        <ele>251.099</ele>
        <time>2020-02-15T15:50:20Z</time>
      </trkpt>
      <trkpt lat="47.05749" lon="5.41393">
        <ele>250.555</ele>
        <time>2020-02-15T15:50:22Z</time>
      </trkpt>
      <trkpt lat="47.05746" lon="5.41396">
        <ele>249.29</ele>
        <time>2020-02-15T15:50:24Z</time>
      </trkpt>
      <trkpt lat="47.05739" lon="5.41396">
        <ele>247.317</ele>
        <time>2020-02-15T15:50:29Z</time>
      </trkpt>
      <trkpt lat="47.05734" lon="5.41393">
        <ele>247.694</ele>
        <time>2020-02-15T15:50:33Z</time>
      </trkpt>
      <trkpt lat="47.05728" lon="5.41392">
        <ele>248.15</ele>
        <time>2020-02-15T15:50:38Z</time>
      </trkpt>
      <trkpt lat="47.05723" lon="5.41393">
        <ele>247.056</ele>
        <time>2020-02-15T15:50:42Z</time>
      </trkpt>
      <trkpt lat="47.05719" lon="5.41393">
        <ele>246.072</ele>
        <time>2020-02-15T15:50:44Z</time>
      </trkpt>
      <trkpt lat="47.05712" lon="5.41392">
        <ele>244.281</ele>
        <time>2020-02-15T15:50:48Z</time>
      </trkpt>
      <trkpt lat="47.05706" lon="5.41388">
        <ele>241.515</ele>
        <time>2020-02-15T15:50:53Z</time>
      </trkpt>
      <trkpt lat="47.05702" lon="5.41389">
        <ele>240.821</ele>
        <time>2020-02-15T15:50:56Z</time>
      </trkpt>
      <trkpt lat="47.05696" lon="5.41394">
        <ele>240.111</ele>
        <time>2020-02-15T15:51:00Z</time>
      </trkpt>
      <trkpt lat="47.05691" lon="5.41399">
        <ele>238.693</ele>
        <time>2020-02-15T15:51:07Z</time>
      </trkpt>
      <trkpt lat="47.05684" lon="5.41403">
        <ele>240.34</ele>
        <time>2020-02-15T15:51:11Z</time>
      </trkpt>
      <trkpt lat="47.05681" lon="5.41405">
        <ele>240.312</ele>
        <time>2020-02-15T15:51:13Z</time>
      </trkpt>
      <trkpt lat="47.05676" lon="5.41406">
        <ele>240.852</ele>
        <time>2020-02-15T15:51:16Z</time>
      </trkpt>
      <trkpt lat="47.05671" lon="5.41411">
        <ele>242.769</ele>
        <time>2020-02-15T15:51:19Z</time>
      </trkpt>
      <trkpt lat="47.05667" lon="5.41414">
        <ele>244.822</ele>
        <time>2020-02-15T15:51:22Z</time>
      </trkpt>
      <trkpt lat="47.05659" lon="5.41424">
        <ele>244.939</ele>
        <time>2020-02-15T15:51:33Z</time>
      </trkpt>
      <trkpt lat="47.05655" lon="5.41433">
        <ele>244.638</ele>
        <time>2020-02-15T15:51:37Z</time>
      </trkpt>
      <trkpt lat="47.05649" lon="5.41437">
        <ele>245.92</ele>
        <time>2020-02-15T15:51:40Z</time>
      </trkpt>
      <trkpt lat="47.05644" lon="5.41432">
        <ele>248.579</ele>
        <time>2020-02-15T15:51:47Z</time>
      </trkpt>
      <trkpt lat="47.0564" lon="5.41426">
        <ele>249.365</ele>
        <time>2020-02-15T15:51:53Z</time>
      </trkpt>
      <trkpt lat="47.05636" lon="5.41422">
        <ele>250.13</ele>
        <time>2020-02-15T15:51:58Z</time>
      </trkpt>
      <trkpt lat="47.05631" lon="5.41413">
        <ele>250.48</ele>
        <time>2020-02-15T15:52:02Z</time>
      </trkpt>
      <trkpt lat="47.05625" lon="5.41409">
        <ele>250.769</ele>
        <time>2020-02-15T15:52:05Z</time>
      </trkpt>
      <trkpt lat="47.05623" lon="5.41408">
        <ele>250.478</ele>
        <time>2020-02-15T15:52:06Z</time>
      </trkpt>
      <trkpt lat="47.0562" lon="5.41406">
        <ele>250.048</ele>
        <time>2020-02-15T15:52:07Z</time>
      </trkpt>
      <trkpt lat="47.05614" lon="5.41403">
        <ele>249.754</ele>
        <time>2020-02-15T15:52:09Z</time>
      </trkpt>
      <trkpt lat="47.05609" lon="5.414">
        <ele>249.945</ele>
        <time>2020-02-15T15:52:11Z</time>
      </trkpt>
      <trkpt lat="47.05604" lon="5.41399">
        <ele>249.361</ele>
        <time>2020-02-15T15:52:13Z</time>
      </trkpt>
      <trkpt lat="47.05599" lon="5.41397">
        <ele>248.655</ele>
        <time>2020-02-15T15:52:16Z</time>
      </trkpt>
      <trkpt lat="47.05596" lon="5.41396">
        <ele>248.242</ele>
        <time>2020-02-15T15:52:20Z</time>
      </trkpt>
      <trkpt lat="47.05592" lon="5.41398">
        <ele>248.824</ele>
        <time>2020-02-15T15:52:24Z</time>
      </trkpt>
      <trkpt lat="47.05587" lon="5.41398">
        <ele>250.515</ele>
        <time>2020-02-15T15:52:28Z</time>
      </trkpt>
      <trkpt lat="47.05582" lon="5.41402">
        <ele>251.052</ele>
        <time>2020-02-15T15:52:32Z</time>
      </trkpt>
      <trkpt lat="47.05577" lon="5.414">
        <ele>252.743</ele>
        <time>2020-02-15T15:52:37Z</time>
      </trkpt>
      <trkpt lat="47.05571" lon="5.41399">
        <ele>254.992</ele>
        <time>2020-02-15T15:52:42Z</time>
      </trkpt>
      <trkpt lat="47.05563" lon="5.41395">
        <ele>256.25</ele>
        <time>2020-02-15T15:52:46Z</time>
      </trkpt>
      <trkpt lat="47.05561" lon="5.41394">
        <ele>256.406</ele>
        <time>2020-02-15T15:52:48Z</time>
      </trkpt>
      <trkpt lat="47.05555" lon="5.41394">
        <ele>258.601</ele>
        <time>2020-02-15T15:52:52Z</time>
      </trkpt>
      <trkpt lat="47.05547" lon="5.41396">
        <ele>260.386</ele>
        <time>2020-02-15T15:52:56Z</time>
      </trkpt>
      <trkpt lat="47.05544" lon="5.41397">
        <ele>260.718</ele>
        <time>2020-02-15T15:52:58Z</time>
      </trkpt>
      <trkpt lat="47.05539" lon="5.41398">
        <ele>260.474</ele>
        <time>2020-02-15T15:53:00Z</time>
      </trkpt>
      <trkpt lat="47.05533" lon="5.41395">
        <ele>259.621</ele>
        <time>2020-02-15T15:53:04Z</time>
      </trkpt>
      <trkpt lat="47.0553" lon="5.4139">
        <ele>259.642</ele>
        <time>2020-02-15T15:53:07Z</time>
      </trkpt>
      <trkpt lat="47.05526" lon="5.41387">
        <ele>259.165</ele>
        <time>2020-02-15T15:53:11Z</time>
      </trkpt>
      <trkpt lat="47.05521" lon="5.41386">
        <ele>259.05</ele>
        <time>2020-02-15T15:53:14Z</time>
      </trkpt>
      <trkpt lat="47.05513" lon="5.41387">
        <ele>260.316</ele>
        <time>2020-02-15T15:53:18Z</time>
      </trkpt>
      <trkpt lat="47.05509" lon="5.41388">
        <ele>260.586</ele>
        <time>2020-02-15T15:53:21Z</time>
      </trkpt>
      <trkpt lat="47.05504" lon="5.41391">
        <ele>261.8</ele>
        <time>2020-02-15T15:53:27Z</time>
      </trkpt>
      <trkpt lat="47.055" lon="5.41392">
        <ele>261.005</ele>
        <time>2020-02-15T15:53:30Z</time>
      </trkpt>
      <trkpt lat="47.05496" lon="5.41394">
        <ele>259.725</ele>
        <time>2020-02-15T15:53:32Z</time>
      </trkpt>
      <trkpt lat="47.05491" lon="5.41394">
        <ele>258.072</ele>
        <time>2020-02-15T15:53:35Z</time>
      </trkpt>
      <trkpt lat="47.05485" lon="5.41396">
        <ele>256.794</ele>
        <time>2020-02-15T15:53:38Z</time>
      </trkpt>
      <trkpt lat="47.0548" lon="5.41399">
        <ele>255.871</ele>
        <time>2020-02-15T15:53:41Z</time>
      </trkpt>
      <trkpt lat="47.05475" lon="5.41399">
        <ele>254.947</ele>
        <time>2020-02-15T15:53:44Z</time>
      </trkpt>
      <trkpt lat="47.05473" lon="5.41399">
        <ele>254.773</ele>
        <time>2020-02-15T15:53:46Z</time>
      </trkpt>
      <trkpt lat="47.05468" lon="5.41397">
        <ele>254.638</ele>
        <time>2020-02-15T15:53:49Z</time>
      </trkpt>
      <trkpt lat="47.05464" lon="5.41396">
        <ele>254.716</ele>
        <time>2020-02-15T15:53:51Z</time>
      </trkpt>
      <trkpt lat="47.0546" lon="5.41394">
        <ele>255.316</ele>
        <time>2020-02-15T15:53:56Z</time>
      </trkpt>
      <trkpt lat="47.05454" lon="5.41394">
        <ele>257.232</ele>
        <time>2020-02-15T15:54:00Z</time>
      </trkpt>
      <trkpt lat="47.05448" lon="5.41393">
        <ele>258.646</ele>
        <time>2020-02-15T15:54:06Z</time>
      </trkpt>
      <trkpt lat="47.05444" lon="5.41392">
        <ele>259.928</ele>
        <time>2020-02-15T15:54:08Z</time>
      </trkpt>
      <trkpt lat="47.05438" lon="5.41391">
        <ele>261.111</ele>
        <time>2020-02-15T15:54:11Z</time>
      </trkpt>
      <trkpt lat="47.05432" lon="5.41391">
        <ele>263.051</ele>
        <time>2020-02-15T15:54:15Z</time>
      </trkpt>
      <trkpt lat="47.05428" lon="5.41395">
        <ele>263.796</ele>
        <time>2020-02-15T15:54:18Z</time>
      </trkpt>
      <trkpt lat="47.05424" lon="5.41397">
        <ele>263.753</ele>
        <time>2020-02-15T15:54:21Z</time>
      </trkpt>
      <trkpt lat="47.05418" lon="5.41401">
        <ele>263.252</ele>
        <time>2020-02-15T15:54:24Z</time>
      </trkpt>
      <trkpt lat="47.05412" lon="5.41402">
        <ele>262.046</ele>
        <time>2020-02-15T15:54:28Z</time>
      </trkpt>
      <trkpt lat="47.05407" lon="5.41401">
        <ele>259.702</ele>
        <time>2020-02-15T15:54:32Z</time>
      </trkpt>
      <trkpt lat="47.05401" lon="5.41401">
        <ele>258.353</ele>
        <time>2020-02-15T15:54:37Z</time>
      </trkpt>
      <trkpt lat="47.05395" lon="5.41404">
        <ele>258.128</ele>
        <time>2020-02-15T15:54:41Z</time>
      </trkpt>
      <trkpt lat="47.0539" lon="5.41403">
        <ele>256.874</ele>
        <time>2020-02-15T15:54:44Z</time>
      </trkpt>
      <trkpt lat="47.05384" lon="5.41403">
        <ele>255.163</ele>
        <time>2020-02-15T15:54:47Z</time>
      </trkpt>
      <trkpt lat="47.05378" lon="5.41403">
        <ele>254.414</ele>
        <time>2020-02-15T15:54:50Z</time>
      </trkpt>
      <trkpt lat="47.05375" lon="5.41404">
        <ele>254.593</ele>
        <time>2020-02-15T15:54:52Z</time>
      </trkpt>
      <trkpt lat="47.05372" lon="5.41404">
        <ele>254.059</ele>
        <time>2020-02-15T15:54:54Z</time>
      </trkpt>
      <trkpt lat="47.05367" lon="5.41402">
        <ele>254.985</ele>
        <time>2020-02-15T15:54:59Z</time>
      </trkpt>
      <trkpt lat="47.05363" lon="5.41402">
        <ele>256.872</ele>
        <time>2020-02-15T15:55:04Z</time>
      </trkpt>
      <trkpt lat="47.05356" lon="5.41402">
        <ele>257.436</ele>
        <time>2020-02-15T15:55:08Z</time>
      </trkpt>
      <trkpt lat="47.05351" lon="5.41404">
        <ele>257.118</ele>
        <time>2020-02-15T15:55:10Z</time>
      </trkpt>
      <trkpt lat="47.05346" lon="5.41405">
        <ele>257.798</ele>
        <time>2020-02-15T15:55:13Z</time>
      </trkpt>
      <trkpt lat="47.05341" lon="5.41402">
        <ele>258.711</ele>
        <time>2020-02-15T15:55:17Z</time>
      </trkpt>
      <trkpt lat="47.05338" lon="5.41397">
        <ele>259.55</ele>
        <time>2020-02-15T15:55:22Z</time>
      </trkpt>
      <trkpt lat="47.05333" lon="5.41398">
        <ele>260.18</ele>
        <time>2020-02-15T15:55:26Z</time>
      </trkpt>
      <trkpt lat="47.05329" lon="5.41402">
        <ele>260.659</ele>
        <time>2020-02-15T15:55:28Z</time>
      </trkpt>
      <trkpt lat="47.05325" lon="5.41404">
        <ele>260.275</ele>
        <time>2020-02-15T15:55:31Z</time>
      </trkpt>
      <trkpt lat="47.05318" lon="5.41406">
        <ele>260.45</ele>
        <time>2020-02-15T15:55:34Z</time>
      </trkpt>
      <trkpt lat="47.05312" lon="5.41407">
        <ele>259.84</ele>
        <time>2020-02-15T15:55:37Z</time>
      </trkpt>
      <trkpt lat="47.05305" lon="5.41412">
        <ele>260.53</ele>
        <time>2020-02-15T15:55:41Z</time>
      </trkpt>
      <trkpt lat="47.05298" lon="5.41414">
        <ele>261.811</ele>
        <time>2020-02-15T15:55:44Z</time>
      </trkpt>
      <trkpt lat="47.05294" lon="5.41416">
        <ele>262.337</ele>
        <time>2020-02-15T15:55:46Z</time>
      </trkpt>
      <trkpt lat="47.05289" lon="5.41412">
        <ele>262.344</ele>
        <time>2020-02-15T15:55:50Z</time>
      </trkpt>
      <trkpt lat="47.05284" lon="5.4141">
        <ele>262.24</ele>
        <time>2020-02-15T15:55:54Z</time>
      </trkpt>
      <trkpt lat="47.05278" lon="5.4141">
        <ele>262.455</ele>
        <time>2020-02-15T15:56:00Z</time>
      </trkpt>
      <trkpt lat="47.05269" lon="5.41407">
        <ele>259.256</ele>
        <time>2020-02-15T15:56:11Z</time>
      </trkpt>
      <trkpt lat="47.05261" lon="5.41408">
        <ele>255.211</ele>
        <time>2020-02-15T15:56:15Z</time>
      </trkpt>
      <trkpt lat="47.05256" lon="5.4141">
        <ele>252.728</ele>
        <time>2020-02-15T15:56:19Z</time>
      </trkpt>
      <trkpt lat="47.0525" lon="5.4141">
        <ele>249.9</ele>
        <time>2020-02-15T15:56:24Z</time>
      </trkpt>
      <trkpt lat="47.05245" lon="5.41417">
        <ele>247.305</ele>
        <time>2020-02-15T15:56:27Z</time>
      </trkpt>
      <trkpt lat="47.0524" lon="5.4142">
        <ele>244.702</ele>
        <time>2020-02-15T15:56:33Z</time>
      </trkpt>
      <trkpt lat="47.05234" lon="5.41418">
        <ele>245.096</ele>
        <time>2020-02-15T15:56:37Z</time>
      </trkpt>
      <trkpt lat="47.05232" lon="5.41419">
        <ele>245.977</ele>
        <time>2020-02-15T15:56:45Z</time>
      </trkpt>
      <trkpt lat="47.05227" lon="5.41404">
        <ele>244.365</ele>
        <time>2020-02-15T15:56:51Z</time>
      </trkpt>
      <trkpt lat="47.05221" lon="5.414">
        <ele>243.556</ele>
        <time>2020-02-15T15:56:53Z</time>
      </trkpt>
      <trkpt lat="47.05215" lon="5.41398">
        <ele>241.626</ele>
        <time>2020-02-15T15:56:57Z</time>
      </trkpt>
      <trkpt lat="47.05212" lon="5.41392">
        <ele>241.341</ele>
        <time>2020-02-15T15:56:59Z</time>
      </trkpt>
      <trkpt lat="47.05207" lon="5.41387">
        <ele>240.725</ele>
        <time>2020-02-15T15:57:02Z</time>
      </trkpt>
      <trkpt lat="47.05202" lon="5.41387">
        <ele>240.696</ele>
        <time>2020-02-15T15:57:06Z</time>
      </trkpt>
      <trkpt lat="47.05198" lon="5.41388">
        <ele>240.714</ele>
        <time>2020-02-15T15:57:08Z</time>
      </trkpt>
      <trkpt lat="47.05191" lon="5.4139">
        <ele>239.175</ele>
        <time>2020-02-15T15:57:12Z</time>
      </trkpt>
      <trkpt lat="47.05186" lon="5.41393">
        <ele>238.206</ele>
        <time>2020-02-15T15:57:16Z</time>
      </trkpt>
      <trkpt lat="47.05181" lon="5.41394">
        <ele>238.148</ele>
        <time>2020-02-15T15:57:19Z</time>
      </trkpt>
      <trkpt lat="47.05174" lon="5.41395">
        <ele>239.128</ele>
        <time>2020-02-15T15:57:23Z</time>
      </trkpt>
      <trkpt lat="47.05171" lon="5.41396">
        <ele>240.209</ele>
        <time>2020-02-15T15:57:25Z</time>
      </trkpt>
      <trkpt lat="47.05167" lon="5.41397">
        <ele>241.161</ele>
        <time>2020-02-15T15:57:27Z</time>
      </trkpt>
      <trkpt lat="47.0516" lon="5.414">
        <ele>243.29</ele>
        <time>2020-02-15T15:57:31Z</time>
      </trkpt>
      <trkpt lat="47.05153" lon="5.41401">
        <ele>244.515</ele>
        <time>2020-02-15T15:57:35Z</time>
      </trkpt>
      <trkpt lat="47.05148" lon="5.41399">
        <ele>246.592</ele>
        <time>2020-02-15T15:57:39Z</time>
      </trkpt>
      <trkpt lat="47.05145" lon="5.41397">
        <ele>247.544</ele>
        <time>2020-02-15T15:57:41Z</time>
      </trkpt>
      <trkpt lat="47.05141" lon="5.41396">
        <ele>249.88</ele>
        <time>2020-02-15T15:57:45Z</time>
      </trkpt>
      <trkpt lat="47.05133" lon="5.41395">
        <ele>251.274</ele>
        <time>2020-02-15T15:57:49Z</time>
      </trkpt>
      <trkpt lat="47.05126" lon="5.41396">
        <ele>251.598</ele>
        <time>2020-02-15T15:57:54Z</time>
      </trkpt>
      <trkpt lat="47.05121" lon="5.41398">
        <ele>251.746</ele>
        <time>2020-02-15T15:57:57Z</time>
      </trkpt>
      <trkpt lat="47.05116" lon="5.41395">
        <ele>251.991</ele>
        <time>2020-02-15T15:58:02Z</time>
      </trkpt>
      <trkpt lat="47.0511" lon="5.41396">
        <ele>251.333</ele>
        <time>2020-02-15T15:58:09Z</time>
      </trkpt>
      <trkpt lat="47.05105" lon="5.41395">
        <ele>250.489</ele>
        <time>2020-02-15T15:58:13Z</time>
      </trkpt>
      <trkpt lat="47.051" lon="5.41392">
        <ele>249.925</ele>
        <time>2020-02-15T15:58:16Z</time>
      </trkpt>
      <trkpt lat="47.05093" lon="5.4139">
        <ele>249.132</ele>
        <time>2020-02-15T15:58:20Z</time>
      </trkpt>
      <trkpt lat="47.05088" lon="5.41393">
        <ele>249.714</ele>
        <time>2020-02-15T15:58:23Z</time>
      </trkpt>
      <trkpt lat="47.05082" lon="5.41395">
        <ele>250.054</ele>
        <time>2020-02-15T15:58:27Z</time>
      </trkpt>
      <trkpt lat="47.05077" lon="5.41395">
        <ele>249.704</ele>
        <time>2020-02-15T15:58:31Z</time>
      </trkpt>
      <trkpt lat="47.05072" lon="5.41396">
        <ele>249.74</ele>
        <time>2020-02-15T15:58:34Z</time>
      </trkpt>
      <trkpt lat="47.05068" lon="5.41394">
        <ele>249.134</ele>
        <time>2020-02-15T15:58:37Z</time>
      </trkpt>
      <trkpt lat="47.05063" lon="5.41393">
        <ele>248.384</ele>
        <time>2020-02-15T15:58:40Z</time>
      </trkpt>
      <trkpt lat="47.05058" lon="5.41389">
        <ele>245.595</ele>
        <time>2020-02-15T15:58:44Z</time>
      </trkpt>
      <trkpt lat="47.05052" lon="5.41388">
        <ele>242.566</ele>
        <time>2020-02-15T15:58:47Z</time>
      </trkpt>
      <trkpt lat="47.05047" lon="5.41387">
        <ele>241.416</ele>
        <time>2020-02-15T15:58:50Z</time>
      </trkpt>
      <trkpt lat="47.0504" lon="5.41388">
        <ele>241.695</ele>
        <time>2020-02-15T15:58:54Z</time>
      </trkpt>
      <trkpt lat="47.05037" lon="5.41389">
        <ele>240.686</ele>
        <time>2020-02-15T15:58:58Z</time>
      </trkpt>
      <trkpt lat="47.05034" lon="5.41389">
        <ele>239.991</ele>
        <time>2020-02-15T15:59:00Z</time>
      </trkpt>
      <trkpt lat="47.05027" lon="5.41392">
        <ele>239.087</ele>
        <time>2020-02-15T15:59:04Z</time>
      </trkpt>
      <trkpt lat="47.05022" lon="5.41387">
        <ele>237.623</ele>
        <time>2020-02-15T15:59:10Z</time>
      </trkpt>
      <trkpt lat="47.05017" lon="5.41385">
        <ele>238.506</ele>
        <time>2020-02-15T15:59:13Z</time>
      </trkpt>
      <trkpt lat="47.0501" lon="5.41386">
        <ele>240.586</ele>
        <time>2020-02-15T15:59:17Z</time>
      </trkpt>
      <trkpt lat="47.05004" lon="5.41388">
        <ele>241.741</ele>
        <time>2020-02-15T15:59:20Z</time>
      </trkpt>
      <trkpt lat="47.04999" lon="5.41392">
        <ele>242.501</ele>
        <time>2020-02-15T15:59:22Z</time>
      </trkpt>
      <trkpt lat="47.04993" lon="5.41396">
        <ele>242.989</ele>
        <time>2020-02-15T15:59:24Z</time>
      </trkpt>
      <trkpt lat="47.04988" lon="5.41401">
        <ele>243.33</ele>
        <time>2020-02-15T15:59:26Z</time>
      </trkpt>
      <trkpt lat="47.04983" lon="5.41402">
        <ele>243.66</ele>
        <time>2020-02-15T15:59:29Z</time>
      </trkpt>
      <trkpt lat="47.04979" lon="5.41403">
        <ele>243.811</ele>
        <time>2020-02-15T15:59:33Z</time>
      </trkpt>
      <trkpt lat="47.04974" lon="5.41401">
        <ele>239.708</ele>
        <time>2020-02-15T15:59:40Z</time>
      </trkpt>
      <trkpt lat="47.04971" lon="5.41401">
        <ele>239.249</ele>
        <time>2020-02-15T15:59:42Z</time>
      </trkpt>
      <trkpt lat="47.04967" lon="5.41398">
        <ele>238.438</ele>
        <time>2020-02-15T15:59:46Z</time>
      </trkpt>
      <trkpt lat="47.04961" lon="5.41398">
        <ele>238.962</ele>
        <time>2020-02-15T15:59:50Z</time>
      </trkpt>
      <trkpt lat="47.04956" lon="5.41397">
        <ele>241.217</ele>
        <time>2020-02-15T15:59:54Z</time>
      </trkpt>
      <trkpt lat="47.04951" lon="5.41399">
        <ele>243.439</ele>
        <time>2020-02-15T16:00:00Z</time>
      </trkpt>
      <trkpt lat="47.04946" lon="5.41399">
        <ele>243.282</ele>
        <time>2020-02-15T16:00:03Z</time>
      </trkpt>
      <trkpt lat="47.04941" lon="5.41398">
        <ele>243.163</ele>
        <time>2020-02-15T16:00:05Z</time>
      </trkpt>
      <trkpt lat="47.04939" lon="5.41397">
        <ele>243.046</ele>
        <time>2020-02-15T16:00:06Z</time>
      </trkpt>
      <trkpt lat="47.04935" lon="5.41397">
        <ele>243.023</ele>
        <time>2020-02-15T16:00:08Z</time>
      </trkpt>
      <trkpt lat="47.04929" lon="5.41394">
        <ele>242.089</ele>
        <time>2020-02-15T16:00:11Z</time>
      </trkpt>
      <trkpt lat="47.04921" lon="5.414">
        <ele>239.743</ele>
        <time>2020-02-15T16:00:15Z</time>
      </trkpt>
      <trkpt lat="47.04917" lon="5.41406">
        <ele>238.17</ele>
        <time>2020-02-15T16:00:18Z</time>
      </trkpt>
      <trkpt lat="47.04912" lon="5.41405">
        <ele>235.692</ele>
        <time>2020-02-15T16:00:23Z</time>
      </trkpt>
      <trkpt lat="47.0491" lon="5.41399">
        <ele>236.969</ele>
        <time>2020-02-15T16:00:26Z</time>
      </trkpt>
      <trkpt lat="47.04904" lon="5.41401">
        <ele>239.953</ele>
        <time>2020-02-15T16:00:30Z</time>
      </trkpt>
      <trkpt lat="47.049" lon="5.41403">
        <ele>240.872</ele>
        <time>2020-02-15T16:00:33Z</time>
      </trkpt>
      <trkpt lat="47.04897" lon="5.41409">
        <ele>241.595</ele>
        <time>2020-02-15T16:00:36Z</time>
      </trkpt>
      <trkpt lat="47.04895" lon="5.41416">
        <ele>241.402</ele>
        <time>2020-02-15T16:00:38Z</time>
      </trkpt>
      <trkpt lat="47.04891" lon="5.41421">
        <ele>241.805</ele>
        <time>2020-02-15T16:00:41Z</time>
      </trkpt>
      <trkpt lat="47.04885" lon="5.41422">
        <ele>242.334</ele>
        <time>2020-02-15T16:00:47Z</time>
      </trkpt>
      <trkpt lat="47.04882" lon="5.41428">
        <ele>242.394</ele>
        <time>2020-02-15T16:00:50Z</time>
      </trkpt>
      <trkpt lat="47.0488" lon="5.41431">
        <ele>242.635</ele>
        <time>2020-02-15T16:00:51Z</time>
      </trkpt>
      <trkpt lat="47.04878" lon="5.41438">
        <ele>243.101</ele>
        <time>2020-02-15T16:00:54Z</time>
      </trkpt>
      <trkpt lat="47.04876" lon="5.41447">
        <ele>244.954</ele>
        <time>2020-02-15T16:00:57Z</time>
      </trkpt>
      <trkpt lat="47.04874" lon="5.41455">
        <ele>246.792</ele>
        <time>2020-02-15T16:01:01Z</time>
      </trkpt>
      <trkpt lat="47.0487" lon="5.41462">
        <ele>249.027</ele>
        <time>2020-02-15T16:01:06Z</time>
      </trkpt>
      <trkpt lat="47.04868" lon="5.41465">
        <ele>248.843</ele>
        <time>2020-02-15T16:01:08Z</time>
      </trkpt>
      <trkpt lat="47.04867" lon="5.41468">
        <ele>247.811</ele>
        <time>2020-02-15T16:01:12Z</time>
      </trkpt>
      <trkpt lat="47.04865" lon="5.41475">
        <ele>249.066</ele>
        <time>2020-02-15T16:01:16Z</time>
      </trkpt>
      <trkpt lat="47.04861" lon="5.4148">
        <ele>250.507</ele>
        <time>2020-02-15T16:01:20Z</time>
      </trkpt>
      <trkpt lat="47.04858" lon="5.41489">
        <ele>250.858</ele>
        <time>2020-02-15T16:01:26Z</time>
      </trkpt>
      <trkpt lat="47.04856" lon="5.41497">
        <ele>251.294</ele>
        <time>2020-02-15T16:01:29Z</time>
      </trkpt>
      <trkpt lat="47.04853" lon="5.41505">
        <ele>251.477</ele>
        <time>2020-02-15T16:01:33Z</time>
      </trkpt>
      <trkpt lat="47.04849" lon="5.41511">
        <ele>251.767</ele>
        <time>2020-02-15T16:01:37Z</time>
      </trkpt>
      <trkpt lat="47.04848" lon="5.41518">
        <ele>251.676</ele>
        <time>2020-02-15T16:01:40Z</time>
      </trkpt>
      <trkpt lat="47.04843" lon="5.41524">
        <ele>252.839</ele>
        <time>2020-02-15T16:01:46Z</time>
      </trkpt>
      <trkpt lat="47.04839" lon="5.4153">
        <ele>254.191</ele>
        <time>2020-02-15T16:01:53Z</time>
      </trkpt>
      <trkpt lat="47.04836" lon="5.41535">
        <ele>254.685</ele>
        <time>2020-02-15T16:01:57Z</time>
      </trkpt>
      <trkpt lat="47.04835" lon="5.41543">
        <ele>255.262</ele>
        <time>2020-02-15T16:02:00Z</time>
      </trkpt>
      <trkpt lat="47.04833" lon="5.41549">
        <ele>256.361</ele>
        <time>2020-02-15T16:02:03Z</time>
      </trkpt>
      <trkpt lat="47.04831" lon="5.41553">
        <ele>257.399</ele>
        <time>2020-02-15T16:02:05Z</time>
      </trkpt>
      <trkpt lat="47.04829" lon="5.41561">
        <ele>259.518</ele>
        <time>2020-02-15T16:02:10Z</time>
      </trkpt>
      <trkpt lat="47.04829" lon="5.41569">
        <ele>261.011</ele>
        <time>2020-02-15T16:02:14Z</time>
      </trkpt>
      <trkpt lat="47.04826" lon="5.41574">
        <ele>261.483</ele>
        <time>2020-02-15T16:02:17Z</time>
      </trkpt>
      <trkpt lat="47.04822" lon="5.4158">
        <ele>261.837</ele>
        <time>2020-02-15T16:02:21Z</time>
      </trkpt>
      <trkpt lat="47.0482" lon="5.41587">
        <ele>262.47</ele>
        <time>2020-02-15T16:02:23Z</time>
      </trkpt>
      <trkpt lat="47.04818" lon="5.41595">
        <ele>261.852</ele>
        <time>2020-02-15T16:02:25Z</time>
      </trkpt>
      <trkpt lat="47.04817" lon="5.41602">
        <ele>261.559</ele>
        <time>2020-02-15T16:02:27Z</time>
      </trkpt>
      <trkpt lat="47.04813" lon="5.41611">
        <ele>262.19</ele>
        <time>2020-02-15T16:02:33Z</time>
      </trkpt>
      <trkpt lat="47.04808" lon="5.41617">
        <ele>261.391</ele>
        <time>2020-02-15T16:02:39Z</time>
      </trkpt>
      <trkpt lat="47.04806" lon="5.41625">
        <ele>258.764</ele>
        <time>2020-02-15T16:02:46Z</time>
      </trkpt>
      <trkpt lat="47.04805" lon="5.41635">
        <ele>256.74</ele>
        <time>2020-02-15T16:02:52Z</time>
      </trkpt>
      <trkpt lat="47.04802" lon="5.41641">
        <ele>256.818</ele>
        <time>2020-02-15T16:02:56Z</time>
      </trkpt>
      <trkpt lat="47.048" lon="5.41645">
        <ele>256.196</ele>
        <time>2020-02-15T16:03:00Z</time>
      </trkpt>
      <trkpt lat="47.04795" lon="5.41652">
        <ele>256.067</ele>
        <time>2020-02-15T16:03:09Z</time>
      </trkpt>
      <trkpt lat="47.04793" lon="5.41664">
        <ele>255.985</ele>
        <time>2020-02-15T16:03:12Z</time>
      </trkpt>
      <trkpt lat="47.04791" lon="5.41675">
        <ele>256.202</ele>
        <time>2020-02-15T16:03:15Z</time>
      </trkpt>
      <trkpt lat="47.0479" lon="5.41682">
        <ele>256.273</ele>
        <time>2020-02-15T16:03:17Z</time>
      </trkpt>
      <trkpt lat="47.04787" lon="5.41691">
        <ele>256.578</ele>
        <time>2020-02-15T16:03:25Z</time>
      </trkpt>
      <trkpt lat="47.04786" lon="5.41698">
        <ele>256.741</ele>
        <time>2020-02-15T16:03:29Z</time>
      </trkpt>
      <trkpt lat="47.04783" lon="5.41704">
        <ele>258.023</ele>
        <time>2020-02-15T16:03:34Z</time>
      </trkpt>
      <trkpt lat="47.04782" lon="5.41712">
        <ele>258.575</ele>
        <time>2020-02-15T16:03:37Z</time>
      </trkpt>
      <trkpt lat="47.0478" lon="5.41722">
        <ele>259.428</ele>
        <time>2020-02-15T16:03:42Z</time>
      </trkpt>
      <trkpt lat="47.04779" lon="5.41726">
        <ele>259.279</ele>
        <time>2020-02-15T16:03:44Z</time>
      </trkpt>
      <trkpt lat="47.04776" lon="5.41734">
        <ele>259.608</ele>
        <time>2020-02-15T16:03:48Z</time>
      </trkpt>
      <trkpt lat="47.04772" lon="5.4174">
        <ele>259.123</ele>
        <time>2020-02-15T16:03:53Z</time>
      </trkpt>
      <trkpt lat="47.04769" lon="5.41746">
        <ele>258.887</ele>
        <time>2020-02-15T16:03:57Z</time>
      </trkpt>
      <trkpt lat="47.04765" lon="5.41752">
        <ele>257.853</ele>
        <time>2020-02-15T16:04:00Z</time>
      </trkpt>
      <trkpt lat="47.04764" lon="5.41759">
        <ele>257.799</ele>
        <time>2020-02-15T16:04:04Z</time>
      </trkpt>
      <trkpt lat="47.04763" lon="5.41763">
        <ele>258.3</ele>
        <time>2020-02-15T16:04:06Z</time>
      </trkpt>
      <trkpt lat="47.04764" lon="5.41773">
        <ele>259.031</ele>
        <time>2020-02-15T16:04:09Z</time>
      </trkpt>
      <trkpt lat="47.04762" lon="5.41779">
        <ele>259.159</ele>
        <time>2020-02-15T16:04:14Z</time>
      </trkpt>
      <trkpt lat="47.04757" lon="5.41782">
        <ele>257.655</ele>
        <time>2020-02-15T16:04:20Z</time>
      </trkpt>
      <trkpt lat="47.04754" lon="5.41788">
        <ele>257.341</ele>
        <time>2020-02-15T16:04:23Z</time>
      </trkpt>
      <trkpt lat="47.04752" lon="5.41795">
        <ele>256.071</ele>
        <time>2020-02-15T16:04:27Z</time>
      </trkpt>
      <trkpt lat="47.04751" lon="5.41805">
        <ele>254.696</ele>
        <time>2020-02-15T16:04:31Z</time>
      </trkpt>
      <trkpt lat="47.04753" lon="5.41818">
        <ele>254.562</ele>
        <time>2020-02-15T16:04:35Z</time>
      </trkpt>
      <trkpt lat="47.04753" lon="5.41828">
        <ele>254.788</ele>
        <time>2020-02-15T16:04:39Z</time>
      </trkpt>
      <trkpt lat="47.04751" lon="5.41836">
        <ele>254.715</ele>
        <time>2020-02-15T16:04:42Z</time>
      </trkpt>
      <trkpt lat="47.04749" lon="5.41844">
        <ele>255.677</ele>
        <time>2020-02-15T16:04:46Z</time>
      </trkpt>
      <trkpt lat="47.04749" lon="5.41851">
        <ele>257.327</ele>
        <time>2020-02-15T16:04:49Z</time>
      </trkpt>
      <trkpt lat="47.04749" lon="5.41855">
        <ele>257.502</ele>
        <time>2020-02-15T16:04:51Z</time>
      </trkpt>
      <trkpt lat="47.04749" lon="5.41855">
        <ele>257.502</ele>
        <time>2020-02-15T16:04:57Z</time>
      </trkpt>
      <trkpt lat="47.04751" lon="5.41863">
        <ele>257.57</ele>
        <time>2020-02-15T16:04:58Z</time>
      </trkpt>
      <trkpt lat="47.04752" lon="5.41869">
        <ele>257.708</ele>
        <time>2020-02-15T16:05:02Z</time>
      </trkpt>
      <trkpt lat="47.0475" lon="5.41876">
        <ele>257.842</ele>
        <time>2020-02-15T16:05:06Z</time>
      </trkpt>
      <trkpt lat="47.04751" lon="5.41884">
        <ele>257.942</ele>
        <time>2020-02-15T16:05:11Z</time>
      </trkpt>
      <trkpt lat="47.04752" lon="5.41891">
        <ele>257.794</ele>
        <time>2020-02-15T16:05:14Z</time>
      </trkpt>
      <trkpt lat="47.04753" lon="5.41901">
        <ele>257.02</ele>
        <time>2020-02-15T16:05:18Z</time>
      </trkpt>
      <trkpt lat="47.04754" lon="5.41909">
        <ele>256.047</ele>
        <time>2020-02-15T16:05:22Z</time>
      </trkpt>
      <trkpt lat="47.04755" lon="5.41913">
        <ele>255.805</ele>
        <time>2020-02-15T16:05:24Z</time>
      </trkpt>
      <trkpt lat="47.04757" lon="5.41919">
        <ele>254.59</ele>
        <time>2020-02-15T16:05:27Z</time>
      </trkpt>
      <trkpt lat="47.04758" lon="5.41925">
        <ele>253.677</ele>
        <time>2020-02-15T16:05:30Z</time>
      </trkpt>
      <trkpt lat="47.04756" lon="5.41934">
        <ele>251.499</ele>
        <time>2020-02-15T16:05:34Z</time>
      </trkpt>
      <trkpt lat="47.04753" lon="5.41942">
        <ele>250.88</ele>
        <time>2020-02-15T16:05:37Z</time>
      </trkpt>
      <trkpt lat="47.04753" lon="5.41949">
        <ele>249.879</ele>
        <time>2020-02-15T16:05:41Z</time>
      </trkpt>
      <trkpt lat="47.04757" lon="5.41956">
        <ele>248.165</ele>
        <time>2020-02-15T16:05:44Z</time>
      </trkpt>
      <trkpt lat="47.04759" lon="5.41964">
        <ele>246.22</ele>
        <time>2020-02-15T16:05:48Z</time>
      </trkpt>
      <trkpt lat="47.04755" lon="5.4197">
        <ele>245.324</ele>
        <time>2020-02-15T16:05:50Z</time>
      </trkpt>
      <trkpt lat="47.0475" lon="5.41975">
        <ele>244.282</ele>
        <time>2020-02-15T16:05:53Z</time>
      </trkpt>
      <trkpt lat="47.04748" lon="5.41982">
        <ele>243.51</ele>
        <time>2020-02-15T16:05:56Z</time>
      </trkpt>
      <trkpt lat="47.04746" lon="5.41987">
        <ele>243.392</ele>
        <time>2020-02-15T16:06:00Z</time>
      </trkpt>
      <trkpt lat="47.04749" lon="5.41994">
        <ele>243.886</ele>
        <time>2020-02-15T16:06:06Z</time>
      </trkpt>
      <trkpt lat="47.04752" lon="5.42">
        <ele>244.416</ele>
        <time>2020-02-15T16:06:10Z</time>
      </trkpt>
      <trkpt lat="47.04751" lon="5.42008">
        <ele>246.342</ele>
        <time>2020-02-15T16:06:16Z</time>
      </trkpt>
      <trkpt lat="47.04753" lon="5.42014">
        <ele>247.408</ele>
        <time>2020-02-15T16:06:19Z</time>
      </trkpt>
      <trkpt lat="47.04758" lon="5.42017">
        <ele>248.249</ele>
        <time>2020-02-15T16:06:22Z</time>
      </trkpt>
      <trkpt lat="47.04756" lon="5.42028">
        <ele>248.785</ele>
        <time>2020-02-15T16:06:30Z</time>
      </trkpt>
      <trkpt lat="47.04762" lon="5.42035">
        <ele>250.027</ele>
        <time>2020-02-15T16:06:34Z</time>
      </trkpt>
      <trkpt lat="47.04765" lon="5.42042">
        <ele>249.902</ele>
        <time>2020-02-15T16:06:39Z</time>
      </trkpt>
      <trkpt lat="47.0477" lon="5.42044">
        <ele>249.458</ele>
        <time>2020-02-15T16:06:41Z</time>
      </trkpt>
      <trkpt lat="47.04773" lon="5.42045">
        <ele>249.694</ele>
        <time>2020-02-15T16:06:43Z</time>
      </trkpt>
      <trkpt lat="47.04775" lon="5.42051">
        <ele>249.767</ele>
        <time>2020-02-15T16:06:47Z</time>
      </trkpt>
      <trkpt lat="47.04776" lon="5.42054">
        <ele>250.189</ele>
        <time>2020-02-15T16:06:49Z</time>
      </trkpt>
      <trkpt lat="47.0478" lon="5.42062">
        <ele>251.321</ele>
        <time>2020-02-15T16:06:53Z</time>
      </trkpt>
      <trkpt lat="47.04782" lon="5.4207">
        <ele>251.886</ele>
        <time>2020-02-15T16:06:57Z</time>
      </trkpt>
      <trkpt lat="47.04786" lon="5.42078">
        <ele>252.228</ele>
        <time>2020-02-15T16:07:01Z</time>
      </trkpt>
      <trkpt lat="47.04786" lon="5.42085">
        <ele>252.601</ele>
        <time>2020-02-15T16:07:05Z</time>
      </trkpt>
      <trkpt lat="47.04789" lon="5.42094">
        <ele>252.946</ele>
        <time>2020-02-15T16:07:09Z</time>
      </trkpt>
      <trkpt lat="47.04791" lon="5.421">
        <ele>253.794</ele>
        <time>2020-02-15T16:07:13Z</time>
      </trkpt>
      <trkpt lat="47.04799" lon="5.42102">
        <ele>258.186</ele>
        <time>2020-02-15T16:07:22Z</time>
      </trkpt>
      <trkpt lat="47.04806" lon="5.42098">
        <ele>259.825</ele>
        <time>2020-02-15T16:07:27Z</time>
      </trkpt>
      <trkpt lat="47.04811" lon="5.42092">
        <ele>259.957</ele>
        <time>2020-02-15T16:07:30Z</time>
      </trkpt>
      <trkpt lat="47.04814" lon="5.42085">
        <ele>259.202</ele>
        <time>2020-02-15T16:07:33Z</time>
      </trkpt>
      <trkpt lat="47.04815" lon="5.42078">
        <ele>258.104</ele>
        <time>2020-02-15T16:07:36Z</time>
      </trkpt>
      <trkpt lat="47.04816" lon="5.42073">
        <ele>256.999</ele>
        <time>2020-02-15T16:07:38Z</time>
      </trkpt>
      <trkpt lat="47.04818" lon="5.42063">
        <ele>255.093</ele>
        <time>2020-02-15T16:07:42Z</time>
      </trkpt>
      <trkpt lat="47.04824" lon="5.42057">
        <ele>254.159</ele>
        <time>2020-02-15T16:07:46Z</time>
      </trkpt>
      <trkpt lat="47.04826" lon="5.42049">
        <ele>253.609</ele>
        <time>2020-02-15T16:07:49Z</time>
      </trkpt>
      <trkpt lat="47.04831" lon="5.42044">
        <ele>253.49</ele>
        <time>2020-02-15T16:07:54Z</time>
      </trkpt>
      <trkpt lat="47.04837" lon="5.42046">
        <ele>252.935</ele>
        <time>2020-02-15T16:07:57Z</time>
      </trkpt>
      <trkpt lat="47.04843" lon="5.42048">
        <ele>253.47</ele>
        <time>2020-02-15T16:08:01Z</time>
      </trkpt>
      <trkpt lat="47.04848" lon="5.42052">
        <ele>253.948</ele>
        <time>2020-02-15T16:08:05Z</time>
      </trkpt>
      <trkpt lat="47.04853" lon="5.42055">
        <ele>253.138</ele>
        <time>2020-02-15T16:08:08Z</time>
      </trkpt>
      <trkpt lat="47.04857" lon="5.42061">
        <ele>253.829</ele>
        <time>2020-02-15T16:08:12Z</time>
      </trkpt>
      <trkpt lat="47.0486" lon="5.42065">
        <ele>255.675</ele>
        <time>2020-02-15T16:08:15Z</time>
      </trkpt>
      <trkpt lat="47.04862" lon="5.42068">
        <ele>256.538</ele>
        <time>2020-02-15T16:08:17Z</time>
      </trkpt>
      <trkpt lat="47.04865" lon="5.4207">
        <ele>257.791</ele>
        <time>2020-02-15T16:08:19Z</time>
      </trkpt>
      <trkpt lat="47.0487" lon="5.42073">
        <ele>259.62</ele>
        <time>2020-02-15T16:08:23Z</time>
      </trkpt>
      <trkpt lat="47.04876" lon="5.42081">
        <ele>259.768</ele>
        <time>2020-02-15T16:08:30Z</time>
      </trkpt>
      <trkpt lat="47.04882" lon="5.42082">
        <ele>259.516</ele>
        <time>2020-02-15T16:08:32Z</time>
      </trkpt>
      <trkpt lat="47.04888" lon="5.42083">
        <ele>259.447</ele>
        <time>2020-02-15T16:08:34Z</time>
      </trkpt>
      <trkpt lat="47.0489" lon="5.42083">
        <ele>259.2</ele>
        <time>2020-02-15T16:08:36Z</time>
      </trkpt>
      <trkpt lat="47.04894" lon="5.42085">
        <ele>259.123</ele>
        <time>2020-02-15T16:08:38Z</time>
      </trkpt>
      <trkpt lat="47.04897" lon="5.42086">
        <ele>259.126</ele>
        <time>2020-02-15T16:08:39Z</time>
      </trkpt>
      <trkpt lat="47.04901" lon="5.42087">
        <ele>259.202</ele>
        <time>2020-02-15T16:08:41Z</time>
      </trkpt>
      <trkpt lat="47.04907" lon="5.42088">
        <ele>260.429</ele>
        <time>2020-02-15T16:08:46Z</time>
      </trkpt>
      <trkpt lat="47.04909" lon="5.42089">
        <ele>261.545</ele>
        <time>2020-02-15T16:08:51Z</time>
      </trkpt>
      <trkpt lat="47.04915" lon="5.42092">
        <ele>262.162</ele>
        <time>2020-02-15T16:08:54Z</time>
      </trkpt>
      <trkpt lat="47.0492" lon="5.42093">
        <ele>263.31</ele>
        <time>2020-02-15T16:08:57Z</time>
      </trkpt>
      <trkpt lat="47.04925" lon="5.42093">
        <ele>263.847</ele>
        <time>2020-02-15T16:08:59Z</time>
      </trkpt>
      <trkpt lat="47.04934" lon="5.42094">
        <ele>266.163</ele>
        <time>2020-02-15T16:09:06Z</time>
      </trkpt>
      <trkpt lat="47.04939" lon="5.421">
        <ele>265.134</ele>
        <time>2020-02-15T16:09:12Z</time>
      </trkpt>
      <trkpt lat="47.04943" lon="5.42101">
        <ele>264.746</ele>
        <time>2020-02-15T16:09:16Z</time>
      </trkpt>
      <trkpt lat="47.04947" lon="5.42101">
        <ele>264.222</ele>
        <time>2020-02-15T16:09:18Z</time>
      </trkpt>
      <trkpt lat="47.04954" lon="5.42107">
        <ele>262.948</ele>
        <time>2020-02-15T16:09:21Z</time>
      </trkpt>
      <trkpt lat="47.04957" lon="5.42114">
        <ele>261.807</ele>
        <time>2020-02-15T16:09:25Z</time>
      </trkpt>
      <trkpt lat="47.04957" lon="5.42121">
        <ele>260.585</ele>
        <time>2020-02-15T16:09:30Z</time>
      </trkpt>
      <trkpt lat="47.04959" lon="5.42128">
        <ele>258.166</ele>
        <time>2020-02-15T16:09:35Z</time>
      </trkpt>
      <trkpt lat="47.04964" lon="5.42133">
        <ele>256.266</ele>
        <time>2020-02-15T16:09:39Z</time>
      </trkpt>
      <trkpt lat="47.04968" lon="5.42136">
        <ele>254.233</ele>
        <time>2020-02-15T16:09:43Z</time>
      </trkpt>
      <trkpt lat="47.04973" lon="5.4214">
        <ele>252.508</ele>
        <time>2020-02-15T16:09:46Z</time>
      </trkpt>
      <trkpt lat="47.04977" lon="5.42146">
        <ele>249.532</ele>
        <time>2020-02-15T16:09:51Z</time>
      </trkpt>
      <trkpt lat="47.04984" lon="5.42152">
        <ele>248.141</ele>
        <time>2020-02-15T16:09:56Z</time>
      </trkpt>
      <trkpt lat="47.04987" lon="5.4216">
        <ele>248.081</ele>
        <time>2020-02-15T16:10:04Z</time>
      </trkpt>
      <trkpt lat="47.04992" lon="5.42162">
        <ele>247.751</ele>
        <time>2020-02-15T16:10:08Z</time>
      </trkpt>
      <trkpt lat="47.04997" lon="5.42162">
        <ele>247.93</ele>
        <time>2020-02-15T16:10:11Z</time>
      </trkpt>
      <trkpt lat="47.05002" lon="5.42162">
        <ele>248.186</ele>
        <time>2020-02-15T16:10:13Z</time>
      </trkpt>
      <trkpt lat="47.05009" lon="5.42162">
        <ele>248.428</ele>
        <time>2020-02-15T16:10:17Z</time>
      </trkpt>
      <trkpt lat="47.05014" lon="5.42158">
        <ele>248.417</ele>
        <time>2020-02-15T16:10:21Z</time>
      </trkpt>
      <trkpt lat="47.05019" lon="5.42155">
        <ele>248.542</ele>
        <time>2020-02-15T16:10:25Z</time>
      </trkpt>
      <trkpt lat="47.05023" lon="5.42158">
        <ele>247.701</ele>
        <time>2020-02-15T16:10:28Z</time>
      </trkpt>
      <trkpt lat="47.05028" lon="5.42158">
        <ele>247.008</ele>
        <time>2020-02-15T16:10:31Z</time>
      </trkpt>
      <trkpt lat="47.05031" lon="5.42158">
        <ele>246.213</ele>
        <time>2020-02-15T16:10:33Z</time>
      </trkpt>
      <trkpt lat="47.05036" lon="5.42159">
        <ele>244.387</ele>
        <time>2020-02-15T16:10:37Z</time>
      </trkpt>
      <trkpt lat="47.05039" lon="5.4216">
        <ele>243.272</ele>
        <time>2020-02-15T16:10:39Z</time>
      </trkpt>
      <trkpt lat="47.05043" lon="5.42163">
        <ele>242.323</ele>
        <time>2020-02-15T16:10:43Z</time>
      </trkpt>
      <trkpt lat="47.05047" lon="5.42166">
        <ele>241.595</ele>
        <time>2020-02-15T16:10:46Z</time>
      </trkpt>
      <trkpt lat="47.05052" lon="5.42164">
        <ele>241.102</ele>
        <time>2020-02-15T16:10:49Z</time>
      </trkpt>
      <trkpt lat="47.05055" lon="5.42164">
        <ele>240.908</ele>
        <time>2020-02-15T16:10:51Z</time>
      </trkpt>
      <trkpt lat="47.0506" lon="5.42162">
        <ele>240.19</ele>
        <time>2020-02-15T16:10:57Z</time>
      </trkpt>
      <trkpt lat="47.0506" lon="5.42162">
        <ele>240.19</ele>
        <time>2020-02-15T16:11:04Z</time>
      </trkpt>
      <trkpt lat="47.05067" lon="5.42164">
        <ele>240.753</ele>
        <time>2020-02-15T16:11:06Z</time>
      </trkpt>
      <trkpt lat="47.05072" lon="5.42162">
        <ele>240.26</ele>
        <time>2020-02-15T16:11:08Z</time>
      </trkpt>
      <trkpt lat="47.0508" lon="5.42162">
        <ele>240.183</ele>
        <time>2020-02-15T16:11:12Z</time>
      </trkpt>
      <trkpt lat="47.05086" lon="5.42161">
        <ele>241.234</ele>
        <time>2020-02-15T16:11:17Z</time>
      </trkpt>
      <trkpt lat="47.05092" lon="5.42161">
        <ele>242.499</ele>
        <time>2020-02-15T16:11:21Z</time>
      </trkpt>
      <trkpt lat="47.051" lon="5.42158">
        <ele>243.037</ele>
        <time>2020-02-15T16:11:25Z</time>
      </trkpt>
      <trkpt lat="47.05109" lon="5.42156">
        <ele>245.567</ele>
        <time>2020-02-15T16:11:31Z</time>
      </trkpt>
      <trkpt lat="47.05117" lon="5.42156">
        <ele>247.18</ele>
        <time>2020-02-15T16:11:35Z</time>
      </trkpt>
      <trkpt lat="47.05122" lon="5.42157">
        <ele>248.443</ele>
        <time>2020-02-15T16:11:37Z</time>
      </trkpt>
      <trkpt lat="47.05125" lon="5.42157">
        <ele>249.013</ele>
        <time>2020-02-15T16:11:38Z</time>
      </trkpt>
      <trkpt lat="47.05132" lon="5.42157">
        <ele>250.611</ele>
        <time>2020-02-15T16:11:40Z</time>
      </trkpt>
      <trkpt lat="47.05137" lon="5.42158">
        <ele>252.353</ele>
        <time>2020-02-15T16:11:43Z</time>
      </trkpt>
      <trkpt lat="47.05142" lon="5.42162">
        <ele>254.708</ele>
        <time>2020-02-15T16:11:46Z</time>
      </trkpt>
      <trkpt lat="47.05147" lon="5.42161">
        <ele>254.675</ele>
        <time>2020-02-15T16:11:54Z</time>
      </trkpt>
      <trkpt lat="47.05149" lon="5.42159">
        <ele>254.694</ele>
        <time>2020-02-15T16:11:56Z</time>
      </trkpt>
      <trkpt lat="47.05152" lon="5.42158">
        <ele>254.002</ele>
        <time>2020-02-15T16:11:58Z</time>
      </trkpt>
      <trkpt lat="47.05157" lon="5.42158">
        <ele>253.187</ele>
        <time>2020-02-15T16:12:03Z</time>
      </trkpt>
      <trkpt lat="47.0516" lon="5.42158">
        <ele>252.942</ele>
        <time>2020-02-15T16:12:05Z</time>
      </trkpt>
      <trkpt lat="47.05166" lon="5.42157">
        <ele>251.116</ele>
        <time>2020-02-15T16:12:12Z</time>
      </trkpt>
      <trkpt lat="47.0517" lon="5.42157">
        <ele>250.503</ele>
        <time>2020-02-15T16:12:14Z</time>
      </trkpt>
      <trkpt lat="47.05176" lon="5.42156">
        <ele>249.669</ele>
        <time>2020-02-15T16:12:16Z</time>
      </trkpt>
      <trkpt lat="47.05184" lon="5.42156">
        <ele>249.259</ele>
        <time>2020-02-15T16:12:21Z</time>
      </trkpt>
      <trkpt lat="47.05187" lon="5.42156">
        <ele>249.225</ele>
        <time>2020-02-15T16:12:23Z</time>
      </trkpt>
      <trkpt lat="47.05192" lon="5.42155">
        <ele>249.071</ele>
        <time>2020-02-15T16:12:25Z</time>
      </trkpt>
      <trkpt lat="47.05196" lon="5.42154">
        <ele>248.734</ele>
        <time>2020-02-15T16:12:27Z</time>
      </trkpt>
      <trkpt lat="47.052" lon="5.42154">
        <ele>248.511</ele>
        <time>2020-02-15T16:12:29Z</time>
      </trkpt>
      <trkpt lat="47.05205" lon="5.42157">
        <ele>247.764</ele>
        <time>2020-02-15T16:12:32Z</time>
      </trkpt>
      <trkpt lat="47.05207" lon="5.42158">
        <ele>247.219</ele>
        <time>2020-02-15T16:12:34Z</time>
      </trkpt>
      <trkpt lat="47.05211" lon="5.42163">
        <ele>247.434</ele>
        <time>2020-02-15T16:12:39Z</time>
      </trkpt>
      <trkpt lat="47.05216" lon="5.4216">
        <ele>246.97</ele>
        <time>2020-02-15T16:12:47Z</time>
      </trkpt>
      <trkpt lat="47.05218" lon="5.42153">
        <ele>247.598</ele>
        <time>2020-02-15T16:12:52Z</time>
      </trkpt>
      <trkpt lat="47.05223" lon="5.4215">
        <ele>249.425</ele>
        <time>2020-02-15T16:12:58Z</time>
      </trkpt>
      <trkpt lat="47.05231" lon="5.42147">
        <ele>248.195</ele>
        <time>2020-02-15T16:13:03Z</time>
      </trkpt>
      <trkpt lat="47.05236" lon="5.42148">
        <ele>248.153</ele>
        <time>2020-02-15T16:13:06Z</time>
      </trkpt>
      <trkpt lat="47.05242" lon="5.42152">
        <ele>248.216</ele>
        <time>2020-02-15T16:13:10Z</time>
      </trkpt>
      <trkpt lat="47.05247" lon="5.42153">
        <ele>247.607</ele>
        <time>2020-02-15T16:13:14Z</time>
      </trkpt>
      <trkpt lat="47.05251" lon="5.42155">
        <ele>248.073</ele>
        <time>2020-02-15T16:13:17Z</time>
      </trkpt>
      <trkpt lat="47.05257" lon="5.42156">
        <ele>248.423</ele>
        <time>2020-02-15T16:13:20Z</time>
      </trkpt>
      <trkpt lat="47.05262" lon="5.42156">
        <ele>248.474</ele>
        <time>2020-02-15T16:13:23Z</time>
      </trkpt>
      <trkpt lat="47.05267" lon="5.4216">
        <ele>250.935</ele>
        <time>2020-02-15T16:13:29Z</time>
      </trkpt>
      <trkpt lat="47.05273" lon="5.42158">
        <ele>251.859</ele>
        <time>2020-02-15T16:13:32Z</time>
      </trkpt>
      <trkpt lat="47.05279" lon="5.42156">
        <ele>253.254</ele>
        <time>2020-02-15T16:13:35Z</time>
      </trkpt>
      <trkpt lat="47.05285" lon="5.42154">
        <ele>255.394</ele>
        <time>2020-02-15T16:13:39Z</time>
      </trkpt>
      <trkpt lat="47.0529" lon="5.42154">
        <ele>257.289</ele>
        <time>2020-02-15T16:13:42Z</time>
      </trkpt>
      <trkpt lat="47.05295" lon="5.42155">
        <ele>259.538</ele>
        <time>2020-02-15T16:13:46Z</time>
      </trkpt>
      <trkpt lat="47.053" lon="5.42155">
        <ele>260.39</ele>
        <time>2020-02-15T16:13:48Z</time>
      </trkpt>
      <trkpt lat="47.05307" lon="5.42156">
        <ele>261.374</ele>
        <time>2020-02-15T16:13:51Z</time>
      </trkpt>
      <trkpt lat="47.05313" lon="5.42154">
        <ele>261.868</ele>
        <time>2020-02-15T16:13:56Z</time>
      </trkpt>
      <trkpt lat="47.05317" lon="5.42153">
        <ele>261.363</ele>
        <time>2020-02-15T16:13:59Z</time>
      </trkpt>
      <trkpt lat="47.05325" lon="5.42154">
        <ele>261.932</ele>
        <time>2020-02-15T16:14:03Z</time>
      </trkpt>
      <trkpt lat="47.05331" lon="5.42156">
        <ele>262.122</ele>
        <time>2020-02-15T16:14:06Z</time>
      </trkpt>
      <trkpt lat="47.05337" lon="5.42158">
        <ele>262.375</ele>
        <time>2020-02-15T16:14:09Z</time>
      </trkpt>
      <trkpt lat="47.05342" lon="5.42157">
        <ele>262.344</ele>
        <time>2020-02-15T16:14:12Z</time>
      </trkpt>
      <trkpt lat="47.05351" lon="5.42159">
        <ele>259.708</ele>
        <time>2020-02-15T16:14:20Z</time>
      </trkpt>
      <trkpt lat="47.05358" lon="5.42161">
        <ele>259.937</ele>
        <time>2020-02-15T16:14:23Z</time>
      </trkpt>
      <trkpt lat="47.05363" lon="5.42164">
        <ele>260.845</ele>
        <time>2020-02-15T16:14:28Z</time>
      </trkpt>
      <trkpt lat="47.05367" lon="5.42165">
        <ele>261.352</ele>
        <time>2020-02-15T16:14:30Z</time>
      </trkpt>
      <trkpt lat="47.05372" lon="5.4217">
        <ele>260.996</ele>
        <time>2020-02-15T16:14:35Z</time>
      </trkpt>
      <trkpt lat="47.05377" lon="5.42171">
        <ele>260.451</ele>
        <time>2020-02-15T16:14:39Z</time>
      </trkpt>
      <trkpt lat="47.0538" lon="5.42172">
        <ele>260.149</ele>
        <time>2020-02-15T16:14:41Z</time>
      </trkpt>
      <trkpt lat="47.0539" lon="5.42172">
        <ele>258.816</ele>
        <time>2020-02-15T16:14:46Z</time>
      </trkpt>
      <trkpt lat="47.05394" lon="5.42177">
        <ele>258.077</ele>
        <time>2020-02-15T16:14:49Z</time>
      </trkpt>
      <trkpt lat="47.05391" lon="5.42188">
        <ele>256.619</ele>
        <time>2020-02-15T16:14:55Z</time>
      </trkpt>
      <trkpt lat="47.05389" lon="5.42194">
        <ele>254.456</ele>
        <time>2020-02-15T16:14:59Z</time>
      </trkpt>
      <trkpt lat="47.05386" lon="5.422">
        <ele>252.052</ele>
        <time>2020-02-15T16:15:02Z</time>
      </trkpt>
      <trkpt lat="47.05383" lon="5.42208">
        <ele>250.99</ele>
        <time>2020-02-15T16:15:07Z</time>
      </trkpt>
      <trkpt lat="47.05383" lon="5.42217">
        <ele>251.29</ele>
        <time>2020-02-15T16:15:10Z</time>
      </trkpt>
      <trkpt lat="47.05382" lon="5.42228">
        <ele>251.101</ele>
        <time>2020-02-15T16:15:14Z</time>
      </trkpt>
      <trkpt lat="47.05382" lon="5.42236">
        <ele>252.578</ele>
        <time>2020-02-15T16:15:17Z</time>
      </trkpt>
      <trkpt lat="47.05377" lon="5.42245">
        <ele>252.256</ele>
        <time>2020-02-15T16:15:21Z</time>
      </trkpt>
      <trkpt lat="47.0538" lon="5.42252">
        <ele>251.657</ele>
        <time>2020-02-15T16:15:26Z</time>
      </trkpt>
      <trkpt lat="47.05384" lon="5.42256">
        <ele>251.938</ele>
        <time>2020-02-15T16:15:30Z</time>
      </trkpt>
      <trkpt lat="47.05388" lon="5.42259">
        <ele>251.919</ele>
        <time>2020-02-15T16:15:33Z</time>
      </trkpt>
      <trkpt lat="47.05393" lon="5.42265">
        <ele>252.448</ele>
        <time>2020-02-15T16:15:37Z</time>
      </trkpt>
      <trkpt lat="47.05398" lon="5.42269">
        <ele>253.217</ele>
        <time>2020-02-15T16:15:40Z</time>
      </trkpt>
      <trkpt lat="47.05401" lon="5.42272">
        <ele>253.164</ele>
        <time>2020-02-15T16:15:42Z</time>
      </trkpt>
      <trkpt lat="47.05403" lon="5.42274">
        <ele>252.911</ele>
        <time>2020-02-15T16:15:44Z</time>
      </trkpt>
      <trkpt lat="47.05406" lon="5.42277">
        <ele>252.885</ele>
        <time>2020-02-15T16:15:46Z</time>
      </trkpt>
      <trkpt lat="47.05411" lon="5.42281">
        <ele>253.157</ele>
        <time>2020-02-15T16:15:50Z</time>
      </trkpt>
      <trkpt lat="47.05417" lon="5.42287">
        <ele>251.467</ele>
        <time>2020-02-15T16:15:55Z</time>
      </trkpt>
      <trkpt lat="47.05419" lon="5.4229">
        <ele>249.995</ele>
        <time>2020-02-15T16:15:57Z</time>
      </trkpt>
      <trkpt lat="47.05422" lon="5.42296">
        <ele>248.841</ele>
        <time>2020-02-15T16:16:00Z</time>
      </trkpt>
      <trkpt lat="47.05425" lon="5.42302">
        <ele>247.724</ele>
        <time>2020-02-15T16:16:04Z</time>
      </trkpt>
      <trkpt lat="47.05428" lon="5.42307">
        <ele>246.285</ele>
        <time>2020-02-15T16:16:08Z</time>
      </trkpt>
      <trkpt lat="47.0543" lon="5.42311">
        <ele>246.055</ele>
        <time>2020-02-15T16:16:10Z</time>
      </trkpt>
      <trkpt lat="47.05435" lon="5.42315">
        <ele>245.343</ele>
        <time>2020-02-15T16:16:13Z</time>
      </trkpt>
      <trkpt lat="47.05439" lon="5.42318">
        <ele>245.06</ele>
        <time>2020-02-15T16:16:15Z</time>
      </trkpt>
      <trkpt lat="47.05443" lon="5.42324">
        <ele>245.243</ele>
        <time>2020-02-15T16:16:19Z</time>
      </trkpt>
      <trkpt lat="47.05445" lon="5.42328">
        <ele>245.183</ele>
        <time>2020-02-15T16:16:21Z</time>
      </trkpt>
      <trkpt lat="47.05446" lon="5.42332">
        <ele>245.609</ele>
        <time>2020-02-15T16:16:23Z</time>
      </trkpt>
      <trkpt lat="47.05451" lon="5.42339">
        <ele>246.306</ele>
        <time>2020-02-15T16:16:27Z</time>
      </trkpt>
      <trkpt lat="47.05454" lon="5.42344">
        <ele>246.159</ele>
        <time>2020-02-15T16:16:31Z</time>
      </trkpt>
      <trkpt lat="47.05458" lon="5.42351">
        <ele>246.284</ele>
        <time>2020-02-15T16:16:35Z</time>
      </trkpt>
      <trkpt lat="47.05459" lon="5.4236">
        <ele>246.219</ele>
        <time>2020-02-15T16:16:39Z</time>
      </trkpt>
      <trkpt lat="47.05462" lon="5.42366">
        <ele>246.285</ele>
        <time>2020-02-15T16:16:44Z</time>
      </trkpt>
      <trkpt lat="47.05466" lon="5.42373">
        <ele>249.61</ele>
        <time>2020-02-15T16:16:49Z</time>
      </trkpt>
      <trkpt lat="47.0547" lon="5.42377">
        <ele>251.248</ele>
        <time>2020-02-15T16:16:52Z</time>
      </trkpt>
      <trkpt lat="47.05475" lon="5.42382">
        <ele>253.097</ele>
        <time>2020-02-15T16:16:57Z</time>
      </trkpt>
      <trkpt lat="47.05478" lon="5.42388">
        <ele>252.894</ele>
        <time>2020-02-15T16:17:01Z</time>
      </trkpt>
      <trkpt lat="47.05479" lon="5.42392">
        <ele>252.775</ele>
        <time>2020-02-15T16:17:03Z</time>
      </trkpt>
      <trkpt lat="47.05486" lon="5.42399">
        <ele>253.025</ele>
        <time>2020-02-15T16:17:07Z</time>
      </trkpt>
      <trkpt lat="47.05488" lon="5.42408">
        <ele>253.658</ele>
        <time>2020-02-15T16:17:11Z</time>
      </trkpt>
      <trkpt lat="47.05489" lon="5.42414">
        <ele>253.731</ele>
        <time>2020-02-15T16:17:14Z</time>
      </trkpt>
      <trkpt lat="47.05494" lon="5.42421">
        <ele>253.358</ele>
        <time>2020-02-15T16:17:19Z</time>
      </trkpt>
      <trkpt lat="47.05495" lon="5.42424">
        <ele>253.352</ele>
        <time>2020-02-15T16:17:21Z</time>
      </trkpt>
      <trkpt lat="47.05498" lon="5.42427">
        <ele>253.32</ele>
        <time>2020-02-15T16:17:23Z</time>
      </trkpt>
      <trkpt lat="47.05501" lon="5.42433">
        <ele>253.569</ele>
        <time>2020-02-15T16:17:26Z</time>
      </trkpt>
      <trkpt lat="47.05504" lon="5.42438">
        <ele>253.403</ele>
        <time>2020-02-15T16:17:29Z</time>
      </trkpt>
      <trkpt lat="47.05507" lon="5.42443">
        <ele>253.047</ele>
        <time>2020-02-15T16:17:32Z</time>
      </trkpt>
      <trkpt lat="47.05512" lon="5.42451">
        <ele>253.697</ele>
        <time>2020-02-15T16:17:36Z</time>
      </trkpt>
      <trkpt lat="47.05514" lon="5.42455">
        <ele>254.13</ele>
        <time>2020-02-15T16:17:38Z</time>
      </trkpt>
      <trkpt lat="47.05517" lon="5.4246">
        <ele>253.897</ele>
        <time>2020-02-15T16:17:41Z</time>
      </trkpt>
      <trkpt lat="47.05521" lon="5.42464">
        <ele>252.716</ele>
        <time>2020-02-15T16:17:45Z</time>
      </trkpt>
      <trkpt lat="47.05524" lon="5.42467">
        <ele>251.556</ele>
        <time>2020-02-15T16:17:48Z</time>
      </trkpt>
      <trkpt lat="47.05525" lon="5.42473">
        <ele>247.6</ele>
        <time>2020-02-15T16:17:53Z</time>
      </trkpt>
      <trkpt lat="47.05526" lon="5.4248">
        <ele>244.219</ele>
        <time>2020-02-15T16:17:57Z</time>
      </trkpt>
      <trkpt lat="47.05526" lon="5.42487">
        <ele>240.783</ele>
        <time>2020-02-15T16:18:01Z</time>
      </trkpt>
      <trkpt lat="47.05528" lon="5.42498">
        <ele>239.321</ele>
        <time>2020-02-15T16:18:06Z</time>
      </trkpt>
      <trkpt lat="47.0553" lon="5.42505">
        <ele>239.227</ele>
        <time>2020-02-15T16:18:09Z</time>
      </trkpt>
      <trkpt lat="47.05531" lon="5.4251">
        <ele>238.898</ele>
        <time>2020-02-15T16:18:11Z</time>
      </trkpt>
      <trkpt lat="47.05532" lon="5.42514">
        <ele>238.522</ele>
        <time>2020-02-15T16:18:14Z</time>
      </trkpt>
      <trkpt lat="47.05532" lon="5.42521">
        <ele>239.111</ele>
        <time>2020-02-15T16:18:18Z</time>
      </trkpt>
      <trkpt lat="47.05534" lon="5.4253">
        <ele>238.614</ele>
        <time>2020-02-15T16:18:23Z</time>
      </trkpt>
      <trkpt lat="47.05534" lon="5.42537">
        <ele>237.337</ele>
        <time>2020-02-15T16:18:30Z</time>
      </trkpt>
      <trkpt lat="47.05538" lon="5.42544">
        <ele>238.098</ele>
        <time>2020-02-15T16:18:34Z</time>
      </trkpt>
      <trkpt lat="47.05541" lon="5.4255">
        <ele>239.266</ele>
        <time>2020-02-15T16:18:37Z</time>
      </trkpt>
      <trkpt lat="47.05543" lon="5.42553">
        <ele>240.399</ele>
        <time>2020-02-15T16:18:39Z</time>
      </trkpt>
      <trkpt lat="47.05546" lon="5.42558">
        <ele>241.971</ele>
        <time>2020-02-15T16:18:41Z</time>
      </trkpt>
      <trkpt lat="47.05552" lon="5.42562">
        <ele>242.393</ele>
        <time>2020-02-15T16:18:44Z</time>
      </trkpt>
      <trkpt lat="47.05554" lon="5.42564">
        <ele>242.423</ele>
        <time>2020-02-15T16:18:45Z</time>
      </trkpt>
      <trkpt lat="47.05559" lon="5.42567">
        <ele>242.301</ele>
        <time>2020-02-15T16:18:48Z</time>
      </trkpt>
      <trkpt lat="47.05565" lon="5.42571">
        <ele>246.013</ele>
        <time>2020-02-15T16:18:51Z</time>
      </trkpt>
      <trkpt lat="47.05569" lon="5.42579">
        <ele>249.904</ele>
        <time>2020-02-15T16:18:55Z</time>
      </trkpt>
      <trkpt lat="47.05572" lon="5.42586">
        <ele>251.317</ele>
        <time>2020-02-15T16:18:59Z</time>
      </trkpt>
      <trkpt lat="47.05574" lon="5.42595">
        <ele>250.789</ele>
        <time>2020-02-15T16:19:03Z</time>
      </trkpt>
      <trkpt lat="47.0558" lon="5.426">
        <ele>250.421</ele>
        <time>2020-02-15T16:19:09Z</time>
      </trkpt>
      <trkpt lat="47.05583" lon="5.42608">
        <ele>251.016</ele>
        <time>2020-02-15T16:19:15Z</time>
      </trkpt>
      <trkpt lat="47.05586" lon="5.42617">
        <ele>251.662</ele>
        <time>2020-02-15T16:19:19Z</time>
      </trkpt>
      <trkpt lat="47.05588" lon="5.42624">
        <ele>251.818</ele>
        <time>2020-02-15T16:19:23Z</time>
      </trkpt>
      <trkpt lat="47.0559" lon="5.42632">
        <ele>251.825</ele>
        <time>2020-02-15T16:19:28Z</time>
      </trkpt>
      <trkpt lat="47.0559" lon="5.4264">
        <ele>251.843</ele>
        <time>2020-02-15T16:19:32Z</time>
      </trkpt>
      <trkpt lat="47.05594" lon="5.42645">
        <ele>251.441</ele>
        <time>2020-02-15T16:19:35Z</time>
      </trkpt>
      <trkpt lat="47.05597" lon="5.42649">
        <ele>251.236</ele>
        <time>2020-02-15T16:19:38Z</time>
      </trkpt>
      <trkpt lat="47.05598" lon="5.42656">
        <ele>250.151</ele>
        <time>2020-02-15T16:19:43Z</time>
      </trkpt>
      <trkpt lat="47.05601" lon="5.42662">
        <ele>249.143</ele>
        <time>2020-02-15T16:19:47Z</time>
      </trkpt>
      <trkpt lat="47.05606" lon="5.4267">
        <ele>248.001</ele>
        <time>2020-02-15T16:19:51Z</time>
      </trkpt>
      <trkpt lat="47.05612" lon="5.42675">
        <ele>246.218</ele>
        <time>2020-02-15T16:19:55Z</time>
      </trkpt>
      <trkpt lat="47.05619" lon="5.42679">
        <ele>245.365</ele>
        <time>2020-02-15T16:19:58Z</time>
      </trkpt>
      <trkpt lat="47.05624" lon="5.42681">
        <ele>245.54</ele>
        <time>2020-02-15T16:20:02Z</time>
      </trkpt>
      <trkpt lat="47.05632" lon="5.42685">
        <ele>246.194</ele>
        <time>2020-02-15T16:20:05Z</time>
      </trkpt>
      <trkpt lat="47.05638" lon="5.42687">
        <ele>247.241</ele>
        <time>2020-02-15T16:20:08Z</time>
      </trkpt>
      <trkpt lat="47.05642" lon="5.42691">
        <ele>248.37</ele>
        <time>2020-02-15T16:20:11Z</time>
      </trkpt>
      <trkpt lat="47.05646" lon="5.42693">
        <ele>249.522</ele>
        <time>2020-02-15T16:20:13Z</time>
      </trkpt>
      <trkpt lat="47.05651" lon="5.42695">
        <ele>250.534</ele>
        <time>2020-02-15T16:20:16Z</time>
      </trkpt>
      <trkpt lat="47.05656" lon="5.42696">
        <ele>251.277</ele>
        <time>2020-02-15T16:20:19Z</time>
      </trkpt>
      <trkpt lat="47.05663" lon="5.42693">
        <ele>252.277</ele>
        <time>2020-02-15T16:20:24Z</time>
      </trkpt>
      <trkpt lat="47.05667" lon="5.42692">
        <ele>252.816</ele>
        <time>2020-02-15T16:20:29Z</time>
      </trkpt>
      <trkpt lat="47.05671" lon="5.42688">
        <ele>252.444</ele>
        <time>2020-02-15T16:20:33Z</time>
      </trkpt>
      <trkpt lat="47.05677" lon="5.42685">
        <ele>252.714</ele>
        <time>2020-02-15T16:20:36Z</time>
      </trkpt>
      <trkpt lat="47.05682" lon="5.42684">
        <ele>253.37</ele>
        <time>2020-02-15T16:20:38Z</time>
      </trkpt>
      <trkpt lat="47.05688" lon="5.42685">
        <ele>253.93</ele>
        <time>2020-02-15T16:20:41Z</time>
      </trkpt>
      <trkpt lat="47.05693" lon="5.42685">
        <ele>254.055</ele>
        <time>2020-02-15T16:20:44Z</time>
      </trkpt>
      <trkpt lat="47.05698" lon="5.42682">
        <ele>254.393</ele>
        <time>2020-02-15T16:20:48Z</time>
      </trkpt>
      <trkpt lat="47.05705" lon="5.42681">
        <ele>255.761</ele>
        <time>2020-02-15T16:20:54Z</time>
      </trkpt>
      <trkpt lat="47.05709" lon="5.42676">
        <ele>256.901</ele>
        <time>2020-02-15T16:20:59Z</time>
      </trkpt>
      <trkpt lat="47.05716" lon="5.42672">
        <ele>258.297</ele>
        <time>2020-02-15T16:21:02Z</time>
      </trkpt>
      <trkpt lat="47.05721" lon="5.42668">
        <ele>259.461</ele>
        <time>2020-02-15T16:21:05Z</time>
      </trkpt>
      <trkpt lat="47.05726" lon="5.42665">
        <ele>260.989</ele>
        <time>2020-02-15T16:21:08Z</time>
      </trkpt>
      <trkpt lat="47.0573" lon="5.42662">
        <ele>262.537</ele>
        <time>2020-02-15T16:21:11Z</time>
      </trkpt>
      <trkpt lat="47.05732" lon="5.4266">
        <ele>263.175</ele>
        <time>2020-02-15T16:21:13Z</time>
      </trkpt>
      <trkpt lat="47.05737" lon="5.42659">
        <ele>263.866</ele>
        <time>2020-02-15T16:21:16Z</time>
      </trkpt>
      <trkpt lat="47.05742" lon="5.42657">
        <ele>264.201</ele>
        <time>2020-02-15T16:21:20Z</time>
      </trkpt>
      <trkpt lat="47.05748" lon="5.42655">
        <ele>262.141</ele>
        <time>2020-02-15T16:21:25Z</time>
      </trkpt>
      <trkpt lat="47.05753" lon="5.42652">
        <ele>260.366</ele>
        <time>2020-02-15T16:21:28Z</time>
      </trkpt>
      <trkpt lat="47.05757" lon="5.42654">
        <ele>260.272</ele>
        <time>2020-02-15T16:21:32Z</time>
      </trkpt>
      <trkpt lat="47.05765" lon="5.42652">
        <ele>261.871</ele>
        <time>2020-02-15T16:21:37Z</time>
      </trkpt>
      <trkpt lat="47.05769" lon="5.42651">
        <ele>262.91</ele>
        <time>2020-02-15T16:21:41Z</time>
      </trkpt>
      <trkpt lat="47.05772" lon="5.4265">
        <ele>262.755</ele>
        <time>2020-02-15T16:21:43Z</time>
      </trkpt>
      <trkpt lat="47.05777" lon="5.42651">
        <ele>262.538</ele>
        <time>2020-02-15T16:21:46Z</time>
      </trkpt>
      <trkpt lat="47.05782" lon="5.42655">
        <ele>261.373</ele>
        <time>2020-02-15T16:21:52Z</time>
      </trkpt>
      <trkpt lat="47.05788" lon="5.42654">
        <ele>261.546</ele>
        <time>2020-02-15T16:21:56Z</time>
      </trkpt>
      <trkpt lat="47.05793" lon="5.42652">
        <ele>262.288</ele>
        <time>2020-02-15T16:22:00Z</time>
      </trkpt>
      <trkpt lat="47.05796" lon="5.4265">
        <ele>262.543</ele>
        <time>2020-02-15T16:22:02Z</time>
      </trkpt>
      <trkpt lat="47.05801" lon="5.42649">
        <ele>261.854</ele>
        <time>2020-02-15T16:22:06Z</time>
      </trkpt>
      <trkpt lat="47.05806" lon="5.4265">
        <ele>261.022</ele>
        <time>2020-02-15T16:22:10Z</time>
      </trkpt>
      <trkpt lat="47.05809" lon="5.42651">
        <ele>260.437</ele>
        <time>2020-02-15T16:22:13Z</time>
      </trkpt>
      <trkpt lat="47.05814" lon="5.42652">
        <ele>260.176</ele>
        <time>2020-02-15T16:22:16Z</time>
      </trkpt>
      <trkpt lat="47.0582" lon="5.42654">
        <ele>259.577</ele>
        <time>2020-02-15T16:22:20Z</time>
      </trkpt>
      <trkpt lat="47.05823" lon="5.42655">
        <ele>258.803</ele>
        <time>2020-02-15T16:22:22Z</time>
      </trkpt>
      <trkpt lat="47.05825" lon="5.42655">
        <ele>258.283</ele>
        <time>2020-02-15T16:22:24Z</time>
      </trkpt>
      <trkpt lat="47.05827" lon="5.42656">
        <ele>257.708</ele>
        <time>2020-02-15T16:22:26Z</time>
      </trkpt>
      <trkpt lat="47.05833" lon="5.42654">
        <ele>255.93</ele>
        <time>2020-02-15T16:22:30Z</time>
      </trkpt>
      <trkpt lat="47.05838" lon="5.42653">
        <ele>254.949</ele>
        <time>2020-02-15T16:22:33Z</time>
      </trkpt>
      <trkpt lat="47.05843" lon="5.42653">
        <ele>255.212</ele>
        <time>2020-02-15T16:22:36Z</time>
      </trkpt>
      <trkpt lat="47.0585" lon="5.42652">
        <ele>257.161</ele>
        <time>2020-02-15T16:22:40Z</time>
      </trkpt>
      <trkpt lat="47.05857" lon="5.42653">
        <ele>257.849</ele>
        <time>2020-02-15T16:22:44Z</time>
      </trkpt>
      <trkpt lat="47.05864" lon="5.42653">
        <ele>258.036</ele>
        <time>2020-02-15T16:22:48Z</time>
      </trkpt>
      <trkpt lat="47.05869" lon="5.42653">
        <ele>259.193</ele>
        <time>2020-02-15T16:22:51Z</time>
      </trkpt>
      <trkpt lat="47.05876" lon="5.42652">
        <ele>259.508</ele>
        <time>2020-02-15T16:22:55Z</time>
      </trkpt>
      <trkpt lat="47.05882" lon="5.42656">
        <ele>258.869</ele>
        <time>2020-02-15T16:23:02Z</time>
      </trkpt>
      <trkpt lat="47.05889" lon="5.42656">
        <ele>258.208</ele>
        <time>2020-02-15T16:23:07Z</time>
      </trkpt>
      <trkpt lat="47.05894" lon="5.42658">
        <ele>257.795</ele>
        <time>2020-02-15T16:23:10Z</time>
      </trkpt>
      <trkpt lat="47.05899" lon="5.42658">
        <ele>257.213</ele>
        <time>2020-02-15T16:23:13Z</time>
      </trkpt>
      <trkpt lat="47.05906" lon="5.42662">
        <ele>255.6</ele>
        <time>2020-02-15T16:23:17Z</time>
      </trkpt>
      <trkpt lat="47.0591" lon="5.42664">
        <ele>252.619</ele>
        <time>2020-02-15T16:23:23Z</time>
      </trkpt>
      <trkpt lat="47.05917" lon="5.4267">
        <ele>251.991</ele>
        <time>2020-02-15T16:23:28Z</time>
      </trkpt>
      <trkpt lat="47.05923" lon="5.42671">
        <ele>252.361</ele>
        <time>2020-02-15T16:23:31Z</time>
      </trkpt>
      <trkpt lat="47.05929" lon="5.42673">
        <ele>254.567</ele>
        <time>2020-02-15T16:23:44Z</time>
      </trkpt>
      <trkpt lat="47.05937" lon="5.42674">
        <ele>255.824</ele>
        <time>2020-02-15T16:23:47Z</time>
      </trkpt>
      <trkpt lat="47.05943" lon="5.42674">
        <ele>255.953</ele>
        <time>2020-02-15T16:23:50Z</time>
      </trkpt>
      <trkpt lat="47.05949" lon="5.42676">
        <ele>255.983</ele>
        <time>2020-02-15T16:23:54Z</time>
      </trkpt>
      <trkpt lat="47.05953" lon="5.42676">
        <ele>256.403</ele>
        <time>2020-02-15T16:23:57Z</time>
      </trkpt>
      <trkpt lat="47.05956" lon="5.42676">
        <ele>256.509</ele>
        <time>2020-02-15T16:24:00Z</time>
      </trkpt>
      <trkpt lat="47.05959" lon="5.42676">
        <ele>256.06</ele>
        <time>2020-02-15T16:24:01Z</time>
      </trkpt>
      <trkpt lat="47.05965" lon="5.42674">
        <ele>255.576</ele>
        <time>2020-02-15T16:24:05Z</time>
      </trkpt>
      <trkpt lat="47.0597" lon="5.42676">
        <ele>253.379</ele>
        <time>2020-02-15T16:24:09Z</time>
      </trkpt>
      <trkpt lat="47.05973" lon="5.42685">
        <ele>255.21</ele>
        <time>2020-02-15T16:24:16Z</time>
      </trkpt>
      <trkpt lat="47.05974" lon="5.42692">
        <ele>256.222</ele>
        <time>2020-02-15T16:24:20Z</time>
      </trkpt>
      <trkpt lat="47.05972" lon="5.42699">
        <ele>256.878</ele>
        <time>2020-02-15T16:24:23Z</time>
      </trkpt>
      <trkpt lat="47.05972" lon="5.42705">
        <ele>257.428</ele>
        <time>2020-02-15T16:24:25Z</time>
      </trkpt>
      <trkpt lat="47.0597" lon="5.42712">
        <ele>257.461</ele>
        <time>2020-02-15T16:24:28Z</time>
      </trkpt>
      <trkpt lat="47.05971" lon="5.42719">
        <ele>257.54</ele>
        <time>2020-02-15T16:24:31Z</time>
      </trkpt>
      <trkpt lat="47.05971" lon="5.42728">
        <ele>258.348</ele>
        <time>2020-02-15T16:24:35Z</time>
      </trkpt>
      <trkpt lat="47.05971" lon="5.42732">
        <ele>258.712</ele>
        <time>2020-02-15T16:24:37Z</time>
      </trkpt>
      <trkpt lat="47.0597" lon="5.42738">
        <ele>259.556</ele>
        <time>2020-02-15T16:24:39Z</time>
      </trkpt>
      <trkpt lat="47.05972" lon="5.42745">
        <ele>262.205</ele>
        <time>2020-02-15T16:24:44Z</time>
      </trkpt>
      <trkpt lat="47.05972" lon="5.42755">
        <ele>264.124</ele>
        <time>2020-02-15T16:24:47Z</time>
      </trkpt>
      <trkpt lat="47.05974" lon="5.42761">
        <ele>265.629</ele>
        <time>2020-02-15T16:24:50Z</time>
      </trkpt>
      <trkpt lat="47.05973" lon="5.4277">
        <ele>264.622</ele>
        <time>2020-02-15T16:24:55Z</time>
      </trkpt>
      <trkpt lat="47.05974" lon="5.42779">
        <ele>262.918</ele>
        <time>2020-02-15T16:25:00Z</time>
      </trkpt>
      <trkpt lat="47.05974" lon="5.42786">
        <ele>262.204</ele>
        <time>2020-02-15T16:25:04Z</time>
      </trkpt>
      <trkpt lat="47.05973" lon="5.42791">
        <ele>261.625</ele>
        <time>2020-02-15T16:25:07Z</time>
      </trkpt>
      <trkpt lat="47.0597" lon="5.42797">
        <ele>261.541</ele>
        <time>2020-02-15T16:25:10Z</time>
      </trkpt>
      <trkpt lat="47.0597" lon="5.42807">
        <ele>261.297</ele>
        <time>2020-02-15T16:25:14Z</time>
      </trkpt>
      <trkpt lat="47.05969" lon="5.42814">
        <ele>260.66</ele>
        <time>2020-02-15T16:25:17Z</time>
      </trkpt>
      <trkpt lat="47.05966" lon="5.42821">
        <ele>258.131</ele>
        <time>2020-02-15T16:25:21Z</time>
      </trkpt>
      <trkpt lat="47.05965" lon="5.42828">
        <ele>255.958</ele>
        <time>2020-02-15T16:25:26Z</time>
      </trkpt>
      <trkpt lat="47.05966" lon="5.42834">
        <ele>253.676</ele>
        <time>2020-02-15T16:25:30Z</time>
      </trkpt>
      <trkpt lat="47.05967" lon="5.42841">
        <ele>253.059</ele>
        <time>2020-02-15T16:25:33Z</time>
      </trkpt>
      <trkpt lat="47.05973" lon="5.4285">
        <ele>251.982</ele>
        <time>2020-02-15T16:25:37Z</time>
      </trkpt>
      <trkpt lat="47.05974" lon="5.42859">
        <ele>250.488</ele>
        <time>2020-02-15T16:25:40Z</time>
      </trkpt>
      <trkpt lat="47.05972" lon="5.42865">
        <ele>248.858</ele>
        <time>2020-02-15T16:25:44Z</time>
      </trkpt>
      <trkpt lat="47.05974" lon="5.42876">
        <ele>249.277</ele>
        <time>2020-02-15T16:25:47Z</time>
      </trkpt>
      <trkpt lat="47.05972" lon="5.42883">
        <ele>250.73</ele>
        <time>2020-02-15T16:25:49Z</time>
      </trkpt>
      <trkpt lat="47.05971" lon="5.42894">
        <ele>253.404</ele>
        <time>2020-02-15T16:25:53Z</time>
      </trkpt>
      <trkpt lat="47.05971" lon="5.42902">
        <ele>254.229</ele>
        <time>2020-02-15T16:25:57Z</time>
      </trkpt>
      <trkpt lat="47.05971" lon="5.42911">
        <ele>255.17</ele>
        <time>2020-02-15T16:26:02Z</time>
      </trkpt>
      <trkpt lat="47.0597" lon="5.42918">
        <ele>254.254</ele>
        <time>2020-02-15T16:26:05Z</time>
      </trkpt>
      <trkpt lat="47.05966" lon="5.42925">
        <ele>253.465</ele>
        <time>2020-02-15T16:26:09Z</time>
      </trkpt>
      <trkpt lat="47.05969" lon="5.42932">
        <ele>252.686</ele>
        <time>2020-02-15T16:26:11Z</time>
      </trkpt>
      <trkpt lat="47.05971" lon="5.42938">
        <ele>252.398</ele>
        <time>2020-02-15T16:26:13Z</time>
      </trkpt>
      <trkpt lat="47.05967" lon="5.42945">
        <ele>251.864</ele>
        <time>2020-02-15T16:26:19Z</time>
      </trkpt>
      <trkpt lat="47.05961" lon="5.42944">
        <ele>252.584</ele>
        <time>2020-02-15T16:26:23Z</time>
      </trkpt>
      <trkpt lat="47.05966" lon="5.42961">
        <ele>253.22</ele>
        <time>2020-02-15T16:26:28Z</time>
      </trkpt>
      <trkpt lat="47.05965" lon="5.4297">
        <ele>253.518</ele>
        <time>2020-02-15T16:26:30Z</time>
      </trkpt>
      <trkpt lat="47.05962" lon="5.42976">
        <ele>254.336</ele>
        <time>2020-02-15T16:26:32Z</time>
      </trkpt>
      <trkpt lat="47.05959" lon="5.42983">
        <ele>255.591</ele>
        <time>2020-02-15T16:26:36Z</time>
      </trkpt>
      <trkpt lat="47.05963" lon="5.4299">
        <ele>253.973</ele>
        <time>2020-02-15T16:26:41Z</time>
      </trkpt>
      <trkpt lat="47.05963" lon="5.42997">
        <ele>252.703</ele>
        <time>2020-02-15T16:26:44Z</time>
      </trkpt>
      <trkpt lat="47.05966" lon="5.43003">
        <ele>252.224</ele>
        <time>2020-02-15T16:26:48Z</time>
      </trkpt>
      <trkpt lat="47.05968" lon="5.43011">
        <ele>250.862</ele>
        <time>2020-02-15T16:26:53Z</time>
      </trkpt>
      <trkpt lat="47.05966" lon="5.43019">
        <ele>249.694</ele>
        <time>2020-02-15T16:27:00Z</time>
      </trkpt>
      <trkpt lat="47.0597" lon="5.43027">
        <ele>249.714</ele>
        <time>2020-02-15T16:27:07Z</time>
      </trkpt>
      <trkpt lat="47.05972" lon="5.43037">
        <ele>251.065</ele>
        <time>2020-02-15T16:27:11Z</time>
      </trkpt>
      <trkpt lat="47.05973" lon="5.43043">
        <ele>251.98</ele>
        <time>2020-02-15T16:27:14Z</time>
      </trkpt>
      <trkpt lat="47.05975" lon="5.43054">
        <ele>252.811</ele>
        <time>2020-02-15T16:27:18Z</time>
      </trkpt>
      <trkpt lat="47.05974" lon="5.43064">
        <ele>253.422</ele>
        <time>2020-02-15T16:27:22Z</time>
      </trkpt>
      <trkpt lat="47.05974" lon="5.43069">
        <ele>253.41</ele>
        <time>2020-02-15T16:27:24Z</time>
      </trkpt>
      <trkpt lat="47.05975" lon="5.4308">
        <ele>253.01</ele>
        <time>2020-02-15T16:27:28Z</time>
      </trkpt>
      <trkpt lat="47.05973" lon="5.43088">
        <ele>252.653</ele>
        <time>2020-02-15T16:27:32Z</time>
      </trkpt>
      <trkpt lat="47.05971" lon="5.43097">
        <ele>252.699</ele>
        <time>2020-02-15T16:27:36Z</time>
      </trkpt>
      <trkpt lat="47.05974" lon="5.43107">
        <ele>253.4</ele>
        <time>2020-02-15T16:27:41Z</time>
      </trkpt>
      <trkpt lat="47.05972" lon="5.43114">
        <ele>253.342</ele>
        <time>2020-02-15T16:27:45Z</time>
      </trkpt>
      <trkpt lat="47.05971" lon="5.43116">
        <ele>253.004</ele>
        <time>2020-02-15T16:27:47Z</time>
      </trkpt>
      <trkpt lat="47.05971" lon="5.43125">
        <ele>253.167</ele>
        <time>2020-02-15T16:27:52Z</time>
      </trkpt>
      <trkpt lat="47.05976" lon="5.43132">
        <ele>252.758</ele>
        <time>2020-02-15T16:27:56Z</time>
      </trkpt>
      <trkpt lat="47.05976" lon="5.43141">
        <ele>250.767</ele>
        <time>2020-02-15T16:28:01Z</time>
      </trkpt>
      <trkpt lat="47.05976" lon="5.43149">
        <ele>250.3</ele>
        <time>2020-02-15T16:28:04Z</time>
      </trkpt>
      <trkpt lat="47.05976" lon="5.43156">
        <ele>250.365</ele>
        <time>2020-02-15T16:28:07Z</time>
      </trkpt>
      <trkpt lat="47.05976" lon="5.43165">
        <ele>250.162</ele>
        <time>2020-02-15T16:28:10Z</time>
      </trkpt>
      <trkpt lat="47.05976" lon="5.43172">
        <ele>249.81</ele>
        <time>2020-02-15T16:28:12Z</time>
      </trkpt>
      <trkpt lat="47.05975" lon="5.4318">
        <ele>249.226</ele>
        <time>2020-02-15T16:28:15Z</time>
      </trkpt>
      <trkpt lat="47.05975" lon="5.4319">
        <ele>248.738</ele>
        <time>2020-02-15T16:28:19Z</time>
      </trkpt>
      <trkpt lat="47.05969" lon="5.43202">
        <ele>248.372</ele>
        <time>2020-02-15T16:28:23Z</time>
      </trkpt>
      <trkpt lat="47.05969" lon="5.4321">
        <ele>248.813</ele>
        <time>2020-02-15T16:28:28Z</time>
      </trkpt>
      <trkpt lat="47.05969" lon="5.43216">
        <ele>248.672</ele>
        <time>2020-02-15T16:28:33Z</time>
      </trkpt>
      <trkpt lat="47.05967" lon="5.43224">
        <ele>249.023</ele>
        <time>2020-02-15T16:28:38Z</time>
      </trkpt>
      <trkpt lat="47.05968" lon="5.4323">
        <ele>249.508</ele>
        <time>2020-02-15T16:28:41Z</time>
      </trkpt>
      <trkpt lat="47.0597" lon="5.43237">
        <ele>250.236</ele>
        <time>2020-02-15T16:28:45Z</time>
      </trkpt>
      <trkpt lat="47.05972" lon="5.43245">
        <ele>250.878</ele>
        <time>2020-02-15T16:28:48Z</time>
      </trkpt>
      <trkpt lat="47.0597" lon="5.43257">
        <ele>250.623</ele>
        <time>2020-02-15T16:28:53Z</time>
      </trkpt>
      <trkpt lat="47.05967" lon="5.43266">
        <ele>250.555</ele>
        <time>2020-02-15T16:28:57Z</time>
      </trkpt>
      <trkpt lat="47.05966" lon="5.4327">
        <ele>250.534</ele>
        <time>2020-02-15T16:28:58Z</time>
      </trkpt>
      <trkpt lat="47.05959" lon="5.43292">
        <ele>249.61</ele>
        <time>2020-02-15T16:29:05Z</time>
      </trkpt>
      <trkpt lat="47.05964" lon="5.43298">
        <ele>249.248</ele>
        <time>2020-02-15T16:29:07Z</time>
      </trkpt>
      <trkpt lat="47.05966" lon="5.43308">
        <ele>248.96</ele>
        <time>2020-02-15T16:29:11Z</time>
      </trkpt>
      <trkpt lat="47.0597" lon="5.43314">
        <ele>248.984</ele>
        <time>2020-02-15T16:29:14Z</time>
      </trkpt>
      <trkpt lat="47.05971" lon="5.43321">
        <ele>249.084</ele>
        <time>2020-02-15T16:29:19Z</time>
      </trkpt>
      <trkpt lat="47.05968" lon="5.43326">
        <ele>249.968</ele>
        <time>2020-02-15T16:29:24Z</time>
      </trkpt>
      <trkpt lat="47.05967" lon="5.43334">
        <ele>250.42</ele>
        <time>2020-02-15T16:29:28Z</time>
      </trkpt>
      <trkpt lat="47.0597" lon="5.4334">
        <ele>250.468</ele>
        <time>2020-02-15T16:29:31Z</time>
      </trkpt>
      <trkpt lat="47.05972" lon="5.43348">
        <ele>250.876</ele>
        <time>2020-02-15T16:29:34Z</time>
      </trkpt>
      <trkpt lat="47.05973" lon="5.43356">
        <ele>251.676</ele>
        <time>2020-02-15T16:29:37Z</time>
      </trkpt>
      <trkpt lat="47.0597" lon="5.43366">
        <ele>249.864</ele>
        <time>2020-02-15T16:29:42Z</time>
      </trkpt>
      <trkpt lat="47.05971" lon="5.43373">
        <ele>248.934</ele>
        <time>2020-02-15T16:29:45Z</time>
      </trkpt>
      <trkpt lat="47.05973" lon="5.4338">
        <ele>248.31</ele>
        <time>2020-02-15T16:29:48Z</time>
      </trkpt>
      <trkpt lat="47.05975" lon="5.43385">
        <ele>246.674</ele>
        <time>2020-02-15T16:29:51Z</time>
      </trkpt>
      <trkpt lat="47.05974" lon="5.43396">
        <ele>246.134</ele>
        <time>2020-02-15T16:29:55Z</time>
      </trkpt>
      <trkpt lat="47.05973" lon="5.43405">
        <ele>247.121</ele>
        <time>2020-02-15T16:29:59Z</time>
      </trkpt>
      <trkpt lat="47.05974" lon="5.43412">
        <ele>248.474</ele>
        <time>2020-02-15T16:30:02Z</time>
      </trkpt>
      <trkpt lat="47.05975" lon="5.4342">
        <ele>250.513</ele>
        <time>2020-02-15T16:30:06Z</time>
      </trkpt>
      <trkpt lat="47.05974" lon="5.43428">
        <ele>251.945</ele>
        <time>2020-02-15T16:30:11Z</time>
      </trkpt>
      <trkpt lat="47.05974" lon="5.43436">
        <ele>253.209</ele>
        <time>2020-02-15T16:30:16Z</time>
      </trkpt>
      <trkpt lat="47.05972" lon="5.43443">
        <ele>253.298</ele>
        <time>2020-02-15T16:30:19Z</time>
      </trkpt>
      <trkpt lat="47.05971" lon="5.4345">
        <ele>253.077</ele>
        <time>2020-02-15T16:30:21Z</time>
      </trkpt>
      <trkpt lat="47.0597" lon="5.43458">
        <ele>253.115</ele>
        <time>2020-02-15T16:30:24Z</time>
      </trkpt>
      <trkpt lat="47.05971" lon="5.43466">
        <ele>252.535</ele>
        <time>2020-02-15T16:30:27Z</time>
      </trkpt>
      <trkpt lat="47.05968" lon="5.43477">
        <ele>251.941</ele>
        <time>2020-02-15T16:30:31Z</time>
      </trkpt>
      <trkpt lat="47.05968" lon="5.43486">
        <ele>251.001</ele>
        <time>2020-02-15T16:30:35Z</time>
      </trkpt>
      <trkpt lat="47.05967" lon="5.43496">
        <ele>251.183</ele>
        <time>2020-02-15T16:30:40Z</time>
      </trkpt>
      <trkpt lat="47.05967" lon="5.43502">
        <ele>250.331</ele>
        <time>2020-02-15T16:30:45Z</time>
      </trkpt>
      <trkpt lat="47.05968" lon="5.43514">
        <ele>250.267</ele>
        <time>2020-02-15T16:30:50Z</time>
      </trkpt>
      <trkpt lat="47.05969" lon="5.43519">
        <ele>250.287</ele>
        <time>2020-02-15T16:30:52Z</time>
      </trkpt>
      <trkpt lat="47.0597" lon="5.43529">
        <ele>250.042</ele>
        <time>2020-02-15T16:30:56Z</time>
      </trkpt>
      <trkpt lat="47.0597" lon="5.43537">
        <ele>249.675</ele>
        <time>2020-02-15T16:30:59Z</time>
      </trkpt>
      <trkpt lat="47.0597" lon="5.43543">
        <ele>249.328</ele>
        <time>2020-02-15T16:31:01Z</time>
      </trkpt>
      <trkpt lat="47.05971" lon="5.43555">
        <ele>249.348</ele>
        <time>2020-02-15T16:31:05Z</time>
      </trkpt>
      <trkpt lat="47.0597" lon="5.43562">
        <ele>249.81</ele>
        <time>2020-02-15T16:31:09Z</time>
      </trkpt>
      <trkpt lat="47.0597" lon="5.4357">
        <ele>249.594</ele>
        <time>2020-02-15T16:31:12Z</time>
      </trkpt>
      <trkpt lat="47.0597" lon="5.43578">
        <ele>250.472</ele>
        <time>2020-02-15T16:31:16Z</time>
      </trkpt>
      <trkpt lat="47.05969" lon="5.43585">
        <ele>249.567</ele>
        <time>2020-02-15T16:31:21Z</time>
      </trkpt>
      <trkpt lat="47.05969" lon="5.43589">
        <ele>248.581</ele>
        <time>2020-02-15T16:31:23Z</time>
      </trkpt>
      <trkpt lat="47.05967" lon="5.43598">
        <ele>247.226</ele>
        <time>2020-02-15T16:31:28Z</time>
      </trkpt>
      <trkpt lat="47.05967" lon="5.43608">
        <ele>248.397</ele>
        <time>2020-02-15T16:31:33Z</time>
      </trkpt>
      <trkpt lat="47.05967" lon="5.43617">
        <ele>248.961</ele>
        <time>2020-02-15T16:31:38Z</time>
      </trkpt>
      <trkpt lat="47.05969" lon="5.43625">
        <ele>249.557</ele>
        <time>2020-02-15T16:31:42Z</time>
      </trkpt>
      <trkpt lat="47.05969" lon="5.43634">
        <ele>250.003</ele>
        <time>2020-02-15T16:31:47Z</time>
      </trkpt>
      <trkpt lat="47.05968" lon="5.43642">
        <ele>250.721</ele>
        <time>2020-02-15T16:31:50Z</time>
      </trkpt>
      <trkpt lat="47.05969" lon="5.43652">
        <ele>251.599</ele>
        <time>2020-02-15T16:31:55Z</time>
      </trkpt>
      <trkpt lat="47.05971" lon="5.43659">
        <ele>251.851</ele>
        <time>2020-02-15T16:31:58Z</time>
      </trkpt>
      <trkpt lat="47.0597" lon="5.43668">
        <ele>252.031</ele>
        <time>2020-02-15T16:32:02Z</time>
      </trkpt>
      <trkpt lat="47.05969" lon="5.43675">
        <ele>252.548</ele>
        <time>2020-02-15T16:32:05Z</time>
      </trkpt>
      <trkpt lat="47.05968" lon="5.43682">
        <ele>253.187</ele>
        <time>2020-02-15T16:32:08Z</time>
      </trkpt>
      <trkpt lat="47.05967" lon="5.43687">
        <ele>253.297</ele>
        <time>2020-02-15T16:32:10Z</time>
      </trkpt>
      <trkpt lat="47.05966" lon="5.43692">
        <ele>253.476</ele>
        <time>2020-02-15T16:32:12Z</time>
      </trkpt>
      <trkpt lat="47.05973" lon="5.43698">
        <ele>254.576</ele>
        <time>2020-02-15T16:32:17Z</time>
      </trkpt>
      <trkpt lat="47.05976" lon="5.43701">
        <ele>254.778</ele>
        <time>2020-02-15T16:32:19Z</time>
      </trkpt>
      <trkpt lat="47.05975" lon="5.43743">
        <ele>254.21</ele>
        <time>2020-02-15T16:32:36Z</time>
      </trkpt>
      <trkpt lat="47.05976" lon="5.43772">
        <ele>252.838</ele>
        <time>2020-02-15T16:32:39Z</time>
      </trkpt>
      <trkpt lat="47.05978" lon="5.43777">
        <ele>252.791</ele>
        <time>2020-02-15T16:32:43Z</time>
      </trkpt>
      <trkpt lat="47.05976" lon="5.43785">
        <ele>249.494</ele>
        <time>2020-02-15T16:32:50Z</time>
      </trkpt>
      <trkpt lat="47.05972" lon="5.4379">
        <ele>250.219</ele>
        <time>2020-02-15T16:32:52Z</time>
      </trkpt>
      <trkpt lat="47.05965" lon="5.43796">
        <ele>250.688</ele>
        <time>2020-02-15T16:32:55Z</time>
      </trkpt>
      <trkpt lat="47.05962" lon="5.43799">
        <ele>249.653</ele>
        <time>2020-02-15T16:32:58Z</time>
      </trkpt>
      <trkpt lat="47.05959" lon="5.43805">
        <ele>248.324</ele>
        <time>2020-02-15T16:33:02Z</time>
      </trkpt>
      <trkpt lat="47.05957" lon="5.43811">
        <ele>248.516</ele>
        <time>2020-02-15T16:33:04Z</time>
      </trkpt>
      <trkpt lat="47.05955" lon="5.43814">
        <ele>248.714</ele>
        <time>2020-02-15T16:33:05Z</time>
      </trkpt>
      <trkpt lat="47.05953" lon="5.43819">
        <ele>247.945</ele>
        <time>2020-02-15T16:33:07Z</time>
      </trkpt>
      <trkpt lat="47.05948" lon="5.43827">
        <ele>247.956</ele>
        <time>2020-02-15T16:33:12Z</time>
      </trkpt>
      <trkpt lat="47.05947" lon="5.43834">
        <ele>247.413</ele>
        <time>2020-02-15T16:33:17Z</time>
      </trkpt>
      <trkpt lat="47.05947" lon="5.43841">
        <ele>247.209</ele>
        <time>2020-02-15T16:33:24Z</time>
      </trkpt>
      <trkpt lat="47.05944" lon="5.43847">
        <ele>246.653</ele>
        <time>2020-02-15T16:33:28Z</time>
      </trkpt>
      <trkpt lat="47.05942" lon="5.43853">
        <ele>246.053</ele>
        <time>2020-02-15T16:33:32Z</time>
      </trkpt>
      <trkpt lat="47.0594" lon="5.43862">
        <ele>245.27</ele>
        <time>2020-02-15T16:33:35Z</time>
      </trkpt>
      <trkpt lat="47.05931" lon="5.43862">
        <ele>245.741</ele>
        <time>2020-02-15T16:33:41Z</time>
      </trkpt>
      <trkpt lat="47.05926" lon="5.43867">
        <ele>247.185</ele>
        <time>2020-02-15T16:33:45Z</time>
      </trkpt>
      <trkpt lat="47.05923" lon="5.4387">
        <ele>246.866</ele>
        <time>2020-02-15T16:33:47Z</time>
      </trkpt>
      <trkpt lat="47.0592" lon="5.43875">
        <ele>246.809</ele>
        <time>2020-02-15T16:33:49Z</time>
      </trkpt>
      <trkpt lat="47.05916" lon="5.43881">
        <ele>247.746</ele>
        <time>2020-02-15T16:33:52Z</time>
      </trkpt>
      <trkpt lat="47.05912" lon="5.43885">
        <ele>249.15</ele>
        <time>2020-02-15T16:33:55Z</time>
      </trkpt>
      <trkpt lat="47.0591" lon="5.43887">
        <ele>249.243</ele>
        <time>2020-02-15T16:33:57Z</time>
      </trkpt>
      <trkpt lat="47.05905" lon="5.43889">
        <ele>250.153</ele>
        <time>2020-02-15T16:34:01Z</time>
      </trkpt>
      <trkpt lat="47.05899" lon="5.4389">
        <ele>248.615</ele>
        <time>2020-02-15T16:34:06Z</time>
      </trkpt>
      <trkpt lat="47.05895" lon="5.43895">
        <ele>246.902</ele>
        <time>2020-02-15T16:34:10Z</time>
      </trkpt>
      <trkpt lat="47.05893" lon="5.43902">
        <ele>246.393</ele>
        <time>2020-02-15T16:34:12Z</time>
      </trkpt>
      <trkpt lat="47.05891" lon="5.43908">
        <ele>246.181</ele>
        <time>2020-02-15T16:34:14Z</time>
      </trkpt>
      <trkpt lat="47.05889" lon="5.43914">
        <ele>245.623</ele>
        <time>2020-02-15T16:34:17Z</time>
      </trkpt>
      <trkpt lat="47.05885" lon="5.43919">
        <ele>245.294</ele>
        <time>2020-02-15T16:34:22Z</time>
      </trkpt>
      <trkpt lat="47.05881" lon="5.43926">
        <ele>244.877</ele>
        <time>2020-02-15T16:34:25Z</time>
      </trkpt>
      <trkpt lat="47.05877" lon="5.43936">
        <ele>245.563</ele>
        <time>2020-02-15T16:34:29Z</time>
      </trkpt>
      <trkpt lat="47.05875" lon="5.43941">
        <ele>246.182</ele>
        <time>2020-02-15T16:34:31Z</time>
      </trkpt>
      <trkpt lat="47.05871" lon="5.43947">
        <ele>246.727</ele>
        <time>2020-02-15T16:34:34Z</time>
      </trkpt>
      <trkpt lat="47.05865" lon="5.43953">
        <ele>247.357</ele>
        <time>2020-02-15T16:34:38Z</time>
      </trkpt>
      <trkpt lat="47.05862" lon="5.43959">
        <ele>247.798</ele>
        <time>2020-02-15T16:34:41Z</time>
      </trkpt>
      <trkpt lat="47.0586" lon="5.43963">
        <ele>247.501</ele>
        <time>2020-02-15T16:34:44Z</time>
      </trkpt>
      <trkpt lat="47.05857" lon="5.43969">
        <ele>246.483</ele>
        <time>2020-02-15T16:34:47Z</time>
      </trkpt>
      <trkpt lat="47.05853" lon="5.43972">
        <ele>245.349</ele>
        <time>2020-02-15T16:34:51Z</time>
      </trkpt>
      <trkpt lat="47.05849" lon="5.43979">
        <ele>244.907</ele>
        <time>2020-02-15T16:34:55Z</time>
      </trkpt>
      <trkpt lat="47.05845" lon="5.43988">
        <ele>244.248</ele>
        <time>2020-02-15T16:34:59Z</time>
      </trkpt>
      <trkpt lat="47.0584" lon="5.43995">
        <ele>244.419</ele>
        <time>2020-02-15T16:35:03Z</time>
      </trkpt>
      <trkpt lat="47.05834" lon="5.43997">
        <ele>244.915</ele>
        <time>2020-02-15T16:35:07Z</time>
      </trkpt>
      <trkpt lat="47.0583" lon="5.44">
        <ele>245.212</ele>
        <time>2020-02-15T16:35:10Z</time>
      </trkpt>
      <trkpt lat="47.05828" lon="5.44003">
        <ele>245.319</ele>
        <time>2020-02-15T16:35:12Z</time>
      </trkpt>
      <trkpt lat="47.05823" lon="5.44009">
        <ele>246.978</ele>
        <time>2020-02-15T16:35:16Z</time>
      </trkpt>
      <trkpt lat="47.05818" lon="5.44014">
        <ele>249.558</ele>
        <time>2020-02-15T16:35:21Z</time>
      </trkpt>
      <trkpt lat="47.05815" lon="5.4402">
        <ele>250.476</ele>
        <time>2020-02-15T16:35:25Z</time>
      </trkpt>
      <trkpt lat="47.0581" lon="5.44027">
        <ele>251.267</ele>
        <time>2020-02-15T16:35:29Z</time>
      </trkpt>
      <trkpt lat="47.05806" lon="5.44034">
        <ele>251.47</ele>
        <time>2020-02-15T16:35:33Z</time>
      </trkpt>
      <trkpt lat="47.05801" lon="5.44037">
        <ele>251.49</ele>
        <time>2020-02-15T16:35:37Z</time>
      </trkpt>
      <trkpt lat="47.05798" lon="5.44038">
        <ele>251.647</ele>
        <time>2020-02-15T16:35:40Z</time>
      </trkpt>
      <trkpt lat="47.05793" lon="5.44043">
        <ele>251.784</ele>
        <time>2020-02-15T16:35:44Z</time>
      </trkpt>
      <trkpt lat="47.0579" lon="5.44049">
        <ele>252.324</ele>
        <time>2020-02-15T16:35:47Z</time>
      </trkpt>
      <trkpt lat="47.05787" lon="5.44054">
        <ele>252.751</ele>
        <time>2020-02-15T16:35:49Z</time>
      </trkpt>
      <trkpt lat="47.05782" lon="5.4406">
        <ele>252.77</ele>
        <time>2020-02-15T16:35:53Z</time>
      </trkpt>
      <trkpt lat="47.05776" lon="5.44067">
        <ele>253.148</ele>
        <time>2020-02-15T16:35:58Z</time>
      </trkpt>
      <trkpt lat="47.05774" lon="5.44069">
        <ele>252.967</ele>
        <time>2020-02-15T16:36:00Z</time>
      </trkpt>
      <trkpt lat="47.05771" lon="5.44076">
        <ele>253.112</ele>
        <time>2020-02-15T16:36:03Z</time>
      </trkpt>
      <trkpt lat="47.05769" lon="5.44081">
        <ele>253.085</ele>
        <time>2020-02-15T16:36:05Z</time>
      </trkpt>
      <trkpt lat="47.05764" lon="5.44083">
        <ele>253.29</ele>
        <time>2020-02-15T16:36:10Z</time>
      </trkpt>
      <trkpt lat="47.0576" lon="5.44088">
        <ele>253.172</ele>
        <time>2020-02-15T16:36:14Z</time>
      </trkpt>
      <trkpt lat="47.05756" lon="5.44093">
        <ele>253.377</ele>
        <time>2020-02-15T16:36:18Z</time>
      </trkpt>
      <trkpt lat="47.05751" lon="5.44097">
        <ele>252.806</ele>
        <time>2020-02-15T16:36:22Z</time>
      </trkpt>
      <trkpt lat="47.05746" lon="5.44104">
        <ele>251.59</ele>
        <time>2020-02-15T16:36:27Z</time>
      </trkpt>
      <trkpt lat="47.05742" lon="5.44109">
        <ele>252.113</ele>
        <time>2020-02-15T16:36:30Z</time>
      </trkpt>
      <trkpt lat="47.05738" lon="5.44114">
        <ele>252.462</ele>
        <time>2020-02-15T16:36:34Z</time>
      </trkpt>
      <trkpt lat="47.05734" lon="5.44118">
        <ele>251.58</ele>
        <time>2020-02-15T16:36:38Z</time>
      </trkpt>
      <trkpt lat="47.05731" lon="5.44119">
        <ele>251.156</ele>
        <time>2020-02-15T16:36:40Z</time>
      </trkpt>
      <trkpt lat="47.05729" lon="5.44121">
        <ele>251.168</ele>
        <time>2020-02-15T16:36:42Z</time>
      </trkpt>
      <trkpt lat="47.05724" lon="5.44133">
        <ele>250.629</ele>
        <time>2020-02-15T16:36:46Z</time>
      </trkpt>
      <trkpt lat="47.05721" lon="5.44139">
        <ele>250.48</ele>
        <time>2020-02-15T16:36:48Z</time>
      </trkpt>
      <trkpt lat="47.05716" lon="5.44145">
        <ele>250.534</ele>
        <time>2020-02-15T16:36:52Z</time>
      </trkpt>
      <trkpt lat="47.05714" lon="5.44148">
        <ele>250.054</ele>
        <time>2020-02-15T16:36:54Z</time>
      </trkpt>
      <trkpt lat="47.05711" lon="5.44153">
        <ele>250.076</ele>
        <time>2020-02-15T16:36:57Z</time>
      </trkpt>
      <trkpt lat="47.05708" lon="5.44157">
        <ele>249.913</ele>
        <time>2020-02-15T16:37:00Z</time>
      </trkpt>
      <trkpt lat="47.05705" lon="5.44165">
        <ele>250.092</ele>
        <time>2020-02-15T16:37:03Z</time>
      </trkpt>
      <trkpt lat="47.05703" lon="5.44172">
        <ele>250.201</ele>
        <time>2020-02-15T16:37:05Z</time>
      </trkpt>
      <trkpt lat="47.05698" lon="5.44176">
        <ele>249.354</ele>
        <time>2020-02-15T16:37:11Z</time>
      </trkpt>
      <trkpt lat="47.05693" lon="5.44178">
        <ele>248.389</ele>
        <time>2020-02-15T16:37:15Z</time>
      </trkpt>
      <trkpt lat="47.05689" lon="5.44183">
        <ele>247.926</ele>
        <time>2020-02-15T16:37:18Z</time>
      </trkpt>
      <trkpt lat="47.05684" lon="5.44186">
        <ele>246.289</ele>
        <time>2020-02-15T16:37:23Z</time>
      </trkpt>
      <trkpt lat="47.05681" lon="5.44188">
        <ele>246.09</ele>
        <time>2020-02-15T16:37:25Z</time>
      </trkpt>
      <trkpt lat="47.05675" lon="5.44191">
        <ele>245.987</ele>
        <time>2020-02-15T16:37:30Z</time>
      </trkpt>
      <trkpt lat="47.05672" lon="5.44196">
        <ele>246.433</ele>
        <time>2020-02-15T16:37:32Z</time>
      </trkpt>
      <trkpt lat="47.05667" lon="5.44205">
        <ele>247</ele>
        <time>2020-02-15T16:37:36Z</time>
      </trkpt>
      <trkpt lat="47.05664" lon="5.44209">
        <ele>247</ele>
        <time>2020-02-15T16:37:38Z</time>
      </trkpt>
      <trkpt lat="47.05657" lon="5.44214">
        <ele>247.01</ele>
        <time>2020-02-15T16:37:41Z</time>
      </trkpt>
      <trkpt lat="47.05652" lon="5.44211">
        <ele>246.822</ele>
        <time>2020-02-15T16:37:44Z</time>
      </trkpt>
      <trkpt lat="47.0565" lon="5.44209">
        <ele>246.527</ele>
        <time>2020-02-15T16:37:49Z</time>
      </trkpt>
      <trkpt lat="47.05632" lon="5.44268">
        <ele>303.42</ele>
        <time>2020-02-15T16:38:10Z</time>
      </trkpt>
      <trkpt lat="47.05623" lon="5.44249">
        <ele>247.188</ele>
        <time>2020-02-15T16:38:17Z</time>
      </trkpt>
      <trkpt lat="47.05621" lon="5.44258">
        <ele>255.623</ele>
        <time>2020-02-15T16:38:25Z</time>
      </trkpt>
      <trkpt lat="47.05616" lon="5.44269">
        <ele>258.67</ele>
        <time>2020-02-15T16:38:30Z</time>
      </trkpt>
      <trkpt lat="47.05613" lon="5.44274">
        <ele>259.551</ele>
        <time>2020-02-15T16:38:32Z</time>
      </trkpt>
      <trkpt lat="47.05609" lon="5.4428">
        <ele>259.607</ele>
        <time>2020-02-15T16:38:35Z</time>
      </trkpt>
      <trkpt lat="47.05604" lon="5.44285">
        <ele>262.49</ele>
        <time>2020-02-15T16:38:38Z</time>
      </trkpt>
      <trkpt lat="47.05599" lon="5.4429">
        <ele>264.378</ele>
        <time>2020-02-15T16:38:41Z</time>
      </trkpt>
      <trkpt lat="47.05595" lon="5.44296">
        <ele>264.176</ele>
        <time>2020-02-15T16:38:44Z</time>
      </trkpt>
      <trkpt lat="47.0559" lon="5.44297">
        <ele>262.49</ele>
        <time>2020-02-15T16:38:49Z</time>
      </trkpt>
      <trkpt lat="47.05586" lon="5.44301">
        <ele>259.049</ele>
        <time>2020-02-15T16:38:54Z</time>
      </trkpt>
      <trkpt lat="47.05582" lon="5.44308">
        <ele>255.412</ele>
        <time>2020-02-15T16:38:58Z</time>
      </trkpt>
      <trkpt lat="47.05578" lon="5.44312">
        <ele>253.542</ele>
        <time>2020-02-15T16:39:01Z</time>
      </trkpt>
      <trkpt lat="47.05574" lon="5.4432">
        <ele>249.472</ele>
        <time>2020-02-15T16:39:05Z</time>
      </trkpt>
      <trkpt lat="47.05569" lon="5.44325">
        <ele>246.428</ele>
        <time>2020-02-15T16:39:10Z</time>
      </trkpt>
      <trkpt lat="47.05565" lon="5.44331">
        <ele>245.623</ele>
        <time>2020-02-15T16:39:14Z</time>
      </trkpt>
      <trkpt lat="47.05562" lon="5.44335">
        <ele>245.604</ele>
        <time>2020-02-15T16:39:16Z</time>
      </trkpt>
      <trkpt lat="47.05558" lon="5.4434">
        <ele>243.518</ele>
        <time>2020-02-15T16:39:19Z</time>
      </trkpt>
      <trkpt lat="47.05555" lon="5.4435">
        <ele>242.481</ele>
        <time>2020-02-15T16:39:23Z</time>
      </trkpt>
      <trkpt lat="47.05552" lon="5.4436">
        <ele>241.583</ele>
        <time>2020-02-15T16:39:29Z</time>
      </trkpt>
      <trkpt lat="47.05551" lon="5.44365">
        <ele>241.087</ele>
        <time>2020-02-15T16:39:32Z</time>
      </trkpt>
      <trkpt lat="47.05547" lon="5.44376">
        <ele>239.842</ele>
        <time>2020-02-15T16:39:38Z</time>
      </trkpt>
      <trkpt lat="47.05547" lon="5.44384">
        <ele>239.804</ele>
        <time>2020-02-15T16:39:41Z</time>
      </trkpt>
      <trkpt lat="47.05545" lon="5.44399">
        <ele>240.618</ele>
        <time>2020-02-15T16:39:48Z</time>
      </trkpt>
      <trkpt lat="47.05545" lon="5.44408">
        <ele>241.343</ele>
        <time>2020-02-15T16:39:51Z</time>
      </trkpt>
      <trkpt lat="47.05545" lon="5.44412">
        <ele>240.657</ele>
        <time>2020-02-15T16:39:53Z</time>
      </trkpt>
      <trkpt lat="47.05544" lon="5.44419">
        <ele>239.734</ele>
        <time>2020-02-15T16:39:57Z</time>
      </trkpt>
      <trkpt lat="47.05544" lon="5.44426">
        <ele>237.763</ele>
        <time>2020-02-15T16:40:02Z</time>
      </trkpt>
      <trkpt lat="47.05547" lon="5.44432">
        <ele>237.076</ele>
        <time>2020-02-15T16:40:06Z</time>
      </trkpt>
      <trkpt lat="47.05548" lon="5.44435">
        <ele>236.143</ele>
        <time>2020-02-15T16:40:08Z</time>
      </trkpt>
      <trkpt lat="47.0555" lon="5.44448">
        <ele>234.763</ele>
        <time>2020-02-15T16:40:12Z</time>
      </trkpt>
      <trkpt lat="47.05553" lon="5.44452">
        <ele>234.723</ele>
        <time>2020-02-15T16:40:14Z</time>
      </trkpt>
      <trkpt lat="47.05558" lon="5.44461">
        <ele>235.03</ele>
        <time>2020-02-15T16:40:19Z</time>
      </trkpt>
      <trkpt lat="47.05558" lon="5.44468">
        <ele>234.795</ele>
        <time>2020-02-15T16:40:22Z</time>
      </trkpt>
      <trkpt lat="47.05558" lon="5.44474">
        <ele>234.052</ele>
        <time>2020-02-15T16:40:25Z</time>
      </trkpt>
      <trkpt lat="47.05557" lon="5.44482">
        <ele>233.11</ele>
        <time>2020-02-15T16:40:30Z</time>
      </trkpt>
      <trkpt lat="47.0556" lon="5.44493">
        <ele>231.771</ele>
        <time>2020-02-15T16:40:35Z</time>
      </trkpt>
      <trkpt lat="47.05564" lon="5.44504">
        <ele>231.788</ele>
        <time>2020-02-15T16:40:40Z</time>
      </trkpt>
      <trkpt lat="47.05568" lon="5.4451">
        <ele>231.629</ele>
        <time>2020-02-15T16:40:43Z</time>
      </trkpt>
      <trkpt lat="47.05571" lon="5.44517">
        <ele>231.329</ele>
        <time>2020-02-15T16:40:47Z</time>
      </trkpt>
      <trkpt lat="47.05572" lon="5.4452">
        <ele>231.43</ele>
        <time>2020-02-15T16:40:49Z</time>
      </trkpt>
      <trkpt lat="47.05574" lon="5.44527">
        <ele>231.682</ele>
        <time>2020-02-15T16:40:52Z</time>
      </trkpt>
      <trkpt lat="47.05578" lon="5.44537">
        <ele>231.739</ele>
        <time>2020-02-15T16:40:57Z</time>
      </trkpt>
      <trkpt lat="47.05579" lon="5.44546">
        <ele>230.936</ele>
        <time>2020-02-15T16:41:01Z</time>
      </trkpt>
      <trkpt lat="47.0558" lon="5.44551">
        <ele>230.212</ele>
        <time>2020-02-15T16:41:05Z</time>
      </trkpt>
      <trkpt lat="47.05583" lon="5.44557">
        <ele>229.905</ele>
        <time>2020-02-15T16:41:09Z</time>
      </trkpt>
      <trkpt lat="47.05586" lon="5.44566">
        <ele>226.508</ele>
        <time>2020-02-15T16:41:17Z</time>
      </trkpt>
      <trkpt lat="47.05588" lon="5.44569">
        <ele>226.316</ele>
        <time>2020-02-15T16:41:19Z</time>
      </trkpt>
      <trkpt lat="47.05591" lon="5.44576">
        <ele>226.6</ele>
        <time>2020-02-15T16:41:22Z</time>
      </trkpt>
      <trkpt lat="47.05596" lon="5.44583">
        <ele>226.996</ele>
        <time>2020-02-15T16:41:26Z</time>
      </trkpt>
      <trkpt lat="47.05599" lon="5.44589">
        <ele>227.81</ele>
        <time>2020-02-15T16:41:29Z</time>
      </trkpt>
      <trkpt lat="47.05602" lon="5.44598">
        <ele>228.159</ele>
        <time>2020-02-15T16:41:34Z</time>
      </trkpt>
      <trkpt lat="47.05604" lon="5.44605">
        <ele>227.596</ele>
        <time>2020-02-15T16:41:37Z</time>
      </trkpt>
      <trkpt lat="47.05605" lon="5.44612">
        <ele>227.21</ele>
        <time>2020-02-15T16:41:41Z</time>
      </trkpt>
      <trkpt lat="47.05603" lon="5.44618">
        <ele>226.615</ele>
        <time>2020-02-15T16:41:44Z</time>
      </trkpt>
      <trkpt lat="47.05601" lon="5.44623">
        <ele>226.35</ele>
        <time>2020-02-15T16:41:47Z</time>
      </trkpt>
      <trkpt lat="47.05601" lon="5.44634">
        <ele>225.977</ele>
        <time>2020-02-15T16:41:51Z</time>
      </trkpt>
      <trkpt lat="47.05603" lon="5.44642">
        <ele>226.131</ele>
        <time>2020-02-15T16:41:54Z</time>
      </trkpt>
      <trkpt lat="47.05605" lon="5.44651">
        <ele>225.843</ele>
        <time>2020-02-15T16:41:59Z</time>
      </trkpt>
      <trkpt lat="47.05607" lon="5.44658">
        <ele>226.171</ele>
        <time>2020-02-15T16:42:02Z</time>
      </trkpt>
      <trkpt lat="47.0561" lon="5.44663">
        <ele>227.526</ele>
        <time>2020-02-15T16:42:06Z</time>
      </trkpt>
      <trkpt lat="47.05616" lon="5.44671">
        <ele>230.449</ele>
        <time>2020-02-15T16:42:19Z</time>
      </trkpt>
      <trkpt lat="47.05618" lon="5.44679">
        <ele>231.579</ele>
        <time>2020-02-15T16:42:22Z</time>
      </trkpt>
      <trkpt lat="47.05621" lon="5.44687">
        <ele>232.928</ele>
        <time>2020-02-15T16:42:25Z</time>
      </trkpt>
      <trkpt lat="47.05623" lon="5.44693">
        <ele>233.919</ele>
        <time>2020-02-15T16:42:28Z</time>
      </trkpt>
      <trkpt lat="47.05627" lon="5.447">
        <ele>235.383</ele>
        <time>2020-02-15T16:42:31Z</time>
      </trkpt>
      <trkpt lat="47.0563" lon="5.44705">
        <ele>236.17</ele>
        <time>2020-02-15T16:42:33Z</time>
      </trkpt>
      <trkpt lat="47.05633" lon="5.44717">
        <ele>237.583</ele>
        <time>2020-02-15T16:42:37Z</time>
      </trkpt>
      <trkpt lat="47.05638" lon="5.44725">
        <ele>238.3</ele>
        <time>2020-02-15T16:42:42Z</time>
      </trkpt>
      <trkpt lat="47.05641" lon="5.44733">
        <ele>239.21</ele>
        <time>2020-02-15T16:42:46Z</time>
      </trkpt>
      <trkpt lat="47.05644" lon="5.44738">
        <ele>240.482</ele>
        <time>2020-02-15T16:42:49Z</time>
      </trkpt>
      <trkpt lat="47.05646" lon="5.44745">
        <ele>241.889</ele>
        <time>2020-02-15T16:42:53Z</time>
      </trkpt>
      <trkpt lat="47.05646" lon="5.44751">
        <ele>242.241</ele>
        <time>2020-02-15T16:42:56Z</time>
      </trkpt>
      <trkpt lat="47.05651" lon="5.44759">
        <ele>242.703</ele>
        <time>2020-02-15T16:43:01Z</time>
      </trkpt>
      <trkpt lat="47.05653" lon="5.44767">
        <ele>244.514</ele>
        <time>2020-02-15T16:43:05Z</time>
      </trkpt>
      <trkpt lat="47.05656" lon="5.44773">
        <ele>245.656</ele>
        <time>2020-02-15T16:43:08Z</time>
      </trkpt>
      <trkpt lat="47.05659" lon="5.44778">
        <ele>246.173</ele>
        <time>2020-02-15T16:43:12Z</time>
      </trkpt>
      <trkpt lat="47.05663" lon="5.44784">
        <ele>245.745</ele>
        <time>2020-02-15T16:43:15Z</time>
      </trkpt>
      <trkpt lat="47.05666" lon="5.4479">
        <ele>245.684</ele>
        <time>2020-02-15T16:43:19Z</time>
      </trkpt>
      <trkpt lat="47.05668" lon="5.44793">
        <ele>245.911</ele>
        <time>2020-02-15T16:43:22Z</time>
      </trkpt>
      <trkpt lat="47.05672" lon="5.44802">
        <ele>246.118</ele>
        <time>2020-02-15T16:43:27Z</time>
      </trkpt>
      <trkpt lat="47.05672" lon="5.44812">
        <ele>246.534</ele>
        <time>2020-02-15T16:43:32Z</time>
      </trkpt>
      <trkpt lat="47.05673" lon="5.44818">
        <ele>246.804</ele>
        <time>2020-02-15T16:43:35Z</time>
      </trkpt>
      <trkpt lat="47.05675" lon="5.44827">
        <ele>247.027</ele>
        <time>2020-02-15T16:43:39Z</time>
      </trkpt>
      <trkpt lat="47.05676" lon="5.44831">
        <ele>247.165</ele>
        <time>2020-02-15T16:43:41Z</time>
      </trkpt>
      <trkpt lat="47.05677" lon="5.44837">
        <ele>247.647</ele>
        <time>2020-02-15T16:43:45Z</time>
      </trkpt>
      <trkpt lat="47.05678" lon="5.44844">
        <ele>247.948</ele>
        <time>2020-02-15T16:43:48Z</time>
      </trkpt>
      <trkpt lat="47.05678" lon="5.44851">
        <ele>249.603</ele>
        <time>2020-02-15T16:43:51Z</time>
      </trkpt>
      <trkpt lat="47.0568" lon="5.44859">
        <ele>251.732</ele>
        <time>2020-02-15T16:43:54Z</time>
      </trkpt>
      <trkpt lat="47.05683" lon="5.44867">
        <ele>253.312</ele>
        <time>2020-02-15T16:43:57Z</time>
      </trkpt>
      <trkpt lat="47.05687" lon="5.44875">
        <ele>254.424</ele>
        <time>2020-02-15T16:44:01Z</time>
      </trkpt>
      <trkpt lat="47.05693" lon="5.44883">
        <ele>254.874</ele>
        <time>2020-02-15T16:44:06Z</time>
      </trkpt>
      <trkpt lat="47.05695" lon="5.44886">
        <ele>255.108</ele>
        <time>2020-02-15T16:44:08Z</time>
      </trkpt>
      <trkpt lat="47.05699" lon="5.44891">
        <ele>254.857</ele>
        <time>2020-02-15T16:44:12Z</time>
      </trkpt>
      <trkpt lat="47.05701" lon="5.44894">
        <ele>254.906</ele>
        <time>2020-02-15T16:44:14Z</time>
      </trkpt>
      <trkpt lat="47.05704" lon="5.44902">
        <ele>255.097</ele>
        <time>2020-02-15T16:44:19Z</time>
      </trkpt>
      <trkpt lat="47.05706" lon="5.44909">
        <ele>254.873</ele>
        <time>2020-02-15T16:44:24Z</time>
      </trkpt>
      <trkpt lat="47.05707" lon="5.44915">
        <ele>254.992</ele>
        <time>2020-02-15T16:44:27Z</time>
      </trkpt>
      <trkpt lat="47.05709" lon="5.44922">
        <ele>254.873</ele>
        <time>2020-02-15T16:44:30Z</time>
      </trkpt>
      <trkpt lat="47.05711" lon="5.44929">
        <ele>254.415</ele>
        <time>2020-02-15T16:44:33Z</time>
      </trkpt>
      <trkpt lat="47.05711" lon="5.44933">
        <ele>254.547</ele>
        <time>2020-02-15T16:44:35Z</time>
      </trkpt>
      <trkpt lat="47.05718" lon="5.4494">
        <ele>254.806</ele>
        <time>2020-02-15T16:44:40Z</time>
      </trkpt>
      <trkpt lat="47.0572" lon="5.44948">
        <ele>254.721</ele>
        <time>2020-02-15T16:44:43Z</time>
      </trkpt>
      <trkpt lat="47.05723" lon="5.44955">
        <ele>254.677</ele>
        <time>2020-02-15T16:44:46Z</time>
      </trkpt>
      <trkpt lat="47.05726" lon="5.44965">
        <ele>253.646</ele>
        <time>2020-02-15T16:44:51Z</time>
      </trkpt>
      <trkpt lat="47.05725" lon="5.44972">
        <ele>251.323</ele>
        <time>2020-02-15T16:44:55Z</time>
      </trkpt>
      <trkpt lat="47.05727" lon="5.4498">
        <ele>250.754</ele>
        <time>2020-02-15T16:45:00Z</time>
      </trkpt>
      <trkpt lat="47.05725" lon="5.44988">
        <ele>248.252</ele>
        <time>2020-02-15T16:45:05Z</time>
      </trkpt>
      <trkpt lat="47.05727" lon="5.44995">
        <ele>245.504</ele>
        <time>2020-02-15T16:45:09Z</time>
      </trkpt>
      <trkpt lat="47.05728" lon="5.45004">
        <ele>244.204</ele>
        <time>2020-02-15T16:45:13Z</time>
      </trkpt>
      <trkpt lat="47.05726" lon="5.45011">
        <ele>243.434</ele>
        <time>2020-02-15T16:45:17Z</time>
      </trkpt>
      <trkpt lat="47.05729" lon="5.45017">
        <ele>243.76</ele>
        <time>2020-02-15T16:45:20Z</time>
      </trkpt>
      <trkpt lat="47.05732" lon="5.45024">
        <ele>244.36</ele>
        <time>2020-02-15T16:45:23Z</time>
      </trkpt>
      <trkpt lat="47.05734" lon="5.45029">
        <ele>245.222</ele>
        <time>2020-02-15T16:45:25Z</time>
      </trkpt>
      <trkpt lat="47.05736" lon="5.45034">
        <ele>245.384</ele>
        <time>2020-02-15T16:45:27Z</time>
      </trkpt>
      <trkpt lat="47.05738" lon="5.45039">
        <ele>245.987</ele>
        <time>2020-02-15T16:45:29Z</time>
      </trkpt>
      <trkpt lat="47.05739" lon="5.45046">
        <ele>246.493</ele>
        <time>2020-02-15T16:45:33Z</time>
      </trkpt>
      <trkpt lat="47.05741" lon="5.45053">
        <ele>247.602</ele>
        <time>2020-02-15T16:45:36Z</time>
      </trkpt>
      <trkpt lat="47.05742" lon="5.4506">
        <ele>248.03</ele>
        <time>2020-02-15T16:45:39Z</time>
      </trkpt>
      <trkpt lat="47.05745" lon="5.45067">
        <ele>248.331</ele>
        <time>2020-02-15T16:45:43Z</time>
      </trkpt>
      <trkpt lat="47.05746" lon="5.45071">
        <ele>248.627</ele>
        <time>2020-02-15T16:45:45Z</time>
      </trkpt>
      <trkpt lat="47.05748" lon="5.45077">
        <ele>248.851</ele>
        <time>2020-02-15T16:45:48Z</time>
      </trkpt>
      <trkpt lat="47.05752" lon="5.45083">
        <ele>248.078</ele>
        <time>2020-02-15T16:45:52Z</time>
      </trkpt>
      <trkpt lat="47.05753" lon="5.45087">
        <ele>247.907</ele>
        <time>2020-02-15T16:45:54Z</time>
      </trkpt>
      <trkpt lat="47.05757" lon="5.45093">
        <ele>248.164</ele>
        <time>2020-02-15T16:45:58Z</time>
      </trkpt>
      <trkpt lat="47.05759" lon="5.45097">
        <ele>247.987</ele>
        <time>2020-02-15T16:46:02Z</time>
      </trkpt>
      <trkpt lat="47.0576" lon="5.45106">
        <ele>247.476</ele>
        <time>2020-02-15T16:46:05Z</time>
      </trkpt>
      <trkpt lat="47.05762" lon="5.45114">
        <ele>246.349</ele>
        <time>2020-02-15T16:46:07Z</time>
      </trkpt>
      <trkpt lat="47.05764" lon="5.4512">
        <ele>245.053</ele>
        <time>2020-02-15T16:46:10Z</time>
      </trkpt>
      <trkpt lat="47.05768" lon="5.45124">
        <ele>243.68</ele>
        <time>2020-02-15T16:46:15Z</time>
      </trkpt>
      <trkpt lat="47.0577" lon="5.45133">
        <ele>242.852</ele>
        <time>2020-02-15T16:46:22Z</time>
      </trkpt>
      <trkpt lat="47.05773" lon="5.45141">
        <ele>242.822</ele>
        <time>2020-02-15T16:46:27Z</time>
      </trkpt>
      <trkpt lat="47.05775" lon="5.45149">
        <ele>241.734</ele>
        <time>2020-02-15T16:46:31Z</time>
      </trkpt>
      <trkpt lat="47.05778" lon="5.45156">
        <ele>241.195</ele>
        <time>2020-02-15T16:46:34Z</time>
      </trkpt>
      <trkpt lat="47.05779" lon="5.45159">
        <ele>240.718</ele>
        <time>2020-02-15T16:46:36Z</time>
      </trkpt>
      <trkpt lat="47.0578" lon="5.45169">
        <ele>240.496</ele>
        <time>2020-02-15T16:46:41Z</time>
      </trkpt>
      <trkpt lat="47.0578" lon="5.45176">
        <ele>240.487</ele>
        <time>2020-02-15T16:46:45Z</time>
      </trkpt>
      <trkpt lat="47.05782" lon="5.45186">
        <ele>241.052</ele>
        <time>2020-02-15T16:46:52Z</time>
      </trkpt>
      <trkpt lat="47.05782" lon="5.4519">
        <ele>240.92</ele>
        <time>2020-02-15T16:46:54Z</time>
      </trkpt>
      <trkpt lat="47.05786" lon="5.452">
        <ele>241.698</ele>
        <time>2020-02-15T16:46:58Z</time>
      </trkpt>
      <trkpt lat="47.05787" lon="5.45211">
        <ele>242.937</ele>
        <time>2020-02-15T16:47:02Z</time>
      </trkpt>
      <trkpt lat="47.05792" lon="5.45219">
        <ele>243.997</ele>
        <time>2020-02-15T16:47:05Z</time>
      </trkpt>
      <trkpt lat="47.05796" lon="5.45225">
        <ele>245.576</ele>
        <time>2020-02-15T16:47:08Z</time>
      </trkpt>
      <trkpt lat="47.05803" lon="5.45233">
        <ele>247.175</ele>
        <time>2020-02-15T16:47:12Z</time>
      </trkpt>
      <trkpt lat="47.05806" lon="5.45241">
        <ele>247.244</ele>
        <time>2020-02-15T16:47:16Z</time>
      </trkpt>
      <trkpt lat="47.05807" lon="5.45245">
        <ele>247.335</ele>
        <time>2020-02-15T16:47:18Z</time>
      </trkpt>
      <trkpt lat="47.05811" lon="5.45253">
        <ele>246.535</ele>
        <time>2020-02-15T16:47:24Z</time>
      </trkpt>
      <trkpt lat="47.05812" lon="5.4526">
        <ele>247.132</ele>
        <time>2020-02-15T16:47:27Z</time>
      </trkpt>
      <trkpt lat="47.05813" lon="5.45267">
        <ele>246.862</ele>
        <time>2020-02-15T16:47:30Z</time>
      </trkpt>
      <trkpt lat="47.05814" lon="5.45272">
        <ele>246.702</ele>
        <time>2020-02-15T16:47:32Z</time>
      </trkpt>
      <trkpt lat="47.05817" lon="5.45277">
        <ele>245.49</ele>
        <time>2020-02-15T16:47:36Z</time>
      </trkpt>
      <trkpt lat="47.0582" lon="5.45286">
        <ele>245.645</ele>
        <time>2020-02-15T16:47:42Z</time>
      </trkpt>
      <trkpt lat="47.05821" lon="5.45291">
        <ele>246.345</ele>
        <time>2020-02-15T16:47:46Z</time>
      </trkpt>
      <trkpt lat="47.05823" lon="5.45298">
        <ele>247.273</ele>
        <time>2020-02-15T16:47:49Z</time>
      </trkpt>
      <trkpt lat="47.05825" lon="5.45307">
        <ele>247.378</ele>
        <time>2020-02-15T16:47:55Z</time>
      </trkpt>
      <trkpt lat="47.05827" lon="5.45314">
        <ele>247.415</ele>
        <time>2020-02-15T16:47:59Z</time>
      </trkpt>
      <trkpt lat="47.05832" lon="5.45324">
        <ele>247.314</ele>
        <time>2020-02-15T16:48:02Z</time>
      </trkpt>
      <trkpt lat="47.05836" lon="5.45329">
        <ele>246.883</ele>
        <time>2020-02-15T16:48:04Z</time>
      </trkpt>
      <trkpt lat="47.05835" lon="5.45338">
        <ele>247.385</ele>
        <time>2020-02-15T16:48:09Z</time>
      </trkpt>
      <trkpt lat="47.05831" lon="5.45345">
        <ele>248.297</ele>
        <time>2020-02-15T16:48:13Z</time>
      </trkpt>
      <trkpt lat="47.05834" lon="5.45354">
        <ele>247.415</ele>
        <time>2020-02-15T16:48:18Z</time>
      </trkpt>
      <trkpt lat="47.05837" lon="5.45362">
        <ele>246.458</ele>
        <time>2020-02-15T16:48:21Z</time>
      </trkpt>
      <trkpt lat="47.05841" lon="5.45367">
        <ele>244.96</ele>
        <time>2020-02-15T16:48:24Z</time>
      </trkpt>
      <trkpt lat="47.05842" lon="5.45376">
        <ele>244.56</ele>
        <time>2020-02-15T16:48:28Z</time>
      </trkpt>
      <trkpt lat="47.05843" lon="5.45382">
        <ele>244.185</ele>
        <time>2020-02-15T16:48:31Z</time>
      </trkpt>
      <trkpt lat="47.05847" lon="5.4539">
        <ele>242.643</ele>
        <time>2020-02-15T16:48:36Z</time>
      </trkpt>
      <trkpt lat="47.0585" lon="5.45396">
        <ele>242.31</ele>
        <time>2020-02-15T16:48:39Z</time>
      </trkpt>
      <trkpt lat="47.0585" lon="5.45404">
        <ele>241.427</ele>
        <time>2020-02-15T16:48:44Z</time>
      </trkpt>
      <trkpt lat="47.05852" lon="5.45411">
        <ele>241.547</ele>
        <time>2020-02-15T16:48:48Z</time>
      </trkpt>
      <trkpt lat="47.05855" lon="5.45419">
        <ele>240.605</ele>
        <time>2020-02-15T16:48:52Z</time>
      </trkpt>
      <trkpt lat="47.05858" lon="5.45425">
        <ele>240.023</ele>
        <time>2020-02-15T16:48:54Z</time>
      </trkpt>
      <trkpt lat="47.0586" lon="5.45434">
        <ele>240.658</ele>
        <time>2020-02-15T16:49:02Z</time>
      </trkpt>
      <trkpt lat="47.05861" lon="5.45438">
        <ele>241.309</ele>
        <time>2020-02-15T16:49:04Z</time>
      </trkpt>
      <trkpt lat="47.05865" lon="5.45443">
        <ele>242.019</ele>
        <time>2020-02-15T16:49:08Z</time>
      </trkpt>
      <trkpt lat="47.05864" lon="5.45454">
        <ele>242.543</ele>
        <time>2020-02-15T16:49:12Z</time>
      </trkpt>
      <trkpt lat="47.05864" lon="5.45462">
        <ele>243.713</ele>
        <time>2020-02-15T16:49:15Z</time>
      </trkpt>
      <trkpt lat="47.05866" lon="5.4547">
        <ele>245.712</ele>
        <time>2020-02-15T16:49:19Z</time>
      </trkpt>
      <trkpt lat="47.05868" lon="5.45477">
        <ele>244.873</ele>
        <time>2020-02-15T16:49:25Z</time>
      </trkpt>
      <trkpt lat="47.05868" lon="5.45481">
        <ele>244.619</ele>
        <time>2020-02-15T16:49:26Z</time>
      </trkpt>
      <trkpt lat="47.05874" lon="5.45491">
        <ele>243.223</ele>
        <time>2020-02-15T16:49:30Z</time>
      </trkpt>
      <trkpt lat="47.05878" lon="5.45501">
        <ele>242.759</ele>
        <time>2020-02-15T16:49:34Z</time>
      </trkpt>
      <trkpt lat="47.05882" lon="5.45508">
        <ele>242.678</ele>
        <time>2020-02-15T16:49:37Z</time>
      </trkpt>
      <trkpt lat="47.05884" lon="5.45514">
        <ele>243.222</ele>
        <time>2020-02-15T16:49:39Z</time>
      </trkpt>
      <trkpt lat="47.05886" lon="5.45521">
        <ele>245.17</ele>
        <time>2020-02-15T16:49:42Z</time>
      </trkpt>
      <trkpt lat="47.0589" lon="5.45527">
        <ele>245.987</ele>
        <time>2020-02-15T16:49:45Z</time>
      </trkpt>
      <trkpt lat="47.05893" lon="5.45533">
        <ele>245.56</ele>
        <time>2020-02-15T16:49:49Z</time>
      </trkpt>
      <trkpt lat="47.05895" lon="5.45537">
        <ele>245.348</ele>
        <time>2020-02-15T16:49:53Z</time>
      </trkpt>
      <trkpt lat="47.05899" lon="5.45545">
        <ele>245.379</ele>
        <time>2020-02-15T16:49:58Z</time>
      </trkpt>
      <trkpt lat="47.05902" lon="5.45553">
        <ele>243.85</ele>
        <time>2020-02-15T16:50:03Z</time>
      </trkpt>
      <trkpt lat="47.05904" lon="5.4556">
        <ele>240.231</ele>
        <time>2020-02-15T16:50:07Z</time>
      </trkpt>
      <trkpt lat="47.05906" lon="5.45569">
        <ele>236.323</ele>
        <time>2020-02-15T16:50:13Z</time>
      </trkpt>
      <trkpt lat="47.05909" lon="5.45577">
        <ele>236.006</ele>
        <time>2020-02-15T16:50:16Z</time>
      </trkpt>
      <trkpt lat="47.05912" lon="5.45584">
        <ele>237.355</ele>
        <time>2020-02-15T16:50:20Z</time>
      </trkpt>
      <trkpt lat="47.05914" lon="5.45591">
        <ele>239.031</ele>
        <time>2020-02-15T16:50:23Z</time>
      </trkpt>
      <trkpt lat="47.05915" lon="5.45595">
        <ele>239.805</ele>
        <time>2020-02-15T16:50:25Z</time>
      </trkpt>
      <trkpt lat="47.05916" lon="5.45604">
        <ele>240.576</ele>
        <time>2020-02-15T16:50:29Z</time>
      </trkpt>
      <trkpt lat="47.05918" lon="5.45613">
        <ele>241.291</ele>
        <time>2020-02-15T16:50:32Z</time>
      </trkpt>
      <trkpt lat="47.05918" lon="5.4562">
        <ele>239.801</ele>
        <time>2020-02-15T16:50:36Z</time>
      </trkpt>
      <trkpt lat="47.05921" lon="5.45625">
        <ele>238.345</ele>
        <time>2020-02-15T16:50:42Z</time>
      </trkpt>
      <trkpt lat="47.05922" lon="5.45632">
        <ele>238.582</ele>
        <time>2020-02-15T16:50:45Z</time>
      </trkpt>
      <trkpt lat="47.05922" lon="5.45639">
        <ele>238.624</ele>
        <time>2020-02-15T16:50:50Z</time>
      </trkpt>
      <trkpt lat="47.05925" lon="5.45645">
        <ele>238.431</ele>
        <time>2020-02-15T16:50:54Z</time>
      </trkpt>
      <trkpt lat="47.05928" lon="5.45654">
        <ele>236.965</ele>
        <time>2020-02-15T16:51:00Z</time>
      </trkpt>
      <trkpt lat="47.05934" lon="5.45663">
        <ele>235.907</ele>
        <time>2020-02-15T16:51:04Z</time>
      </trkpt>
      <trkpt lat="47.05937" lon="5.45668">
        <ele>235.523</ele>
        <time>2020-02-15T16:51:06Z</time>
      </trkpt>
      <trkpt lat="47.05939" lon="5.45676">
        <ele>234.818</ele>
        <time>2020-02-15T16:51:10Z</time>
      </trkpt>
      <trkpt lat="47.05943" lon="5.45684">
        <ele>234.881</ele>
        <time>2020-02-15T16:51:13Z</time>
      </trkpt>
      <trkpt lat="47.05945" lon="5.45688">
        <ele>235.344</ele>
        <time>2020-02-15T16:51:15Z</time>
      </trkpt>
      <trkpt lat="47.05947" lon="5.45691">
        <ele>236.355</ele>
        <time>2020-02-15T16:51:19Z</time>
      </trkpt>
      <trkpt lat="47.0595" lon="5.45702">
        <ele>238.179</ele>
        <time>2020-02-15T16:51:25Z</time>
      </trkpt>
      <trkpt lat="47.05953" lon="5.45711">
        <ele>239.518</ele>
        <time>2020-02-15T16:51:29Z</time>
      </trkpt>
      <trkpt lat="47.05954" lon="5.45719">
        <ele>240.785</ele>
        <time>2020-02-15T16:51:33Z</time>
      </trkpt>
      <trkpt lat="47.05957" lon="5.45724">
        <ele>242.168</ele>
        <time>2020-02-15T16:51:36Z</time>
      </trkpt>
      <trkpt lat="47.0596" lon="5.45734">
        <ele>244.058</ele>
        <time>2020-02-15T16:51:40Z</time>
      </trkpt>
      <trkpt lat="47.05962" lon="5.4574">
        <ele>245.485</ele>
        <time>2020-02-15T16:51:43Z</time>
      </trkpt>
      <trkpt lat="47.05964" lon="5.45747">
        <ele>245.855</ele>
        <time>2020-02-15T16:51:46Z</time>
      </trkpt>
      <trkpt lat="47.05967" lon="5.45754">
        <ele>245.949</ele>
        <time>2020-02-15T16:51:51Z</time>
      </trkpt>
      <trkpt lat="47.05971" lon="5.45758">
        <ele>246.92</ele>
        <time>2020-02-15T16:51:57Z</time>
      </trkpt>
      <trkpt lat="47.05969" lon="5.45766">
        <ele>245.581</ele>
        <time>2020-02-15T16:52:05Z</time>
      </trkpt>
      <trkpt lat="47.05978" lon="5.45774">
        <ele>243.803</ele>
        <time>2020-02-15T16:52:17Z</time>
      </trkpt>
      <trkpt lat="47.05984" lon="5.45776">
        <ele>243.394</ele>
        <time>2020-02-15T16:52:20Z</time>
      </trkpt>
      <trkpt lat="47.05987" lon="5.45786">
        <ele>242.963</ele>
        <time>2020-02-15T16:52:23Z</time>
      </trkpt>
      <trkpt lat="47.0599" lon="5.45792">
        <ele>242.171</ele>
        <time>2020-02-15T16:52:25Z</time>
      </trkpt>
      <trkpt lat="47.05993" lon="5.45797">
        <ele>240.792</ele>
        <time>2020-02-15T16:52:29Z</time>
      </trkpt>
      <trkpt lat="47.05998" lon="5.45801">
        <ele>240.234</ele>
        <time>2020-02-15T16:52:33Z</time>
      </trkpt>
      <trkpt lat="47.06007" lon="5.45804">
        <ele>240.076</ele>
        <time>2020-02-15T16:52:36Z</time>
      </trkpt>
      <trkpt lat="47.06014" lon="5.45805">
        <ele>239.74</ele>
        <time>2020-02-15T16:52:38Z</time>
      </trkpt>
      <trkpt lat="47.0602" lon="5.45808">
        <ele>239.774</ele>
        <time>2020-02-15T16:52:41Z</time>
      </trkpt>
      <trkpt lat="47.06025" lon="5.4581">
        <ele>239.558</ele>
        <time>2020-02-15T16:52:44Z</time>
      </trkpt>
      <trkpt lat="47.06029" lon="5.45813">
        <ele>240.112</ele>
        <time>2020-02-15T16:52:47Z</time>
      </trkpt>
      <trkpt lat="47.06036" lon="5.45815">
        <ele>241.636</ele>
        <time>2020-02-15T16:52:51Z</time>
      </trkpt>
      <trkpt lat="47.0604" lon="5.45821">
        <ele>241.721</ele>
        <time>2020-02-15T16:52:57Z</time>
      </trkpt>
      <trkpt lat="47.06043" lon="5.45826">
        <ele>238.859</ele>
        <time>2020-02-15T16:53:04Z</time>
      </trkpt>
      <trkpt lat="47.06045" lon="5.45834">
        <ele>239.42</ele>
        <time>2020-02-15T16:53:11Z</time>
      </trkpt>
      <trkpt lat="47.06049" lon="5.45841">
        <ele>238.049</ele>
        <time>2020-02-15T16:53:15Z</time>
      </trkpt>
      <trkpt lat="47.06057" lon="5.45843">
        <ele>238.008</ele>
        <time>2020-02-15T16:53:20Z</time>
      </trkpt>
      <trkpt lat="47.06061" lon="5.45843">
        <ele>237.855</ele>
        <time>2020-02-15T16:53:22Z</time>
      </trkpt>
      <trkpt lat="47.06067" lon="5.45845">
        <ele>238.043</ele>
        <time>2020-02-15T16:53:25Z</time>
      </trkpt>
      <trkpt lat="47.06071" lon="5.45847">
        <ele>238.929</ele>
        <time>2020-02-15T16:53:27Z</time>
      </trkpt>
      <trkpt lat="47.06076" lon="5.45849">
        <ele>240.451</ele>
        <time>2020-02-15T16:53:30Z</time>
      </trkpt>
      <trkpt lat="47.06083" lon="5.45851">
        <ele>243.629</ele>
        <time>2020-02-15T16:53:33Z</time>
      </trkpt>
      <trkpt lat="47.0609" lon="5.45852">
        <ele>246.212</ele>
        <time>2020-02-15T16:53:35Z</time>
      </trkpt>
      <trkpt lat="47.06092" lon="5.45852">
        <ele>246.914</ele>
        <time>2020-02-15T16:53:36Z</time>
      </trkpt>
      <trkpt lat="47.06095" lon="5.45852">
        <ele>247.935</ele>
        <time>2020-02-15T16:53:37Z</time>
      </trkpt>
      <trkpt lat="47.06101" lon="5.45857">
        <ele>249.546</ele>
        <time>2020-02-15T16:53:40Z</time>
      </trkpt>
      <trkpt lat="47.06107" lon="5.45861">
        <ele>249.282</ele>
        <time>2020-02-15T16:53:43Z</time>
      </trkpt>
      <trkpt lat="47.06113" lon="5.45864">
        <ele>249.04</ele>
        <time>2020-02-15T16:53:47Z</time>
      </trkpt>
      <trkpt lat="47.06118" lon="5.45869">
        <ele>250.117</ele>
        <time>2020-02-15T16:53:50Z</time>
      </trkpt>
      <trkpt lat="47.06123" lon="5.45872">
        <ele>251.892</ele>
        <time>2020-02-15T16:53:53Z</time>
      </trkpt>
      <trkpt lat="47.06126" lon="5.45874">
        <ele>253.356</ele>
        <time>2020-02-15T16:53:55Z</time>
      </trkpt>
      <trkpt lat="47.06131" lon="5.45879">
        <ele>254.561</ele>
        <time>2020-02-15T16:53:59Z</time>
      </trkpt>
      <trkpt lat="47.06133" lon="5.45881">
        <ele>254.482</ele>
        <time>2020-02-15T16:54:03Z</time>
      </trkpt>
      <trkpt lat="47.06136" lon="5.45883">
        <ele>254.254</ele>
        <time>2020-02-15T16:54:06Z</time>
      </trkpt>
      <trkpt lat="47.06138" lon="5.4589">
        <ele>253.46</ele>
        <time>2020-02-15T16:54:10Z</time>
      </trkpt>
      <trkpt lat="47.06138" lon="5.45894">
        <ele>253.453</ele>
        <time>2020-02-15T16:54:12Z</time>
      </trkpt>
      <trkpt lat="47.06141" lon="5.459">
        <ele>253.312</ele>
        <time>2020-02-15T16:54:17Z</time>
      </trkpt>
      <trkpt lat="47.06146" lon="5.45904">
        <ele>253.82</ele>
        <time>2020-02-15T16:54:20Z</time>
      </trkpt>
      <trkpt lat="47.0615" lon="5.45908">
        <ele>254.392</ele>
        <time>2020-02-15T16:54:24Z</time>
      </trkpt>
      <trkpt lat="47.06153" lon="5.45914">
        <ele>255.169</ele>
        <time>2020-02-15T16:54:27Z</time>
      </trkpt>
      <trkpt lat="47.06154" lon="5.45918">
        <ele>255.721</ele>
        <time>2020-02-15T16:54:30Z</time>
      </trkpt>
      <trkpt lat="47.06155" lon="5.45921">
        <ele>255.772</ele>
        <time>2020-02-15T16:54:33Z</time>
      </trkpt>
      <trkpt lat="47.06168" lon="5.45931">
        <ele>258.05</ele>
        <time>2020-02-15T16:54:39Z</time>
      </trkpt>
      <trkpt lat="47.06175" lon="5.45934">
        <ele>259.15</ele>
        <time>2020-02-15T16:54:43Z</time>
      </trkpt>
      <trkpt lat="47.06177" lon="5.45936">
        <ele>259.002</ele>
        <time>2020-02-15T16:54:45Z</time>
      </trkpt>
      <trkpt lat="47.06182" lon="5.45936">
        <ele>256.942</ele>
        <time>2020-02-15T16:54:51Z</time>
      </trkpt>
      <trkpt lat="47.06188" lon="5.45936">
        <ele>255.51</ele>
        <time>2020-02-15T16:54:54Z</time>
      </trkpt>
      <trkpt lat="47.06191" lon="5.45936">
        <ele>254.529</ele>
        <time>2020-02-15T16:54:56Z</time>
      </trkpt>
      <trkpt lat="47.06196" lon="5.45939">
        <ele>253.451</ele>
        <time>2020-02-15T16:55:00Z</time>
      </trkpt>
      <trkpt lat="47.062" lon="5.45946">
        <ele>252.044</ele>
        <time>2020-02-15T16:55:07Z</time>
      </trkpt>
      <trkpt lat="47.06205" lon="5.4595">
        <ele>252.64</ele>
        <time>2020-02-15T16:55:13Z</time>
      </trkpt>
      <trkpt lat="47.06211" lon="5.45951">
        <ele>253.259</ele>
        <time>2020-02-15T16:55:18Z</time>
      </trkpt>
      <trkpt lat="47.06215" lon="5.45951">
        <ele>252.673</ele>
        <time>2020-02-15T16:55:20Z</time>
      </trkpt>
      <trkpt lat="47.0622" lon="5.45951">
        <ele>251.864</ele>
        <time>2020-02-15T16:55:23Z</time>
      </trkpt>
      <trkpt lat="47.06226" lon="5.45945">
        <ele>250.611</ele>
        <time>2020-02-15T16:55:29Z</time>
      </trkpt>
      <trkpt lat="47.06231" lon="5.45936">
        <ele>249.544</ele>
        <time>2020-02-15T16:55:33Z</time>
      </trkpt>
      <trkpt lat="47.0623" lon="5.45928">
        <ele>248.563</ele>
        <time>2020-02-15T16:55:36Z</time>
      </trkpt>
      <trkpt lat="47.06233" lon="5.4592">
        <ele>247.785</ele>
        <time>2020-02-15T16:55:39Z</time>
      </trkpt>
      <trkpt lat="47.06237" lon="5.45915">
        <ele>247.173</ele>
        <time>2020-02-15T16:55:43Z</time>
      </trkpt>
      <trkpt lat="47.06239" lon="5.45903">
        <ele>246.684</ele>
        <time>2020-02-15T16:55:47Z</time>
      </trkpt>
      <trkpt lat="47.06237" lon="5.45895">
        <ele>246.321</ele>
        <time>2020-02-15T16:55:51Z</time>
      </trkpt>
      <trkpt lat="47.06235" lon="5.45889">
        <ele>245.865</ele>
        <time>2020-02-15T16:55:59Z</time>
      </trkpt>
      <trkpt lat="47.0623" lon="5.45884">
        <ele>246.616</ele>
        <time>2020-02-15T16:56:03Z</time>
      </trkpt>
      <trkpt lat="47.0623" lon="5.45876">
        <ele>246.91</ele>
        <time>2020-02-15T16:56:07Z</time>
      </trkpt>
      <trkpt lat="47.06233" lon="5.45868">
        <ele>245.748</ele>
        <time>2020-02-15T16:56:11Z</time>
      </trkpt>
      <trkpt lat="47.0623" lon="5.45861">
        <ele>246.148</ele>
        <time>2020-02-15T16:56:18Z</time>
      </trkpt>
      <trkpt lat="47.06226" lon="5.45857">
        <ele>246.279</ele>
        <time>2020-02-15T16:56:19Z</time>
      </trkpt>
      <trkpt lat="47.06223" lon="5.45843">
        <ele>248.157</ele>
        <time>2020-02-15T16:56:23Z</time>
      </trkpt>
      <trkpt lat="47.06222" lon="5.45837">
        <ele>247.738</ele>
        <time>2020-02-15T16:56:25Z</time>
      </trkpt>
      <trkpt lat="47.06221" lon="5.45832">
        <ele>247.1</ele>
        <time>2020-02-15T16:56:27Z</time>
      </trkpt>
      <trkpt lat="47.0622" lon="5.45824">
        <ele>245.505</ele>
        <time>2020-02-15T16:56:31Z</time>
      </trkpt>
      <trkpt lat="47.06217" lon="5.45818">
        <ele>243.946</ele>
        <time>2020-02-15T16:56:35Z</time>
      </trkpt>
      <trkpt lat="47.0621" lon="5.45811">
        <ele>244.849</ele>
        <time>2020-02-15T16:56:39Z</time>
      </trkpt>
      <trkpt lat="47.06209" lon="5.45802">
        <ele>245.69</ele>
        <time>2020-02-15T16:56:42Z</time>
      </trkpt>
      <trkpt lat="47.06208" lon="5.45795">
        <ele>247.016</ele>
        <time>2020-02-15T16:56:45Z</time>
      </trkpt>
      <trkpt lat="47.06204" lon="5.45791">
        <ele>247.722</ele>
        <time>2020-02-15T16:56:47Z</time>
      </trkpt>
      <trkpt lat="47.062" lon="5.45787">
        <ele>248.786</ele>
        <time>2020-02-15T16:56:49Z</time>
      </trkpt>
      <trkpt lat="47.062" lon="5.45779">
        <ele>250.283</ele>
        <time>2020-02-15T16:56:52Z</time>
      </trkpt>
      <trkpt lat="47.06203" lon="5.45766">
        <ele>254.728</ele>
        <time>2020-02-15T16:57:00Z</time>
      </trkpt>
      <trkpt lat="47.062" lon="5.4576">
        <ele>255.547</ele>
        <time>2020-02-15T16:57:04Z</time>
      </trkpt>
      <trkpt lat="47.06195" lon="5.45754">
        <ele>256.316</ele>
        <time>2020-02-15T16:57:06Z</time>
      </trkpt>
      <trkpt lat="47.06193" lon="5.45747">
        <ele>257.685</ele>
        <time>2020-02-15T16:57:09Z</time>
      </trkpt>
      <trkpt lat="47.06192" lon="5.45739">
        <ele>257.63</ele>
        <time>2020-02-15T16:57:14Z</time>
      </trkpt>
      <trkpt lat="47.06189" lon="5.4573">
        <ele>256.752</ele>
        <time>2020-02-15T16:57:19Z</time>
      </trkpt>
      <trkpt lat="47.06184" lon="5.45726">
        <ele>256.293</ele>
        <time>2020-02-15T16:57:21Z</time>
      </trkpt>
      <trkpt lat="47.06178" lon="5.45724">
        <ele>256.609</ele>
        <time>2020-02-15T16:57:23Z</time>
      </trkpt>
      <trkpt lat="47.06171" lon="5.45721">
        <ele>256.498</ele>
        <time>2020-02-15T16:57:25Z</time>
      </trkpt>
      <trkpt lat="47.06168" lon="5.45716">
        <ele>257.225</ele>
        <time>2020-02-15T16:57:30Z</time>
      </trkpt>
      <trkpt lat="47.0618" lon="5.45713">
        <ele>256.324</ele>
        <time>2020-02-15T16:57:40Z</time>
      </trkpt>
      <trkpt lat="47.0618" lon="5.45713">
        <ele>206</ele>
        <time>2020-02-15T16:58:30Z</time>
      </trkpt>
      <trkpt lat="47.0618" lon="5.45713">
        <ele>206</ele>
        <time>2020-02-15T16:58:31Z</time>
      </trkpt>
    </trkseg>
  </trk>
</gpx>